<?xml version="1.0" encoding="UTF-8" standalone="no" ?>
<gpx xmlns="http://www.topografix.com/GPX/1/1" xmlns:xsi="http://www.w3.org/2001/XMLSchema-instance" xsi:schemaLocation="http://www.topografix.com/GPX/1/1 http://www.topografix.com/GPX/1/1/gpx.xsd" version="1.1" creator="VisuGPX - https://www.visugpx.com">
  <metadata>
    <name>004SG68-8061979</name>
    <desc><![CDATA[
01]]></desc>
  </metadata>
  <trk>
    <name><![CDATA[004SG68-8061979]]></name>
    <trkseg>
      <trkpt lat="46.69911" lon="-1.93375">
        <ele>5</ele>
        <time>2018-01-06T20:20:16Z</time>
      </trkpt>
      <trkpt lat="46.69912" lon="-1.93375">
        <ele>5</ele>
        <time>2018-01-06T20:21:16Z</time>
      </trkpt>
      <trkpt lat="46.69914" lon="-1.93375">
        <ele>5</ele>
        <time>2018-01-06T20:22:16Z</time>
      </trkpt>
      <trkpt lat="46.69915" lon="-1.93376">
        <ele>5</ele>
        <time>2018-01-06T20:23:16Z</time>
      </trkpt>
      <trkpt lat="46.69915" lon="-1.93377">
        <ele>4</ele>
        <time>2018-01-06T20:24:16Z</time>
      </trkpt>
      <trkpt lat="46.69916" lon="-1.93379">
        <ele>4</ele>
        <time>2018-01-06T20:25:16Z</time>
      </trkpt>
      <trkpt lat="46.69916" lon="-1.93382">
        <ele>4</ele>
        <time>2018-01-06T20:26:16Z</time>
      </trkpt>
      <trkpt lat="46.69915" lon="-1.93383">
        <ele>4</ele>
        <time>2018-01-06T20:27:16Z</time>
      </trkpt>
      <trkpt lat="46.69915" lon="-1.93383">
        <ele>4</ele>
        <time>2018-01-06T20:28:16Z</time>
      </trkpt>
      <trkpt lat="46.69922" lon="-1.93383">
        <ele>4</ele>
        <time>2018-01-06T20:29:16Z</time>
      </trkpt>
      <trkpt lat="46.69925" lon="-1.93383">
        <ele>4</ele>
        <time>2018-01-06T20:30:16Z</time>
      </trkpt>
      <trkpt lat="46.69935" lon="-1.93382">
        <ele>4</ele>
        <time>2018-01-06T20:31:16Z</time>
      </trkpt>
      <trkpt lat="46.69944" lon="-1.93381">
        <ele>4</ele>
        <time>2018-01-06T20:32:16Z</time>
      </trkpt>
      <trkpt lat="46.69949" lon="-1.93379">
        <ele>4</ele>
        <time>2018-01-06T20:33:16Z</time>
      </trkpt>
      <trkpt lat="46.69953" lon="-1.93377">
        <ele>4</ele>
        <time>2018-01-06T20:34:16Z</time>
      </trkpt>
      <trkpt lat="46.69958" lon="-1.93375">
        <ele>4</ele>
        <time>2018-01-06T20:35:16Z</time>
      </trkpt>
      <trkpt lat="46.69963" lon="-1.93373">
        <ele>4</ele>
        <time>2018-01-06T20:36:16Z</time>
      </trkpt>
      <trkpt lat="46.69969" lon="-1.9337">
        <ele>4</ele>
        <time>2018-01-06T20:37:16Z</time>
      </trkpt>
      <trkpt lat="46.69973" lon="-1.93367">
        <ele>4</ele>
        <time>2018-01-06T20:38:16Z</time>
      </trkpt>
      <trkpt lat="46.69976" lon="-1.93367">
        <ele>4</ele>
        <time>2018-01-06T20:39:16Z</time>
      </trkpt>
      <trkpt lat="46.69978" lon="-1.93366">
        <ele>3</ele>
        <time>2018-01-06T20:40:16Z</time>
      </trkpt>
      <trkpt lat="46.69979" lon="-1.93366">
        <ele>3</ele>
        <time>2018-01-06T20:41:16Z</time>
      </trkpt>
      <trkpt lat="46.69982" lon="-1.93367">
        <ele>3</ele>
        <time>2018-01-06T20:42:16Z</time>
      </trkpt>
      <trkpt lat="46.69987" lon="-1.93369">
        <ele>3</ele>
        <time>2018-01-06T20:43:16Z</time>
      </trkpt>
      <trkpt lat="46.70002" lon="-1.93375">
        <ele>3</ele>
        <time>2018-01-06T20:44:16Z</time>
      </trkpt>
      <trkpt lat="46.70015" lon="-1.9338">
        <ele>3</ele>
        <time>2018-01-06T20:45:16Z</time>
      </trkpt>
      <trkpt lat="46.7002" lon="-1.93382">
        <ele>3</ele>
        <time>2018-01-06T20:46:16Z</time>
      </trkpt>
      <trkpt lat="46.70023" lon="-1.93384">
        <ele>3</ele>
        <time>2018-01-06T20:47:16Z</time>
      </trkpt>
      <trkpt lat="46.70025" lon="-1.93386">
        <ele>3</ele>
        <time>2018-01-06T20:48:16Z</time>
      </trkpt>
      <trkpt lat="46.70028" lon="-1.93388">
        <ele>3</ele>
        <time>2018-01-06T20:49:16Z</time>
      </trkpt>
      <trkpt lat="46.7003" lon="-1.93391">
        <ele>3</ele>
        <time>2018-01-06T20:50:16Z</time>
      </trkpt>
      <trkpt lat="46.70033" lon="-1.93394">
        <ele>2</ele>
        <time>2018-01-06T20:51:16Z</time>
      </trkpt>
      <trkpt lat="46.70036" lon="-1.93397">
        <ele>2</ele>
        <time>2018-01-06T20:52:16Z</time>
      </trkpt>
      <trkpt lat="46.70038" lon="-1.93398">
        <ele>2</ele>
        <time>2018-01-06T20:53:16Z</time>
      </trkpt>
      <trkpt lat="46.70041" lon="-1.934">
        <ele>2</ele>
        <time>2018-01-06T20:54:16Z</time>
      </trkpt>
      <trkpt lat="46.70043" lon="-1.93401">
        <ele>2</ele>
        <time>2018-01-06T20:55:16Z</time>
      </trkpt>
      <trkpt lat="46.70046" lon="-1.93402">
        <ele>2</ele>
        <time>2018-01-06T20:56:16Z</time>
      </trkpt>
      <trkpt lat="46.70052" lon="-1.93405">
        <ele>2</ele>
        <time>2018-01-06T20:57:16Z</time>
      </trkpt>
      <trkpt lat="46.70052" lon="-1.93404">
        <ele>2</ele>
        <time>2018-01-06T20:58:16Z</time>
      </trkpt>
      <trkpt lat="46.70052" lon="-1.93403">
        <ele>2</ele>
        <time>2018-01-06T20:59:16Z</time>
      </trkpt>
      <trkpt lat="46.70052" lon="-1.93402">
        <ele>2</ele>
        <time>2018-01-06T21:00:16Z</time>
      </trkpt>
      <trkpt lat="46.70052" lon="-1.93401">
        <ele>2</ele>
        <time>2018-01-06T21:01:16Z</time>
      </trkpt>
      <trkpt lat="46.70053" lon="-1.93401">
        <ele>2</ele>
        <time>2018-01-06T21:02:16Z</time>
      </trkpt>
      <trkpt lat="46.70053" lon="-1.934">
        <ele>2</ele>
        <time>2018-01-06T21:03:16Z</time>
      </trkpt>
      <trkpt lat="46.70053" lon="-1.93399">
        <ele>2</ele>
        <time>2018-01-06T21:04:16Z</time>
      </trkpt>
      <trkpt lat="46.70054" lon="-1.93399">
        <ele>2</ele>
        <time>2018-01-06T21:05:16Z</time>
      </trkpt>
      <trkpt lat="46.70054" lon="-1.93398">
        <ele>2</ele>
        <time>2018-01-06T21:06:16Z</time>
      </trkpt>
      <trkpt lat="46.70055" lon="-1.93398">
        <ele>2</ele>
        <time>2018-01-06T21:07:16Z</time>
      </trkpt>
      <trkpt lat="46.70056" lon="-1.93398">
        <ele>2</ele>
        <time>2018-01-06T21:08:16Z</time>
      </trkpt>
      <trkpt lat="46.70056" lon="-1.93397">
        <ele>2</ele>
        <time>2018-01-06T21:09:16Z</time>
      </trkpt>
      <trkpt lat="46.70057" lon="-1.93397">
        <ele>2</ele>
        <time>2018-01-06T21:10:16Z</time>
      </trkpt>
      <trkpt lat="46.70058" lon="-1.93397">
        <ele>2</ele>
        <time>2018-01-06T21:11:16Z</time>
      </trkpt>
      <trkpt lat="46.70059" lon="-1.93398">
        <ele>2</ele>
        <time>2018-01-06T21:12:16Z</time>
      </trkpt>
      <trkpt lat="46.7006" lon="-1.93398">
        <ele>2</ele>
        <time>2018-01-06T21:13:16Z</time>
      </trkpt>
      <trkpt lat="46.7006" lon="-1.93399">
        <ele>2</ele>
        <time>2018-01-06T21:14:16Z</time>
      </trkpt>
      <trkpt lat="46.70061" lon="-1.93399">
        <ele>2</ele>
        <time>2018-01-06T21:15:16Z</time>
      </trkpt>
      <trkpt lat="46.70061" lon="-1.934">
        <ele>2</ele>
        <time>2018-01-06T21:16:16Z</time>
      </trkpt>
      <trkpt lat="46.70061" lon="-1.93401">
        <ele>2</ele>
        <time>2018-01-06T21:17:16Z</time>
      </trkpt>
      <trkpt lat="46.70062" lon="-1.93401">
        <ele>2</ele>
        <time>2018-01-06T21:18:16Z</time>
      </trkpt>
      <trkpt lat="46.70062" lon="-1.93402">
        <ele>2</ele>
        <time>2018-01-06T21:19:16Z</time>
      </trkpt>
      <trkpt lat="46.70062" lon="-1.93403">
        <ele>2</ele>
        <time>2018-01-06T21:20:16Z</time>
      </trkpt>
      <trkpt lat="46.70062" lon="-1.93404">
        <ele>2</ele>
        <time>2018-01-06T21:21:16Z</time>
      </trkpt>
      <trkpt lat="46.70062" lon="-1.93405">
        <ele>2</ele>
        <time>2018-01-06T21:22:16Z</time>
      </trkpt>
      <trkpt lat="46.70083" lon="-1.93405">
        <ele>2</ele>
        <time>2018-01-06T21:23:16Z</time>
      </trkpt>
      <trkpt lat="46.70093" lon="-1.934">
        <ele>2</ele>
        <time>2018-01-06T21:24:16Z</time>
      </trkpt>
      <trkpt lat="46.70098" lon="-1.93397">
        <ele>2</ele>
        <time>2018-01-06T21:25:16Z</time>
      </trkpt>
      <trkpt lat="46.70102" lon="-1.93395">
        <ele>2</ele>
        <time>2018-01-06T21:26:16Z</time>
      </trkpt>
      <trkpt lat="46.70107" lon="-1.93391">
        <ele>2</ele>
        <time>2018-01-06T21:27:16Z</time>
      </trkpt>
      <trkpt lat="46.70111" lon="-1.93388">
        <ele>2</ele>
        <time>2018-01-06T21:28:16Z</time>
      </trkpt>
      <trkpt lat="46.70114" lon="-1.93384">
        <ele>2</ele>
        <time>2018-01-06T21:29:16Z</time>
      </trkpt>
      <trkpt lat="46.70114" lon="-1.93384">
        <ele>2</ele>
        <time>2018-01-06T21:30:16Z</time>
      </trkpt>
      <trkpt lat="46.70115" lon="-1.93383">
        <ele>2</ele>
        <time>2018-01-06T21:31:16Z</time>
      </trkpt>
      <trkpt lat="46.70115" lon="-1.93382">
        <ele>2</ele>
        <time>2018-01-06T21:32:16Z</time>
      </trkpt>
      <trkpt lat="46.70115" lon="-1.93381">
        <ele>2</ele>
        <time>2018-01-06T21:33:16Z</time>
      </trkpt>
      <trkpt lat="46.70116" lon="-1.9338">
        <ele>2</ele>
        <time>2018-01-06T21:34:16Z</time>
      </trkpt>
      <trkpt lat="46.70116" lon="-1.93378">
        <ele>2</ele>
        <time>2018-01-06T21:35:16Z</time>
      </trkpt>
      <trkpt lat="46.70116" lon="-1.93377">
        <ele>2</ele>
        <time>2018-01-06T21:36:16Z</time>
      </trkpt>
      <trkpt lat="46.70117" lon="-1.93376">
        <ele>2</ele>
        <time>2018-01-06T21:37:16Z</time>
      </trkpt>
      <trkpt lat="46.70117" lon="-1.93375">
        <ele>2</ele>
        <time>2018-01-06T21:38:16Z</time>
      </trkpt>
      <trkpt lat="46.70118" lon="-1.93374">
        <ele>1</ele>
        <time>2018-01-06T21:39:16Z</time>
      </trkpt>
      <trkpt lat="46.70119" lon="-1.93373">
        <ele>1</ele>
        <time>2018-01-06T21:40:16Z</time>
      </trkpt>
      <trkpt lat="46.70119" lon="-1.93372">
        <ele>1</ele>
        <time>2018-01-06T21:41:16Z</time>
      </trkpt>
      <trkpt lat="46.7012" lon="-1.93372">
        <ele>1</ele>
        <time>2018-01-06T21:42:16Z</time>
      </trkpt>
      <trkpt lat="46.70121" lon="-1.93371">
        <ele>1</ele>
        <time>2018-01-06T21:43:16Z</time>
      </trkpt>
      <trkpt lat="46.70122" lon="-1.9337">
        <ele>1</ele>
        <time>2018-01-06T21:44:16Z</time>
      </trkpt>
      <trkpt lat="46.70123" lon="-1.93369">
        <ele>1</ele>
        <time>2018-01-06T21:45:16Z</time>
      </trkpt>
      <trkpt lat="46.70124" lon="-1.93369">
        <ele>1</ele>
        <time>2018-01-06T21:46:16Z</time>
      </trkpt>
      <trkpt lat="46.70125" lon="-1.93368">
        <ele>2</ele>
        <time>2018-01-06T21:47:16Z</time>
      </trkpt>
      <trkpt lat="46.70126" lon="-1.93368">
        <ele>2</ele>
        <time>2018-01-06T21:48:16Z</time>
      </trkpt>
      <trkpt lat="46.70127" lon="-1.93368">
        <ele>2</ele>
        <time>2018-01-06T21:49:16Z</time>
      </trkpt>
      <trkpt lat="46.70128" lon="-1.93368">
        <ele>2</ele>
        <time>2018-01-06T21:50:16Z</time>
      </trkpt>
      <trkpt lat="46.70129" lon="-1.93368">
        <ele>2</ele>
        <time>2018-01-06T21:51:16Z</time>
      </trkpt>
      <trkpt lat="46.7013" lon="-1.93368">
        <ele>2</ele>
        <time>2018-01-06T21:52:16Z</time>
      </trkpt>
      <trkpt lat="46.70131" lon="-1.93369">
        <ele>2</ele>
        <time>2018-01-06T21:53:16Z</time>
      </trkpt>
      <trkpt lat="46.70132" lon="-1.93369">
        <ele>2</ele>
        <time>2018-01-06T21:54:16Z</time>
      </trkpt>
      <trkpt lat="46.70132" lon="-1.9337">
        <ele>2</ele>
        <time>2018-01-06T21:55:16Z</time>
      </trkpt>
      <trkpt lat="46.70133" lon="-1.9337">
        <ele>2</ele>
        <time>2018-01-06T21:56:16Z</time>
      </trkpt>
      <trkpt lat="46.70134" lon="-1.93371">
        <ele>2</ele>
        <time>2018-01-06T21:57:16Z</time>
      </trkpt>
      <trkpt lat="46.70135" lon="-1.93372">
        <ele>2</ele>
        <time>2018-01-06T21:58:16Z</time>
      </trkpt>
      <trkpt lat="46.70136" lon="-1.93373">
        <ele>2</ele>
        <time>2018-01-06T21:59:16Z</time>
      </trkpt>
      <trkpt lat="46.70136" lon="-1.93374">
        <ele>2</ele>
        <time>2018-01-06T22:00:16Z</time>
      </trkpt>
      <trkpt lat="46.70137" lon="-1.93374">
        <ele>2</ele>
        <time>2018-01-06T22:01:16Z</time>
      </trkpt>
      <trkpt lat="46.70137" lon="-1.93375">
        <ele>1</ele>
        <time>2018-01-06T22:02:16Z</time>
      </trkpt>
      <trkpt lat="46.70138" lon="-1.93376">
        <ele>1</ele>
        <time>2018-01-06T22:03:16Z</time>
      </trkpt>
      <trkpt lat="46.70138" lon="-1.93377">
        <ele>1</ele>
        <time>2018-01-06T22:04:16Z</time>
      </trkpt>
      <trkpt lat="46.70138" lon="-1.93378">
        <ele>1</ele>
        <time>2018-01-06T22:05:16Z</time>
      </trkpt>
      <trkpt lat="46.70139" lon="-1.93379">
        <ele>1</ele>
        <time>2018-01-06T22:06:16Z</time>
      </trkpt>
      <trkpt lat="46.70139" lon="-1.93381">
        <ele>1</ele>
        <time>2018-01-06T22:07:16Z</time>
      </trkpt>
      <trkpt lat="46.7014" lon="-1.93382">
        <ele>1</ele>
        <time>2018-01-06T22:08:16Z</time>
      </trkpt>
      <trkpt lat="46.7014" lon="-1.93384">
        <ele>1</ele>
        <time>2018-01-06T22:09:16Z</time>
      </trkpt>
      <trkpt lat="46.70141" lon="-1.93386">
        <ele>1</ele>
        <time>2018-01-06T22:10:16Z</time>
      </trkpt>
      <trkpt lat="46.70141" lon="-1.93388">
        <ele>1</ele>
        <time>2018-01-06T22:11:16Z</time>
      </trkpt>
      <trkpt lat="46.70141" lon="-1.9339">
        <ele>1</ele>
        <time>2018-01-06T22:12:16Z</time>
      </trkpt>
      <trkpt lat="46.70141" lon="-1.93391">
        <ele>1</ele>
        <time>2018-01-06T22:13:16Z</time>
      </trkpt>
      <trkpt lat="46.70141" lon="-1.93393">
        <ele>1</ele>
        <time>2018-01-06T22:14:16Z</time>
      </trkpt>
      <trkpt lat="46.70141" lon="-1.93394">
        <ele>1</ele>
        <time>2018-01-06T22:15:16Z</time>
      </trkpt>
      <trkpt lat="46.70141" lon="-1.93395">
        <ele>1</ele>
        <time>2018-01-06T22:16:16Z</time>
      </trkpt>
      <trkpt lat="46.7014" lon="-1.93396">
        <ele>1</ele>
        <time>2018-01-06T22:17:16Z</time>
      </trkpt>
      <trkpt lat="46.7014" lon="-1.93397">
        <ele>1</ele>
        <time>2018-01-06T22:18:16Z</time>
      </trkpt>
      <trkpt lat="46.7014" lon="-1.93398">
        <ele>1</ele>
        <time>2018-01-06T22:19:16Z</time>
      </trkpt>
      <trkpt lat="46.70139" lon="-1.93399">
        <ele>1</ele>
        <time>2018-01-06T22:20:16Z</time>
      </trkpt>
      <trkpt lat="46.70139" lon="-1.93401">
        <ele>1</ele>
        <time>2018-01-06T22:21:16Z</time>
      </trkpt>
      <trkpt lat="46.70138" lon="-1.93408">
        <ele>1</ele>
        <time>2018-01-06T22:22:16Z</time>
      </trkpt>
      <trkpt lat="46.70138" lon="-1.93411">
        <ele>1</ele>
        <time>2018-01-06T22:23:16Z</time>
      </trkpt>
      <trkpt lat="46.70138" lon="-1.93415">
        <ele>1</ele>
        <time>2018-01-06T22:24:16Z</time>
      </trkpt>
      <trkpt lat="46.70138" lon="-1.93418">
        <ele>1</ele>
        <time>2018-01-06T22:25:16Z</time>
      </trkpt>
      <trkpt lat="46.70138" lon="-1.93423">
        <ele>1</ele>
        <time>2018-01-06T22:26:16Z</time>
      </trkpt>
      <trkpt lat="46.70139" lon="-1.93429">
        <ele>1</ele>
        <time>2018-01-06T22:27:16Z</time>
      </trkpt>
      <trkpt lat="46.70139" lon="-1.93431">
        <ele>1</ele>
        <time>2018-01-06T22:28:16Z</time>
      </trkpt>
      <trkpt lat="46.7014" lon="-1.93433">
        <ele>1</ele>
        <time>2018-01-06T22:29:16Z</time>
      </trkpt>
      <trkpt lat="46.7014" lon="-1.93435">
        <ele>1</ele>
        <time>2018-01-06T22:30:16Z</time>
      </trkpt>
      <trkpt lat="46.70141" lon="-1.93441">
        <ele>1</ele>
        <time>2018-01-06T22:31:16Z</time>
      </trkpt>
      <trkpt lat="46.70142" lon="-1.93448">
        <ele>1</ele>
        <time>2018-01-06T22:32:16Z</time>
      </trkpt>
      <trkpt lat="46.70144" lon="-1.93457">
        <ele>1</ele>
        <time>2018-01-06T22:33:16Z</time>
      </trkpt>
      <trkpt lat="46.70146" lon="-1.93464">
        <ele>1</ele>
        <time>2018-01-06T22:34:16Z</time>
      </trkpt>
      <trkpt lat="46.70151" lon="-1.93485">
        <ele>1</ele>
        <time>2018-01-06T22:35:16Z</time>
      </trkpt>
      <trkpt lat="46.70189" lon="-1.93655">
        <ele>1</ele>
        <time>2018-01-06T22:36:16Z</time>
      </trkpt>
      <trkpt lat="46.70196" lon="-1.93681">
        <ele>2</ele>
        <time>2018-01-06T22:37:16Z</time>
      </trkpt>
      <trkpt lat="46.702" lon="-1.93698">
        <ele>2</ele>
        <time>2018-01-06T22:38:16Z</time>
      </trkpt>
      <trkpt lat="46.70204" lon="-1.93714">
        <ele>2</ele>
        <time>2018-01-06T22:39:16Z</time>
      </trkpt>
      <trkpt lat="46.70208" lon="-1.93728">
        <ele>3</ele>
        <time>2018-01-06T22:40:16Z</time>
      </trkpt>
      <trkpt lat="46.70211" lon="-1.93742">
        <ele>3</ele>
        <time>2018-01-06T22:41:16Z</time>
      </trkpt>
      <trkpt lat="46.70214" lon="-1.93753">
        <ele>3</ele>
        <time>2018-01-06T22:42:16Z</time>
      </trkpt>
      <trkpt lat="46.70228" lon="-1.93802">
        <ele>4</ele>
        <time>2018-01-06T22:43:16Z</time>
      </trkpt>
      <trkpt lat="46.70229" lon="-1.93804">
        <ele>4</ele>
        <time>2018-01-06T22:44:16Z</time>
      </trkpt>
      <trkpt lat="46.70239" lon="-1.93837">
        <ele>4</ele>
        <time>2018-01-06T22:45:16Z</time>
      </trkpt>
      <trkpt lat="46.70243" lon="-1.93848">
        <ele>4</ele>
        <time>2018-01-06T22:46:16Z</time>
      </trkpt>
      <trkpt lat="46.70246" lon="-1.93857">
        <ele>3</ele>
        <time>2018-01-06T22:47:16Z</time>
      </trkpt>
      <trkpt lat="46.70248" lon="-1.93861">
        <ele>3</ele>
        <time>2018-01-06T22:48:16Z</time>
      </trkpt>
      <trkpt lat="46.70249" lon="-1.93864">
        <ele>3</ele>
        <time>2018-01-06T22:49:16Z</time>
      </trkpt>
      <trkpt lat="46.70252" lon="-1.9387">
        <ele>3</ele>
        <time>2018-01-06T22:50:16Z</time>
      </trkpt>
      <trkpt lat="46.70253" lon="-1.93874">
        <ele>3</ele>
        <time>2018-01-06T22:51:16Z</time>
      </trkpt>
      <trkpt lat="46.70255" lon="-1.93877">
        <ele>3</ele>
        <time>2018-01-06T22:52:16Z</time>
      </trkpt>
      <trkpt lat="46.70256" lon="-1.93879">
        <ele>3</ele>
        <time>2018-01-06T22:53:16Z</time>
      </trkpt>
      <trkpt lat="46.70257" lon="-1.93881">
        <ele>3</ele>
        <time>2018-01-06T22:54:16Z</time>
      </trkpt>
      <trkpt lat="46.70259" lon="-1.93884">
        <ele>3</ele>
        <time>2018-01-06T22:55:16Z</time>
      </trkpt>
      <trkpt lat="46.70259" lon="-1.93884">
        <ele>3</ele>
        <time>2018-01-06T22:56:16Z</time>
      </trkpt>
      <trkpt lat="46.70261" lon="-1.93884">
        <ele>3</ele>
        <time>2018-01-06T22:57:16Z</time>
      </trkpt>
      <trkpt lat="46.70262" lon="-1.93884">
        <ele>3</ele>
        <time>2018-01-06T22:58:16Z</time>
      </trkpt>
      <trkpt lat="46.70263" lon="-1.93884">
        <ele>3</ele>
        <time>2018-01-06T22:59:16Z</time>
      </trkpt>
      <trkpt lat="46.70264" lon="-1.93884">
        <ele>3</ele>
        <time>2018-01-06T23:00:16Z</time>
      </trkpt>
      <trkpt lat="46.70265" lon="-1.93885">
        <ele>3</ele>
        <time>2018-01-06T23:01:16Z</time>
      </trkpt>
      <trkpt lat="46.70266" lon="-1.93886">
        <ele>3</ele>
        <time>2018-01-06T23:02:16Z</time>
      </trkpt>
      <trkpt lat="46.70267" lon="-1.93886">
        <ele>3</ele>
        <time>2018-01-06T23:03:16Z</time>
      </trkpt>
      <trkpt lat="46.70268" lon="-1.93887">
        <ele>3</ele>
        <time>2018-01-06T23:04:16Z</time>
      </trkpt>
      <trkpt lat="46.70269" lon="-1.93888">
        <ele>3</ele>
        <time>2018-01-06T23:05:16Z</time>
      </trkpt>
      <trkpt lat="46.7027" lon="-1.93889">
        <ele>3</ele>
        <time>2018-01-06T23:06:16Z</time>
      </trkpt>
      <trkpt lat="46.70271" lon="-1.9389">
        <ele>3</ele>
        <time>2018-01-06T23:07:16Z</time>
      </trkpt>
      <trkpt lat="46.70271" lon="-1.93891">
        <ele>3</ele>
        <time>2018-01-06T23:08:16Z</time>
      </trkpt>
      <trkpt lat="46.70272" lon="-1.93893">
        <ele>3</ele>
        <time>2018-01-06T23:09:16Z</time>
      </trkpt>
      <trkpt lat="46.70273" lon="-1.93894">
        <ele>3</ele>
        <time>2018-01-06T23:10:16Z</time>
      </trkpt>
      <trkpt lat="46.70273" lon="-1.93895">
        <ele>3</ele>
        <time>2018-01-06T23:11:16Z</time>
      </trkpt>
      <trkpt lat="46.70274" lon="-1.93897">
        <ele>3</ele>
        <time>2018-01-06T23:12:16Z</time>
      </trkpt>
      <trkpt lat="46.70274" lon="-1.93898">
        <ele>3</ele>
        <time>2018-01-06T23:13:16Z</time>
      </trkpt>
      <trkpt lat="46.70275" lon="-1.939">
        <ele>3</ele>
        <time>2018-01-06T23:14:16Z</time>
      </trkpt>
      <trkpt lat="46.70275" lon="-1.93902">
        <ele>3</ele>
        <time>2018-01-06T23:15:16Z</time>
      </trkpt>
      <trkpt lat="46.70275" lon="-1.93903">
        <ele>3</ele>
        <time>2018-01-06T23:16:16Z</time>
      </trkpt>
      <trkpt lat="46.70275" lon="-1.93905">
        <ele>3</ele>
        <time>2018-01-06T23:17:16Z</time>
      </trkpt>
      <trkpt lat="46.70275" lon="-1.93906">
        <ele>3</ele>
        <time>2018-01-06T23:18:16Z</time>
      </trkpt>
      <trkpt lat="46.70275" lon="-1.93909">
        <ele>2</ele>
        <time>2018-01-06T23:19:16Z</time>
      </trkpt>
      <trkpt lat="46.70275" lon="-1.9391">
        <ele>2</ele>
        <time>2018-01-06T23:20:16Z</time>
      </trkpt>
      <trkpt lat="46.70275" lon="-1.93911">
        <ele>2</ele>
        <time>2018-01-06T23:21:16Z</time>
      </trkpt>
      <trkpt lat="46.70275" lon="-1.93912">
        <ele>2</ele>
        <time>2018-01-06T23:22:16Z</time>
      </trkpt>
      <trkpt lat="46.70275" lon="-1.93913">
        <ele>2</ele>
        <time>2018-01-06T23:23:16Z</time>
      </trkpt>
      <trkpt lat="46.70275" lon="-1.93914">
        <ele>2</ele>
        <time>2018-01-06T23:24:16Z</time>
      </trkpt>
      <trkpt lat="46.70275" lon="-1.93915">
        <ele>2</ele>
        <time>2018-01-06T23:25:16Z</time>
      </trkpt>
      <trkpt lat="46.70275" lon="-1.93916">
        <ele>2</ele>
        <time>2018-01-06T23:26:16Z</time>
      </trkpt>
      <trkpt lat="46.7028" lon="-1.93929">
        <ele>2</ele>
        <time>2018-01-06T23:27:16Z</time>
      </trkpt>
      <trkpt lat="46.70285" lon="-1.9394">
        <ele>3</ele>
        <time>2018-01-06T23:28:16Z</time>
      </trkpt>
      <trkpt lat="46.70289" lon="-1.93949">
        <ele>3</ele>
        <time>2018-01-06T23:29:16Z</time>
      </trkpt>
      <trkpt lat="46.70293" lon="-1.93957">
        <ele>3</ele>
        <time>2018-01-06T23:30:16Z</time>
      </trkpt>
      <trkpt lat="46.70299" lon="-1.93967">
        <ele>3</ele>
        <time>2018-01-06T23:31:16Z</time>
      </trkpt>
      <trkpt lat="46.70302" lon="-1.93973">
        <ele>3</ele>
        <time>2018-01-06T23:32:16Z</time>
      </trkpt>
      <trkpt lat="46.70307" lon="-1.93981">
        <ele>3</ele>
        <time>2018-01-06T23:33:16Z</time>
      </trkpt>
      <trkpt lat="46.70313" lon="-1.93991">
        <ele>3</ele>
        <time>2018-01-06T23:34:16Z</time>
      </trkpt>
      <trkpt lat="46.70321" lon="-1.94004">
        <ele>3</ele>
        <time>2018-01-06T23:35:16Z</time>
      </trkpt>
      <trkpt lat="46.70327" lon="-1.94013">
        <ele>3</ele>
        <time>2018-01-06T23:36:16Z</time>
      </trkpt>
      <trkpt lat="46.70331" lon="-1.9402">
        <ele>3</ele>
        <time>2018-01-06T23:37:16Z</time>
      </trkpt>
      <trkpt lat="46.70338" lon="-1.94029">
        <ele>3</ele>
        <time>2018-01-06T23:38:16Z</time>
      </trkpt>
      <trkpt lat="46.70345" lon="-1.94039">
        <ele>3</ele>
        <time>2018-01-06T23:39:16Z</time>
      </trkpt>
      <trkpt lat="46.70349" lon="-1.94044">
        <ele>4</ele>
        <time>2018-01-06T23:40:16Z</time>
      </trkpt>
      <trkpt lat="46.70353" lon="-1.9405">
        <ele>4</ele>
        <time>2018-01-06T23:41:16Z</time>
      </trkpt>
      <trkpt lat="46.70357" lon="-1.94055">
        <ele>4</ele>
        <time>2018-01-06T23:42:16Z</time>
      </trkpt>
      <trkpt lat="46.70361" lon="-1.9406">
        <ele>4</ele>
        <time>2018-01-06T23:43:16Z</time>
      </trkpt>
      <trkpt lat="46.70369" lon="-1.9407">
        <ele>4</ele>
        <time>2018-01-06T23:44:16Z</time>
      </trkpt>
      <trkpt lat="46.70374" lon="-1.94079">
        <ele>4</ele>
        <time>2018-01-06T23:45:16Z</time>
      </trkpt>
      <trkpt lat="46.7038" lon="-1.94085">
        <ele>4</ele>
        <time>2018-01-06T23:46:16Z</time>
      </trkpt>
      <trkpt lat="46.70382" lon="-1.94087">
        <ele>4</ele>
        <time>2018-01-06T23:47:16Z</time>
      </trkpt>
      <trkpt lat="46.70384" lon="-1.9409">
        <ele>4</ele>
        <time>2018-01-06T23:48:16Z</time>
      </trkpt>
      <trkpt lat="46.70387" lon="-1.94093">
        <ele>4</ele>
        <time>2018-01-06T23:49:16Z</time>
      </trkpt>
      <trkpt lat="46.7039" lon="-1.94095">
        <ele>4</ele>
        <time>2018-01-06T23:50:16Z</time>
      </trkpt>
      <trkpt lat="46.70393" lon="-1.94098">
        <ele>4</ele>
        <time>2018-01-06T23:51:16Z</time>
      </trkpt>
      <trkpt lat="46.70396" lon="-1.94101">
        <ele>4</ele>
        <time>2018-01-06T23:52:16Z</time>
      </trkpt>
      <trkpt lat="46.70405" lon="-1.94109">
        <ele>4</ele>
        <time>2018-01-06T23:53:16Z</time>
      </trkpt>
      <trkpt lat="46.70411" lon="-1.94114">
        <ele>5</ele>
        <time>2018-01-06T23:54:16Z</time>
      </trkpt>
      <trkpt lat="46.70416" lon="-1.94119">
        <ele>5</ele>
        <time>2018-01-06T23:55:16Z</time>
      </trkpt>
      <trkpt lat="46.70423" lon="-1.94124">
        <ele>5</ele>
        <time>2018-01-06T23:56:16Z</time>
      </trkpt>
      <trkpt lat="46.70428" lon="-1.94128">
        <ele>5</ele>
        <time>2018-01-06T23:57:16Z</time>
      </trkpt>
      <trkpt lat="46.70434" lon="-1.94132">
        <ele>5</ele>
        <time>2018-01-06T23:58:16Z</time>
      </trkpt>
      <trkpt lat="46.7044" lon="-1.94137">
        <ele>5</ele>
        <time>2018-01-06T23:59:16Z</time>
      </trkpt>
      <trkpt lat="46.70447" lon="-1.94142">
        <ele>5</ele>
        <time>2018-01-07T00:00:16Z</time>
      </trkpt>
      <trkpt lat="46.70452" lon="-1.94145">
        <ele>5</ele>
        <time>2018-01-07T00:01:16Z</time>
      </trkpt>
      <trkpt lat="46.70458" lon="-1.94149">
        <ele>5</ele>
        <time>2018-01-07T00:02:16Z</time>
      </trkpt>
      <trkpt lat="46.70467" lon="-1.94154">
        <ele>5</ele>
        <time>2018-01-07T00:03:16Z</time>
      </trkpt>
      <trkpt lat="46.70476" lon="-1.94159">
        <ele>4</ele>
        <time>2018-01-07T00:04:16Z</time>
      </trkpt>
      <trkpt lat="46.70481" lon="-1.94162">
        <ele>4</ele>
        <time>2018-01-07T00:05:16Z</time>
      </trkpt>
      <trkpt lat="46.70485" lon="-1.94164">
        <ele>4</ele>
        <time>2018-01-07T00:06:16Z</time>
      </trkpt>
      <trkpt lat="46.70489" lon="-1.94166">
        <ele>4</ele>
        <time>2018-01-07T00:07:16Z</time>
      </trkpt>
      <trkpt lat="46.70494" lon="-1.94169">
        <ele>4</ele>
        <time>2018-01-07T00:08:16Z</time>
      </trkpt>
      <trkpt lat="46.705" lon="-1.94171">
        <ele>4</ele>
        <time>2018-01-07T00:09:16Z</time>
      </trkpt>
      <trkpt lat="46.70506" lon="-1.94174">
        <ele>4</ele>
        <time>2018-01-07T00:10:16Z</time>
      </trkpt>
      <trkpt lat="46.70515" lon="-1.94178">
        <ele>4</ele>
        <time>2018-01-07T00:11:16Z</time>
      </trkpt>
      <trkpt lat="46.70522" lon="-1.94181">
        <ele>4</ele>
        <time>2018-01-07T00:12:16Z</time>
      </trkpt>
      <trkpt lat="46.70528" lon="-1.94183">
        <ele>4</ele>
        <time>2018-01-07T00:13:16Z</time>
      </trkpt>
      <trkpt lat="46.70534" lon="-1.94185">
        <ele>4</ele>
        <time>2018-01-07T00:14:16Z</time>
      </trkpt>
      <trkpt lat="46.70539" lon="-1.94187">
        <ele>4</ele>
        <time>2018-01-07T00:15:16Z</time>
      </trkpt>
      <trkpt lat="46.70544" lon="-1.94189">
        <ele>4</ele>
        <time>2018-01-07T00:16:16Z</time>
      </trkpt>
      <trkpt lat="46.70549" lon="-1.9419">
        <ele>4</ele>
        <time>2018-01-07T00:17:16Z</time>
      </trkpt>
      <trkpt lat="46.70555" lon="-1.94192">
        <ele>4</ele>
        <time>2018-01-07T00:18:16Z</time>
      </trkpt>
      <trkpt lat="46.70562" lon="-1.94194">
        <ele>4</ele>
        <time>2018-01-07T00:19:16Z</time>
      </trkpt>
      <trkpt lat="46.70568" lon="-1.94196">
        <ele>5</ele>
        <time>2018-01-07T00:20:16Z</time>
      </trkpt>
      <trkpt lat="46.70577" lon="-1.94199">
        <ele>5</ele>
        <time>2018-01-07T00:21:16Z</time>
      </trkpt>
      <trkpt lat="46.70588" lon="-1.94201">
        <ele>5</ele>
        <time>2018-01-07T00:22:16Z</time>
      </trkpt>
      <trkpt lat="46.70598" lon="-1.94204">
        <ele>5</ele>
        <time>2018-01-07T00:23:16Z</time>
      </trkpt>
      <trkpt lat="46.70607" lon="-1.94205">
        <ele>5</ele>
        <time>2018-01-07T00:24:16Z</time>
      </trkpt>
      <trkpt lat="46.70617" lon="-1.94208">
        <ele>5</ele>
        <time>2018-01-07T00:25:16Z</time>
      </trkpt>
      <trkpt lat="46.70624" lon="-1.94209">
        <ele>5</ele>
        <time>2018-01-07T00:26:16Z</time>
      </trkpt>
      <trkpt lat="46.70629" lon="-1.9421">
        <ele>5</ele>
        <time>2018-01-07T00:27:16Z</time>
      </trkpt>
      <trkpt lat="46.70635" lon="-1.94211">
        <ele>5</ele>
        <time>2018-01-07T00:28:16Z</time>
      </trkpt>
      <trkpt lat="46.70641" lon="-1.94212">
        <ele>5</ele>
        <time>2018-01-07T00:29:16Z</time>
      </trkpt>
      <trkpt lat="46.70649" lon="-1.94213">
        <ele>6</ele>
        <time>2018-01-07T00:30:16Z</time>
      </trkpt>
      <trkpt lat="46.7066" lon="-1.94214">
        <ele>6</ele>
        <time>2018-01-07T00:31:16Z</time>
      </trkpt>
      <trkpt lat="46.70677" lon="-1.94212">
        <ele>6</ele>
        <time>2018-01-07T00:32:16Z</time>
      </trkpt>
      <trkpt lat="46.7069" lon="-1.94211">
        <ele>6</ele>
        <time>2018-01-07T00:33:16Z</time>
      </trkpt>
      <trkpt lat="46.70691" lon="-1.94211">
        <ele>6</ele>
        <time>2018-01-07T00:34:16Z</time>
      </trkpt>
      <trkpt lat="46.70691" lon="-1.9421">
        <ele>6</ele>
        <time>2018-01-07T00:35:16Z</time>
      </trkpt>
      <trkpt lat="46.70692" lon="-1.9421">
        <ele>6</ele>
        <time>2018-01-07T00:36:16Z</time>
      </trkpt>
      <trkpt lat="46.70692" lon="-1.94209">
        <ele>6</ele>
        <time>2018-01-07T00:37:16Z</time>
      </trkpt>
      <trkpt lat="46.70693" lon="-1.94209">
        <ele>6</ele>
        <time>2018-01-07T00:38:16Z</time>
      </trkpt>
      <trkpt lat="46.70693" lon="-1.94208">
        <ele>6</ele>
        <time>2018-01-07T00:39:16Z</time>
      </trkpt>
      <trkpt lat="46.70694" lon="-1.94208">
        <ele>6</ele>
        <time>2018-01-07T00:40:16Z</time>
      </trkpt>
      <trkpt lat="46.70695" lon="-1.94208">
        <ele>6</ele>
        <time>2018-01-07T00:41:16Z</time>
      </trkpt>
      <trkpt lat="46.70696" lon="-1.94208">
        <ele>6</ele>
        <time>2018-01-07T00:42:16Z</time>
      </trkpt>
      <trkpt lat="46.70696" lon="-1.94207">
        <ele>6</ele>
        <time>2018-01-07T00:43:16Z</time>
      </trkpt>
      <trkpt lat="46.70697" lon="-1.94207">
        <ele>6</ele>
        <time>2018-01-07T00:44:16Z</time>
      </trkpt>
      <trkpt lat="46.70698" lon="-1.94208">
        <ele>6</ele>
        <time>2018-01-07T00:45:16Z</time>
      </trkpt>
      <trkpt lat="46.70699" lon="-1.94208">
        <ele>6</ele>
        <time>2018-01-07T00:46:16Z</time>
      </trkpt>
      <trkpt lat="46.707" lon="-1.94208">
        <ele>6</ele>
        <time>2018-01-07T00:47:16Z</time>
      </trkpt>
      <trkpt lat="46.70701" lon="-1.94209">
        <ele>6</ele>
        <time>2018-01-07T00:48:16Z</time>
      </trkpt>
      <trkpt lat="46.70702" lon="-1.94209">
        <ele>6</ele>
        <time>2018-01-07T00:49:16Z</time>
      </trkpt>
      <trkpt lat="46.70702" lon="-1.9421">
        <ele>6</ele>
        <time>2018-01-07T00:50:16Z</time>
      </trkpt>
      <trkpt lat="46.70703" lon="-1.9421">
        <ele>6</ele>
        <time>2018-01-07T00:51:16Z</time>
      </trkpt>
      <trkpt lat="46.70703" lon="-1.94211">
        <ele>6</ele>
        <time>2018-01-07T00:52:16Z</time>
      </trkpt>
      <trkpt lat="46.70704" lon="-1.94211">
        <ele>6</ele>
        <time>2018-01-07T00:53:16Z</time>
      </trkpt>
      <trkpt lat="46.70704" lon="-1.94212">
        <ele>6</ele>
        <time>2018-01-07T00:54:16Z</time>
      </trkpt>
      <trkpt lat="46.70717" lon="-1.94216">
        <ele>6</ele>
        <time>2018-01-07T00:55:16Z</time>
      </trkpt>
      <trkpt lat="46.70726" lon="-1.94219">
        <ele>6</ele>
        <time>2018-01-07T00:56:16Z</time>
      </trkpt>
      <trkpt lat="46.70732" lon="-1.94219">
        <ele>6</ele>
        <time>2018-01-07T00:57:16Z</time>
      </trkpt>
      <trkpt lat="46.70737" lon="-1.94219">
        <ele>6</ele>
        <time>2018-01-07T00:58:16Z</time>
      </trkpt>
      <trkpt lat="46.70742" lon="-1.94219">
        <ele>6</ele>
        <time>2018-01-07T00:59:16Z</time>
      </trkpt>
      <trkpt lat="46.70747" lon="-1.94219">
        <ele>6</ele>
        <time>2018-01-07T01:00:16Z</time>
      </trkpt>
      <trkpt lat="46.70753" lon="-1.94219">
        <ele>6</ele>
        <time>2018-01-07T01:01:16Z</time>
      </trkpt>
      <trkpt lat="46.70758" lon="-1.94219">
        <ele>6</ele>
        <time>2018-01-07T01:02:16Z</time>
      </trkpt>
      <trkpt lat="46.70763" lon="-1.94218">
        <ele>6</ele>
        <time>2018-01-07T01:03:16Z</time>
      </trkpt>
      <trkpt lat="46.70767" lon="-1.94218">
        <ele>6</ele>
        <time>2018-01-07T01:04:16Z</time>
      </trkpt>
      <trkpt lat="46.70775" lon="-1.94218">
        <ele>6</ele>
        <time>2018-01-07T01:05:16Z</time>
      </trkpt>
      <trkpt lat="46.70783" lon="-1.94217">
        <ele>6</ele>
        <time>2018-01-07T01:06:16Z</time>
      </trkpt>
      <trkpt lat="46.70799" lon="-1.94216">
        <ele>5</ele>
        <time>2018-01-07T01:07:16Z</time>
      </trkpt>
      <trkpt lat="46.70812" lon="-1.94214">
        <ele>5</ele>
        <time>2018-01-07T01:08:16Z</time>
      </trkpt>
      <trkpt lat="46.70823" lon="-1.94213">
        <ele>5</ele>
        <time>2018-01-07T01:09:16Z</time>
      </trkpt>
      <trkpt lat="46.70834" lon="-1.94212">
        <ele>5</ele>
        <time>2018-01-07T01:10:16Z</time>
      </trkpt>
      <trkpt lat="46.70847" lon="-1.94211">
        <ele>5</ele>
        <time>2018-01-07T01:11:16Z</time>
      </trkpt>
      <trkpt lat="46.70857" lon="-1.94209">
        <ele>5</ele>
        <time>2018-01-07T01:12:16Z</time>
      </trkpt>
      <trkpt lat="46.70869" lon="-1.94208">
        <ele>5</ele>
        <time>2018-01-07T01:13:16Z</time>
      </trkpt>
      <trkpt lat="46.70887" lon="-1.94205">
        <ele>4</ele>
        <time>2018-01-07T01:14:16Z</time>
      </trkpt>
      <trkpt lat="46.7093" lon="-1.94197">
        <ele>4</ele>
        <time>2018-01-07T01:15:16Z</time>
      </trkpt>
      <trkpt lat="46.7097" lon="-1.94189">
        <ele>3</ele>
        <time>2018-01-07T01:16:16Z</time>
      </trkpt>
      <trkpt lat="46.70987" lon="-1.94186">
        <ele>2</ele>
        <time>2018-01-07T01:17:16Z</time>
      </trkpt>
      <trkpt lat="46.71004" lon="-1.94182">
        <ele>2</ele>
        <time>2018-01-07T01:18:16Z</time>
      </trkpt>
      <trkpt lat="46.71093" lon="-1.94162">
        <ele>1</ele>
        <time>2018-01-07T01:19:16Z</time>
      </trkpt>
      <trkpt lat="46.71263" lon="-1.94122">
        <ele>2</ele>
        <time>2018-01-07T01:20:16Z</time>
      </trkpt>
      <trkpt lat="46.71344" lon="-1.94103">
        <ele>4</ele>
        <time>2018-01-07T01:21:16Z</time>
      </trkpt>
      <trkpt lat="46.71362" lon="-1.94099">
        <ele>4</ele>
        <time>2018-01-07T01:22:16Z</time>
      </trkpt>
      <trkpt lat="46.71736" lon="-1.94013">
        <ele>2</ele>
        <time>2018-01-07T01:23:16Z</time>
      </trkpt>
      <trkpt lat="46.71743" lon="-1.94011">
        <ele>2</ele>
        <time>2018-01-07T01:24:16Z</time>
      </trkpt>
      <trkpt lat="46.71775" lon="-1.94">
        <ele>1</ele>
        <time>2018-01-07T01:25:16Z</time>
      </trkpt>
      <trkpt lat="46.71778" lon="-1.93999">
        <ele>1</ele>
        <time>2018-01-07T01:26:16Z</time>
      </trkpt>
      <trkpt lat="46.71781" lon="-1.93998">
        <ele>1</ele>
        <time>2018-01-07T01:27:16Z</time>
      </trkpt>
      <trkpt lat="46.71783" lon="-1.93997">
        <ele>1</ele>
        <time>2018-01-07T01:28:16Z</time>
      </trkpt>
      <trkpt lat="46.71785" lon="-1.93995">
        <ele>1</ele>
        <time>2018-01-07T01:29:16Z</time>
      </trkpt>
      <trkpt lat="46.71788" lon="-1.93994">
        <ele>1</ele>
        <time>2018-01-07T01:30:16Z</time>
      </trkpt>
      <trkpt lat="46.7179" lon="-1.93993">
        <ele>1</ele>
        <time>2018-01-07T01:31:16Z</time>
      </trkpt>
      <trkpt lat="46.71792" lon="-1.93991">
        <ele>1</ele>
        <time>2018-01-07T01:32:16Z</time>
      </trkpt>
      <trkpt lat="46.71794" lon="-1.93989">
        <ele>1</ele>
        <time>2018-01-07T01:33:16Z</time>
      </trkpt>
      <trkpt lat="46.71799" lon="-1.93985">
        <ele>1</ele>
        <time>2018-01-07T01:34:16Z</time>
      </trkpt>
      <trkpt lat="46.71799" lon="-1.93984">
        <ele>1</ele>
        <time>2018-01-07T01:35:16Z</time>
      </trkpt>
      <trkpt lat="46.718" lon="-1.93983">
        <ele>1</ele>
        <time>2018-01-07T01:36:16Z</time>
      </trkpt>
      <trkpt lat="46.718" lon="-1.93982">
        <ele>1</ele>
        <time>2018-01-07T01:37:16Z</time>
      </trkpt>
      <trkpt lat="46.718" lon="-1.93981">
        <ele>1</ele>
        <time>2018-01-07T01:38:16Z</time>
      </trkpt>
      <trkpt lat="46.71801" lon="-1.93981">
        <ele>1</ele>
        <time>2018-01-07T01:39:16Z</time>
      </trkpt>
      <trkpt lat="46.71801" lon="-1.9398">
        <ele>1</ele>
        <time>2018-01-07T01:40:16Z</time>
      </trkpt>
      <trkpt lat="46.71802" lon="-1.93979">
        <ele>1</ele>
        <time>2018-01-07T01:41:16Z</time>
      </trkpt>
      <trkpt lat="46.71802" lon="-1.93978">
        <ele>1</ele>
        <time>2018-01-07T01:42:16Z</time>
      </trkpt>
      <trkpt lat="46.71804" lon="-1.93977">
        <ele>1</ele>
        <time>2018-01-07T01:43:16Z</time>
      </trkpt>
      <trkpt lat="46.71805" lon="-1.93977">
        <ele>1</ele>
        <time>2018-01-07T01:44:16Z</time>
      </trkpt>
      <trkpt lat="46.71806" lon="-1.93976">
        <ele>1</ele>
        <time>2018-01-07T01:45:16Z</time>
      </trkpt>
      <trkpt lat="46.71807" lon="-1.93976">
        <ele>1</ele>
        <time>2018-01-07T01:46:16Z</time>
      </trkpt>
      <trkpt lat="46.71808" lon="-1.93975">
        <ele>1</ele>
        <time>2018-01-07T01:47:16Z</time>
      </trkpt>
      <trkpt lat="46.71809" lon="-1.93975">
        <ele>1</ele>
        <time>2018-01-07T01:48:16Z</time>
      </trkpt>
      <trkpt lat="46.7181" lon="-1.93975">
        <ele>1</ele>
        <time>2018-01-07T01:49:16Z</time>
      </trkpt>
      <trkpt lat="46.71812" lon="-1.93975">
        <ele>1</ele>
        <time>2018-01-07T01:50:16Z</time>
      </trkpt>
      <trkpt lat="46.71813" lon="-1.93975">
        <ele>1</ele>
        <time>2018-01-07T01:51:16Z</time>
      </trkpt>
      <trkpt lat="46.71814" lon="-1.93975">
        <ele>1</ele>
        <time>2018-01-07T01:52:16Z</time>
      </trkpt>
      <trkpt lat="46.71815" lon="-1.93975">
        <ele>1</ele>
        <time>2018-01-07T01:53:16Z</time>
      </trkpt>
      <trkpt lat="46.71815" lon="-1.93976">
        <ele>1</ele>
        <time>2018-01-07T01:54:16Z</time>
      </trkpt>
      <trkpt lat="46.71816" lon="-1.93976">
        <ele>1</ele>
        <time>2018-01-07T01:55:16Z</time>
      </trkpt>
      <trkpt lat="46.71817" lon="-1.93976">
        <ele>1</ele>
        <time>2018-01-07T01:56:16Z</time>
      </trkpt>
      <trkpt lat="46.71818" lon="-1.93977">
        <ele>1</ele>
        <time>2018-01-07T01:57:16Z</time>
      </trkpt>
      <trkpt lat="46.71819" lon="-1.93978">
        <ele>1</ele>
        <time>2018-01-07T01:58:16Z</time>
      </trkpt>
      <trkpt lat="46.71819" lon="-1.93979">
        <ele>1</ele>
        <time>2018-01-07T01:59:16Z</time>
      </trkpt>
      <trkpt lat="46.7182" lon="-1.9398">
        <ele>1</ele>
        <time>2018-01-07T02:00:16Z</time>
      </trkpt>
      <trkpt lat="46.71821" lon="-1.93981">
        <ele>1</ele>
        <time>2018-01-07T02:01:16Z</time>
      </trkpt>
      <trkpt lat="46.71821" lon="-1.93982">
        <ele>1</ele>
        <time>2018-01-07T02:02:16Z</time>
      </trkpt>
      <trkpt lat="46.71822" lon="-1.93983">
        <ele>1</ele>
        <time>2018-01-07T02:03:16Z</time>
      </trkpt>
      <trkpt lat="46.71829" lon="-1.93984">
        <ele>1</ele>
        <time>2018-01-07T02:04:16Z</time>
      </trkpt>
      <trkpt lat="46.71832" lon="-1.93984">
        <ele>1</ele>
        <time>2018-01-07T02:05:16Z</time>
      </trkpt>
      <trkpt lat="46.71835" lon="-1.93984">
        <ele>1</ele>
        <time>2018-01-07T02:06:16Z</time>
      </trkpt>
      <trkpt lat="46.71838" lon="-1.93984">
        <ele>1</ele>
        <time>2018-01-07T02:07:16Z</time>
      </trkpt>
      <trkpt lat="46.7184" lon="-1.93984">
        <ele>1</ele>
        <time>2018-01-07T02:08:16Z</time>
      </trkpt>
      <trkpt lat="46.71843" lon="-1.93984">
        <ele>1</ele>
        <time>2018-01-07T02:09:16Z</time>
      </trkpt>
      <trkpt lat="46.71845" lon="-1.93984">
        <ele>1</ele>
        <time>2018-01-07T02:10:16Z</time>
      </trkpt>
      <trkpt lat="46.71876" lon="-1.9398">
        <ele>1</ele>
        <time>2018-01-07T02:11:16Z</time>
      </trkpt>
      <trkpt lat="46.71884" lon="-1.93978">
        <ele>1</ele>
        <time>2018-01-07T02:12:16Z</time>
      </trkpt>
      <trkpt lat="46.71946" lon="-1.93964">
        <ele>1</ele>
        <time>2018-01-07T02:13:16Z</time>
      </trkpt>
      <trkpt lat="46.71967" lon="-1.93959">
        <ele>2</ele>
        <time>2018-01-07T02:14:16Z</time>
      </trkpt>
      <trkpt lat="46.71981" lon="-1.93957">
        <ele>2</ele>
        <time>2018-01-07T02:15:16Z</time>
      </trkpt>
      <trkpt lat="46.71994" lon="-1.93954">
        <ele>2</ele>
        <time>2018-01-07T02:16:16Z</time>
      </trkpt>
      <trkpt lat="46.72012" lon="-1.93952">
        <ele>2</ele>
        <time>2018-01-07T02:17:16Z</time>
      </trkpt>
      <trkpt lat="46.72021" lon="-1.93951">
        <ele>2</ele>
        <time>2018-01-07T02:18:16Z</time>
      </trkpt>
      <trkpt lat="46.72029" lon="-1.93951">
        <ele>2</ele>
        <time>2018-01-07T02:19:16Z</time>
      </trkpt>
      <trkpt lat="46.72036" lon="-1.9395">
        <ele>2</ele>
        <time>2018-01-07T02:20:16Z</time>
      </trkpt>
      <trkpt lat="46.72043" lon="-1.9395">
        <ele>2</ele>
        <time>2018-01-07T02:21:16Z</time>
      </trkpt>
      <trkpt lat="46.72049" lon="-1.93951">
        <ele>2</ele>
        <time>2018-01-07T02:22:16Z</time>
      </trkpt>
      <trkpt lat="46.72054" lon="-1.93951">
        <ele>2</ele>
        <time>2018-01-07T02:23:16Z</time>
      </trkpt>
      <trkpt lat="46.72062" lon="-1.93951">
        <ele>2</ele>
        <time>2018-01-07T02:24:16Z</time>
      </trkpt>
      <trkpt lat="46.7207" lon="-1.93952">
        <ele>2</ele>
        <time>2018-01-07T02:25:16Z</time>
      </trkpt>
      <trkpt lat="46.7208" lon="-1.93953">
        <ele>2</ele>
        <time>2018-01-07T02:26:16Z</time>
      </trkpt>
      <trkpt lat="46.72086" lon="-1.93954">
        <ele>2</ele>
        <time>2018-01-07T02:27:16Z</time>
      </trkpt>
      <trkpt lat="46.72094" lon="-1.93955">
        <ele>2</ele>
        <time>2018-01-07T02:28:16Z</time>
      </trkpt>
      <trkpt lat="46.72106" lon="-1.93957">
        <ele>2</ele>
        <time>2018-01-07T02:29:16Z</time>
      </trkpt>
      <trkpt lat="46.72117" lon="-1.93959">
        <ele>2</ele>
        <time>2018-01-07T02:30:16Z</time>
      </trkpt>
      <trkpt lat="46.72129" lon="-1.93963">
        <ele>2</ele>
        <time>2018-01-07T02:31:16Z</time>
      </trkpt>
      <trkpt lat="46.72139" lon="-1.93966">
        <ele>2</ele>
        <time>2018-01-07T02:32:16Z</time>
      </trkpt>
      <trkpt lat="46.72149" lon="-1.93969">
        <ele>2</ele>
        <time>2018-01-07T02:33:16Z</time>
      </trkpt>
      <trkpt lat="46.72158" lon="-1.93972">
        <ele>2</ele>
        <time>2018-01-07T02:34:16Z</time>
      </trkpt>
      <trkpt lat="46.72167" lon="-1.93976">
        <ele>2</ele>
        <time>2018-01-07T02:35:16Z</time>
      </trkpt>
      <trkpt lat="46.72174" lon="-1.93979">
        <ele>2</ele>
        <time>2018-01-07T02:36:16Z</time>
      </trkpt>
      <trkpt lat="46.72178" lon="-1.93981">
        <ele>2</ele>
        <time>2018-01-07T02:37:16Z</time>
      </trkpt>
      <trkpt lat="46.72183" lon="-1.93983">
        <ele>2</ele>
        <time>2018-01-07T02:38:16Z</time>
      </trkpt>
      <trkpt lat="46.72187" lon="-1.93985">
        <ele>2</ele>
        <time>2018-01-07T02:39:16Z</time>
      </trkpt>
      <trkpt lat="46.72191" lon="-1.93987">
        <ele>2</ele>
        <time>2018-01-07T02:40:16Z</time>
      </trkpt>
      <trkpt lat="46.72195" lon="-1.9399">
        <ele>2</ele>
        <time>2018-01-07T02:41:16Z</time>
      </trkpt>
      <trkpt lat="46.72201" lon="-1.93993">
        <ele>2</ele>
        <time>2018-01-07T02:42:16Z</time>
      </trkpt>
      <trkpt lat="46.72208" lon="-1.93997">
        <ele>2</ele>
        <time>2018-01-07T02:43:16Z</time>
      </trkpt>
      <trkpt lat="46.72214" lon="-1.94">
        <ele>1</ele>
        <time>2018-01-07T02:44:16Z</time>
      </trkpt>
      <trkpt lat="46.72222" lon="-1.94005">
        <ele>1</ele>
        <time>2018-01-07T02:45:16Z</time>
      </trkpt>
      <trkpt lat="46.72228" lon="-1.94009">
        <ele>1</ele>
        <time>2018-01-07T02:46:16Z</time>
      </trkpt>
      <trkpt lat="46.72235" lon="-1.94014">
        <ele>1</ele>
        <time>2018-01-07T02:47:16Z</time>
      </trkpt>
      <trkpt lat="46.72241" lon="-1.94019">
        <ele>2</ele>
        <time>2018-01-07T02:48:16Z</time>
      </trkpt>
      <trkpt lat="46.72248" lon="-1.94024">
        <ele>2</ele>
        <time>2018-01-07T02:49:16Z</time>
      </trkpt>
      <trkpt lat="46.72254" lon="-1.94029">
        <ele>2</ele>
        <time>2018-01-07T02:50:16Z</time>
      </trkpt>
      <trkpt lat="46.72262" lon="-1.94035">
        <ele>2</ele>
        <time>2018-01-07T02:51:16Z</time>
      </trkpt>
      <trkpt lat="46.72271" lon="-1.94043">
        <ele>2</ele>
        <time>2018-01-07T02:52:16Z</time>
      </trkpt>
      <trkpt lat="46.72278" lon="-1.94048">
        <ele>2</ele>
        <time>2018-01-07T02:53:16Z</time>
      </trkpt>
      <trkpt lat="46.72291" lon="-1.94061">
        <ele>3</ele>
        <time>2018-01-07T02:54:16Z</time>
      </trkpt>
      <trkpt lat="46.723" lon="-1.94069">
        <ele>3</ele>
        <time>2018-01-07T02:55:16Z</time>
      </trkpt>
      <trkpt lat="46.72306" lon="-1.94075">
        <ele>3</ele>
        <time>2018-01-07T02:56:16Z</time>
      </trkpt>
      <trkpt lat="46.72313" lon="-1.94083">
        <ele>4</ele>
        <time>2018-01-07T02:57:16Z</time>
      </trkpt>
      <trkpt lat="46.72321" lon="-1.94092">
        <ele>4</ele>
        <time>2018-01-07T02:58:16Z</time>
      </trkpt>
      <trkpt lat="46.72327" lon="-1.94099">
        <ele>4</ele>
        <time>2018-01-07T02:59:16Z</time>
      </trkpt>
      <trkpt lat="46.72334" lon="-1.94107">
        <ele>4</ele>
        <time>2018-01-07T03:00:16Z</time>
      </trkpt>
      <trkpt lat="46.72342" lon="-1.94117">
        <ele>4</ele>
        <time>2018-01-07T03:01:16Z</time>
      </trkpt>
      <trkpt lat="46.72346" lon="-1.94123">
        <ele>4</ele>
        <time>2018-01-07T03:02:16Z</time>
      </trkpt>
      <trkpt lat="46.7235" lon="-1.94128">
        <ele>4</ele>
        <time>2018-01-07T03:03:16Z</time>
      </trkpt>
      <trkpt lat="46.72354" lon="-1.94133">
        <ele>4</ele>
        <time>2018-01-07T03:04:16Z</time>
      </trkpt>
      <trkpt lat="46.72357" lon="-1.94138">
        <ele>4</ele>
        <time>2018-01-07T03:05:16Z</time>
      </trkpt>
      <trkpt lat="46.72362" lon="-1.94142">
        <ele>4</ele>
        <time>2018-01-07T03:06:16Z</time>
      </trkpt>
      <trkpt lat="46.72368" lon="-1.94152">
        <ele>4</ele>
        <time>2018-01-07T03:07:16Z</time>
      </trkpt>
      <trkpt lat="46.72373" lon="-1.94159">
        <ele>3</ele>
        <time>2018-01-07T03:08:16Z</time>
      </trkpt>
      <trkpt lat="46.72379" lon="-1.94169">
        <ele>3</ele>
        <time>2018-01-07T03:09:16Z</time>
      </trkpt>
      <trkpt lat="46.72386" lon="-1.9418">
        <ele>3</ele>
        <time>2018-01-07T03:10:16Z</time>
      </trkpt>
      <trkpt lat="46.72393" lon="-1.9419">
        <ele>3</ele>
        <time>2018-01-07T03:11:16Z</time>
      </trkpt>
      <trkpt lat="46.72401" lon="-1.94205">
        <ele>3</ele>
        <time>2018-01-07T03:12:16Z</time>
      </trkpt>
      <trkpt lat="46.7241" lon="-1.9422">
        <ele>3</ele>
        <time>2018-01-07T03:13:16Z</time>
      </trkpt>
      <trkpt lat="46.72424" lon="-1.94243">
        <ele>4</ele>
        <time>2018-01-07T03:14:16Z</time>
      </trkpt>
      <trkpt lat="46.72442" lon="-1.94276">
        <ele>4</ele>
        <time>2018-01-07T03:15:16Z</time>
      </trkpt>
      <trkpt lat="46.72468" lon="-1.94322">
        <ele>4</ele>
        <time>2018-01-07T03:16:16Z</time>
      </trkpt>
      <trkpt lat="46.7248" lon="-1.94343">
        <ele>4</ele>
        <time>2018-01-07T03:17:16Z</time>
      </trkpt>
      <trkpt lat="46.72499" lon="-1.94376">
        <ele>4</ele>
        <time>2018-01-07T03:18:16Z</time>
      </trkpt>
      <trkpt lat="46.72522" lon="-1.94419">
        <ele>4</ele>
        <time>2018-01-07T03:19:16Z</time>
      </trkpt>
      <trkpt lat="46.72543" lon="-1.9446">
        <ele>4</ele>
        <time>2018-01-07T03:20:16Z</time>
      </trkpt>
      <trkpt lat="46.72545" lon="-1.94468">
        <ele>4</ele>
        <time>2018-01-07T03:21:16Z</time>
      </trkpt>
      <trkpt lat="46.72583" lon="-1.94534">
        <ele>4</ele>
        <time>2018-01-07T03:22:16Z</time>
      </trkpt>
      <trkpt lat="46.7266" lon="-1.94672">
        <ele>4</ele>
        <time>2018-01-07T03:23:16Z</time>
      </trkpt>
      <trkpt lat="46.72674" lon="-1.94695">
        <ele>4</ele>
        <time>2018-01-07T03:24:16Z</time>
      </trkpt>
      <trkpt lat="46.72745" lon="-1.94823">
        <ele>5</ele>
        <time>2018-01-07T03:25:16Z</time>
      </trkpt>
      <trkpt lat="46.7275" lon="-1.94828">
        <ele>6</ele>
        <time>2018-01-07T03:26:16Z</time>
      </trkpt>
      <trkpt lat="46.72763" lon="-1.9485">
        <ele>5</ele>
        <time>2018-01-07T03:27:16Z</time>
      </trkpt>
      <trkpt lat="46.72766" lon="-1.94854">
        <ele>5</ele>
        <time>2018-01-07T03:28:16Z</time>
      </trkpt>
      <trkpt lat="46.72769" lon="-1.94859">
        <ele>5</ele>
        <time>2018-01-07T03:29:16Z</time>
      </trkpt>
      <trkpt lat="46.72772" lon="-1.94862">
        <ele>5</ele>
        <time>2018-01-07T03:30:16Z</time>
      </trkpt>
      <trkpt lat="46.72784" lon="-1.94874">
        <ele>5</ele>
        <time>2018-01-07T03:31:16Z</time>
      </trkpt>
      <trkpt lat="46.72784" lon="-1.94874">
        <ele>5</ele>
        <time>2018-01-07T03:32:16Z</time>
      </trkpt>
      <trkpt lat="46.72785" lon="-1.94874">
        <ele>5</ele>
        <time>2018-01-07T03:33:16Z</time>
      </trkpt>
      <trkpt lat="46.72787" lon="-1.94874">
        <ele>5</ele>
        <time>2018-01-07T03:34:16Z</time>
      </trkpt>
      <trkpt lat="46.72788" lon="-1.94874">
        <ele>5</ele>
        <time>2018-01-07T03:35:16Z</time>
      </trkpt>
      <trkpt lat="46.72789" lon="-1.94875">
        <ele>5</ele>
        <time>2018-01-07T03:36:16Z</time>
      </trkpt>
      <trkpt lat="46.72791" lon="-1.94875">
        <ele>5</ele>
        <time>2018-01-07T03:37:16Z</time>
      </trkpt>
      <trkpt lat="46.72792" lon="-1.94876">
        <ele>4</ele>
        <time>2018-01-07T03:38:16Z</time>
      </trkpt>
      <trkpt lat="46.72794" lon="-1.94876">
        <ele>4</ele>
        <time>2018-01-07T03:39:16Z</time>
      </trkpt>
      <trkpt lat="46.72795" lon="-1.94877">
        <ele>4</ele>
        <time>2018-01-07T03:40:16Z</time>
      </trkpt>
      <trkpt lat="46.72797" lon="-1.94878">
        <ele>4</ele>
        <time>2018-01-07T03:41:16Z</time>
      </trkpt>
      <trkpt lat="46.72799" lon="-1.9488">
        <ele>4</ele>
        <time>2018-01-07T03:42:16Z</time>
      </trkpt>
      <trkpt lat="46.72802" lon="-1.94882">
        <ele>4</ele>
        <time>2018-01-07T03:43:16Z</time>
      </trkpt>
      <trkpt lat="46.72804" lon="-1.94884">
        <ele>4</ele>
        <time>2018-01-07T03:44:16Z</time>
      </trkpt>
      <trkpt lat="46.72806" lon="-1.94887">
        <ele>4</ele>
        <time>2018-01-07T03:45:16Z</time>
      </trkpt>
      <trkpt lat="46.72807" lon="-1.94889">
        <ele>4</ele>
        <time>2018-01-07T03:46:16Z</time>
      </trkpt>
      <trkpt lat="46.72809" lon="-1.94892">
        <ele>4</ele>
        <time>2018-01-07T03:47:16Z</time>
      </trkpt>
      <trkpt lat="46.7281" lon="-1.94895">
        <ele>4</ele>
        <time>2018-01-07T03:48:16Z</time>
      </trkpt>
      <trkpt lat="46.7281" lon="-1.94896">
        <ele>4</ele>
        <time>2018-01-07T03:49:16Z</time>
      </trkpt>
      <trkpt lat="46.72811" lon="-1.94898">
        <ele>4</ele>
        <time>2018-01-07T03:50:16Z</time>
      </trkpt>
      <trkpt lat="46.72811" lon="-1.94899">
        <ele>4</ele>
        <time>2018-01-07T03:51:16Z</time>
      </trkpt>
      <trkpt lat="46.72812" lon="-1.949">
        <ele>4</ele>
        <time>2018-01-07T03:52:16Z</time>
      </trkpt>
      <trkpt lat="46.72812" lon="-1.94901">
        <ele>4</ele>
        <time>2018-01-07T03:53:16Z</time>
      </trkpt>
      <trkpt lat="46.72812" lon="-1.94902">
        <ele>4</ele>
        <time>2018-01-07T03:54:16Z</time>
      </trkpt>
      <trkpt lat="46.72813" lon="-1.94903">
        <ele>4</ele>
        <time>2018-01-07T03:55:16Z</time>
      </trkpt>
      <trkpt lat="46.72813" lon="-1.94904">
        <ele>4</ele>
        <time>2018-01-07T03:56:16Z</time>
      </trkpt>
      <trkpt lat="46.72822" lon="-1.94916">
        <ele>4</ele>
        <time>2018-01-07T03:57:16Z</time>
      </trkpt>
      <trkpt lat="46.72826" lon="-1.94919">
        <ele>4</ele>
        <time>2018-01-07T03:58:16Z</time>
      </trkpt>
      <trkpt lat="46.7283" lon="-1.94922">
        <ele>4</ele>
        <time>2018-01-07T03:59:16Z</time>
      </trkpt>
      <trkpt lat="46.72833" lon="-1.94923">
        <ele>4</ele>
        <time>2018-01-07T04:00:16Z</time>
      </trkpt>
      <trkpt lat="46.72836" lon="-1.94924">
        <ele>4</ele>
        <time>2018-01-07T04:01:16Z</time>
      </trkpt>
      <trkpt lat="46.72852" lon="-1.94927">
        <ele>4</ele>
        <time>2018-01-07T04:02:16Z</time>
      </trkpt>
      <trkpt lat="46.72884" lon="-1.94922">
        <ele>4</ele>
        <time>2018-01-07T04:03:16Z</time>
      </trkpt>
      <trkpt lat="46.72891" lon="-1.94922">
        <ele>4</ele>
        <time>2018-01-07T04:04:16Z</time>
      </trkpt>
      <trkpt lat="46.72898" lon="-1.94923">
        <ele>4</ele>
        <time>2018-01-07T04:05:16Z</time>
      </trkpt>
      <trkpt lat="46.72906" lon="-1.94925">
        <ele>4</ele>
        <time>2018-01-07T04:06:16Z</time>
      </trkpt>
      <trkpt lat="46.72917" lon="-1.94928">
        <ele>4</ele>
        <time>2018-01-07T04:07:16Z</time>
      </trkpt>
      <trkpt lat="46.72925" lon="-1.9493">
        <ele>4</ele>
        <time>2018-01-07T04:08:16Z</time>
      </trkpt>
      <trkpt lat="46.72938" lon="-1.94935">
        <ele>4</ele>
        <time>2018-01-07T04:09:16Z</time>
      </trkpt>
      <trkpt lat="46.72956" lon="-1.94942">
        <ele>5</ele>
        <time>2018-01-07T04:10:16Z</time>
      </trkpt>
      <trkpt lat="46.7298" lon="-1.9495">
        <ele>5</ele>
        <time>2018-01-07T04:11:16Z</time>
      </trkpt>
      <trkpt lat="46.73" lon="-1.94957">
        <ele>5</ele>
        <time>2018-01-07T04:12:16Z</time>
      </trkpt>
      <trkpt lat="46.73025" lon="-1.94967">
        <ele>6</ele>
        <time>2018-01-07T04:13:16Z</time>
      </trkpt>
      <trkpt lat="46.73055" lon="-1.94978">
        <ele>7</ele>
        <time>2018-01-07T04:14:16Z</time>
      </trkpt>
      <trkpt lat="46.73114" lon="-1.94997">
        <ele>7</ele>
        <time>2018-01-07T04:15:16Z</time>
      </trkpt>
      <trkpt lat="46.73121" lon="-1.95001">
        <ele>7</ele>
        <time>2018-01-07T04:16:16Z</time>
      </trkpt>
      <trkpt lat="46.73133" lon="-1.95002">
        <ele>7</ele>
        <time>2018-01-07T04:17:16Z</time>
      </trkpt>
      <trkpt lat="46.73184" lon="-1.95014">
        <ele>6</ele>
        <time>2018-01-07T04:18:16Z</time>
      </trkpt>
      <trkpt lat="46.73267" lon="-1.95029">
        <ele>4</ele>
        <time>2018-01-07T04:19:16Z</time>
      </trkpt>
      <trkpt lat="46.73309" lon="-1.95037">
        <ele>4</ele>
        <time>2018-01-07T04:20:16Z</time>
      </trkpt>
      <trkpt lat="46.73347" lon="-1.95044">
        <ele>4</ele>
        <time>2018-01-07T04:21:16Z</time>
      </trkpt>
      <trkpt lat="46.73392" lon="-1.95052">
        <ele>4</ele>
        <time>2018-01-07T04:22:16Z</time>
      </trkpt>
      <trkpt lat="46.73413" lon="-1.95056">
        <ele>5</ele>
        <time>2018-01-07T04:23:16Z</time>
      </trkpt>
      <trkpt lat="46.73422" lon="-1.95056">
        <ele>5</ele>
        <time>2018-01-07T04:24:16Z</time>
      </trkpt>
      <trkpt lat="46.73456" lon="-1.95061">
        <ele>5</ele>
        <time>2018-01-07T04:25:16Z</time>
      </trkpt>
      <trkpt lat="46.73462" lon="-1.95062">
        <ele>4</ele>
        <time>2018-01-07T04:26:16Z</time>
      </trkpt>
      <trkpt lat="46.73467" lon="-1.95062">
        <ele>4</ele>
        <time>2018-01-07T04:27:16Z</time>
      </trkpt>
      <trkpt lat="46.73474" lon="-1.95062">
        <ele>4</ele>
        <time>2018-01-07T04:28:16Z</time>
      </trkpt>
      <trkpt lat="46.73478" lon="-1.95062">
        <ele>4</ele>
        <time>2018-01-07T04:29:16Z</time>
      </trkpt>
      <trkpt lat="46.73492" lon="-1.95056">
        <ele>4</ele>
        <time>2018-01-07T04:30:16Z</time>
      </trkpt>
      <trkpt lat="46.73498" lon="-1.95057">
        <ele>4</ele>
        <time>2018-01-07T04:31:16Z</time>
      </trkpt>
      <trkpt lat="46.73505" lon="-1.95065">
        <ele>4</ele>
        <time>2018-01-07T04:32:16Z</time>
      </trkpt>
      <trkpt lat="46.73509" lon="-1.95069">
        <ele>4</ele>
        <time>2018-01-07T04:33:16Z</time>
      </trkpt>
      <trkpt lat="46.73513" lon="-1.95077">
        <ele>4</ele>
        <time>2018-01-07T04:34:16Z</time>
      </trkpt>
      <trkpt lat="46.73524" lon="-1.95083">
        <ele>4</ele>
        <time>2018-01-07T04:35:16Z</time>
      </trkpt>
      <trkpt lat="46.73533" lon="-1.95087">
        <ele>3</ele>
        <time>2018-01-07T04:36:16Z</time>
      </trkpt>
      <trkpt lat="46.73559" lon="-1.951">
        <ele>3</ele>
        <time>2018-01-07T04:37:16Z</time>
      </trkpt>
      <trkpt lat="46.73573" lon="-1.95108">
        <ele>2</ele>
        <time>2018-01-07T04:38:16Z</time>
      </trkpt>
      <trkpt lat="46.73589" lon="-1.95117">
        <ele>2</ele>
        <time>2018-01-07T04:39:16Z</time>
      </trkpt>
      <trkpt lat="46.73609" lon="-1.9513">
        <ele>2</ele>
        <time>2018-01-07T04:40:16Z</time>
      </trkpt>
      <trkpt lat="46.73634" lon="-1.95144">
        <ele>2</ele>
        <time>2018-01-07T04:41:16Z</time>
      </trkpt>
      <trkpt lat="46.73662" lon="-1.9516">
        <ele>3</ele>
        <time>2018-01-07T04:42:16Z</time>
      </trkpt>
      <trkpt lat="46.73663" lon="-1.95161">
        <ele>3</ele>
        <time>2018-01-07T04:43:16Z</time>
      </trkpt>
      <trkpt lat="46.73687" lon="-1.95175">
        <ele>3</ele>
        <time>2018-01-07T04:44:16Z</time>
      </trkpt>
      <trkpt lat="46.73714" lon="-1.95191">
        <ele>3</ele>
        <time>2018-01-07T04:45:16Z</time>
      </trkpt>
      <trkpt lat="46.73742" lon="-1.95206">
        <ele>4</ele>
        <time>2018-01-07T04:46:16Z</time>
      </trkpt>
      <trkpt lat="46.73762" lon="-1.95218">
        <ele>4</ele>
        <time>2018-01-07T04:47:16Z</time>
      </trkpt>
      <trkpt lat="46.73784" lon="-1.95228">
        <ele>4</ele>
        <time>2018-01-07T04:48:16Z</time>
      </trkpt>
      <trkpt lat="46.73804" lon="-1.95237">
        <ele>4</ele>
        <time>2018-01-07T04:49:16Z</time>
      </trkpt>
      <trkpt lat="46.73826" lon="-1.95246">
        <ele>3</ele>
        <time>2018-01-07T04:50:16Z</time>
      </trkpt>
      <trkpt lat="46.73862" lon="-1.95261">
        <ele>3</ele>
        <time>2018-01-07T04:51:16Z</time>
      </trkpt>
      <trkpt lat="46.7389" lon="-1.95273">
        <ele>3</ele>
        <time>2018-01-07T04:52:16Z</time>
      </trkpt>
      <trkpt lat="46.7391" lon="-1.95281">
        <ele>3</ele>
        <time>2018-01-07T04:53:16Z</time>
      </trkpt>
      <trkpt lat="46.73939" lon="-1.95292">
        <ele>4</ele>
        <time>2018-01-07T04:54:16Z</time>
      </trkpt>
      <trkpt lat="46.73962" lon="-1.95302">
        <ele>4</ele>
        <time>2018-01-07T04:55:16Z</time>
      </trkpt>
      <trkpt lat="46.73984" lon="-1.95313">
        <ele>4</ele>
        <time>2018-01-07T04:56:16Z</time>
      </trkpt>
      <trkpt lat="46.74006" lon="-1.95327">
        <ele>5</ele>
        <time>2018-01-07T04:57:16Z</time>
      </trkpt>
      <trkpt lat="46.7402" lon="-1.95337">
        <ele>5</ele>
        <time>2018-01-07T04:58:16Z</time>
      </trkpt>
      <trkpt lat="46.74038" lon="-1.95351">
        <ele>5</ele>
        <time>2018-01-07T04:59:16Z</time>
      </trkpt>
      <trkpt lat="46.74062" lon="-1.9537">
        <ele>5</ele>
        <time>2018-01-07T05:00:16Z</time>
      </trkpt>
      <trkpt lat="46.7408" lon="-1.95382">
        <ele>5</ele>
        <time>2018-01-07T05:01:16Z</time>
      </trkpt>
      <trkpt lat="46.74095" lon="-1.95392">
        <ele>4</ele>
        <time>2018-01-07T05:02:16Z</time>
      </trkpt>
      <trkpt lat="46.74106" lon="-1.954">
        <ele>3</ele>
        <time>2018-01-07T05:03:16Z</time>
      </trkpt>
      <trkpt lat="46.74111" lon="-1.95404">
        <ele>3</ele>
        <time>2018-01-07T05:04:16Z</time>
      </trkpt>
      <trkpt lat="46.74136" lon="-1.95419">
        <ele>2</ele>
        <time>2018-01-07T05:05:16Z</time>
      </trkpt>
      <trkpt lat="46.74158" lon="-1.95432">
        <ele>2</ele>
        <time>2018-01-07T05:06:16Z</time>
      </trkpt>
      <trkpt lat="46.74188" lon="-1.95446">
        <ele>2</ele>
        <time>2018-01-07T05:07:16Z</time>
      </trkpt>
      <trkpt lat="46.74206" lon="-1.95455">
        <ele>2</ele>
        <time>2018-01-07T05:08:16Z</time>
      </trkpt>
      <trkpt lat="46.74234" lon="-1.95466">
        <ele>1</ele>
        <time>2018-01-07T05:09:16Z</time>
      </trkpt>
      <trkpt lat="46.74259" lon="-1.95474">
        <ele>1</ele>
        <time>2018-01-07T05:10:16Z</time>
      </trkpt>
      <trkpt lat="46.74293" lon="-1.95482">
        <ele>1</ele>
        <time>2018-01-07T05:11:16Z</time>
      </trkpt>
      <trkpt lat="46.7433" lon="-1.9549">
        <ele>1</ele>
        <time>2018-01-07T05:12:16Z</time>
      </trkpt>
      <trkpt lat="46.74368" lon="-1.95497">
        <ele>1</ele>
        <time>2018-01-07T05:13:16Z</time>
      </trkpt>
      <trkpt lat="46.74394" lon="-1.95502">
        <ele>2</ele>
        <time>2018-01-07T05:14:16Z</time>
      </trkpt>
      <trkpt lat="46.74416" lon="-1.95507">
        <ele>2</ele>
        <time>2018-01-07T05:15:16Z</time>
      </trkpt>
      <trkpt lat="46.74425" lon="-1.95511">
        <ele>2</ele>
        <time>2018-01-07T05:16:16Z</time>
      </trkpt>
      <trkpt lat="46.74432" lon="-1.95514">
        <ele>2</ele>
        <time>2018-01-07T05:17:16Z</time>
      </trkpt>
      <trkpt lat="46.74451" lon="-1.95519">
        <ele>2</ele>
        <time>2018-01-07T05:18:16Z</time>
      </trkpt>
      <trkpt lat="46.74451" lon="-1.95519">
        <ele>2</ele>
        <time>2018-01-07T05:19:16Z</time>
      </trkpt>
      <trkpt lat="46.74454" lon="-1.95517">
        <ele>2</ele>
        <time>2018-01-07T05:20:16Z</time>
      </trkpt>
      <trkpt lat="46.74458" lon="-1.95516">
        <ele>2</ele>
        <time>2018-01-07T05:21:16Z</time>
      </trkpt>
      <trkpt lat="46.74462" lon="-1.95518">
        <ele>1</ele>
        <time>2018-01-07T05:22:16Z</time>
      </trkpt>
      <trkpt lat="46.74467" lon="-1.95521">
        <ele>1</ele>
        <time>2018-01-07T05:23:16Z</time>
      </trkpt>
      <trkpt lat="46.74469" lon="-1.95527">
        <ele>1</ele>
        <time>2018-01-07T05:24:16Z</time>
      </trkpt>
      <trkpt lat="46.74469" lon="-1.95531">
        <ele>1</ele>
        <time>2018-01-07T05:25:16Z</time>
      </trkpt>
      <trkpt lat="46.74469" lon="-1.95537">
        <ele>1</ele>
        <time>2018-01-07T05:26:16Z</time>
      </trkpt>
      <trkpt lat="46.7448" lon="-1.9554">
        <ele>1</ele>
        <time>2018-01-07T05:27:16Z</time>
      </trkpt>
      <trkpt lat="46.74484" lon="-1.95541">
        <ele>1</ele>
        <time>2018-01-07T05:28:16Z</time>
      </trkpt>
      <trkpt lat="46.74493" lon="-1.95545">
        <ele>2</ele>
        <time>2018-01-07T05:29:16Z</time>
      </trkpt>
      <trkpt lat="46.74509" lon="-1.95549">
        <ele>2</ele>
        <time>2018-01-07T05:30:16Z</time>
      </trkpt>
      <trkpt lat="46.74531" lon="-1.95554">
        <ele>2</ele>
        <time>2018-01-07T05:31:16Z</time>
      </trkpt>
      <trkpt lat="46.74567" lon="-1.95561">
        <ele>3</ele>
        <time>2018-01-07T05:32:16Z</time>
      </trkpt>
      <trkpt lat="46.74591" lon="-1.95567">
        <ele>3</ele>
        <time>2018-01-07T05:33:16Z</time>
      </trkpt>
      <trkpt lat="46.7462" lon="-1.95573">
        <ele>2</ele>
        <time>2018-01-07T05:34:16Z</time>
      </trkpt>
      <trkpt lat="46.74644" lon="-1.95576">
        <ele>2</ele>
        <time>2018-01-07T05:35:16Z</time>
      </trkpt>
      <trkpt lat="46.74666" lon="-1.95578">
        <ele>2</ele>
        <time>2018-01-07T05:36:16Z</time>
      </trkpt>
      <trkpt lat="46.74688" lon="-1.95576">
        <ele>2</ele>
        <time>2018-01-07T05:37:16Z</time>
      </trkpt>
      <trkpt lat="46.74708" lon="-1.95575">
        <ele>2</ele>
        <time>2018-01-07T05:38:16Z</time>
      </trkpt>
      <trkpt lat="46.74738" lon="-1.95572">
        <ele>1</ele>
        <time>2018-01-07T05:39:16Z</time>
      </trkpt>
      <trkpt lat="46.74762" lon="-1.95571">
        <ele>1</ele>
        <time>2018-01-07T05:40:16Z</time>
      </trkpt>
      <trkpt lat="46.74771" lon="-1.9557">
        <ele>1</ele>
        <time>2018-01-07T05:41:16Z</time>
      </trkpt>
      <trkpt lat="46.74785" lon="-1.95572">
        <ele>1</ele>
        <time>2018-01-07T05:42:16Z</time>
      </trkpt>
      <trkpt lat="46.74806" lon="-1.95574">
        <ele>2</ele>
        <time>2018-01-07T05:43:16Z</time>
      </trkpt>
      <trkpt lat="46.74826" lon="-1.9558">
        <ele>2</ele>
        <time>2018-01-07T05:44:16Z</time>
      </trkpt>
      <trkpt lat="46.74848" lon="-1.95588">
        <ele>2</ele>
        <time>2018-01-07T05:45:16Z</time>
      </trkpt>
      <trkpt lat="46.74872" lon="-1.95599">
        <ele>1</ele>
        <time>2018-01-07T05:46:16Z</time>
      </trkpt>
      <trkpt lat="46.74893" lon="-1.95608">
        <ele>1</ele>
        <time>2018-01-07T05:47:16Z</time>
      </trkpt>
      <trkpt lat="46.7492" lon="-1.95623">
        <ele>1</ele>
        <time>2018-01-07T05:48:16Z</time>
      </trkpt>
      <trkpt lat="46.74928" lon="-1.95627">
        <ele>1</ele>
        <time>2018-01-07T05:49:16Z</time>
      </trkpt>
      <trkpt lat="46.74953" lon="-1.95639">
        <ele>1</ele>
        <time>2018-01-07T05:50:16Z</time>
      </trkpt>
      <trkpt lat="46.74994" lon="-1.95658">
        <ele>2</ele>
        <time>2018-01-07T05:51:16Z</time>
      </trkpt>
      <trkpt lat="46.75029" lon="-1.95675">
        <ele>1</ele>
        <time>2018-01-07T05:52:16Z</time>
      </trkpt>
      <trkpt lat="46.75053" lon="-1.95686">
        <ele>1</ele>
        <time>2018-01-07T05:53:16Z</time>
      </trkpt>
      <trkpt lat="46.7508" lon="-1.95696">
        <ele>1</ele>
        <time>2018-01-07T05:54:16Z</time>
      </trkpt>
      <trkpt lat="46.75102" lon="-1.95701">
        <ele>1</ele>
        <time>2018-01-07T05:55:16Z</time>
      </trkpt>
      <trkpt lat="46.75128" lon="-1.95704">
        <ele>1</ele>
        <time>2018-01-07T05:56:16Z</time>
      </trkpt>
      <trkpt lat="46.75163" lon="-1.95705">
        <ele>1</ele>
        <time>2018-01-07T05:57:16Z</time>
      </trkpt>
      <trkpt lat="46.75193" lon="-1.95706">
        <ele>1</ele>
        <time>2018-01-07T05:58:16Z</time>
      </trkpt>
      <trkpt lat="46.75217" lon="-1.95706">
        <ele>2</ele>
        <time>2018-01-07T05:59:16Z</time>
      </trkpt>
      <trkpt lat="46.75236" lon="-1.95709">
        <ele>1</ele>
        <time>2018-01-07T06:00:16Z</time>
      </trkpt>
      <trkpt lat="46.75243" lon="-1.95711">
        <ele>1</ele>
        <time>2018-01-07T06:01:16Z</time>
      </trkpt>
      <trkpt lat="46.75274" lon="-1.9572">
        <ele>1</ele>
        <time>2018-01-07T06:02:16Z</time>
      </trkpt>
      <trkpt lat="46.7531" lon="-1.95737">
        <ele>1</ele>
        <time>2018-01-07T06:03:16Z</time>
      </trkpt>
      <trkpt lat="46.75348" lon="-1.95757">
        <ele>1</ele>
        <time>2018-01-07T06:04:16Z</time>
      </trkpt>
      <trkpt lat="46.75367" lon="-1.95767">
        <ele>1</ele>
        <time>2018-01-07T06:05:16Z</time>
      </trkpt>
      <trkpt lat="46.75427" lon="-1.95799">
        <ele>2</ele>
        <time>2018-01-07T06:06:16Z</time>
      </trkpt>
      <trkpt lat="46.75477" lon="-1.95826">
        <ele>2</ele>
        <time>2018-01-07T06:07:16Z</time>
      </trkpt>
      <trkpt lat="46.75506" lon="-1.9584">
        <ele>3</ele>
        <time>2018-01-07T06:08:16Z</time>
      </trkpt>
      <trkpt lat="46.75522" lon="-1.95849">
        <ele>2</ele>
        <time>2018-01-07T06:09:16Z</time>
      </trkpt>
      <trkpt lat="46.7553" lon="-1.95855">
        <ele>2</ele>
        <time>2018-01-07T06:10:16Z</time>
      </trkpt>
      <trkpt lat="46.75564" lon="-1.95868">
        <ele>1</ele>
        <time>2018-01-07T06:11:16Z</time>
      </trkpt>
      <trkpt lat="46.75565" lon="-1.95868">
        <ele>1</ele>
        <time>2018-01-07T06:12:16Z</time>
      </trkpt>
      <trkpt lat="46.75612" lon="-1.95882">
        <ele>2</ele>
        <time>2018-01-07T06:13:16Z</time>
      </trkpt>
      <trkpt lat="46.75657" lon="-1.95895">
        <ele>3</ele>
        <time>2018-01-07T06:14:16Z</time>
      </trkpt>
      <trkpt lat="46.75696" lon="-1.95905">
        <ele>3</ele>
        <time>2018-01-07T06:15:16Z</time>
      </trkpt>
      <trkpt lat="46.75724" lon="-1.95909">
        <ele>3</ele>
        <time>2018-01-07T06:16:16Z</time>
      </trkpt>
      <trkpt lat="46.75766" lon="-1.95913">
        <ele>2</ele>
        <time>2018-01-07T06:17:16Z</time>
      </trkpt>
      <trkpt lat="46.75855" lon="-1.95917">
        <ele>3</ele>
        <time>2018-01-07T06:18:16Z</time>
      </trkpt>
      <trkpt lat="46.75857" lon="-1.95917">
        <ele>3</ele>
        <time>2018-01-07T06:19:16Z</time>
      </trkpt>
      <trkpt lat="46.75903" lon="-1.9592">
        <ele>4</ele>
        <time>2018-01-07T06:20:16Z</time>
      </trkpt>
      <trkpt lat="46.75906" lon="-1.9592">
        <ele>4</ele>
        <time>2018-01-07T06:21:16Z</time>
      </trkpt>
      <trkpt lat="46.75927" lon="-1.9592">
        <ele>4</ele>
        <time>2018-01-07T06:22:16Z</time>
      </trkpt>
      <trkpt lat="46.75982" lon="-1.95923">
        <ele>5</ele>
        <time>2018-01-07T06:23:16Z</time>
      </trkpt>
      <trkpt lat="46.76002" lon="-1.95925">
        <ele>6</ele>
        <time>2018-01-07T06:24:16Z</time>
      </trkpt>
      <trkpt lat="46.7602" lon="-1.95927">
        <ele>5</ele>
        <time>2018-01-07T06:25:16Z</time>
      </trkpt>
      <trkpt lat="46.76034" lon="-1.95931">
        <ele>5</ele>
        <time>2018-01-07T06:26:16Z</time>
      </trkpt>
      <trkpt lat="46.7605" lon="-1.95936">
        <ele>5</ele>
        <time>2018-01-07T06:27:16Z</time>
      </trkpt>
      <trkpt lat="46.76057" lon="-1.95938">
        <ele>5</ele>
        <time>2018-01-07T06:28:16Z</time>
      </trkpt>
      <trkpt lat="46.76101" lon="-1.95956">
        <ele>4</ele>
        <time>2018-01-07T06:29:16Z</time>
      </trkpt>
      <trkpt lat="46.76153" lon="-1.95979">
        <ele>3</ele>
        <time>2018-01-07T06:30:16Z</time>
      </trkpt>
      <trkpt lat="46.76203" lon="-1.96002">
        <ele>4</ele>
        <time>2018-01-07T06:31:16Z</time>
      </trkpt>
      <trkpt lat="46.76226" lon="-1.96014">
        <ele>4</ele>
        <time>2018-01-07T06:32:16Z</time>
      </trkpt>
      <trkpt lat="46.76249" lon="-1.96029">
        <ele>4</ele>
        <time>2018-01-07T06:33:16Z</time>
      </trkpt>
      <trkpt lat="46.76286" lon="-1.96055">
        <ele>3</ele>
        <time>2018-01-07T06:34:16Z</time>
      </trkpt>
      <trkpt lat="46.76308" lon="-1.9607">
        <ele>3</ele>
        <time>2018-01-07T06:35:16Z</time>
      </trkpt>
      <trkpt lat="46.76318" lon="-1.96076">
        <ele>3</ele>
        <time>2018-01-07T06:36:16Z</time>
      </trkpt>
      <trkpt lat="46.76325" lon="-1.9608">
        <ele>3</ele>
        <time>2018-01-07T06:37:16Z</time>
      </trkpt>
      <trkpt lat="46.76353" lon="-1.96093">
        <ele>3</ele>
        <time>2018-01-07T06:38:16Z</time>
      </trkpt>
      <trkpt lat="46.76383" lon="-1.96105">
        <ele>2</ele>
        <time>2018-01-07T06:39:16Z</time>
      </trkpt>
      <trkpt lat="46.76411" lon="-1.96114">
        <ele>2</ele>
        <time>2018-01-07T06:40:16Z</time>
      </trkpt>
      <trkpt lat="46.76431" lon="-1.96121">
        <ele>2</ele>
        <time>2018-01-07T06:41:16Z</time>
      </trkpt>
      <trkpt lat="46.76435" lon="-1.96123">
        <ele>2</ele>
        <time>2018-01-07T06:42:16Z</time>
      </trkpt>
      <trkpt lat="46.76485" lon="-1.96139">
        <ele>2</ele>
        <time>2018-01-07T06:43:16Z</time>
      </trkpt>
      <trkpt lat="46.76513" lon="-1.9615">
        <ele>3</ele>
        <time>2018-01-07T06:44:16Z</time>
      </trkpt>
      <trkpt lat="46.76539" lon="-1.9616">
        <ele>3</ele>
        <time>2018-01-07T06:45:16Z</time>
      </trkpt>
      <trkpt lat="46.76618" lon="-1.96189">
        <ele>4</ele>
        <time>2018-01-07T06:46:16Z</time>
      </trkpt>
      <trkpt lat="46.76722" lon="-1.9623">
        <ele>3</ele>
        <time>2018-01-07T06:47:16Z</time>
      </trkpt>
      <trkpt lat="46.76785" lon="-1.96253">
        <ele>3</ele>
        <time>2018-01-07T06:48:16Z</time>
      </trkpt>
      <trkpt lat="46.76817" lon="-1.96263">
        <ele>3</ele>
        <time>2018-01-07T06:49:16Z</time>
      </trkpt>
      <trkpt lat="46.76872" lon="-1.96271">
        <ele>3</ele>
        <time>2018-01-07T06:50:16Z</time>
      </trkpt>
      <trkpt lat="46.76887" lon="-1.96274">
        <ele>4</ele>
        <time>2018-01-07T06:51:16Z</time>
      </trkpt>
      <trkpt lat="46.76928" lon="-1.96281">
        <ele>3</ele>
        <time>2018-01-07T06:52:16Z</time>
      </trkpt>
      <trkpt lat="46.76955" lon="-1.96283">
        <ele>3</ele>
        <time>2018-01-07T06:53:16Z</time>
      </trkpt>
      <trkpt lat="46.77023" lon="-1.96289">
        <ele>3</ele>
        <time>2018-01-07T06:54:16Z</time>
      </trkpt>
      <trkpt lat="46.77029" lon="-1.96289">
        <ele>4</ele>
        <time>2018-01-07T06:55:16Z</time>
      </trkpt>
      <trkpt lat="46.77103" lon="-1.96298">
        <ele>6</ele>
        <time>2018-01-07T06:56:16Z</time>
      </trkpt>
      <trkpt lat="46.77132" lon="-1.96302">
        <ele>6</ele>
        <time>2018-01-07T06:57:16Z</time>
      </trkpt>
      <trkpt lat="46.77151" lon="-1.96315">
        <ele>6</ele>
        <time>2018-01-07T06:58:16Z</time>
      </trkpt>
      <trkpt lat="46.77152" lon="-1.96313">
        <ele>6</ele>
        <time>2018-01-07T06:59:16Z</time>
      </trkpt>
      <trkpt lat="46.77153" lon="-1.96311">
        <ele>6</ele>
        <time>2018-01-07T07:00:16Z</time>
      </trkpt>
      <trkpt lat="46.77154" lon="-1.96309">
        <ele>6</ele>
        <time>2018-01-07T07:01:16Z</time>
      </trkpt>
      <trkpt lat="46.77156" lon="-1.96307">
        <ele>6</ele>
        <time>2018-01-07T07:02:16Z</time>
      </trkpt>
      <trkpt lat="46.77158" lon="-1.96306">
        <ele>6</ele>
        <time>2018-01-07T07:03:16Z</time>
      </trkpt>
      <trkpt lat="46.7716" lon="-1.96306">
        <ele>6</ele>
        <time>2018-01-07T07:04:16Z</time>
      </trkpt>
      <trkpt lat="46.77163" lon="-1.96307">
        <ele>6</ele>
        <time>2018-01-07T07:05:16Z</time>
      </trkpt>
      <trkpt lat="46.77164" lon="-1.96309">
        <ele>6</ele>
        <time>2018-01-07T07:06:16Z</time>
      </trkpt>
      <trkpt lat="46.77165" lon="-1.96312">
        <ele>6</ele>
        <time>2018-01-07T07:07:16Z</time>
      </trkpt>
      <trkpt lat="46.77166" lon="-1.96314">
        <ele>7</ele>
        <time>2018-01-07T07:08:16Z</time>
      </trkpt>
      <trkpt lat="46.77186" lon="-1.9632">
        <ele>6</ele>
        <time>2018-01-07T07:09:16Z</time>
      </trkpt>
      <trkpt lat="46.77211" lon="-1.96338">
        <ele>5</ele>
        <time>2018-01-07T07:10:16Z</time>
      </trkpt>
      <trkpt lat="46.77263" lon="-1.96387">
        <ele>4</ele>
        <time>2018-01-07T07:11:16Z</time>
      </trkpt>
      <trkpt lat="46.77281" lon="-1.96404">
        <ele>5</ele>
        <time>2018-01-07T07:12:16Z</time>
      </trkpt>
      <trkpt lat="46.77306" lon="-1.96428">
        <ele>5</ele>
        <time>2018-01-07T07:13:16Z</time>
      </trkpt>
      <trkpt lat="46.77363" lon="-1.96484">
        <ele>4</ele>
        <time>2018-01-07T07:14:16Z</time>
      </trkpt>
      <trkpt lat="46.77365" lon="-1.96485">
        <ele>4</ele>
        <time>2018-01-07T07:15:16Z</time>
      </trkpt>
      <trkpt lat="46.77467" lon="-1.96589">
        <ele>6</ele>
        <time>2018-01-07T07:16:16Z</time>
      </trkpt>
      <trkpt lat="46.77468" lon="-1.9659">
        <ele>6</ele>
        <time>2018-01-07T07:17:16Z</time>
      </trkpt>
      <trkpt lat="46.77477" lon="-1.96599">
        <ele>6</ele>
        <time>2018-01-07T07:18:16Z</time>
      </trkpt>
      <trkpt lat="46.77484" lon="-1.96602">
        <ele>6</ele>
        <time>2018-01-07T07:19:16Z</time>
      </trkpt>
      <trkpt lat="46.7752" lon="-1.96637">
        <ele>6</ele>
        <time>2018-01-07T07:20:16Z</time>
      </trkpt>
      <trkpt lat="46.77524" lon="-1.96644">
        <ele>6</ele>
        <time>2018-01-07T07:21:16Z</time>
      </trkpt>
      <trkpt lat="46.77571" lon="-1.96688">
        <ele>5</ele>
        <time>2018-01-07T07:22:16Z</time>
      </trkpt>
      <trkpt lat="46.77684" lon="-1.96793">
        <ele>3</ele>
        <time>2018-01-07T07:23:16Z</time>
      </trkpt>
      <trkpt lat="46.77701" lon="-1.9681">
        <ele>3</ele>
        <time>2018-01-07T07:24:16Z</time>
      </trkpt>
      <trkpt lat="46.77731" lon="-1.96834">
        <ele>4</ele>
        <time>2018-01-07T07:25:16Z</time>
      </trkpt>
      <trkpt lat="46.77755" lon="-1.96851">
        <ele>4</ele>
        <time>2018-01-07T07:26:16Z</time>
      </trkpt>
      <trkpt lat="46.77782" lon="-1.96865">
        <ele>4</ele>
        <time>2018-01-07T07:27:16Z</time>
      </trkpt>
      <trkpt lat="46.77818" lon="-1.96879">
        <ele>5</ele>
        <time>2018-01-07T07:28:16Z</time>
      </trkpt>
      <trkpt lat="46.77842" lon="-1.96888">
        <ele>5</ele>
        <time>2018-01-07T07:29:16Z</time>
      </trkpt>
      <trkpt lat="46.77886" lon="-1.96906">
        <ele>4</ele>
        <time>2018-01-07T07:30:16Z</time>
      </trkpt>
      <trkpt lat="46.77917" lon="-1.96918">
        <ele>3</ele>
        <time>2018-01-07T07:31:16Z</time>
      </trkpt>
      <trkpt lat="46.77938" lon="-1.96929">
        <ele>3</ele>
        <time>2018-01-07T07:32:16Z</time>
      </trkpt>
      <trkpt lat="46.7796" lon="-1.9694">
        <ele>4</ele>
        <time>2018-01-07T07:33:16Z</time>
      </trkpt>
      <trkpt lat="46.77993" lon="-1.96959">
        <ele>4</ele>
        <time>2018-01-07T07:34:16Z</time>
      </trkpt>
      <trkpt lat="46.78048" lon="-1.96989">
        <ele>5</ele>
        <time>2018-01-07T07:35:16Z</time>
      </trkpt>
      <trkpt lat="46.78108" lon="-1.97022">
        <ele>5</ele>
        <time>2018-01-07T07:36:16Z</time>
      </trkpt>
      <trkpt lat="46.78149" lon="-1.97046">
        <ele>4</ele>
        <time>2018-01-07T07:37:16Z</time>
      </trkpt>
      <trkpt lat="46.78183" lon="-1.97064">
        <ele>3</ele>
        <time>2018-01-07T07:38:16Z</time>
      </trkpt>
      <trkpt lat="46.78207" lon="-1.97077">
        <ele>3</ele>
        <time>2018-01-07T07:39:16Z</time>
      </trkpt>
      <trkpt lat="46.7822" lon="-1.97084">
        <ele>3</ele>
        <time>2018-01-07T07:40:16Z</time>
      </trkpt>
      <trkpt lat="46.78249" lon="-1.971">
        <ele>3</ele>
        <time>2018-01-07T07:41:16Z</time>
      </trkpt>
      <trkpt lat="46.78282" lon="-1.97119">
        <ele>4</ele>
        <time>2018-01-07T07:42:16Z</time>
      </trkpt>
      <trkpt lat="46.78307" lon="-1.97133">
        <ele>5</ele>
        <time>2018-01-07T07:43:16Z</time>
      </trkpt>
      <trkpt lat="46.78423" lon="-1.97197">
        <ele>5</ele>
        <time>2018-01-07T07:44:16Z</time>
      </trkpt>
      <trkpt lat="46.78465" lon="-1.97216">
        <ele>4</ele>
        <time>2018-01-07T07:45:16Z</time>
      </trkpt>
      <trkpt lat="46.78503" lon="-1.97232">
        <ele>4</ele>
        <time>2018-01-07T07:46:16Z</time>
      </trkpt>
      <trkpt lat="46.7852" lon="-1.97238">
        <ele>5</ele>
        <time>2018-01-07T07:47:16Z</time>
      </trkpt>
      <trkpt lat="46.78587" lon="-1.97263">
        <ele>5</ele>
        <time>2018-01-07T07:48:16Z</time>
      </trkpt>
      <trkpt lat="46.78612" lon="-1.97274">
        <ele>4</ele>
        <time>2018-01-07T07:49:16Z</time>
      </trkpt>
      <trkpt lat="46.78638" lon="-1.97284">
        <ele>3</ele>
        <time>2018-01-07T07:50:16Z</time>
      </trkpt>
      <trkpt lat="46.78647" lon="-1.97287">
        <ele>3</ele>
        <time>2018-01-07T07:51:16Z</time>
      </trkpt>
      <trkpt lat="46.78708" lon="-1.97311">
        <ele>3</ele>
        <time>2018-01-07T07:52:16Z</time>
      </trkpt>
      <trkpt lat="46.78761" lon="-1.97331">
        <ele>3</ele>
        <time>2018-01-07T07:53:16Z</time>
      </trkpt>
      <trkpt lat="46.78843" lon="-1.97362">
        <ele>5</ele>
        <time>2018-01-07T07:54:16Z</time>
      </trkpt>
      <trkpt lat="46.78896" lon="-1.97382">
        <ele>3</ele>
        <time>2018-01-07T07:55:16Z</time>
      </trkpt>
      <trkpt lat="46.78935" lon="-1.97397">
        <ele>2</ele>
        <time>2018-01-07T07:56:16Z</time>
      </trkpt>
      <trkpt lat="46.78959" lon="-1.97409">
        <ele>2</ele>
        <time>2018-01-07T07:57:16Z</time>
      </trkpt>
      <trkpt lat="46.78968" lon="-1.97414">
        <ele>2</ele>
        <time>2018-01-07T07:58:16Z</time>
      </trkpt>
      <trkpt lat="46.78983" lon="-1.97425">
        <ele>2</ele>
        <time>2018-01-07T07:59:16Z</time>
      </trkpt>
      <trkpt lat="46.79006" lon="-1.97445">
        <ele>2</ele>
        <time>2018-01-07T08:00:16Z</time>
      </trkpt>
      <trkpt lat="46.7903" lon="-1.97473">
        <ele>1</ele>
        <time>2018-01-07T08:01:16Z</time>
      </trkpt>
      <trkpt lat="46.79053" lon="-1.9751">
        <ele>1</ele>
        <time>2018-01-07T08:02:16Z</time>
      </trkpt>
      <trkpt lat="46.7907" lon="-1.97542">
        <ele>1</ele>
        <time>2018-01-07T08:03:16Z</time>
      </trkpt>
      <trkpt lat="46.79076" lon="-1.97554">
        <ele>1</ele>
        <time>2018-01-07T08:04:16Z</time>
      </trkpt>
      <trkpt lat="46.79111" lon="-1.97621">
        <ele>1</ele>
        <time>2018-01-07T08:05:16Z</time>
      </trkpt>
      <trkpt lat="46.79132" lon="-1.97662">
        <ele>1.8</ele>
        <time>2018-01-07T08:06:16Z</time>
      </trkpt>
      <trkpt lat="46.79154" lon="-1.97705">
        <ele>2</ele>
        <time>2018-01-07T08:07:16Z</time>
      </trkpt>
      <trkpt lat="46.79202" lon="-1.97797">
        <ele>1</ele>
        <time>2018-01-07T08:08:16Z</time>
      </trkpt>
      <trkpt lat="46.79227" lon="-1.97845">
        <ele>1</ele>
        <time>2018-01-07T08:09:16Z</time>
      </trkpt>
      <trkpt lat="46.79245" lon="-1.97877">
        <ele>1</ele>
        <time>2018-01-07T08:10:16Z</time>
      </trkpt>
      <trkpt lat="46.79256" lon="-1.97893">
        <ele>1</ele>
        <time>2018-01-07T08:11:16Z</time>
      </trkpt>
      <trkpt lat="46.79261" lon="-1.97899">
        <ele>1</ele>
        <time>2018-01-07T08:12:16Z</time>
      </trkpt>
      <trkpt lat="46.79268" lon="-1.97907">
        <ele>1</ele>
        <time>2018-01-07T08:13:16Z</time>
      </trkpt>
      <trkpt lat="46.79273" lon="-1.9791">
        <ele>1</ele>
        <time>2018-01-07T08:14:16Z</time>
      </trkpt>
      <trkpt lat="46.79277" lon="-1.97913">
        <ele>1</ele>
        <time>2018-01-07T08:15:16Z</time>
      </trkpt>
      <trkpt lat="46.79287" lon="-1.97918">
        <ele>1</ele>
        <time>2018-01-07T08:16:16Z</time>
      </trkpt>
      <trkpt lat="46.79291" lon="-1.9792">
        <ele>1</ele>
        <time>2018-01-07T08:17:16Z</time>
      </trkpt>
      <trkpt lat="46.79294" lon="-1.97921">
        <ele>1</ele>
        <time>2018-01-07T08:18:16Z</time>
      </trkpt>
      <trkpt lat="46.793" lon="-1.97923">
        <ele>1</ele>
        <time>2018-01-07T08:19:16Z</time>
      </trkpt>
      <trkpt lat="46.79312" lon="-1.97923">
        <ele>1</ele>
        <time>2018-01-07T08:20:16Z</time>
      </trkpt>
      <trkpt lat="46.79351" lon="-1.9792">
        <ele>1</ele>
        <time>2018-01-07T08:21:16Z</time>
      </trkpt>
      <trkpt lat="46.79423" lon="-1.97912">
        <ele>2</ele>
        <time>2018-01-07T08:22:16Z</time>
      </trkpt>
      <trkpt lat="46.7949" lon="-1.97903">
        <ele>1.8</ele>
        <time>2018-01-07T08:23:16Z</time>
      </trkpt>
      <trkpt lat="46.79537" lon="-1.97898">
        <ele>1.8</ele>
        <time>2018-01-07T08:24:16Z</time>
      </trkpt>
      <trkpt lat="46.79557" lon="-1.97895">
        <ele>2</ele>
        <time>2018-01-07T08:25:16Z</time>
      </trkpt>
      <trkpt lat="46.79571" lon="-1.97892">
        <ele>2</ele>
        <time>2018-01-07T08:26:16Z</time>
      </trkpt>
      <trkpt lat="46.7959" lon="-1.97887">
        <ele>2</ele>
        <time>2018-01-07T08:27:16Z</time>
      </trkpt>
      <trkpt lat="46.79616" lon="-1.97877">
        <ele>2</ele>
        <time>2018-01-07T08:28:16Z</time>
      </trkpt>
      <trkpt lat="46.79642" lon="-1.97867">
        <ele>1</ele>
        <time>2018-01-07T08:29:16Z</time>
      </trkpt>
      <trkpt lat="46.79681" lon="-1.97851">
        <ele>1</ele>
        <time>2018-01-07T08:30:16Z</time>
      </trkpt>
      <trkpt lat="46.79705" lon="-1.97841">
        <ele>1</ele>
        <time>2018-01-07T08:31:16Z</time>
      </trkpt>
      <trkpt lat="46.79728" lon="-1.97832">
        <ele>1</ele>
        <time>2018-01-07T08:32:16Z</time>
      </trkpt>
      <trkpt lat="46.79753" lon="-1.97822">
        <ele>1</ele>
        <time>2018-01-07T08:33:16Z</time>
      </trkpt>
      <trkpt lat="46.7977" lon="-1.97818">
        <ele>1</ele>
        <time>2018-01-07T08:34:16Z</time>
      </trkpt>
      <trkpt lat="46.79791" lon="-1.97817">
        <ele>2</ele>
        <time>2018-01-07T08:35:16Z</time>
      </trkpt>
      <trkpt lat="46.79818" lon="-1.97823">
        <ele>2</ele>
        <time>2018-01-07T08:36:16Z</time>
      </trkpt>
      <trkpt lat="46.79845" lon="-1.97834">
        <ele>2</ele>
        <time>2018-01-07T08:37:16Z</time>
      </trkpt>
      <trkpt lat="46.79879" lon="-1.97853">
        <ele>2</ele>
        <time>2018-01-07T08:38:16Z</time>
      </trkpt>
      <trkpt lat="46.79912" lon="-1.97874">
        <ele>2</ele>
        <time>2018-01-07T08:39:16Z</time>
      </trkpt>
      <trkpt lat="46.79941" lon="-1.97903">
        <ele>2</ele>
        <time>2018-01-07T08:40:16Z</time>
      </trkpt>
      <trkpt lat="46.79972" lon="-1.97938">
        <ele>2</ele>
        <time>2018-01-07T08:41:16Z</time>
      </trkpt>
      <trkpt lat="46.79974" lon="-1.9794">
        <ele>2</ele>
        <time>2018-01-07T08:42:16Z</time>
      </trkpt>
      <trkpt lat="46.80002" lon="-1.97973">
        <ele>2</ele>
        <time>2018-01-07T08:43:16Z</time>
      </trkpt>
      <trkpt lat="46.80027" lon="-1.97997">
        <ele>2.9</ele>
        <time>2018-01-07T08:44:16Z</time>
      </trkpt>
      <trkpt lat="46.80035" lon="-1.98003">
        <ele>2.7</ele>
        <time>2018-01-07T08:45:16Z</time>
      </trkpt>
      <trkpt lat="46.80063" lon="-1.98017">
        <ele>2</ele>
        <time>2018-01-07T08:46:16Z</time>
      </trkpt>
      <trkpt lat="46.80097" lon="-1.98034">
        <ele>2</ele>
        <time>2018-01-07T08:47:16Z</time>
      </trkpt>
      <trkpt lat="46.80126" lon="-1.98045">
        <ele>1</ele>
        <time>2018-01-07T08:48:16Z</time>
      </trkpt>
      <trkpt lat="46.80128" lon="-1.98045">
        <ele>1</ele>
        <time>2018-01-07T08:49:16Z</time>
      </trkpt>
      <trkpt lat="46.8014" lon="-1.9805">
        <ele>1</ele>
        <time>2018-01-07T08:50:16Z</time>
      </trkpt>
      <trkpt lat="46.8016" lon="-1.98058">
        <ele>1</ele>
        <time>2018-01-07T08:51:16Z</time>
      </trkpt>
      <trkpt lat="46.80188" lon="-1.9807">
        <ele>2</ele>
        <time>2018-01-07T08:52:16Z</time>
      </trkpt>
      <trkpt lat="46.80212" lon="-1.9808">
        <ele>2</ele>
        <time>2018-01-07T08:53:16Z</time>
      </trkpt>
      <trkpt lat="46.80226" lon="-1.98085">
        <ele>2</ele>
        <time>2018-01-07T08:54:16Z</time>
      </trkpt>
      <trkpt lat="46.80244" lon="-1.98094">
        <ele>2</ele>
        <time>2018-01-07T08:55:16Z</time>
      </trkpt>
      <trkpt lat="46.80262" lon="-1.98105">
        <ele>2</ele>
        <time>2018-01-07T08:56:16Z</time>
      </trkpt>
      <trkpt lat="46.80276" lon="-1.98119">
        <ele>2</ele>
        <time>2018-01-07T08:57:16Z</time>
      </trkpt>
      <trkpt lat="46.8029" lon="-1.98133">
        <ele>2</ele>
        <time>2018-01-07T08:58:16Z</time>
      </trkpt>
      <trkpt lat="46.80291" lon="-1.98135">
        <ele>2</ele>
        <time>2018-01-07T08:59:16Z</time>
      </trkpt>
      <trkpt lat="46.80307" lon="-1.98155">
        <ele>1</ele>
        <time>2018-01-07T09:00:16Z</time>
      </trkpt>
      <trkpt lat="46.8033" lon="-1.98178">
        <ele>1</ele>
        <time>2018-01-07T09:01:16Z</time>
      </trkpt>
      <trkpt lat="46.80354" lon="-1.98206">
        <ele>2</ele>
        <time>2018-01-07T09:02:16Z</time>
      </trkpt>
      <trkpt lat="46.80368" lon="-1.98222">
        <ele>2</ele>
        <time>2018-01-07T09:03:16Z</time>
      </trkpt>
      <trkpt lat="46.80387" lon="-1.98245">
        <ele>2</ele>
        <time>2018-01-07T09:04:16Z</time>
      </trkpt>
      <trkpt lat="46.80426" lon="-1.98291">
        <ele>1</ele>
        <time>2018-01-07T09:05:16Z</time>
      </trkpt>
      <trkpt lat="46.8044" lon="-1.98306">
        <ele>1</ele>
        <time>2018-01-07T09:06:16Z</time>
      </trkpt>
      <trkpt lat="46.80466" lon="-1.98323">
        <ele>1</ele>
        <time>2018-01-07T09:07:16Z</time>
      </trkpt>
      <trkpt lat="46.80471" lon="-1.98323">
        <ele>1</ele>
        <time>2018-01-07T09:08:16Z</time>
      </trkpt>
      <trkpt lat="46.80478" lon="-1.98324">
        <ele>1</ele>
        <time>2018-01-07T09:09:16Z</time>
      </trkpt>
      <trkpt lat="46.80481" lon="-1.98327">
        <ele>1</ele>
        <time>2018-01-07T09:10:16Z</time>
      </trkpt>
      <trkpt lat="46.80483" lon="-1.98329">
        <ele>1</ele>
        <time>2018-01-07T09:11:16Z</time>
      </trkpt>
      <trkpt lat="46.80485" lon="-1.98332">
        <ele>1</ele>
        <time>2018-01-07T09:12:16Z</time>
      </trkpt>
      <trkpt lat="46.80487" lon="-1.98336">
        <ele>1</ele>
        <time>2018-01-07T09:13:16Z</time>
      </trkpt>
      <trkpt lat="46.80487" lon="-1.98339">
        <ele>1</ele>
        <time>2018-01-07T09:14:16Z</time>
      </trkpt>
      <trkpt lat="46.80487" lon="-1.98349">
        <ele>1</ele>
        <time>2018-01-07T09:15:16Z</time>
      </trkpt>
      <trkpt lat="46.80518" lon="-1.9839">
        <ele>2.3</ele>
        <time>2018-01-07T09:16:16Z</time>
      </trkpt>
      <trkpt lat="46.80522" lon="-1.98399">
        <ele>2.1</ele>
        <time>2018-01-07T09:17:16Z</time>
      </trkpt>
      <trkpt lat="46.8053" lon="-1.98408">
        <ele>2</ele>
        <time>2018-01-07T09:18:16Z</time>
      </trkpt>
      <trkpt lat="46.80628" lon="-1.9851">
        <ele>1.9</ele>
        <time>2018-01-07T09:19:16Z</time>
      </trkpt>
      <trkpt lat="46.80691" lon="-1.98577">
        <ele>1</ele>
        <time>2018-01-07T09:20:16Z</time>
      </trkpt>
      <trkpt lat="46.80741" lon="-1.98633">
        <ele>2</ele>
        <time>2018-01-07T09:21:16Z</time>
      </trkpt>
      <trkpt lat="46.80799" lon="-1.98696">
        <ele>2</ele>
        <time>2018-01-07T09:22:16Z</time>
      </trkpt>
      <trkpt lat="46.80823" lon="-1.98721">
        <ele>1.6</ele>
        <time>2018-01-07T09:23:16Z</time>
      </trkpt>
      <trkpt lat="46.80874" lon="-1.98762">
        <ele>1</ele>
        <time>2018-01-07T09:24:16Z</time>
      </trkpt>
      <trkpt lat="46.80932" lon="-1.98808">
        <ele>1</ele>
        <time>2018-01-07T09:25:16Z</time>
      </trkpt>
      <trkpt lat="46.80982" lon="-1.98848">
        <ele>2</ele>
        <time>2018-01-07T09:26:16Z</time>
      </trkpt>
      <trkpt lat="46.81011" lon="-1.98871">
        <ele>1</ele>
        <time>2018-01-07T09:27:16Z</time>
      </trkpt>
      <trkpt lat="46.81029" lon="-1.98885">
        <ele>1</ele>
        <time>2018-01-07T09:28:16Z</time>
      </trkpt>
      <trkpt lat="46.81049" lon="-1.98901">
        <ele>1</ele>
        <time>2018-01-07T09:29:16Z</time>
      </trkpt>
      <trkpt lat="46.81063" lon="-1.98909">
        <ele>1</ele>
        <time>2018-01-07T09:30:16Z</time>
      </trkpt>
      <trkpt lat="46.81076" lon="-1.98914">
        <ele>1</ele>
        <time>2018-01-07T09:31:16Z</time>
      </trkpt>
      <trkpt lat="46.81082" lon="-1.98915">
        <ele>1</ele>
        <time>2018-01-07T09:32:16Z</time>
      </trkpt>
      <trkpt lat="46.81092" lon="-1.98916">
        <ele>1</ele>
        <time>2018-01-07T09:33:16Z</time>
      </trkpt>
      <trkpt lat="46.81102" lon="-1.98915">
        <ele>1</ele>
        <time>2018-01-07T09:34:16Z</time>
      </trkpt>
      <trkpt lat="46.81109" lon="-1.98916">
        <ele>1</ele>
        <time>2018-01-07T09:35:16Z</time>
      </trkpt>
      <trkpt lat="46.81115" lon="-1.9891">
        <ele>1</ele>
        <time>2018-01-07T09:36:16Z</time>
      </trkpt>
      <trkpt lat="46.81124" lon="-1.98903">
        <ele>1</ele>
        <time>2018-01-07T09:37:16Z</time>
      </trkpt>
      <trkpt lat="46.81132" lon="-1.98892">
        <ele>1</ele>
        <time>2018-01-07T09:38:16Z</time>
      </trkpt>
      <trkpt lat="46.81149" lon="-1.98867">
        <ele>1</ele>
        <time>2018-01-07T09:39:16Z</time>
      </trkpt>
      <trkpt lat="46.81165" lon="-1.98844">
        <ele>1</ele>
        <time>2018-01-07T09:40:16Z</time>
      </trkpt>
      <trkpt lat="46.81176" lon="-1.98831">
        <ele>2</ele>
        <time>2018-01-07T09:41:16Z</time>
      </trkpt>
      <trkpt lat="46.81183" lon="-1.98825">
        <ele>2</ele>
        <time>2018-01-07T09:42:16Z</time>
      </trkpt>
      <trkpt lat="46.81188" lon="-1.98823">
        <ele>2</ele>
        <time>2018-01-07T09:43:16Z</time>
      </trkpt>
      <trkpt lat="46.81197" lon="-1.98819">
        <ele>1.9</ele>
        <time>2018-01-07T09:44:16Z</time>
      </trkpt>
      <trkpt lat="46.81212" lon="-1.98819">
        <ele>1.4</ele>
        <time>2018-01-07T09:45:16Z</time>
      </trkpt>
      <trkpt lat="46.81225" lon="-1.98822">
        <ele>1.1</ele>
        <time>2018-01-07T09:46:16Z</time>
      </trkpt>
      <trkpt lat="46.81234" lon="-1.98828">
        <ele>1.4</ele>
        <time>2018-01-07T09:47:16Z</time>
      </trkpt>
      <trkpt lat="46.81244" lon="-1.98835">
        <ele>1.8</ele>
        <time>2018-01-07T09:48:16Z</time>
      </trkpt>
      <trkpt lat="46.81251" lon="-1.98841">
        <ele>2</ele>
        <time>2018-01-07T09:49:16Z</time>
      </trkpt>
      <trkpt lat="46.81282" lon="-1.9887">
        <ele>1</ele>
        <time>2018-01-07T09:50:16Z</time>
      </trkpt>
      <trkpt lat="46.81297" lon="-1.98885">
        <ele>1</ele>
        <time>2018-01-07T09:51:16Z</time>
      </trkpt>
      <trkpt lat="46.8135" lon="-1.98938">
        <ele>2</ele>
        <time>2018-01-07T09:52:16Z</time>
      </trkpt>
      <trkpt lat="46.81385" lon="-1.98973">
        <ele>2</ele>
        <time>2018-01-07T09:53:16Z</time>
      </trkpt>
      <trkpt lat="46.81427" lon="-1.99014">
        <ele>2</ele>
        <time>2018-01-07T09:54:16Z</time>
      </trkpt>
      <trkpt lat="46.81461" lon="-1.99046">
        <ele>2</ele>
        <time>2018-01-07T09:55:16Z</time>
      </trkpt>
      <trkpt lat="46.81496" lon="-1.9908">
        <ele>3</ele>
        <time>2018-01-07T09:56:16Z</time>
      </trkpt>
      <trkpt lat="46.81522" lon="-1.99104">
        <ele>2</ele>
        <time>2018-01-07T09:57:16Z</time>
      </trkpt>
      <trkpt lat="46.81527" lon="-1.9911">
        <ele>2</ele>
        <time>2018-01-07T09:58:16Z</time>
      </trkpt>
      <trkpt lat="46.81544" lon="-1.99129">
        <ele>2</ele>
        <time>2018-01-07T09:59:16Z</time>
      </trkpt>
      <trkpt lat="46.81574" lon="-1.99159">
        <ele>1</ele>
        <time>2018-01-07T10:00:16Z</time>
      </trkpt>
      <trkpt lat="46.81604" lon="-1.99187">
        <ele>1</ele>
        <time>2018-01-07T10:01:16Z</time>
      </trkpt>
      <trkpt lat="46.81631" lon="-1.99207">
        <ele>2</ele>
        <time>2018-01-07T10:02:16Z</time>
      </trkpt>
      <trkpt lat="46.81645" lon="-1.99214">
        <ele>2</ele>
        <time>2018-01-07T10:03:16Z</time>
      </trkpt>
      <trkpt lat="46.8165" lon="-1.99216">
        <ele>2</ele>
        <time>2018-01-07T10:04:16Z</time>
      </trkpt>
      <trkpt lat="46.81672" lon="-1.99226">
        <ele>2</ele>
        <time>2018-01-07T10:05:16Z</time>
      </trkpt>
      <trkpt lat="46.81696" lon="-1.99234">
        <ele>2</ele>
        <time>2018-01-07T10:06:16Z</time>
      </trkpt>
      <trkpt lat="46.81702" lon="-1.99235">
        <ele>1</ele>
        <time>2018-01-07T10:07:16Z</time>
      </trkpt>
      <trkpt lat="46.81733" lon="-1.99241">
        <ele>1</ele>
        <time>2018-01-07T10:08:16Z</time>
      </trkpt>
      <trkpt lat="46.81748" lon="-1.99246">
        <ele>1</ele>
        <time>2018-01-07T10:09:16Z</time>
      </trkpt>
      <trkpt lat="46.81802" lon="-1.99259">
        <ele>2</ele>
        <time>2018-01-07T10:10:16Z</time>
      </trkpt>
      <trkpt lat="46.81835" lon="-1.99268">
        <ele>2</ele>
        <time>2018-01-07T10:11:16Z</time>
      </trkpt>
      <trkpt lat="46.81869" lon="-1.99278">
        <ele>2</ele>
        <time>2018-01-07T10:12:16Z</time>
      </trkpt>
      <trkpt lat="46.81878" lon="-1.99278">
        <ele>2</ele>
        <time>2018-01-07T10:13:16Z</time>
      </trkpt>
      <trkpt lat="46.81879" lon="-1.99279">
        <ele>2</ele>
        <time>2018-01-07T10:14:16Z</time>
      </trkpt>
      <trkpt lat="46.81888" lon="-1.99281">
        <ele>2</ele>
        <time>2018-01-07T10:15:16Z</time>
      </trkpt>
      <trkpt lat="46.81899" lon="-1.99285">
        <ele>2</ele>
        <time>2018-01-07T10:16:16Z</time>
      </trkpt>
      <trkpt lat="46.819" lon="-1.99285">
        <ele>2</ele>
        <time>2018-01-07T10:17:16Z</time>
      </trkpt>
      <trkpt lat="46.819" lon="-1.99284">
        <ele>2</ele>
        <time>2018-01-07T10:18:16Z</time>
      </trkpt>
      <trkpt lat="46.81901" lon="-1.99284">
        <ele>2</ele>
        <time>2018-01-07T10:19:16Z</time>
      </trkpt>
      <trkpt lat="46.81901" lon="-1.99283">
        <ele>2</ele>
        <time>2018-01-07T10:20:16Z</time>
      </trkpt>
      <trkpt lat="46.81902" lon="-1.99283">
        <ele>2</ele>
        <time>2018-01-07T10:21:16Z</time>
      </trkpt>
      <trkpt lat="46.81903" lon="-1.99283">
        <ele>2</ele>
        <time>2018-01-07T10:22:16Z</time>
      </trkpt>
      <trkpt lat="46.81904" lon="-1.99282">
        <ele>2</ele>
        <time>2018-01-07T10:23:16Z</time>
      </trkpt>
      <trkpt lat="46.81905" lon="-1.99282">
        <ele>2</ele>
        <time>2018-01-07T10:24:16Z</time>
      </trkpt>
      <trkpt lat="46.81906" lon="-1.99282">
        <ele>2</ele>
        <time>2018-01-07T10:25:16Z</time>
      </trkpt>
      <trkpt lat="46.81907" lon="-1.99283">
        <ele>2</ele>
        <time>2018-01-07T10:26:16Z</time>
      </trkpt>
      <trkpt lat="46.81908" lon="-1.99283">
        <ele>2</ele>
        <time>2018-01-07T10:27:16Z</time>
      </trkpt>
      <trkpt lat="46.81909" lon="-1.99283">
        <ele>2</ele>
        <time>2018-01-07T10:28:16Z</time>
      </trkpt>
      <trkpt lat="46.81909" lon="-1.99284">
        <ele>2</ele>
        <time>2018-01-07T10:29:16Z</time>
      </trkpt>
      <trkpt lat="46.8191" lon="-1.99284">
        <ele>2</ele>
        <time>2018-01-07T10:30:16Z</time>
      </trkpt>
      <trkpt lat="46.8191" lon="-1.99285">
        <ele>2</ele>
        <time>2018-01-07T10:31:16Z</time>
      </trkpt>
      <trkpt lat="46.81911" lon="-1.99285">
        <ele>2</ele>
        <time>2018-01-07T10:32:16Z</time>
      </trkpt>
      <trkpt lat="46.81911" lon="-1.99286">
        <ele>2</ele>
        <time>2018-01-07T10:33:16Z</time>
      </trkpt>
      <trkpt lat="46.81912" lon="-1.99287">
        <ele>2</ele>
        <time>2018-01-07T10:34:16Z</time>
      </trkpt>
      <trkpt lat="46.81912" lon="-1.99288">
        <ele>2</ele>
        <time>2018-01-07T10:35:16Z</time>
      </trkpt>
      <trkpt lat="46.81913" lon="-1.99288">
        <ele>2</ele>
        <time>2018-01-07T10:36:16Z</time>
      </trkpt>
      <trkpt lat="46.81913" lon="-1.99289">
        <ele>2</ele>
        <time>2018-01-07T10:37:16Z</time>
      </trkpt>
      <trkpt lat="46.81913" lon="-1.9929">
        <ele>2</ele>
        <time>2018-01-07T10:38:16Z</time>
      </trkpt>
      <trkpt lat="46.81914" lon="-1.99291">
        <ele>2</ele>
        <time>2018-01-07T10:39:16Z</time>
      </trkpt>
      <trkpt lat="46.81914" lon="-1.99292">
        <ele>2</ele>
        <time>2018-01-07T10:40:16Z</time>
      </trkpt>
      <trkpt lat="46.81914" lon="-1.99293">
        <ele>2</ele>
        <time>2018-01-07T10:41:16Z</time>
      </trkpt>
      <trkpt lat="46.81914" lon="-1.99294">
        <ele>2</ele>
        <time>2018-01-07T10:42:16Z</time>
      </trkpt>
      <trkpt lat="46.81914" lon="-1.99295">
        <ele>2</ele>
        <time>2018-01-07T10:43:16Z</time>
      </trkpt>
      <trkpt lat="46.8193" lon="-1.99305">
        <ele>2</ele>
        <time>2018-01-07T10:44:16Z</time>
      </trkpt>
      <trkpt lat="46.81938" lon="-1.99308">
        <ele>2</ele>
        <time>2018-01-07T10:45:16Z</time>
      </trkpt>
      <trkpt lat="46.8194" lon="-1.99309">
        <ele>2</ele>
        <time>2018-01-07T10:46:16Z</time>
      </trkpt>
      <trkpt lat="46.81957" lon="-1.99317">
        <ele>2</ele>
        <time>2018-01-07T10:47:16Z</time>
      </trkpt>
      <trkpt lat="46.81959" lon="-1.99318">
        <ele>2</ele>
        <time>2018-01-07T10:48:16Z</time>
      </trkpt>
      <trkpt lat="46.82001" lon="-1.99337">
        <ele>2</ele>
        <time>2018-01-07T10:49:16Z</time>
      </trkpt>
      <trkpt lat="46.82009" lon="-1.99341">
        <ele>2</ele>
        <time>2018-01-07T10:50:16Z</time>
      </trkpt>
      <trkpt lat="46.82024" lon="-1.99346">
        <ele>2</ele>
        <time>2018-01-07T10:51:16Z</time>
      </trkpt>
      <trkpt lat="46.82026" lon="-1.99347">
        <ele>2</ele>
        <time>2018-01-07T10:52:16Z</time>
      </trkpt>
      <trkpt lat="46.82064" lon="-1.99358">
        <ele>1</ele>
        <time>2018-01-07T10:53:16Z</time>
      </trkpt>
      <trkpt lat="46.82092" lon="-1.99366">
        <ele>1</ele>
        <time>2018-01-07T10:54:16Z</time>
      </trkpt>
      <trkpt lat="46.82103" lon="-1.99371">
        <ele>1</ele>
        <time>2018-01-07T10:55:16Z</time>
      </trkpt>
      <trkpt lat="46.82109" lon="-1.99373">
        <ele>1</ele>
        <time>2018-01-07T10:56:16Z</time>
      </trkpt>
      <trkpt lat="46.82116" lon="-1.99376">
        <ele>1</ele>
        <time>2018-01-07T10:57:16Z</time>
      </trkpt>
      <trkpt lat="46.8212" lon="-1.99379">
        <ele>1</ele>
        <time>2018-01-07T10:58:16Z</time>
      </trkpt>
      <trkpt lat="46.82127" lon="-1.99382">
        <ele>1</ele>
        <time>2018-01-07T10:59:16Z</time>
      </trkpt>
      <trkpt lat="46.82141" lon="-1.99391">
        <ele>1</ele>
        <time>2018-01-07T11:00:16Z</time>
      </trkpt>
      <trkpt lat="46.82159" lon="-1.99405">
        <ele>1</ele>
        <time>2018-01-07T11:01:16Z</time>
      </trkpt>
      <trkpt lat="46.82165" lon="-1.99409">
        <ele>1</ele>
        <time>2018-01-07T11:02:16Z</time>
      </trkpt>
      <trkpt lat="46.82177" lon="-1.99416">
        <ele>1</ele>
        <time>2018-01-07T11:03:16Z</time>
      </trkpt>
      <trkpt lat="46.82193" lon="-1.99427">
        <ele>1</ele>
        <time>2018-01-07T11:04:16Z</time>
      </trkpt>
      <trkpt lat="46.82201" lon="-1.99433">
        <ele>2</ele>
        <time>2018-01-07T11:05:16Z</time>
      </trkpt>
      <trkpt lat="46.82221" lon="-1.99448">
        <ele>2</ele>
        <time>2018-01-07T11:06:16Z</time>
      </trkpt>
      <trkpt lat="46.82229" lon="-1.99454">
        <ele>2</ele>
        <time>2018-01-07T11:07:16Z</time>
      </trkpt>
      <trkpt lat="46.82252" lon="-1.99472">
        <ele>2</ele>
        <time>2018-01-07T11:08:16Z</time>
      </trkpt>
      <trkpt lat="46.82264" lon="-1.99481">
        <ele>2</ele>
        <time>2018-01-07T11:09:16Z</time>
      </trkpt>
      <trkpt lat="46.82265" lon="-1.99482">
        <ele>2</ele>
        <time>2018-01-07T11:10:16Z</time>
      </trkpt>
      <trkpt lat="46.82271" lon="-1.99486">
        <ele>2</ele>
        <time>2018-01-07T11:11:16Z</time>
      </trkpt>
      <trkpt lat="46.82278" lon="-1.99491">
        <ele>2</ele>
        <time>2018-01-07T11:12:16Z</time>
      </trkpt>
      <trkpt lat="46.82286" lon="-1.99496">
        <ele>2</ele>
        <time>2018-01-07T11:13:16Z</time>
      </trkpt>
      <trkpt lat="46.82305" lon="-1.9951">
        <ele>2</ele>
        <time>2018-01-07T11:14:16Z</time>
      </trkpt>
      <trkpt lat="46.82326" lon="-1.99524">
        <ele>2</ele>
        <time>2018-01-07T11:15:16Z</time>
      </trkpt>
      <trkpt lat="46.82341" lon="-1.99533">
        <ele>1</ele>
        <time>2018-01-07T11:16:16Z</time>
      </trkpt>
      <trkpt lat="46.82352" lon="-1.9954">
        <ele>1</ele>
        <time>2018-01-07T11:17:16Z</time>
      </trkpt>
      <trkpt lat="46.82366" lon="-1.99544">
        <ele>1</ele>
        <time>2018-01-07T11:18:16Z</time>
      </trkpt>
      <trkpt lat="46.82383" lon="-1.99548">
        <ele>1</ele>
        <time>2018-01-07T11:19:16Z</time>
      </trkpt>
      <trkpt lat="46.82395" lon="-1.9955">
        <ele>1</ele>
        <time>2018-01-07T11:20:16Z</time>
      </trkpt>
      <trkpt lat="46.82414" lon="-1.99553">
        <ele>2</ele>
        <time>2018-01-07T11:21:16Z</time>
      </trkpt>
      <trkpt lat="46.82426" lon="-1.99559">
        <ele>2</ele>
        <time>2018-01-07T11:22:16Z</time>
      </trkpt>
      <trkpt lat="46.82426" lon="-1.99559">
        <ele>2</ele>
        <time>2018-01-07T11:23:16Z</time>
      </trkpt>
      <trkpt lat="46.82427" lon="-1.99559">
        <ele>2</ele>
        <time>2018-01-07T11:24:16Z</time>
      </trkpt>
      <trkpt lat="46.82428" lon="-1.99558">
        <ele>2</ele>
        <time>2018-01-07T11:25:16Z</time>
      </trkpt>
      <trkpt lat="46.82429" lon="-1.99558">
        <ele>2</ele>
        <time>2018-01-07T11:26:16Z</time>
      </trkpt>
      <trkpt lat="46.8243" lon="-1.99557">
        <ele>2</ele>
        <time>2018-01-07T11:27:16Z</time>
      </trkpt>
      <trkpt lat="46.82431" lon="-1.99557">
        <ele>2</ele>
        <time>2018-01-07T11:28:16Z</time>
      </trkpt>
      <trkpt lat="46.82432" lon="-1.99557">
        <ele>1</ele>
        <time>2018-01-07T11:29:16Z</time>
      </trkpt>
      <trkpt lat="46.82436" lon="-1.99553">
        <ele>1</ele>
        <time>2018-01-07T11:30:16Z</time>
      </trkpt>
      <trkpt lat="46.82438" lon="-1.9955">
        <ele>1</ele>
        <time>2018-01-07T11:31:16Z</time>
      </trkpt>
      <trkpt lat="46.82441" lon="-1.99545">
        <ele>1</ele>
        <time>2018-01-07T11:32:16Z</time>
      </trkpt>
      <trkpt lat="46.82442" lon="-1.99544">
        <ele>1</ele>
        <time>2018-01-07T11:33:16Z</time>
      </trkpt>
      <trkpt lat="46.82444" lon="-1.99538">
        <ele>1</ele>
        <time>2018-01-07T11:34:16Z</time>
      </trkpt>
      <trkpt lat="46.82447" lon="-1.9953">
        <ele>1</ele>
        <time>2018-01-07T11:35:16Z</time>
      </trkpt>
      <trkpt lat="46.8245" lon="-1.99523">
        <ele>1</ele>
        <time>2018-01-07T11:36:16Z</time>
      </trkpt>
      <trkpt lat="46.82453" lon="-1.99517">
        <ele>1</ele>
        <time>2018-01-07T11:37:16Z</time>
      </trkpt>
      <trkpt lat="46.82459" lon="-1.99506">
        <ele>1</ele>
        <time>2018-01-07T11:38:16Z</time>
      </trkpt>
      <trkpt lat="46.82462" lon="-1.99501">
        <ele>2</ele>
        <time>2018-01-07T11:39:16Z</time>
      </trkpt>
      <trkpt lat="46.82467" lon="-1.99495">
        <ele>2</ele>
        <time>2018-01-07T11:40:16Z</time>
      </trkpt>
      <trkpt lat="46.82472" lon="-1.9949">
        <ele>1</ele>
        <time>2018-01-07T11:41:16Z</time>
      </trkpt>
      <trkpt lat="46.82477" lon="-1.99484">
        <ele>1</ele>
        <time>2018-01-07T11:42:16Z</time>
      </trkpt>
      <trkpt lat="46.82482" lon="-1.9948">
        <ele>1</ele>
        <time>2018-01-07T11:43:16Z</time>
      </trkpt>
      <trkpt lat="46.82486" lon="-1.99478">
        <ele>1</ele>
        <time>2018-01-07T11:44:16Z</time>
      </trkpt>
      <trkpt lat="46.82486" lon="-1.99477">
        <ele>1</ele>
        <time>2018-01-07T11:45:16Z</time>
      </trkpt>
      <trkpt lat="46.8249" lon="-1.99476">
        <ele>1</ele>
        <time>2018-01-07T11:46:16Z</time>
      </trkpt>
      <trkpt lat="46.82496" lon="-1.99475">
        <ele>1</ele>
        <time>2018-01-07T11:47:16Z</time>
      </trkpt>
      <trkpt lat="46.82502" lon="-1.99475">
        <ele>1</ele>
        <time>2018-01-07T11:48:16Z</time>
      </trkpt>
      <trkpt lat="46.82509" lon="-1.99476">
        <ele>1</ele>
        <time>2018-01-07T11:49:16Z</time>
      </trkpt>
      <trkpt lat="46.82515" lon="-1.99477">
        <ele>2</ele>
        <time>2018-01-07T11:50:16Z</time>
      </trkpt>
      <trkpt lat="46.82518" lon="-1.99479">
        <ele>2</ele>
        <time>2018-01-07T11:51:16Z</time>
      </trkpt>
      <trkpt lat="46.82549" lon="-1.99485">
        <ele>1.6</ele>
        <time>2018-01-07T11:52:16Z</time>
      </trkpt>
      <trkpt lat="46.82563" lon="-1.99489">
        <ele>1.6</ele>
        <time>2018-01-07T11:53:16Z</time>
      </trkpt>
      <trkpt lat="46.82593" lon="-1.99497">
        <ele>1.9</ele>
        <time>2018-01-07T11:54:16Z</time>
      </trkpt>
      <trkpt lat="46.82615" lon="-1.995">
        <ele>2</ele>
        <time>2018-01-07T11:55:16Z</time>
      </trkpt>
      <trkpt lat="46.82639" lon="-1.99498">
        <ele>2</ele>
        <time>2018-01-07T11:56:16Z</time>
      </trkpt>
      <trkpt lat="46.82683" lon="-1.99489">
        <ele>1</ele>
        <time>2018-01-07T11:57:16Z</time>
      </trkpt>
      <trkpt lat="46.82718" lon="-1.99481">
        <ele>1</ele>
        <time>2018-01-07T11:58:16Z</time>
      </trkpt>
      <trkpt lat="46.8276" lon="-1.9947">
        <ele>2.6</ele>
        <time>2018-01-07T11:59:16Z</time>
      </trkpt>
      <trkpt lat="46.82801" lon="-1.99461">
        <ele>2.5</ele>
        <time>2018-01-07T12:00:16Z</time>
      </trkpt>
      <trkpt lat="46.82813" lon="-1.99459">
        <ele>2.4</ele>
        <time>2018-01-07T12:01:16Z</time>
      </trkpt>
      <trkpt lat="46.82822" lon="-1.99459">
        <ele>2.2</ele>
        <time>2018-01-07T12:02:16Z</time>
      </trkpt>
      <trkpt lat="46.82847" lon="-1.9946">
        <ele>1.8</ele>
        <time>2018-01-07T12:03:16Z</time>
      </trkpt>
      <trkpt lat="46.82865" lon="-1.99463">
        <ele>1.7</ele>
        <time>2018-01-07T12:04:16Z</time>
      </trkpt>
      <trkpt lat="46.82884" lon="-1.99464">
        <ele>1.9</ele>
        <time>2018-01-07T12:05:16Z</time>
      </trkpt>
      <trkpt lat="46.82905" lon="-1.99461">
        <ele>2</ele>
        <time>2018-01-07T12:06:16Z</time>
      </trkpt>
      <trkpt lat="46.82916" lon="-1.99455">
        <ele>1</ele>
        <time>2018-01-07T12:07:16Z</time>
      </trkpt>
      <trkpt lat="46.82925" lon="-1.99451">
        <ele>1</ele>
        <time>2018-01-07T12:08:16Z</time>
      </trkpt>
      <trkpt lat="46.82959" lon="-1.99417">
        <ele>1</ele>
        <time>2018-01-07T12:09:16Z</time>
      </trkpt>
      <trkpt lat="46.83002" lon="-1.99372">
        <ele>1</ele>
        <time>2018-01-07T12:10:16Z</time>
      </trkpt>
      <trkpt lat="46.83022" lon="-1.9935">
        <ele>1</ele>
        <time>2018-01-07T12:11:16Z</time>
      </trkpt>
      <trkpt lat="46.83052" lon="-1.99319">
        <ele>1</ele>
        <time>2018-01-07T12:12:16Z</time>
      </trkpt>
      <trkpt lat="46.83094" lon="-1.99284">
        <ele>1</ele>
        <time>2018-01-07T12:13:16Z</time>
      </trkpt>
      <trkpt lat="46.83133" lon="-1.99269">
        <ele>1</ele>
        <time>2018-01-07T12:14:16Z</time>
      </trkpt>
      <trkpt lat="46.83174" lon="-1.99259">
        <ele>1</ele>
        <time>2018-01-07T12:15:16Z</time>
      </trkpt>
      <trkpt lat="46.83191" lon="-1.99255">
        <ele>1</ele>
        <time>2018-01-07T12:16:16Z</time>
      </trkpt>
      <trkpt lat="46.83198" lon="-1.99253">
        <ele>1</ele>
        <time>2018-01-07T12:17:16Z</time>
      </trkpt>
      <trkpt lat="46.8322" lon="-1.99247">
        <ele>1</ele>
        <time>2018-01-07T12:18:16Z</time>
      </trkpt>
      <trkpt lat="46.8327" lon="-1.99231">
        <ele>1</ele>
        <time>2018-01-07T12:19:16Z</time>
      </trkpt>
      <trkpt lat="46.83309" lon="-1.9922">
        <ele>1</ele>
        <time>2018-01-07T12:20:16Z</time>
      </trkpt>
      <trkpt lat="46.83335" lon="-1.99209">
        <ele>1</ele>
        <time>2018-01-07T12:21:16Z</time>
      </trkpt>
      <trkpt lat="46.83342" lon="-1.99206">
        <ele>1</ele>
        <time>2018-01-07T12:22:16Z</time>
      </trkpt>
      <trkpt lat="46.83367" lon="-1.99191">
        <ele>1</ele>
        <time>2018-01-07T12:23:16Z</time>
      </trkpt>
      <trkpt lat="46.83404" lon="-1.99167">
        <ele>1</ele>
        <time>2018-01-07T12:24:16Z</time>
      </trkpt>
      <trkpt lat="46.83455" lon="-1.99134">
        <ele>1</ele>
        <time>2018-01-07T12:25:16Z</time>
      </trkpt>
      <trkpt lat="46.83489" lon="-1.99115">
        <ele>1</ele>
        <time>2018-01-07T12:26:16Z</time>
      </trkpt>
      <trkpt lat="46.83543" lon="-1.99087">
        <ele>1</ele>
        <time>2018-01-07T12:27:16Z</time>
      </trkpt>
      <trkpt lat="46.83604" lon="-1.99055">
        <ele>2</ele>
        <time>2018-01-07T12:28:16Z</time>
      </trkpt>
      <trkpt lat="46.83674" lon="-1.99021">
        <ele>1</ele>
        <time>2018-01-07T12:29:16Z</time>
      </trkpt>
      <trkpt lat="46.83717" lon="-1.98999">
        <ele>2</ele>
        <time>2018-01-07T12:30:16Z</time>
      </trkpt>
      <trkpt lat="46.83762" lon="-1.9898">
        <ele>2</ele>
        <time>2018-01-07T12:31:16Z</time>
      </trkpt>
      <trkpt lat="46.83771" lon="-1.98976">
        <ele>2.5</ele>
        <time>2018-01-07T12:32:16Z</time>
      </trkpt>
      <trkpt lat="46.83783" lon="-1.98971">
        <ele>2.8</ele>
        <time>2018-01-07T12:33:16Z</time>
      </trkpt>
      <trkpt lat="46.83808" lon="-1.9896">
        <ele>2</ele>
        <time>2018-01-07T12:34:16Z</time>
      </trkpt>
      <trkpt lat="46.83847" lon="-1.98945">
        <ele>2</ele>
        <time>2018-01-07T12:35:16Z</time>
      </trkpt>
      <trkpt lat="46.83884" lon="-1.9893">
        <ele>2</ele>
        <time>2018-01-07T12:36:16Z</time>
      </trkpt>
      <trkpt lat="46.83925" lon="-1.98914">
        <ele>1.9</ele>
        <time>2018-01-07T12:37:16Z</time>
      </trkpt>
      <trkpt lat="46.83948" lon="-1.98903">
        <ele>1.6</ele>
        <time>2018-01-07T12:38:16Z</time>
      </trkpt>
      <trkpt lat="46.83958" lon="-1.98898">
        <ele>1.7</ele>
        <time>2018-01-07T12:39:16Z</time>
      </trkpt>
      <trkpt lat="46.83968" lon="-1.98893">
        <ele>1.9</ele>
        <time>2018-01-07T12:40:16Z</time>
      </trkpt>
      <trkpt lat="46.83977" lon="-1.98887">
        <ele>2</ele>
        <time>2018-01-07T12:41:16Z</time>
      </trkpt>
      <trkpt lat="46.83989" lon="-1.98878">
        <ele>2</ele>
        <time>2018-01-07T12:42:16Z</time>
      </trkpt>
      <trkpt lat="46.83999" lon="-1.98873">
        <ele>1</ele>
        <time>2018-01-07T12:43:16Z</time>
      </trkpt>
      <trkpt lat="46.84007" lon="-1.98869">
        <ele>1</ele>
        <time>2018-01-07T12:44:16Z</time>
      </trkpt>
      <trkpt lat="46.84015" lon="-1.98865">
        <ele>1</ele>
        <time>2018-01-07T12:45:16Z</time>
      </trkpt>
      <trkpt lat="46.8403" lon="-1.98859">
        <ele>1</ele>
        <time>2018-01-07T12:46:16Z</time>
      </trkpt>
      <trkpt lat="46.84079" lon="-1.98841">
        <ele>1</ele>
        <time>2018-01-07T12:47:16Z</time>
      </trkpt>
      <trkpt lat="46.84109" lon="-1.9883">
        <ele>1</ele>
        <time>2018-01-07T12:48:16Z</time>
      </trkpt>
      <trkpt lat="46.84125" lon="-1.98824">
        <ele>1</ele>
        <time>2018-01-07T12:49:16Z</time>
      </trkpt>
      <trkpt lat="46.84139" lon="-1.9882">
        <ele>1</ele>
        <time>2018-01-07T12:50:16Z</time>
      </trkpt>
      <trkpt lat="46.8415" lon="-1.98817">
        <ele>1</ele>
        <time>2018-01-07T12:51:16Z</time>
      </trkpt>
      <trkpt lat="46.84163" lon="-1.98813">
        <ele>1</ele>
        <time>2018-01-07T12:52:16Z</time>
      </trkpt>
      <trkpt lat="46.84174" lon="-1.98811">
        <ele>1</ele>
        <time>2018-01-07T12:53:16Z</time>
      </trkpt>
      <trkpt lat="46.8419" lon="-1.98808">
        <ele>1</ele>
        <time>2018-01-07T12:54:16Z</time>
      </trkpt>
      <trkpt lat="46.84227" lon="-1.988">
        <ele>1</ele>
        <time>2018-01-07T12:55:16Z</time>
      </trkpt>
      <trkpt lat="46.84277" lon="-1.98791">
        <ele>1</ele>
        <time>2018-01-07T12:56:16Z</time>
      </trkpt>
      <trkpt lat="46.84291" lon="-1.98788">
        <ele>1</ele>
        <time>2018-01-07T12:57:16Z</time>
      </trkpt>
      <trkpt lat="46.84302" lon="-1.98786">
        <ele>1</ele>
        <time>2018-01-07T12:58:16Z</time>
      </trkpt>
      <trkpt lat="46.84314" lon="-1.98782">
        <ele>1</ele>
        <time>2018-01-07T12:59:16Z</time>
      </trkpt>
      <trkpt lat="46.84325" lon="-1.98779">
        <ele>1</ele>
        <time>2018-01-07T13:00:16Z</time>
      </trkpt>
      <trkpt lat="46.84336" lon="-1.98774">
        <ele>1</ele>
        <time>2018-01-07T13:01:16Z</time>
      </trkpt>
      <trkpt lat="46.84375" lon="-1.98755">
        <ele>1</ele>
        <time>2018-01-07T13:02:16Z</time>
      </trkpt>
      <trkpt lat="46.84412" lon="-1.98735">
        <ele>1</ele>
        <time>2018-01-07T13:03:16Z</time>
      </trkpt>
      <trkpt lat="46.84434" lon="-1.98721">
        <ele>1</ele>
        <time>2018-01-07T13:04:16Z</time>
      </trkpt>
      <trkpt lat="46.84441" lon="-1.98715">
        <ele>1</ele>
        <time>2018-01-07T13:05:16Z</time>
      </trkpt>
      <trkpt lat="46.84447" lon="-1.98708">
        <ele>1</ele>
        <time>2018-01-07T13:06:16Z</time>
      </trkpt>
      <trkpt lat="46.84453" lon="-1.987">
        <ele>1</ele>
        <time>2018-01-07T13:07:16Z</time>
      </trkpt>
      <trkpt lat="46.84459" lon="-1.9869">
        <ele>1</ele>
        <time>2018-01-07T13:08:16Z</time>
      </trkpt>
      <trkpt lat="46.84464" lon="-1.98681">
        <ele>1</ele>
        <time>2018-01-07T13:09:16Z</time>
      </trkpt>
      <trkpt lat="46.8447" lon="-1.9867">
        <ele>1</ele>
        <time>2018-01-07T13:10:16Z</time>
      </trkpt>
      <trkpt lat="46.8448" lon="-1.98649">
        <ele>1</ele>
        <time>2018-01-07T13:11:16Z</time>
      </trkpt>
      <trkpt lat="46.84508" lon="-1.98583">
        <ele>2</ele>
        <time>2018-01-07T13:12:16Z</time>
      </trkpt>
      <trkpt lat="46.84538" lon="-1.98511">
        <ele>1</ele>
        <time>2018-01-07T13:13:16Z</time>
      </trkpt>
      <trkpt lat="46.84544" lon="-1.98496">
        <ele>2</ele>
        <time>2018-01-07T13:14:16Z</time>
      </trkpt>
      <trkpt lat="46.84549" lon="-1.98483">
        <ele>2</ele>
        <time>2018-01-07T13:15:16Z</time>
      </trkpt>
      <trkpt lat="46.8455" lon="-1.98474">
        <ele>1</ele>
        <time>2018-01-07T13:16:16Z</time>
      </trkpt>
      <trkpt lat="46.84552" lon="-1.98463">
        <ele>1</ele>
        <time>2018-01-07T13:17:16Z</time>
      </trkpt>
      <trkpt lat="46.84553" lon="-1.98453">
        <ele>1</ele>
        <time>2018-01-07T13:18:16Z</time>
      </trkpt>
      <trkpt lat="46.84553" lon="-1.98441">
        <ele>1</ele>
        <time>2018-01-07T13:19:16Z</time>
      </trkpt>
      <trkpt lat="46.84553" lon="-1.98416">
        <ele>1</ele>
        <time>2018-01-07T13:20:16Z</time>
      </trkpt>
      <trkpt lat="46.84553" lon="-1.98403">
        <ele>1</ele>
        <time>2018-01-07T13:21:16Z</time>
      </trkpt>
      <trkpt lat="46.84553" lon="-1.9839">
        <ele>1</ele>
        <time>2018-01-07T13:22:16Z</time>
      </trkpt>
      <trkpt lat="46.84554" lon="-1.9838">
        <ele>1</ele>
        <time>2018-01-07T13:23:16Z</time>
      </trkpt>
      <trkpt lat="46.84556" lon="-1.9837">
        <ele>1</ele>
        <time>2018-01-07T13:24:16Z</time>
      </trkpt>
      <trkpt lat="46.84559" lon="-1.9836">
        <ele>1</ele>
        <time>2018-01-07T13:25:16Z</time>
      </trkpt>
      <trkpt lat="46.84562" lon="-1.98349">
        <ele>1</ele>
        <time>2018-01-07T13:26:16Z</time>
      </trkpt>
      <trkpt lat="46.84566" lon="-1.98338">
        <ele>2</ele>
        <time>2018-01-07T13:27:16Z</time>
      </trkpt>
      <trkpt lat="46.8457" lon="-1.98326">
        <ele>2</ele>
        <time>2018-01-07T13:28:16Z</time>
      </trkpt>
      <trkpt lat="46.84582" lon="-1.98301">
        <ele>2</ele>
        <time>2018-01-07T13:29:16Z</time>
      </trkpt>
      <trkpt lat="46.84594" lon="-1.98277">
        <ele>1</ele>
        <time>2018-01-07T13:30:16Z</time>
      </trkpt>
      <trkpt lat="46.84601" lon="-1.98264">
        <ele>1</ele>
        <time>2018-01-07T13:31:16Z</time>
      </trkpt>
      <trkpt lat="46.84606" lon="-1.98255">
        <ele>1</ele>
        <time>2018-01-07T13:32:16Z</time>
      </trkpt>
      <trkpt lat="46.84613" lon="-1.98247">
        <ele>1</ele>
        <time>2018-01-07T13:33:16Z</time>
      </trkpt>
      <trkpt lat="46.84626" lon="-1.98234">
        <ele>1</ele>
        <time>2018-01-07T13:34:16Z</time>
      </trkpt>
      <trkpt lat="46.84635" lon="-1.98223">
        <ele>1</ele>
        <time>2018-01-07T13:35:16Z</time>
      </trkpt>
      <trkpt lat="46.84639" lon="-1.98215">
        <ele>1</ele>
        <time>2018-01-07T13:36:16Z</time>
      </trkpt>
      <trkpt lat="46.84644" lon="-1.98207">
        <ele>1</ele>
        <time>2018-01-07T13:37:16Z</time>
      </trkpt>
      <trkpt lat="46.84647" lon="-1.98199">
        <ele>1</ele>
        <time>2018-01-07T13:38:16Z</time>
      </trkpt>
      <trkpt lat="46.84656" lon="-1.98174">
        <ele>1.5</ele>
        <time>2018-01-07T13:39:16Z</time>
      </trkpt>
      <trkpt lat="46.84662" lon="-1.98158">
        <ele>1.4</ele>
        <time>2018-01-07T13:40:16Z</time>
      </trkpt>
      <trkpt lat="46.84668" lon="-1.98146">
        <ele>1.7</ele>
        <time>2018-01-07T13:41:16Z</time>
      </trkpt>
      <trkpt lat="46.84673" lon="-1.98138">
        <ele>1.8</ele>
        <time>2018-01-07T13:42:16Z</time>
      </trkpt>
      <trkpt lat="46.84679" lon="-1.98129">
        <ele>1.7</ele>
        <time>2018-01-07T13:43:16Z</time>
      </trkpt>
      <trkpt lat="46.84685" lon="-1.98122">
        <ele>1.7</ele>
        <time>2018-01-07T13:44:16Z</time>
      </trkpt>
      <trkpt lat="46.84689" lon="-1.98118">
        <ele>1.8</ele>
        <time>2018-01-07T13:45:16Z</time>
      </trkpt>
      <trkpt lat="46.84696" lon="-1.98113">
        <ele>1.9</ele>
        <time>2018-01-07T13:46:16Z</time>
      </trkpt>
      <trkpt lat="46.84713" lon="-1.98101">
        <ele>2</ele>
        <time>2018-01-07T13:47:16Z</time>
      </trkpt>
      <trkpt lat="46.84725" lon="-1.98091">
        <ele>2</ele>
        <time>2018-01-07T13:48:16Z</time>
      </trkpt>
      <trkpt lat="46.84733" lon="-1.98083">
        <ele>2</ele>
        <time>2018-01-07T13:49:16Z</time>
      </trkpt>
      <trkpt lat="46.84737" lon="-1.98079">
        <ele>1.9</ele>
        <time>2018-01-07T13:50:16Z</time>
      </trkpt>
      <trkpt lat="46.84742" lon="-1.98073">
        <ele>1.7</ele>
        <time>2018-01-07T13:51:16Z</time>
      </trkpt>
      <trkpt lat="46.84749" lon="-1.98066">
        <ele>1.4</ele>
        <time>2018-01-07T13:52:16Z</time>
      </trkpt>
      <trkpt lat="46.84754" lon="-1.98059">
        <ele>1.1</ele>
        <time>2018-01-07T13:53:16Z</time>
      </trkpt>
      <trkpt lat="46.8476" lon="-1.98051">
        <ele>1.2</ele>
        <time>2018-01-07T13:54:16Z</time>
      </trkpt>
      <trkpt lat="46.84778" lon="-1.98025">
        <ele>2</ele>
        <time>2018-01-07T13:55:16Z</time>
      </trkpt>
      <trkpt lat="46.84802" lon="-1.9799">
        <ele>2</ele>
        <time>2018-01-07T13:56:16Z</time>
      </trkpt>
      <trkpt lat="46.84844" lon="-1.97927">
        <ele>2</ele>
        <time>2018-01-07T13:57:16Z</time>
      </trkpt>
      <trkpt lat="46.8489" lon="-1.97861">
        <ele>2</ele>
        <time>2018-01-07T13:58:16Z</time>
      </trkpt>
      <trkpt lat="46.8492" lon="-1.97816">
        <ele>1.5</ele>
        <time>2018-01-07T13:59:16Z</time>
      </trkpt>
      <trkpt lat="46.84938" lon="-1.97792">
        <ele>1.9</ele>
        <time>2018-01-07T14:00:16Z</time>
      </trkpt>
      <trkpt lat="46.8495" lon="-1.97776">
        <ele>2</ele>
        <time>2018-01-07T14:01:16Z</time>
      </trkpt>
      <trkpt lat="46.84963" lon="-1.97763">
        <ele>2</ele>
        <time>2018-01-07T14:02:16Z</time>
      </trkpt>
      <trkpt lat="46.84971" lon="-1.97755">
        <ele>2</ele>
        <time>2018-01-07T14:03:16Z</time>
      </trkpt>
      <trkpt lat="46.84976" lon="-1.9775">
        <ele>2</ele>
        <time>2018-01-07T14:04:16Z</time>
      </trkpt>
      <trkpt lat="46.8498" lon="-1.97747">
        <ele>1</ele>
        <time>2018-01-07T14:05:16Z</time>
      </trkpt>
      <trkpt lat="46.84993" lon="-1.97736">
        <ele>1</ele>
        <time>2018-01-07T14:06:16Z</time>
      </trkpt>
      <trkpt lat="46.8501" lon="-1.97723">
        <ele>1</ele>
        <time>2018-01-07T14:07:16Z</time>
      </trkpt>
      <trkpt lat="46.85032" lon="-1.97705">
        <ele>2</ele>
        <time>2018-01-07T14:08:16Z</time>
      </trkpt>
      <trkpt lat="46.85068" lon="-1.97676">
        <ele>2</ele>
        <time>2018-01-07T14:09:16Z</time>
      </trkpt>
      <trkpt lat="46.85146" lon="-1.97611">
        <ele>1</ele>
        <time>2018-01-07T14:10:16Z</time>
      </trkpt>
      <trkpt lat="46.85214" lon="-1.97555">
        <ele>1</ele>
        <time>2018-01-07T14:11:16Z</time>
      </trkpt>
      <trkpt lat="46.85224" lon="-1.97541">
        <ele>1</ele>
        <time>2018-01-07T14:12:16Z</time>
      </trkpt>
      <trkpt lat="46.85253" lon="-1.975">
        <ele>1</ele>
        <time>2018-01-07T14:13:16Z</time>
      </trkpt>
      <trkpt lat="46.8527" lon="-1.97475">
        <ele>1</ele>
        <time>2018-01-07T14:14:16Z</time>
      </trkpt>
      <trkpt lat="46.85276" lon="-1.97467">
        <ele>1</ele>
        <time>2018-01-07T14:15:16Z</time>
      </trkpt>
      <trkpt lat="46.85283" lon="-1.9746">
        <ele>1</ele>
        <time>2018-01-07T14:16:16Z</time>
      </trkpt>
      <trkpt lat="46.85291" lon="-1.97454">
        <ele>1</ele>
        <time>2018-01-07T14:17:16Z</time>
      </trkpt>
      <trkpt lat="46.85304" lon="-1.97447">
        <ele>1</ele>
        <time>2018-01-07T14:18:16Z</time>
      </trkpt>
      <trkpt lat="46.85335" lon="-1.97435">
        <ele>1</ele>
        <time>2018-01-07T14:19:16Z</time>
      </trkpt>
      <trkpt lat="46.85369" lon="-1.97425">
        <ele>1</ele>
        <time>2018-01-07T14:20:16Z</time>
      </trkpt>
      <trkpt lat="46.85384" lon="-1.97417">
        <ele>1</ele>
        <time>2018-01-07T14:21:16Z</time>
      </trkpt>
      <trkpt lat="46.85391" lon="-1.97413">
        <ele>1</ele>
        <time>2018-01-07T14:22:16Z</time>
      </trkpt>
      <trkpt lat="46.85399" lon="-1.97407">
        <ele>1</ele>
        <time>2018-01-07T14:23:16Z</time>
      </trkpt>
      <trkpt lat="46.85405" lon="-1.97401">
        <ele>1</ele>
        <time>2018-01-07T14:24:16Z</time>
      </trkpt>
      <trkpt lat="46.85416" lon="-1.97389">
        <ele>1</ele>
        <time>2018-01-07T14:25:16Z</time>
      </trkpt>
      <trkpt lat="46.85418" lon="-1.97385">
        <ele>1</ele>
        <time>2018-01-07T14:26:16Z</time>
      </trkpt>
      <trkpt lat="46.85426" lon="-1.97373">
        <ele>1</ele>
        <time>2018-01-07T14:27:16Z</time>
      </trkpt>
      <trkpt lat="46.85434" lon="-1.97359">
        <ele>1</ele>
        <time>2018-01-07T14:28:16Z</time>
      </trkpt>
      <trkpt lat="46.8544" lon="-1.97344">
        <ele>1</ele>
        <time>2018-01-07T14:29:16Z</time>
      </trkpt>
      <trkpt lat="46.85446" lon="-1.97329">
        <ele>1</ele>
        <time>2018-01-07T14:30:16Z</time>
      </trkpt>
      <trkpt lat="46.85452" lon="-1.97306">
        <ele>1</ele>
        <time>2018-01-07T14:31:16Z</time>
      </trkpt>
      <trkpt lat="46.85461" lon="-1.97276">
        <ele>2</ele>
        <time>2018-01-07T14:32:16Z</time>
      </trkpt>
      <trkpt lat="46.85475" lon="-1.97228">
        <ele>3</ele>
        <time>2018-01-07T14:33:16Z</time>
      </trkpt>
      <trkpt lat="46.85499" lon="-1.97151">
        <ele>3</ele>
        <time>2018-01-07T14:34:16Z</time>
      </trkpt>
      <trkpt lat="46.85515" lon="-1.97106">
        <ele>1</ele>
        <time>2018-01-07T14:35:16Z</time>
      </trkpt>
      <trkpt lat="46.85522" lon="-1.97086">
        <ele>1</ele>
        <time>2018-01-07T14:36:16Z</time>
      </trkpt>
      <trkpt lat="46.85535" lon="-1.9705">
        <ele>1</ele>
        <time>2018-01-07T14:37:16Z</time>
      </trkpt>
      <trkpt lat="46.85538" lon="-1.97039">
        <ele>1</ele>
        <time>2018-01-07T14:38:16Z</time>
      </trkpt>
      <trkpt lat="46.8554" lon="-1.97028">
        <ele>1</ele>
        <time>2018-01-07T14:39:16Z</time>
      </trkpt>
      <trkpt lat="46.85541" lon="-1.97016">
        <ele>1</ele>
        <time>2018-01-07T14:40:16Z</time>
      </trkpt>
      <trkpt lat="46.8554" lon="-1.97006">
        <ele>1</ele>
        <time>2018-01-07T14:41:16Z</time>
      </trkpt>
      <trkpt lat="46.85539" lon="-1.9699">
        <ele>1</ele>
        <time>2018-01-07T14:42:16Z</time>
      </trkpt>
      <trkpt lat="46.85531" lon="-1.96913">
        <ele>1</ele>
        <time>2018-01-07T14:43:16Z</time>
      </trkpt>
      <trkpt lat="46.85527" lon="-1.96882">
        <ele>1</ele>
        <time>2018-01-07T14:44:16Z</time>
      </trkpt>
      <trkpt lat="46.85525" lon="-1.96867">
        <ele>1</ele>
        <time>2018-01-07T14:45:16Z</time>
      </trkpt>
      <trkpt lat="46.85521" lon="-1.96852">
        <ele>1</ele>
        <time>2018-01-07T14:46:16Z</time>
      </trkpt>
      <trkpt lat="46.85517" lon="-1.96838">
        <ele>2</ele>
        <time>2018-01-07T14:47:16Z</time>
      </trkpt>
      <trkpt lat="46.85506" lon="-1.96806">
        <ele>2</ele>
        <time>2018-01-07T14:48:16Z</time>
      </trkpt>
      <trkpt lat="46.855" lon="-1.96783">
        <ele>1</ele>
        <time>2018-01-07T14:49:16Z</time>
      </trkpt>
      <trkpt lat="46.85499" lon="-1.96768">
        <ele>1</ele>
        <time>2018-01-07T14:50:16Z</time>
      </trkpt>
      <trkpt lat="46.85497" lon="-1.96756">
        <ele>1</ele>
        <time>2018-01-07T14:51:16Z</time>
      </trkpt>
      <trkpt lat="46.85497" lon="-1.96744">
        <ele>1</ele>
        <time>2018-01-07T14:52:16Z</time>
      </trkpt>
      <trkpt lat="46.85497" lon="-1.96734">
        <ele>1</ele>
        <time>2018-01-07T14:53:16Z</time>
      </trkpt>
      <trkpt lat="46.85499" lon="-1.96721">
        <ele>1</ele>
        <time>2018-01-07T14:54:16Z</time>
      </trkpt>
      <trkpt lat="46.85501" lon="-1.96708">
        <ele>2</ele>
        <time>2018-01-07T14:55:16Z</time>
      </trkpt>
      <trkpt lat="46.85505" lon="-1.96695">
        <ele>2</ele>
        <time>2018-01-07T14:56:16Z</time>
      </trkpt>
      <trkpt lat="46.85517" lon="-1.96653">
        <ele>2</ele>
        <time>2018-01-07T14:57:16Z</time>
      </trkpt>
      <trkpt lat="46.85529" lon="-1.9662">
        <ele>2</ele>
        <time>2018-01-07T14:58:16Z</time>
      </trkpt>
      <trkpt lat="46.85538" lon="-1.96599">
        <ele>1.7</ele>
        <time>2018-01-07T14:59:16Z</time>
      </trkpt>
      <trkpt lat="46.85547" lon="-1.96573">
        <ele>1.8</ele>
        <time>2018-01-07T15:00:16Z</time>
      </trkpt>
      <trkpt lat="46.85553" lon="-1.9656">
        <ele>2</ele>
        <time>2018-01-07T15:01:16Z</time>
      </trkpt>
      <trkpt lat="46.85558" lon="-1.96553">
        <ele>2</ele>
        <time>2018-01-07T15:02:16Z</time>
      </trkpt>
      <trkpt lat="46.85564" lon="-1.96545">
        <ele>2</ele>
        <time>2018-01-07T15:03:16Z</time>
      </trkpt>
      <trkpt lat="46.85569" lon="-1.96539">
        <ele>2</ele>
        <time>2018-01-07T15:04:16Z</time>
      </trkpt>
      <trkpt lat="46.85576" lon="-1.96534">
        <ele>2</ele>
        <time>2018-01-07T15:05:16Z</time>
      </trkpt>
      <trkpt lat="46.85582" lon="-1.9653">
        <ele>2</ele>
        <time>2018-01-07T15:06:16Z</time>
      </trkpt>
      <trkpt lat="46.85591" lon="-1.96525">
        <ele>1.8</ele>
        <time>2018-01-07T15:07:16Z</time>
      </trkpt>
      <trkpt lat="46.85603" lon="-1.96519">
        <ele>1.5</ele>
        <time>2018-01-07T15:08:16Z</time>
      </trkpt>
      <trkpt lat="46.85609" lon="-1.96515">
        <ele>1.5</ele>
        <time>2018-01-07T15:09:16Z</time>
      </trkpt>
      <trkpt lat="46.85615" lon="-1.96509">
        <ele>1.7</ele>
        <time>2018-01-07T15:10:16Z</time>
      </trkpt>
      <trkpt lat="46.85619" lon="-1.96501">
        <ele>2</ele>
        <time>2018-01-07T15:11:16Z</time>
      </trkpt>
      <trkpt lat="46.85622" lon="-1.96494">
        <ele>1.9</ele>
        <time>2018-01-07T15:12:16Z</time>
      </trkpt>
      <trkpt lat="46.85625" lon="-1.96484">
        <ele>1.7</ele>
        <time>2018-01-07T15:13:16Z</time>
      </trkpt>
      <trkpt lat="46.85626" lon="-1.96474">
        <ele>1.5</ele>
        <time>2018-01-07T15:14:16Z</time>
      </trkpt>
      <trkpt lat="46.85627" lon="-1.96462">
        <ele>1.4</ele>
        <time>2018-01-07T15:15:16Z</time>
      </trkpt>
      <trkpt lat="46.85627" lon="-1.96444">
        <ele>1.4</ele>
        <time>2018-01-07T15:16:16Z</time>
      </trkpt>
      <trkpt lat="46.85626" lon="-1.96423">
        <ele>1.5</ele>
        <time>2018-01-07T15:17:16Z</time>
      </trkpt>
      <trkpt lat="46.85627" lon="-1.96409">
        <ele>1.6</ele>
        <time>2018-01-07T15:18:16Z</time>
      </trkpt>
      <trkpt lat="46.85632" lon="-1.96393">
        <ele>1.9</ele>
        <time>2018-01-07T15:19:16Z</time>
      </trkpt>
      <trkpt lat="46.85637" lon="-1.9638">
        <ele>2</ele>
        <time>2018-01-07T15:20:16Z</time>
      </trkpt>
      <trkpt lat="46.85643" lon="-1.9637">
        <ele>1.9</ele>
        <time>2018-01-07T15:21:16Z</time>
      </trkpt>
      <trkpt lat="46.85657" lon="-1.96347">
        <ele>1.7</ele>
        <time>2018-01-07T15:22:16Z</time>
      </trkpt>
      <trkpt lat="46.8567" lon="-1.96331">
        <ele>2</ele>
        <time>2018-01-07T15:23:16Z</time>
      </trkpt>
      <trkpt lat="46.85684" lon="-1.96315">
        <ele>2</ele>
        <time>2018-01-07T15:24:16Z</time>
      </trkpt>
      <trkpt lat="46.85703" lon="-1.963">
        <ele>1.8</ele>
        <time>2018-01-07T15:25:16Z</time>
      </trkpt>
      <trkpt lat="46.85712" lon="-1.96291">
        <ele>1.7</ele>
        <time>2018-01-07T15:26:16Z</time>
      </trkpt>
      <trkpt lat="46.85717" lon="-1.96285">
        <ele>1.8</ele>
        <time>2018-01-07T15:27:16Z</time>
      </trkpt>
      <trkpt lat="46.85723" lon="-1.96274">
        <ele>1.9</ele>
        <time>2018-01-07T15:28:16Z</time>
      </trkpt>
      <trkpt lat="46.85727" lon="-1.96266">
        <ele>1.6</ele>
        <time>2018-01-07T15:29:16Z</time>
      </trkpt>
      <trkpt lat="46.85732" lon="-1.96254">
        <ele>1.4</ele>
        <time>2018-01-07T15:30:16Z</time>
      </trkpt>
      <trkpt lat="46.85748" lon="-1.96197">
        <ele>1</ele>
        <time>2018-01-07T15:31:16Z</time>
      </trkpt>
      <trkpt lat="46.85753" lon="-1.9619">
        <ele>1</ele>
        <time>2018-01-07T15:32:16Z</time>
      </trkpt>
      <trkpt lat="46.85766" lon="-1.96164">
        <ele>2</ele>
        <time>2018-01-07T15:33:16Z</time>
      </trkpt>
      <trkpt lat="46.85775" lon="-1.96148">
        <ele>2</ele>
        <time>2018-01-07T15:34:16Z</time>
      </trkpt>
      <trkpt lat="46.85801" lon="-1.96094">
        <ele>2</ele>
        <time>2018-01-07T15:35:16Z</time>
      </trkpt>
      <trkpt lat="46.85812" lon="-1.96072">
        <ele>2</ele>
        <time>2018-01-07T15:36:16Z</time>
      </trkpt>
      <trkpt lat="46.85816" lon="-1.96064">
        <ele>2</ele>
        <time>2018-01-07T15:37:16Z</time>
      </trkpt>
      <trkpt lat="46.85825" lon="-1.96046">
        <ele>2</ele>
        <time>2018-01-07T15:38:16Z</time>
      </trkpt>
      <trkpt lat="46.85833" lon="-1.96032">
        <ele>2</ele>
        <time>2018-01-07T15:39:16Z</time>
      </trkpt>
      <trkpt lat="46.8584" lon="-1.9602">
        <ele>2</ele>
        <time>2018-01-07T15:40:16Z</time>
      </trkpt>
      <trkpt lat="46.85844" lon="-1.96015">
        <ele>2</ele>
        <time>2018-01-07T15:41:16Z</time>
      </trkpt>
      <trkpt lat="46.85847" lon="-1.9601">
        <ele>2</ele>
        <time>2018-01-07T15:42:16Z</time>
      </trkpt>
      <trkpt lat="46.85857" lon="-1.95996">
        <ele>2</ele>
        <time>2018-01-07T15:43:16Z</time>
      </trkpt>
      <trkpt lat="46.85867" lon="-1.95981">
        <ele>3</ele>
        <time>2018-01-07T15:44:16Z</time>
      </trkpt>
      <trkpt lat="46.85875" lon="-1.9597">
        <ele>3</ele>
        <time>2018-01-07T15:45:16Z</time>
      </trkpt>
      <trkpt lat="46.85878" lon="-1.95966">
        <ele>3</ele>
        <time>2018-01-07T15:46:16Z</time>
      </trkpt>
      <trkpt lat="46.85887" lon="-1.95952">
        <ele>3</ele>
        <time>2018-01-07T15:47:16Z</time>
      </trkpt>
      <trkpt lat="46.8589" lon="-1.95949">
        <ele>3</ele>
        <time>2018-01-07T15:48:16Z</time>
      </trkpt>
      <trkpt lat="46.85909" lon="-1.95921">
        <ele>4</ele>
        <time>2018-01-07T15:49:16Z</time>
      </trkpt>
      <trkpt lat="46.85923" lon="-1.95901">
        <ele>4</ele>
        <time>2018-01-07T15:50:16Z</time>
      </trkpt>
      <trkpt lat="46.85928" lon="-1.95893">
        <ele>4</ele>
        <time>2018-01-07T15:51:16Z</time>
      </trkpt>
      <trkpt lat="46.85942" lon="-1.95878">
        <ele>4</ele>
        <time>2018-01-07T15:52:16Z</time>
      </trkpt>
      <trkpt lat="46.85942" lon="-1.95878">
        <ele>4</ele>
        <time>2018-01-07T15:53:16Z</time>
      </trkpt>
      <trkpt lat="46.85945" lon="-1.95889">
        <ele>4</ele>
        <time>2018-01-07T15:54:16Z</time>
      </trkpt>
      <trkpt lat="46.85947" lon="-1.95899">
        <ele>3</ele>
        <time>2018-01-07T15:55:16Z</time>
      </trkpt>
      <trkpt lat="46.85949" lon="-1.9591">
        <ele>3</ele>
        <time>2018-01-07T15:56:16Z</time>
      </trkpt>
      <trkpt lat="46.85953" lon="-1.95939">
        <ele>3</ele>
        <time>2018-01-07T15:57:16Z</time>
      </trkpt>
      <trkpt lat="46.8597" lon="-1.95941">
        <ele>3</ele>
        <time>2018-01-07T15:58:16Z</time>
      </trkpt>
      <trkpt lat="46.85976" lon="-1.95943">
        <ele>3</ele>
        <time>2018-01-07T15:59:16Z</time>
      </trkpt>
      <trkpt lat="46.85981" lon="-1.95949">
        <ele>3</ele>
        <time>2018-01-07T16:00:16Z</time>
      </trkpt>
      <trkpt lat="46.85985" lon="-1.95961">
        <ele>3</ele>
        <time>2018-01-07T16:01:16Z</time>
      </trkpt>
      <trkpt lat="46.85996" lon="-1.95989">
        <ele>4</ele>
        <time>2018-01-07T16:02:16Z</time>
      </trkpt>
      <trkpt lat="46.86004" lon="-1.96018">
        <ele>4</ele>
        <time>2018-01-07T16:03:16Z</time>
      </trkpt>
      <trkpt lat="46.86009" lon="-1.96031">
        <ele>3</ele>
        <time>2018-01-07T16:04:16Z</time>
      </trkpt>
      <trkpt lat="46.86013" lon="-1.96044">
        <ele>3</ele>
        <time>2018-01-07T16:05:16Z</time>
      </trkpt>
      <trkpt lat="46.86018" lon="-1.9605">
        <ele>3</ele>
        <time>2018-01-07T16:06:16Z</time>
      </trkpt>
      <trkpt lat="46.86029" lon="-1.96065">
        <ele>3</ele>
        <time>2018-01-07T16:07:16Z</time>
      </trkpt>
      <trkpt lat="46.86062" lon="-1.9611">
        <ele>2</ele>
        <time>2018-01-07T16:08:16Z</time>
      </trkpt>
      <trkpt lat="46.86093" lon="-1.9615">
        <ele>1</ele>
        <time>2018-01-07T16:09:16Z</time>
      </trkpt>
      <trkpt lat="46.86107" lon="-1.96166">
        <ele>1</ele>
        <time>2018-01-07T16:10:16Z</time>
      </trkpt>
      <trkpt lat="46.86153" lon="-1.96228">
        <ele>1</ele>
        <time>2018-01-07T16:11:16Z</time>
      </trkpt>
      <trkpt lat="46.86234" lon="-1.96334">
        <ele>2</ele>
        <time>2018-01-07T16:12:16Z</time>
      </trkpt>
      <trkpt lat="46.86311" lon="-1.96434">
        <ele>1.9</ele>
        <time>2018-01-07T16:13:16Z</time>
      </trkpt>
      <trkpt lat="46.86386" lon="-1.96532">
        <ele>2</ele>
        <time>2018-01-07T16:14:16Z</time>
      </trkpt>
      <trkpt lat="46.86459" lon="-1.96627">
        <ele>1.5</ele>
        <time>2018-01-07T16:15:16Z</time>
      </trkpt>
      <trkpt lat="46.86527" lon="-1.96715">
        <ele>2</ele>
        <time>2018-01-07T16:16:16Z</time>
      </trkpt>
      <trkpt lat="46.86577" lon="-1.96779">
        <ele>1</ele>
        <time>2018-01-07T16:17:16Z</time>
      </trkpt>
      <trkpt lat="46.86598" lon="-1.96805">
        <ele>2</ele>
        <time>2018-01-07T16:18:16Z</time>
      </trkpt>
      <trkpt lat="46.86604" lon="-1.96814">
        <ele>2</ele>
        <time>2018-01-07T16:19:16Z</time>
      </trkpt>
      <trkpt lat="46.86612" lon="-1.96826">
        <ele>2</ele>
        <time>2018-01-07T16:20:16Z</time>
      </trkpt>
      <trkpt lat="46.86618" lon="-1.96839">
        <ele>2</ele>
        <time>2018-01-07T16:21:16Z</time>
      </trkpt>
      <trkpt lat="46.86624" lon="-1.96857">
        <ele>2</ele>
        <time>2018-01-07T16:22:16Z</time>
      </trkpt>
      <trkpt lat="46.86632" lon="-1.96887">
        <ele>2</ele>
        <time>2018-01-07T16:23:16Z</time>
      </trkpt>
      <trkpt lat="46.86634" lon="-1.96902">
        <ele>2</ele>
        <time>2018-01-07T16:24:16Z</time>
      </trkpt>
      <trkpt lat="46.86635" lon="-1.96923">
        <ele>2</ele>
        <time>2018-01-07T16:25:16Z</time>
      </trkpt>
      <trkpt lat="46.86637" lon="-1.96956">
        <ele>2</ele>
        <time>2018-01-07T16:26:16Z</time>
      </trkpt>
      <trkpt lat="46.86637" lon="-1.96992">
        <ele>2</ele>
        <time>2018-01-07T16:27:16Z</time>
      </trkpt>
      <trkpt lat="46.86637" lon="-1.97024">
        <ele>2</ele>
        <time>2018-01-07T16:28:16Z</time>
      </trkpt>
      <trkpt lat="46.86639" lon="-1.97072">
        <ele>3</ele>
        <time>2018-01-07T16:29:16Z</time>
      </trkpt>
      <trkpt lat="46.86644" lon="-1.9711">
        <ele>3</ele>
        <time>2018-01-07T16:30:16Z</time>
      </trkpt>
      <trkpt lat="46.8665" lon="-1.97135">
        <ele>4</ele>
        <time>2018-01-07T16:31:16Z</time>
      </trkpt>
      <trkpt lat="46.86655" lon="-1.97159">
        <ele>5</ele>
        <time>2018-01-07T16:32:16Z</time>
      </trkpt>
      <trkpt lat="46.86662" lon="-1.97201">
        <ele>5</ele>
        <time>2018-01-07T16:33:16Z</time>
      </trkpt>
      <trkpt lat="46.86664" lon="-1.9722">
        <ele>5</ele>
        <time>2018-01-07T16:34:16Z</time>
      </trkpt>
      <trkpt lat="46.86666" lon="-1.97229">
        <ele>5</ele>
        <time>2018-01-07T16:35:16Z</time>
      </trkpt>
      <trkpt lat="46.86667" lon="-1.97239">
        <ele>5</ele>
        <time>2018-01-07T16:36:16Z</time>
      </trkpt>
      <trkpt lat="46.86668" lon="-1.97255">
        <ele>5</ele>
        <time>2018-01-07T16:37:16Z</time>
      </trkpt>
      <trkpt lat="46.86669" lon="-1.97275">
        <ele>4</ele>
        <time>2018-01-07T16:38:16Z</time>
      </trkpt>
      <trkpt lat="46.86669" lon="-1.97295">
        <ele>4</ele>
        <time>2018-01-07T16:39:16Z</time>
      </trkpt>
      <trkpt lat="46.86668" lon="-1.97312">
        <ele>4</ele>
        <time>2018-01-07T16:40:16Z</time>
      </trkpt>
      <trkpt lat="46.86667" lon="-1.9734">
        <ele>3</ele>
        <time>2018-01-07T16:41:16Z</time>
      </trkpt>
      <trkpt lat="46.86666" lon="-1.9737">
        <ele>3</ele>
        <time>2018-01-07T16:42:16Z</time>
      </trkpt>
      <trkpt lat="46.86663" lon="-1.97408">
        <ele>3</ele>
        <time>2018-01-07T16:43:16Z</time>
      </trkpt>
      <trkpt lat="46.86661" lon="-1.97448">
        <ele>3</ele>
        <time>2018-01-07T16:44:16Z</time>
      </trkpt>
      <trkpt lat="46.86657" lon="-1.97509">
        <ele>3</ele>
        <time>2018-01-07T16:45:16Z</time>
      </trkpt>
      <trkpt lat="46.86656" lon="-1.97536">
        <ele>3</ele>
        <time>2018-01-07T16:46:16Z</time>
      </trkpt>
      <trkpt lat="46.8665" lon="-1.97615">
        <ele>3</ele>
        <time>2018-01-07T16:47:16Z</time>
      </trkpt>
      <trkpt lat="46.86648" lon="-1.97641">
        <ele>3</ele>
        <time>2018-01-07T16:48:16Z</time>
      </trkpt>
      <trkpt lat="46.86648" lon="-1.97653">
        <ele>3</ele>
        <time>2018-01-07T16:49:16Z</time>
      </trkpt>
      <trkpt lat="46.86647" lon="-1.97677">
        <ele>3</ele>
        <time>2018-01-07T16:50:16Z</time>
      </trkpt>
      <trkpt lat="46.86648" lon="-1.97698">
        <ele>2</ele>
        <time>2018-01-07T16:51:16Z</time>
      </trkpt>
      <trkpt lat="46.86649" lon="-1.97714">
        <ele>2</ele>
        <time>2018-01-07T16:52:16Z</time>
      </trkpt>
      <trkpt lat="46.86652" lon="-1.97731">
        <ele>2</ele>
        <time>2018-01-07T16:53:16Z</time>
      </trkpt>
      <trkpt lat="46.86655" lon="-1.97747">
        <ele>2</ele>
        <time>2018-01-07T16:54:16Z</time>
      </trkpt>
      <trkpt lat="46.86662" lon="-1.97771">
        <ele>2</ele>
        <time>2018-01-07T16:55:16Z</time>
      </trkpt>
      <trkpt lat="46.86664" lon="-1.97778">
        <ele>2</ele>
        <time>2018-01-07T16:56:16Z</time>
      </trkpt>
      <trkpt lat="46.86676" lon="-1.97811">
        <ele>2</ele>
        <time>2018-01-07T16:57:16Z</time>
      </trkpt>
      <trkpt lat="46.86704" lon="-1.97887">
        <ele>1</ele>
        <time>2018-01-07T16:58:16Z</time>
      </trkpt>
      <trkpt lat="46.86736" lon="-1.97973">
        <ele>1</ele>
        <time>2018-01-07T16:59:16Z</time>
      </trkpt>
      <trkpt lat="46.86777" lon="-1.98082">
        <ele>1</ele>
        <time>2018-01-07T17:00:16Z</time>
      </trkpt>
      <trkpt lat="46.8682" lon="-1.98191">
        <ele>1</ele>
        <time>2018-01-07T17:01:16Z</time>
      </trkpt>
      <trkpt lat="46.86829" lon="-1.98212">
        <ele>1</ele>
        <time>2018-01-07T17:02:16Z</time>
      </trkpt>
      <trkpt lat="46.86835" lon="-1.98231">
        <ele>1</ele>
        <time>2018-01-07T17:03:16Z</time>
      </trkpt>
      <trkpt lat="46.86839" lon="-1.98242">
        <ele>1</ele>
        <time>2018-01-07T17:04:16Z</time>
      </trkpt>
      <trkpt lat="46.86841" lon="-1.9825">
        <ele>1</ele>
        <time>2018-01-07T17:05:16Z</time>
      </trkpt>
      <trkpt lat="46.86845" lon="-1.98268">
        <ele>1</ele>
        <time>2018-01-07T17:06:16Z</time>
      </trkpt>
      <trkpt lat="46.86848" lon="-1.98288">
        <ele>1</ele>
        <time>2018-01-07T17:07:16Z</time>
      </trkpt>
      <trkpt lat="46.86855" lon="-1.98326">
        <ele>1</ele>
        <time>2018-01-07T17:08:16Z</time>
      </trkpt>
      <trkpt lat="46.8686" lon="-1.98366">
        <ele>1</ele>
        <time>2018-01-07T17:09:16Z</time>
      </trkpt>
      <trkpt lat="46.86863" lon="-1.98384">
        <ele>1</ele>
        <time>2018-01-07T17:10:16Z</time>
      </trkpt>
      <trkpt lat="46.86867" lon="-1.98401">
        <ele>1</ele>
        <time>2018-01-07T17:11:16Z</time>
      </trkpt>
      <trkpt lat="46.8687" lon="-1.98412">
        <ele>1</ele>
        <time>2018-01-07T17:12:16Z</time>
      </trkpt>
      <trkpt lat="46.86872" lon="-1.9842">
        <ele>1</ele>
        <time>2018-01-07T17:13:16Z</time>
      </trkpt>
      <trkpt lat="46.86873" lon="-1.98421">
        <ele>1</ele>
        <time>2018-01-07T17:14:16Z</time>
      </trkpt>
      <trkpt lat="46.8688" lon="-1.98436">
        <ele>1</ele>
        <time>2018-01-07T17:15:16Z</time>
      </trkpt>
      <trkpt lat="46.8689" lon="-1.98452">
        <ele>1</ele>
        <time>2018-01-07T17:16:16Z</time>
      </trkpt>
      <trkpt lat="46.86913" lon="-1.98483">
        <ele>2</ele>
        <time>2018-01-07T17:17:16Z</time>
      </trkpt>
      <trkpt lat="46.86922" lon="-1.98498">
        <ele>2</ele>
        <time>2018-01-07T17:18:16Z</time>
      </trkpt>
      <trkpt lat="46.86929" lon="-1.98511">
        <ele>2</ele>
        <time>2018-01-07T17:19:16Z</time>
      </trkpt>
      <trkpt lat="46.86935" lon="-1.98527">
        <ele>2</ele>
        <time>2018-01-07T17:20:16Z</time>
      </trkpt>
      <trkpt lat="46.86952" lon="-1.98566">
        <ele>3</ele>
        <time>2018-01-07T17:21:16Z</time>
      </trkpt>
      <trkpt lat="46.86965" lon="-1.98596">
        <ele>3</ele>
        <time>2018-01-07T17:22:16Z</time>
      </trkpt>
      <trkpt lat="46.86973" lon="-1.98614">
        <ele>3</ele>
        <time>2018-01-07T17:23:16Z</time>
      </trkpt>
      <trkpt lat="46.86974" lon="-1.98617">
        <ele>3</ele>
        <time>2018-01-07T17:24:16Z</time>
      </trkpt>
      <trkpt lat="46.86992" lon="-1.98657">
        <ele>4</ele>
        <time>2018-01-07T17:25:16Z</time>
      </trkpt>
      <trkpt lat="46.87009" lon="-1.98692">
        <ele>3</ele>
        <time>2018-01-07T17:26:16Z</time>
      </trkpt>
      <trkpt lat="46.8701" lon="-1.98693">
        <ele>3</ele>
        <time>2018-01-07T17:27:16Z</time>
      </trkpt>
      <trkpt lat="46.87019" lon="-1.9871">
        <ele>3</ele>
        <time>2018-01-07T17:28:16Z</time>
      </trkpt>
      <trkpt lat="46.8703" lon="-1.98728">
        <ele>3</ele>
        <time>2018-01-07T17:29:16Z</time>
      </trkpt>
      <trkpt lat="46.8705" lon="-1.98757">
        <ele>3</ele>
        <time>2018-01-07T17:30:16Z</time>
      </trkpt>
      <trkpt lat="46.87094" lon="-1.9882">
        <ele>3</ele>
        <time>2018-01-07T17:31:16Z</time>
      </trkpt>
      <trkpt lat="46.87136" lon="-1.98882">
        <ele>4</ele>
        <time>2018-01-07T17:32:16Z</time>
      </trkpt>
      <trkpt lat="46.87179" lon="-1.98943">
        <ele>4</ele>
        <time>2018-01-07T17:33:16Z</time>
      </trkpt>
      <trkpt lat="46.87207" lon="-1.98986">
        <ele>4</ele>
        <time>2018-01-07T17:34:16Z</time>
      </trkpt>
      <trkpt lat="46.87235" lon="-1.99025">
        <ele>4</ele>
        <time>2018-01-07T17:35:16Z</time>
      </trkpt>
      <trkpt lat="46.87248" lon="-1.99044">
        <ele>4</ele>
        <time>2018-01-07T17:36:16Z</time>
      </trkpt>
      <trkpt lat="46.87259" lon="-1.99061">
        <ele>4</ele>
        <time>2018-01-07T17:37:16Z</time>
      </trkpt>
      <trkpt lat="46.87269" lon="-1.99074">
        <ele>4</ele>
        <time>2018-01-07T17:38:16Z</time>
      </trkpt>
      <trkpt lat="46.87279" lon="-1.99087">
        <ele>4</ele>
        <time>2018-01-07T17:39:16Z</time>
      </trkpt>
      <trkpt lat="46.87288" lon="-1.99098">
        <ele>4</ele>
        <time>2018-01-07T17:40:16Z</time>
      </trkpt>
      <trkpt lat="46.87298" lon="-1.9911">
        <ele>5</ele>
        <time>2018-01-07T17:41:16Z</time>
      </trkpt>
      <trkpt lat="46.87312" lon="-1.99124">
        <ele>5</ele>
        <time>2018-01-07T17:42:16Z</time>
      </trkpt>
      <trkpt lat="46.87344" lon="-1.99149">
        <ele>5</ele>
        <time>2018-01-07T17:43:16Z</time>
      </trkpt>
      <trkpt lat="46.87361" lon="-1.99162">
        <ele>5</ele>
        <time>2018-01-07T17:44:16Z</time>
      </trkpt>
      <trkpt lat="46.8737" lon="-1.99169">
        <ele>5</ele>
        <time>2018-01-07T17:45:16Z</time>
      </trkpt>
      <trkpt lat="46.87378" lon="-1.99177">
        <ele>5</ele>
        <time>2018-01-07T17:46:16Z</time>
      </trkpt>
      <trkpt lat="46.87388" lon="-1.99187">
        <ele>5</ele>
        <time>2018-01-07T17:47:16Z</time>
      </trkpt>
      <trkpt lat="46.87396" lon="-1.99198">
        <ele>5</ele>
        <time>2018-01-07T17:48:16Z</time>
      </trkpt>
      <trkpt lat="46.87405" lon="-1.99211">
        <ele>5</ele>
        <time>2018-01-07T17:49:16Z</time>
      </trkpt>
      <trkpt lat="46.87417" lon="-1.99233">
        <ele>6</ele>
        <time>2018-01-07T17:50:16Z</time>
      </trkpt>
      <trkpt lat="46.87439" lon="-1.99277">
        <ele>5</ele>
        <time>2018-01-07T17:51:16Z</time>
      </trkpt>
      <trkpt lat="46.87475" lon="-1.99348">
        <ele>3</ele>
        <time>2018-01-07T17:52:16Z</time>
      </trkpt>
      <trkpt lat="46.87487" lon="-1.99372">
        <ele>3</ele>
        <time>2018-01-07T17:53:16Z</time>
      </trkpt>
      <trkpt lat="46.87501" lon="-1.99399">
        <ele>2</ele>
        <time>2018-01-07T17:54:16Z</time>
      </trkpt>
      <trkpt lat="46.87502" lon="-1.994">
        <ele>2</ele>
        <time>2018-01-07T17:55:16Z</time>
      </trkpt>
      <trkpt lat="46.8752" lon="-1.99424">
        <ele>2</ele>
        <time>2018-01-07T17:56:16Z</time>
      </trkpt>
      <trkpt lat="46.87544" lon="-1.99453">
        <ele>2</ele>
        <time>2018-01-07T17:57:16Z</time>
      </trkpt>
      <trkpt lat="46.87559" lon="-1.9947">
        <ele>1</ele>
        <time>2018-01-07T17:58:16Z</time>
      </trkpt>
      <trkpt lat="46.87577" lon="-1.99491">
        <ele>1</ele>
        <time>2018-01-07T17:59:16Z</time>
      </trkpt>
      <trkpt lat="46.87598" lon="-1.99516">
        <ele>1</ele>
        <time>2018-01-07T18:00:16Z</time>
      </trkpt>
      <trkpt lat="46.87606" lon="-1.99524">
        <ele>1</ele>
        <time>2018-01-07T18:01:16Z</time>
      </trkpt>
      <trkpt lat="46.87612" lon="-1.9953">
        <ele>1</ele>
        <time>2018-01-07T18:02:16Z</time>
      </trkpt>
      <trkpt lat="46.87631" lon="-1.99551">
        <ele>2</ele>
        <time>2018-01-07T18:03:16Z</time>
      </trkpt>
      <trkpt lat="46.87653" lon="-1.99578">
        <ele>3</ele>
        <time>2018-01-07T18:04:16Z</time>
      </trkpt>
      <trkpt lat="46.87678" lon="-1.99607">
        <ele>4</ele>
        <time>2018-01-07T18:05:16Z</time>
      </trkpt>
      <trkpt lat="46.87699" lon="-1.99634">
        <ele>5</ele>
        <time>2018-01-07T18:06:16Z</time>
      </trkpt>
      <trkpt lat="46.87716" lon="-1.99661">
        <ele>5</ele>
        <time>2018-01-07T18:07:16Z</time>
      </trkpt>
      <trkpt lat="46.87724" lon="-1.99674">
        <ele>5</ele>
        <time>2018-01-07T18:08:16Z</time>
      </trkpt>
      <trkpt lat="46.87733" lon="-1.9969">
        <ele>6</ele>
        <time>2018-01-07T18:09:16Z</time>
      </trkpt>
      <trkpt lat="46.87755" lon="-1.99726">
        <ele>6</ele>
        <time>2018-01-07T18:10:16Z</time>
      </trkpt>
      <trkpt lat="46.87776" lon="-1.99761">
        <ele>7</ele>
        <time>2018-01-07T18:11:16Z</time>
      </trkpt>
      <trkpt lat="46.87797" lon="-1.99796">
        <ele>7</ele>
        <time>2018-01-07T18:12:16Z</time>
      </trkpt>
      <trkpt lat="46.87815" lon="-1.99828">
        <ele>8</ele>
        <time>2018-01-07T18:13:16Z</time>
      </trkpt>
      <trkpt lat="46.87824" lon="-1.9985">
        <ele>8</ele>
        <time>2018-01-07T18:14:16Z</time>
      </trkpt>
      <trkpt lat="46.87826" lon="-1.9986">
        <ele>8</ele>
        <time>2018-01-07T18:15:16Z</time>
      </trkpt>
      <trkpt lat="46.87828" lon="-1.99872">
        <ele>8</ele>
        <time>2018-01-07T18:16:16Z</time>
      </trkpt>
      <trkpt lat="46.87826" lon="-1.9989">
        <ele>8</ele>
        <time>2018-01-07T18:17:16Z</time>
      </trkpt>
      <trkpt lat="46.87823" lon="-1.999">
        <ele>8</ele>
        <time>2018-01-07T18:18:16Z</time>
      </trkpt>
      <trkpt lat="46.87818" lon="-1.99913">
        <ele>8</ele>
        <time>2018-01-07T18:19:16Z</time>
      </trkpt>
      <trkpt lat="46.87811" lon="-1.99928">
        <ele>8</ele>
        <time>2018-01-07T18:20:16Z</time>
      </trkpt>
      <trkpt lat="46.87786" lon="-1.99964">
        <ele>7</ele>
        <time>2018-01-07T18:21:16Z</time>
      </trkpt>
      <trkpt lat="46.87759" lon="-2.00004">
        <ele>6</ele>
        <time>2018-01-07T18:22:16Z</time>
      </trkpt>
      <trkpt lat="46.87745" lon="-2.00024">
        <ele>6</ele>
        <time>2018-01-07T18:23:16Z</time>
      </trkpt>
      <trkpt lat="46.87744" lon="-2.00026">
        <ele>6</ele>
        <time>2018-01-07T18:24:16Z</time>
      </trkpt>
      <trkpt lat="46.87713" lon="-2.00078">
        <ele>5</ele>
        <time>2018-01-07T18:25:16Z</time>
      </trkpt>
      <trkpt lat="46.87693" lon="-2.00112">
        <ele>4</ele>
        <time>2018-01-07T18:26:16Z</time>
      </trkpt>
      <trkpt lat="46.87668" lon="-2.00154">
        <ele>3</ele>
        <time>2018-01-07T18:27:16Z</time>
      </trkpt>
      <trkpt lat="46.87641" lon="-2.00201">
        <ele>2</ele>
        <time>2018-01-07T18:28:16Z</time>
      </trkpt>
      <trkpt lat="46.87618" lon="-2.00239">
        <ele>1</ele>
        <time>2018-01-07T18:29:16Z</time>
      </trkpt>
      <trkpt lat="46.876" lon="-2.00269">
        <ele>2.2</ele>
        <time>2018-01-07T18:30:16Z</time>
      </trkpt>
      <trkpt lat="46.87582" lon="-2.00294">
        <ele>2</ele>
        <time>2018-01-07T18:31:16Z</time>
      </trkpt>
      <trkpt lat="46.87569" lon="-2.00314">
        <ele>2</ele>
        <time>2018-01-07T18:32:16Z</time>
      </trkpt>
      <trkpt lat="46.87558" lon="-2.00327">
        <ele>2</ele>
        <time>2018-01-07T18:33:16Z</time>
      </trkpt>
      <trkpt lat="46.87557" lon="-2.00329">
        <ele>2</ele>
        <time>2018-01-07T18:34:16Z</time>
      </trkpt>
      <trkpt lat="46.87548" lon="-2.00349">
        <ele>1.9</ele>
        <time>2018-01-07T18:35:16Z</time>
      </trkpt>
      <trkpt lat="46.87535" lon="-2.00386">
        <ele>1.3</ele>
        <time>2018-01-07T18:36:16Z</time>
      </trkpt>
      <trkpt lat="46.87523" lon="-2.0042">
        <ele>2</ele>
        <time>2018-01-07T18:37:16Z</time>
      </trkpt>
      <trkpt lat="46.87508" lon="-2.00468">
        <ele>2.2</ele>
        <time>2018-01-07T18:38:16Z</time>
      </trkpt>
      <trkpt lat="46.87501" lon="-2.0049">
        <ele>2</ele>
        <time>2018-01-07T18:39:16Z</time>
      </trkpt>
      <trkpt lat="46.87489" lon="-2.00525">
        <ele>2.4</ele>
        <time>2018-01-07T18:40:16Z</time>
      </trkpt>
      <trkpt lat="46.87482" lon="-2.00544">
        <ele>1</ele>
        <time>2018-01-07T18:41:16Z</time>
      </trkpt>
      <trkpt lat="46.87474" lon="-2.00568">
        <ele>1</ele>
        <time>2018-01-07T18:42:16Z</time>
      </trkpt>
      <trkpt lat="46.87467" lon="-2.00594">
        <ele>1</ele>
        <time>2018-01-07T18:43:16Z</time>
      </trkpt>
      <trkpt lat="46.87458" lon="-2.00626">
        <ele>1</ele>
        <time>2018-01-07T18:44:16Z</time>
      </trkpt>
      <trkpt lat="46.8745" lon="-2.00659">
        <ele>1</ele>
        <time>2018-01-07T18:45:16Z</time>
      </trkpt>
      <trkpt lat="46.87442" lon="-2.00689">
        <ele>1</ele>
        <time>2018-01-07T18:46:16Z</time>
      </trkpt>
      <trkpt lat="46.87438" lon="-2.0071">
        <ele>1</ele>
        <time>2018-01-07T18:47:16Z</time>
      </trkpt>
      <trkpt lat="46.87429" lon="-2.00742">
        <ele>1</ele>
        <time>2018-01-07T18:48:16Z</time>
      </trkpt>
      <trkpt lat="46.87426" lon="-2.00755">
        <ele>1</ele>
        <time>2018-01-07T18:49:16Z</time>
      </trkpt>
      <trkpt lat="46.87423" lon="-2.00767">
        <ele>1</ele>
        <time>2018-01-07T18:50:16Z</time>
      </trkpt>
      <trkpt lat="46.87417" lon="-2.00789">
        <ele>1</ele>
        <time>2018-01-07T18:51:16Z</time>
      </trkpt>
      <trkpt lat="46.87412" lon="-2.00809">
        <ele>1</ele>
        <time>2018-01-07T18:52:16Z</time>
      </trkpt>
      <trkpt lat="46.8741" lon="-2.00829">
        <ele>1</ele>
        <time>2018-01-07T18:53:16Z</time>
      </trkpt>
      <trkpt lat="46.8741" lon="-2.00871">
        <ele>1</ele>
        <time>2018-01-07T18:54:16Z</time>
      </trkpt>
      <trkpt lat="46.87412" lon="-2.0092">
        <ele>2</ele>
        <time>2018-01-07T18:55:16Z</time>
      </trkpt>
      <trkpt lat="46.87413" lon="-2.00964">
        <ele>1</ele>
        <time>2018-01-07T18:56:16Z</time>
      </trkpt>
      <trkpt lat="46.87414" lon="-2.01013">
        <ele>1</ele>
        <time>2018-01-07T18:57:16Z</time>
      </trkpt>
      <trkpt lat="46.87417" lon="-2.01037">
        <ele>1</ele>
        <time>2018-01-07T18:58:16Z</time>
      </trkpt>
      <trkpt lat="46.87417" lon="-2.01037">
        <ele>1</ele>
        <time>2018-01-07T18:59:16Z</time>
      </trkpt>
      <trkpt lat="46.8743" lon="-2.0103">
        <ele>1</ele>
        <time>2018-01-07T19:00:16Z</time>
      </trkpt>
      <trkpt lat="46.87451" lon="-2.01022">
        <ele>1</ele>
        <time>2018-01-07T19:01:16Z</time>
      </trkpt>
      <trkpt lat="46.87469" lon="-2.01014">
        <ele>2</ele>
        <time>2018-01-07T19:02:16Z</time>
      </trkpt>
      <trkpt lat="46.87514" lon="-2.00993">
        <ele>2</ele>
        <time>2018-01-07T19:03:16Z</time>
      </trkpt>
      <trkpt lat="46.87555" lon="-2.00974">
        <ele>3</ele>
        <time>2018-01-07T19:04:16Z</time>
      </trkpt>
      <trkpt lat="46.87561" lon="-2.00972">
        <ele>3</ele>
        <time>2018-01-07T19:05:16Z</time>
      </trkpt>
      <trkpt lat="46.87604" lon="-2.00953">
        <ele>3</ele>
        <time>2018-01-07T19:06:16Z</time>
      </trkpt>
      <trkpt lat="46.87651" lon="-2.00933">
        <ele>3</ele>
        <time>2018-01-07T19:07:16Z</time>
      </trkpt>
      <trkpt lat="46.87656" lon="-2.00931">
        <ele>3</ele>
        <time>2018-01-07T19:08:16Z</time>
      </trkpt>
      <trkpt lat="46.87662" lon="-2.00931">
        <ele>3</ele>
        <time>2018-01-07T19:09:16Z</time>
      </trkpt>
      <trkpt lat="46.87662" lon="-2.00931">
        <ele>3</ele>
        <time>2018-01-07T19:10:16Z</time>
      </trkpt>
      <trkpt lat="46.87662" lon="-2.0093">
        <ele>3</ele>
        <time>2018-01-07T19:11:16Z</time>
      </trkpt>
      <trkpt lat="46.87662" lon="-2.00929">
        <ele>3</ele>
        <time>2018-01-07T19:12:16Z</time>
      </trkpt>
      <trkpt lat="46.87662" lon="-2.00928">
        <ele>3</ele>
        <time>2018-01-07T19:13:16Z</time>
      </trkpt>
      <trkpt lat="46.87662" lon="-2.00927">
        <ele>3</ele>
        <time>2018-01-07T19:14:16Z</time>
      </trkpt>
      <trkpt lat="46.87662" lon="-2.00926">
        <ele>3</ele>
        <time>2018-01-07T19:15:16Z</time>
      </trkpt>
      <trkpt lat="46.87663" lon="-2.00926">
        <ele>3</ele>
        <time>2018-01-07T19:16:16Z</time>
      </trkpt>
      <trkpt lat="46.87663" lon="-2.00925">
        <ele>3</ele>
        <time>2018-01-07T19:17:16Z</time>
      </trkpt>
      <trkpt lat="46.87663" lon="-2.00924">
        <ele>3</ele>
        <time>2018-01-07T19:18:16Z</time>
      </trkpt>
      <trkpt lat="46.87664" lon="-2.00924">
        <ele>3</ele>
        <time>2018-01-07T19:19:16Z</time>
      </trkpt>
      <trkpt lat="46.87664" lon="-2.00923">
        <ele>3</ele>
        <time>2018-01-07T19:20:16Z</time>
      </trkpt>
      <trkpt lat="46.87664" lon="-2.00922">
        <ele>3</ele>
        <time>2018-01-07T19:21:16Z</time>
      </trkpt>
      <trkpt lat="46.87665" lon="-2.00922">
        <ele>3</ele>
        <time>2018-01-07T19:22:16Z</time>
      </trkpt>
      <trkpt lat="46.87666" lon="-2.00922">
        <ele>3</ele>
        <time>2018-01-07T19:23:16Z</time>
      </trkpt>
      <trkpt lat="46.87666" lon="-2.00921">
        <ele>3</ele>
        <time>2018-01-07T19:24:16Z</time>
      </trkpt>
      <trkpt lat="46.87667" lon="-2.00921">
        <ele>3</ele>
        <time>2018-01-07T19:25:16Z</time>
      </trkpt>
      <trkpt lat="46.87668" lon="-2.00921">
        <ele>3</ele>
        <time>2018-01-07T19:26:16Z</time>
      </trkpt>
      <trkpt lat="46.87669" lon="-2.00921">
        <ele>3</ele>
        <time>2018-01-07T19:27:16Z</time>
      </trkpt>
      <trkpt lat="46.8767" lon="-2.00921">
        <ele>3</ele>
        <time>2018-01-07T19:28:16Z</time>
      </trkpt>
      <trkpt lat="46.87671" lon="-2.00921">
        <ele>3</ele>
        <time>2018-01-07T19:29:16Z</time>
      </trkpt>
      <trkpt lat="46.87671" lon="-2.00922">
        <ele>3</ele>
        <time>2018-01-07T19:30:16Z</time>
      </trkpt>
      <trkpt lat="46.87672" lon="-2.00922">
        <ele>3</ele>
        <time>2018-01-07T19:31:16Z</time>
      </trkpt>
      <trkpt lat="46.87672" lon="-2.00923">
        <ele>3</ele>
        <time>2018-01-07T19:32:16Z</time>
      </trkpt>
      <trkpt lat="46.87672" lon="-2.00924">
        <ele>3</ele>
        <time>2018-01-07T19:33:16Z</time>
      </trkpt>
      <trkpt lat="46.87673" lon="-2.00924">
        <ele>3</ele>
        <time>2018-01-07T19:34:16Z</time>
      </trkpt>
      <trkpt lat="46.87673" lon="-2.00925">
        <ele>3</ele>
        <time>2018-01-07T19:35:16Z</time>
      </trkpt>
      <trkpt lat="46.87673" lon="-2.00926">
        <ele>3</ele>
        <time>2018-01-07T19:36:16Z</time>
      </trkpt>
      <trkpt lat="46.87674" lon="-2.00926">
        <ele>3</ele>
        <time>2018-01-07T19:37:16Z</time>
      </trkpt>
      <trkpt lat="46.87674" lon="-2.00927">
        <ele>3</ele>
        <time>2018-01-07T19:38:16Z</time>
      </trkpt>
      <trkpt lat="46.87674" lon="-2.00928">
        <ele>3</ele>
        <time>2018-01-07T19:39:16Z</time>
      </trkpt>
      <trkpt lat="46.87674" lon="-2.00929">
        <ele>3</ele>
        <time>2018-01-07T19:40:16Z</time>
      </trkpt>
      <trkpt lat="46.87674" lon="-2.0093">
        <ele>3</ele>
        <time>2018-01-07T19:41:16Z</time>
      </trkpt>
      <trkpt lat="46.87674" lon="-2.00931">
        <ele>3</ele>
        <time>2018-01-07T19:42:16Z</time>
      </trkpt>
      <trkpt lat="46.87674" lon="-2.00932">
        <ele>3</ele>
        <time>2018-01-07T19:43:16Z</time>
      </trkpt>
      <trkpt lat="46.87673" lon="-2.00932">
        <ele>3</ele>
        <time>2018-01-07T19:44:16Z</time>
      </trkpt>
      <trkpt lat="46.87673" lon="-2.00933">
        <ele>3</ele>
        <time>2018-01-07T19:45:16Z</time>
      </trkpt>
      <trkpt lat="46.87673" lon="-2.00934">
        <ele>3</ele>
        <time>2018-01-07T19:46:16Z</time>
      </trkpt>
      <trkpt lat="46.87672" lon="-2.00935">
        <ele>3</ele>
        <time>2018-01-07T19:47:16Z</time>
      </trkpt>
      <trkpt lat="46.87672" lon="-2.00936">
        <ele>3</ele>
        <time>2018-01-07T19:48:16Z</time>
      </trkpt>
      <trkpt lat="46.87671" lon="-2.00936">
        <ele>3</ele>
        <time>2018-01-07T19:49:16Z</time>
      </trkpt>
      <trkpt lat="46.87671" lon="-2.00937">
        <ele>3</ele>
        <time>2018-01-07T19:50:16Z</time>
      </trkpt>
      <trkpt lat="46.8767" lon="-2.00937">
        <ele>3</ele>
        <time>2018-01-07T19:51:16Z</time>
      </trkpt>
      <trkpt lat="46.87671" lon="-2.00948">
        <ele>3</ele>
        <time>2018-01-07T19:52:16Z</time>
      </trkpt>
      <trkpt lat="46.87671" lon="-2.00968">
        <ele>2</ele>
        <time>2018-01-07T19:53:16Z</time>
      </trkpt>
      <trkpt lat="46.87668" lon="-2.01008">
        <ele>2</ele>
        <time>2018-01-07T19:54:16Z</time>
      </trkpt>
      <trkpt lat="46.87664" lon="-2.01054">
        <ele>2</ele>
        <time>2018-01-07T19:55:16Z</time>
      </trkpt>
      <trkpt lat="46.87661" lon="-2.0109">
        <ele>2</ele>
        <time>2018-01-07T19:56:16Z</time>
      </trkpt>
      <trkpt lat="46.8766" lon="-2.01097">
        <ele>2</ele>
        <time>2018-01-07T19:57:16Z</time>
      </trkpt>
      <trkpt lat="46.87658" lon="-2.01124">
        <ele>3</ele>
        <time>2018-01-07T19:58:16Z</time>
      </trkpt>
      <trkpt lat="46.87654" lon="-2.01163">
        <ele>3</ele>
        <time>2018-01-07T19:59:16Z</time>
      </trkpt>
      <trkpt lat="46.87652" lon="-2.01179">
        <ele>3</ele>
        <time>2018-01-07T20:00:16Z</time>
      </trkpt>
      <trkpt lat="46.87651" lon="-2.01192">
        <ele>3</ele>
        <time>2018-01-07T20:01:16Z</time>
      </trkpt>
      <trkpt lat="46.87649" lon="-2.01219">
        <ele>3</ele>
        <time>2018-01-07T20:02:16Z</time>
      </trkpt>
      <trkpt lat="46.87647" lon="-2.0124">
        <ele>3</ele>
        <time>2018-01-07T20:03:16Z</time>
      </trkpt>
      <trkpt lat="46.87647" lon="-2.0126">
        <ele>3</ele>
        <time>2018-01-07T20:04:16Z</time>
      </trkpt>
      <trkpt lat="46.87649" lon="-2.0128">
        <ele>2</ele>
        <time>2018-01-07T20:05:16Z</time>
      </trkpt>
      <trkpt lat="46.87652" lon="-2.01305">
        <ele>2</ele>
        <time>2018-01-07T20:06:16Z</time>
      </trkpt>
      <trkpt lat="46.87658" lon="-2.01335">
        <ele>1</ele>
        <time>2018-01-07T20:07:16Z</time>
      </trkpt>
      <trkpt lat="46.87662" lon="-2.01354">
        <ele>1</ele>
        <time>2018-01-07T20:08:16Z</time>
      </trkpt>
      <trkpt lat="46.87662" lon="-2.01355">
        <ele>1</ele>
        <time>2018-01-07T20:09:16Z</time>
      </trkpt>
      <trkpt lat="46.87669" lon="-2.01385">
        <ele>1</ele>
        <time>2018-01-07T20:10:16Z</time>
      </trkpt>
      <trkpt lat="46.87675" lon="-2.01412">
        <ele>1</ele>
        <time>2018-01-07T20:11:16Z</time>
      </trkpt>
      <trkpt lat="46.87681" lon="-2.01453">
        <ele>1</ele>
        <time>2018-01-07T20:12:16Z</time>
      </trkpt>
      <trkpt lat="46.87687" lon="-2.01483">
        <ele>2</ele>
        <time>2018-01-07T20:13:16Z</time>
      </trkpt>
      <trkpt lat="46.87687" lon="-2.01486">
        <ele>2</ele>
        <time>2018-01-07T20:14:16Z</time>
      </trkpt>
      <trkpt lat="46.87691" lon="-2.01516">
        <ele>2</ele>
        <time>2018-01-07T20:15:16Z</time>
      </trkpt>
      <trkpt lat="46.87693" lon="-2.01535">
        <ele>2</ele>
        <time>2018-01-07T20:16:16Z</time>
      </trkpt>
      <trkpt lat="46.87694" lon="-2.01542">
        <ele>2</ele>
        <time>2018-01-07T20:17:16Z</time>
      </trkpt>
      <trkpt lat="46.87696" lon="-2.01567">
        <ele>2</ele>
        <time>2018-01-07T20:18:16Z</time>
      </trkpt>
      <trkpt lat="46.87696" lon="-2.01592">
        <ele>2</ele>
        <time>2018-01-07T20:19:16Z</time>
      </trkpt>
      <trkpt lat="46.87694" lon="-2.01624">
        <ele>2</ele>
        <time>2018-01-07T20:20:16Z</time>
      </trkpt>
      <trkpt lat="46.87694" lon="-2.01647">
        <ele>2</ele>
        <time>2018-01-07T20:21:16Z</time>
      </trkpt>
      <trkpt lat="46.87694" lon="-2.01662">
        <ele>2</ele>
        <time>2018-01-07T20:22:16Z</time>
      </trkpt>
      <trkpt lat="46.87694" lon="-2.01673">
        <ele>2</ele>
        <time>2018-01-07T20:23:16Z</time>
      </trkpt>
      <trkpt lat="46.87695" lon="-2.017">
        <ele>2</ele>
        <time>2018-01-07T20:24:16Z</time>
      </trkpt>
      <trkpt lat="46.87697" lon="-2.01729">
        <ele>2</ele>
        <time>2018-01-07T20:25:16Z</time>
      </trkpt>
      <trkpt lat="46.87701" lon="-2.01765">
        <ele>2</ele>
        <time>2018-01-07T20:26:16Z</time>
      </trkpt>
      <trkpt lat="46.87706" lon="-2.01799">
        <ele>2</ele>
        <time>2018-01-07T20:27:16Z</time>
      </trkpt>
      <trkpt lat="46.87708" lon="-2.01827">
        <ele>2</ele>
        <time>2018-01-07T20:28:16Z</time>
      </trkpt>
      <trkpt lat="46.8771" lon="-2.01857">
        <ele>2</ele>
        <time>2018-01-07T20:29:16Z</time>
      </trkpt>
      <trkpt lat="46.87707" lon="-2.01896">
        <ele>2</ele>
        <time>2018-01-07T20:30:16Z</time>
      </trkpt>
      <trkpt lat="46.87702" lon="-2.01936">
        <ele>1</ele>
        <time>2018-01-07T20:31:16Z</time>
      </trkpt>
      <trkpt lat="46.87702" lon="-2.01938">
        <ele>1</ele>
        <time>2018-01-07T20:32:16Z</time>
      </trkpt>
      <trkpt lat="46.87697" lon="-2.01994">
        <ele>2</ele>
        <time>2018-01-07T20:33:16Z</time>
      </trkpt>
      <trkpt lat="46.87696" lon="-2.02">
        <ele>2</ele>
        <time>2018-01-07T20:34:16Z</time>
      </trkpt>
      <trkpt lat="46.87695" lon="-2.0201">
        <ele>1</ele>
        <time>2018-01-07T20:35:16Z</time>
      </trkpt>
      <trkpt lat="46.87692" lon="-2.02026">
        <ele>1</ele>
        <time>2018-01-07T20:36:16Z</time>
      </trkpt>
      <trkpt lat="46.87686" lon="-2.02052">
        <ele>1</ele>
        <time>2018-01-07T20:37:16Z</time>
      </trkpt>
      <trkpt lat="46.87671" lon="-2.021">
        <ele>2</ele>
        <time>2018-01-07T20:38:16Z</time>
      </trkpt>
      <trkpt lat="46.87651" lon="-2.02162">
        <ele>2</ele>
        <time>2018-01-07T20:39:16Z</time>
      </trkpt>
      <trkpt lat="46.87642" lon="-2.0219">
        <ele>2.1</ele>
        <time>2018-01-07T20:40:16Z</time>
      </trkpt>
      <trkpt lat="46.87633" lon="-2.02227">
        <ele>1</ele>
        <time>2018-01-07T20:41:16Z</time>
      </trkpt>
      <trkpt lat="46.87627" lon="-2.02272">
        <ele>1</ele>
        <time>2018-01-07T20:42:16Z</time>
      </trkpt>
      <trkpt lat="46.87615" lon="-2.02366">
        <ele>2</ele>
        <time>2018-01-07T20:43:16Z</time>
      </trkpt>
      <trkpt lat="46.87607" lon="-2.02427">
        <ele>1.9</ele>
        <time>2018-01-07T20:44:16Z</time>
      </trkpt>
      <trkpt lat="46.87599" lon="-2.02489">
        <ele>1</ele>
        <time>2018-01-07T20:45:16Z</time>
      </trkpt>
      <trkpt lat="46.87593" lon="-2.02532">
        <ele>1</ele>
        <time>2018-01-07T20:46:16Z</time>
      </trkpt>
      <trkpt lat="46.87584" lon="-2.02568">
        <ele>2</ele>
        <time>2018-01-07T20:47:16Z</time>
      </trkpt>
      <trkpt lat="46.87575" lon="-2.02591">
        <ele>1.5</ele>
        <time>2018-01-07T20:48:16Z</time>
      </trkpt>
      <trkpt lat="46.87562" lon="-2.02615">
        <ele>1</ele>
        <time>2018-01-07T20:49:16Z</time>
      </trkpt>
      <trkpt lat="46.87549" lon="-2.02638">
        <ele>1</ele>
        <time>2018-01-07T20:50:16Z</time>
      </trkpt>
      <trkpt lat="46.87535" lon="-2.02662">
        <ele>1.6</ele>
        <time>2018-01-07T20:51:16Z</time>
      </trkpt>
      <trkpt lat="46.87514" lon="-2.02696">
        <ele>1.5</ele>
        <time>2018-01-07T20:52:16Z</time>
      </trkpt>
      <trkpt lat="46.87511" lon="-2.027">
        <ele>1.7</ele>
        <time>2018-01-07T20:53:16Z</time>
      </trkpt>
      <trkpt lat="46.87503" lon="-2.02713">
        <ele>2.5</ele>
        <time>2018-01-07T20:54:16Z</time>
      </trkpt>
      <trkpt lat="46.87493" lon="-2.0273">
        <ele>2.5</ele>
        <time>2018-01-07T20:55:16Z</time>
      </trkpt>
      <trkpt lat="46.87487" lon="-2.02747">
        <ele>2.1</ele>
        <time>2018-01-07T20:56:16Z</time>
      </trkpt>
      <trkpt lat="46.87482" lon="-2.02762">
        <ele>1</ele>
        <time>2018-01-07T20:57:16Z</time>
      </trkpt>
      <trkpt lat="46.87479" lon="-2.02777">
        <ele>1</ele>
        <time>2018-01-07T20:58:16Z</time>
      </trkpt>
      <trkpt lat="46.87476" lon="-2.02802">
        <ele>1</ele>
        <time>2018-01-07T20:59:16Z</time>
      </trkpt>
      <trkpt lat="46.87475" lon="-2.02816">
        <ele>1</ele>
        <time>2018-01-07T21:00:16Z</time>
      </trkpt>
      <trkpt lat="46.8747" lon="-2.02848">
        <ele>1</ele>
        <time>2018-01-07T21:01:16Z</time>
      </trkpt>
      <trkpt lat="46.8746" lon="-2.02911">
        <ele>1</ele>
        <time>2018-01-07T21:02:16Z</time>
      </trkpt>
      <trkpt lat="46.87453" lon="-2.02958">
        <ele>1</ele>
        <time>2018-01-07T21:03:16Z</time>
      </trkpt>
      <trkpt lat="46.87443" lon="-2.02997">
        <ele>1</ele>
        <time>2018-01-07T21:04:16Z</time>
      </trkpt>
      <trkpt lat="46.87426" lon="-2.0306">
        <ele>2</ele>
        <time>2018-01-07T21:05:16Z</time>
      </trkpt>
      <trkpt lat="46.87411" lon="-2.03114">
        <ele>2</ele>
        <time>2018-01-07T21:06:16Z</time>
      </trkpt>
      <trkpt lat="46.87395" lon="-2.03169">
        <ele>2</ele>
        <time>2018-01-07T21:07:16Z</time>
      </trkpt>
      <trkpt lat="46.87376" lon="-2.03231">
        <ele>2</ele>
        <time>2018-01-07T21:08:16Z</time>
      </trkpt>
      <trkpt lat="46.87372" lon="-2.03245">
        <ele>2</ele>
        <time>2018-01-07T21:09:16Z</time>
      </trkpt>
      <trkpt lat="46.87364" lon="-2.03269">
        <ele>2</ele>
        <time>2018-01-07T21:10:16Z</time>
      </trkpt>
      <trkpt lat="46.8736" lon="-2.03279">
        <ele>2</ele>
        <time>2018-01-07T21:11:16Z</time>
      </trkpt>
      <trkpt lat="46.87353" lon="-2.03297">
        <ele>2</ele>
        <time>2018-01-07T21:12:16Z</time>
      </trkpt>
      <trkpt lat="46.87346" lon="-2.0331">
        <ele>2</ele>
        <time>2018-01-07T21:13:16Z</time>
      </trkpt>
      <trkpt lat="46.87332" lon="-2.03334">
        <ele>2</ele>
        <time>2018-01-07T21:14:16Z</time>
      </trkpt>
      <trkpt lat="46.8732" lon="-2.03352">
        <ele>2</ele>
        <time>2018-01-07T21:15:16Z</time>
      </trkpt>
      <trkpt lat="46.87298" lon="-2.03385">
        <ele>1.8</ele>
        <time>2018-01-07T21:16:16Z</time>
      </trkpt>
      <trkpt lat="46.87274" lon="-2.0342">
        <ele>2</ele>
        <time>2018-01-07T21:17:16Z</time>
      </trkpt>
      <trkpt lat="46.87268" lon="-2.03429">
        <ele>1.8</ele>
        <time>2018-01-07T21:18:16Z</time>
      </trkpt>
      <trkpt lat="46.87263" lon="-2.03439">
        <ele>1.6</ele>
        <time>2018-01-07T21:19:16Z</time>
      </trkpt>
      <trkpt lat="46.87259" lon="-2.03449">
        <ele>1.4</ele>
        <time>2018-01-07T21:20:16Z</time>
      </trkpt>
      <trkpt lat="46.87256" lon="-2.03457">
        <ele>1.6</ele>
        <time>2018-01-07T21:21:16Z</time>
      </trkpt>
      <trkpt lat="46.87254" lon="-2.03467">
        <ele>1.8</ele>
        <time>2018-01-07T21:22:16Z</time>
      </trkpt>
      <trkpt lat="46.87252" lon="-2.03479">
        <ele>2</ele>
        <time>2018-01-07T21:23:16Z</time>
      </trkpt>
      <trkpt lat="46.87251" lon="-2.03487">
        <ele>2</ele>
        <time>2018-01-07T21:24:16Z</time>
      </trkpt>
      <trkpt lat="46.87251" lon="-2.03495">
        <ele>2</ele>
        <time>2018-01-07T21:25:16Z</time>
      </trkpt>
      <trkpt lat="46.87252" lon="-2.03515">
        <ele>2</ele>
        <time>2018-01-07T21:26:16Z</time>
      </trkpt>
      <trkpt lat="46.87253" lon="-2.03551">
        <ele>1.3</ele>
        <time>2018-01-07T21:27:16Z</time>
      </trkpt>
      <trkpt lat="46.87255" lon="-2.03579">
        <ele>1.9</ele>
        <time>2018-01-07T21:28:16Z</time>
      </trkpt>
      <trkpt lat="46.87257" lon="-2.03606">
        <ele>2</ele>
        <time>2018-01-07T21:29:16Z</time>
      </trkpt>
      <trkpt lat="46.87263" lon="-2.03627">
        <ele>1</ele>
        <time>2018-01-07T21:30:16Z</time>
      </trkpt>
      <trkpt lat="46.8728" lon="-2.0367">
        <ele>1</ele>
        <time>2018-01-07T21:31:16Z</time>
      </trkpt>
      <trkpt lat="46.87297" lon="-2.03714">
        <ele>1</ele>
        <time>2018-01-07T21:32:16Z</time>
      </trkpt>
      <trkpt lat="46.87318" lon="-2.03767">
        <ele>1</ele>
        <time>2018-01-07T21:33:16Z</time>
      </trkpt>
      <trkpt lat="46.87339" lon="-2.03816">
        <ele>2</ele>
        <time>2018-01-07T21:34:16Z</time>
      </trkpt>
      <trkpt lat="46.87347" lon="-2.03836">
        <ele>2</ele>
        <time>2018-01-07T21:35:16Z</time>
      </trkpt>
      <trkpt lat="46.87352" lon="-2.03858">
        <ele>1.4</ele>
        <time>2018-01-07T21:36:16Z</time>
      </trkpt>
      <trkpt lat="46.87355" lon="-2.0388">
        <ele>1.8</ele>
        <time>2018-01-07T21:37:16Z</time>
      </trkpt>
      <trkpt lat="46.87356" lon="-2.03891">
        <ele>2</ele>
        <time>2018-01-07T21:38:16Z</time>
      </trkpt>
      <trkpt lat="46.87356" lon="-2.03894">
        <ele>2</ele>
        <time>2018-01-07T21:39:16Z</time>
      </trkpt>
      <trkpt lat="46.87357" lon="-2.03925">
        <ele>2</ele>
        <time>2018-01-07T21:40:16Z</time>
      </trkpt>
      <trkpt lat="46.87359" lon="-2.0396">
        <ele>2</ele>
        <time>2018-01-07T21:41:16Z</time>
      </trkpt>
      <trkpt lat="46.87359" lon="-2.03982">
        <ele>2</ele>
        <time>2018-01-07T21:42:16Z</time>
      </trkpt>
      <trkpt lat="46.87362" lon="-2.04018">
        <ele>1</ele>
        <time>2018-01-07T21:43:16Z</time>
      </trkpt>
      <trkpt lat="46.87364" lon="-2.04037">
        <ele>1</ele>
        <time>2018-01-07T21:44:16Z</time>
      </trkpt>
      <trkpt lat="46.87367" lon="-2.04053">
        <ele>1</ele>
        <time>2018-01-07T21:45:16Z</time>
      </trkpt>
      <trkpt lat="46.87374" lon="-2.04081">
        <ele>1</ele>
        <time>2018-01-07T21:46:16Z</time>
      </trkpt>
      <trkpt lat="46.8738" lon="-2.04101">
        <ele>1</ele>
        <time>2018-01-07T21:47:16Z</time>
      </trkpt>
      <trkpt lat="46.87389" lon="-2.04126">
        <ele>1</ele>
        <time>2018-01-07T21:48:16Z</time>
      </trkpt>
      <trkpt lat="46.87391" lon="-2.04131">
        <ele>1</ele>
        <time>2018-01-07T21:49:16Z</time>
      </trkpt>
      <trkpt lat="46.87393" lon="-2.04136">
        <ele>1</ele>
        <time>2018-01-07T21:50:16Z</time>
      </trkpt>
      <trkpt lat="46.87407" lon="-2.04162">
        <ele>1</ele>
        <time>2018-01-07T21:51:16Z</time>
      </trkpt>
      <trkpt lat="46.87419" lon="-2.04189">
        <ele>2</ele>
        <time>2018-01-07T21:52:16Z</time>
      </trkpt>
      <trkpt lat="46.87432" lon="-2.04229">
        <ele>1</ele>
        <time>2018-01-07T21:53:16Z</time>
      </trkpt>
      <trkpt lat="46.8744" lon="-2.04259">
        <ele>1</ele>
        <time>2018-01-07T21:54:16Z</time>
      </trkpt>
      <trkpt lat="46.87443" lon="-2.04279">
        <ele>1</ele>
        <time>2018-01-07T21:55:16Z</time>
      </trkpt>
      <trkpt lat="46.87448" lon="-2.04323">
        <ele>2</ele>
        <time>2018-01-07T21:56:16Z</time>
      </trkpt>
      <trkpt lat="46.87454" lon="-2.0439">
        <ele>1</ele>
        <time>2018-01-07T21:57:16Z</time>
      </trkpt>
      <trkpt lat="46.87459" lon="-2.04455">
        <ele>1</ele>
        <time>2018-01-07T21:58:16Z</time>
      </trkpt>
      <trkpt lat="46.87462" lon="-2.04487">
        <ele>1</ele>
        <time>2018-01-07T21:59:16Z</time>
      </trkpt>
      <trkpt lat="46.87467" lon="-2.04516">
        <ele>2</ele>
        <time>2018-01-07T22:00:16Z</time>
      </trkpt>
      <trkpt lat="46.87475" lon="-2.04547">
        <ele>2</ele>
        <time>2018-01-07T22:01:16Z</time>
      </trkpt>
      <trkpt lat="46.87484" lon="-2.04573">
        <ele>2</ele>
        <time>2018-01-07T22:02:16Z</time>
      </trkpt>
      <trkpt lat="46.87497" lon="-2.04616">
        <ele>2</ele>
        <time>2018-01-07T22:03:16Z</time>
      </trkpt>
      <trkpt lat="46.87507" lon="-2.04648">
        <ele>1</ele>
        <time>2018-01-07T22:04:16Z</time>
      </trkpt>
      <trkpt lat="46.87523" lon="-2.04687">
        <ele>1</ele>
        <time>2018-01-07T22:05:16Z</time>
      </trkpt>
      <trkpt lat="46.87541" lon="-2.0472">
        <ele>1</ele>
        <time>2018-01-07T22:06:16Z</time>
      </trkpt>
      <trkpt lat="46.87558" lon="-2.04749">
        <ele>1</ele>
        <time>2018-01-07T22:07:16Z</time>
      </trkpt>
      <trkpt lat="46.87567" lon="-2.04773">
        <ele>1</ele>
        <time>2018-01-07T22:08:16Z</time>
      </trkpt>
      <trkpt lat="46.87571" lon="-2.048">
        <ele>1</ele>
        <time>2018-01-07T22:09:16Z</time>
      </trkpt>
      <trkpt lat="46.8757" lon="-2.04827">
        <ele>1</ele>
        <time>2018-01-07T22:10:16Z</time>
      </trkpt>
      <trkpt lat="46.87567" lon="-2.0485">
        <ele>1</ele>
        <time>2018-01-07T22:11:16Z</time>
      </trkpt>
      <trkpt lat="46.87563" lon="-2.04875">
        <ele>1</ele>
        <time>2018-01-07T22:12:16Z</time>
      </trkpt>
      <trkpt lat="46.87555" lon="-2.04916">
        <ele>1</ele>
        <time>2018-01-07T22:13:16Z</time>
      </trkpt>
      <trkpt lat="46.87549" lon="-2.04946">
        <ele>2</ele>
        <time>2018-01-07T22:14:16Z</time>
      </trkpt>
      <trkpt lat="46.87537" lon="-2.04977">
        <ele>2</ele>
        <time>2018-01-07T22:15:16Z</time>
      </trkpt>
      <trkpt lat="46.87521" lon="-2.05004">
        <ele>2</ele>
        <time>2018-01-07T22:16:16Z</time>
      </trkpt>
      <trkpt lat="46.87494" lon="-2.05039">
        <ele>2</ele>
        <time>2018-01-07T22:17:16Z</time>
      </trkpt>
      <trkpt lat="46.87487" lon="-2.05055">
        <ele>1</ele>
        <time>2018-01-07T22:18:16Z</time>
      </trkpt>
      <trkpt lat="46.87482" lon="-2.05072">
        <ele>1</ele>
        <time>2018-01-07T22:19:16Z</time>
      </trkpt>
      <trkpt lat="46.87479" lon="-2.05101">
        <ele>1</ele>
        <time>2018-01-07T22:20:16Z</time>
      </trkpt>
      <trkpt lat="46.87477" lon="-2.0513">
        <ele>2</ele>
        <time>2018-01-07T22:21:16Z</time>
      </trkpt>
      <trkpt lat="46.87474" lon="-2.05174">
        <ele>2</ele>
        <time>2018-01-07T22:22:16Z</time>
      </trkpt>
      <trkpt lat="46.87473" lon="-2.05208">
        <ele>2</ele>
        <time>2018-01-07T22:23:16Z</time>
      </trkpt>
      <trkpt lat="46.8747" lon="-2.05253">
        <ele>1</ele>
        <time>2018-01-07T22:24:16Z</time>
      </trkpt>
      <trkpt lat="46.87469" lon="-2.05274">
        <ele>1</ele>
        <time>2018-01-07T22:25:16Z</time>
      </trkpt>
      <trkpt lat="46.87466" lon="-2.05332">
        <ele>1</ele>
        <time>2018-01-07T22:26:16Z</time>
      </trkpt>
      <trkpt lat="46.87467" lon="-2.05354">
        <ele>2</ele>
        <time>2018-01-07T22:27:16Z</time>
      </trkpt>
      <trkpt lat="46.87469" lon="-2.05374">
        <ele>2</ele>
        <time>2018-01-07T22:28:16Z</time>
      </trkpt>
      <trkpt lat="46.87474" lon="-2.05395">
        <ele>2</ele>
        <time>2018-01-07T22:29:16Z</time>
      </trkpt>
      <trkpt lat="46.87481" lon="-2.05416">
        <ele>2</ele>
        <time>2018-01-07T22:30:16Z</time>
      </trkpt>
      <trkpt lat="46.87488" lon="-2.05432">
        <ele>2</ele>
        <time>2018-01-07T22:31:16Z</time>
      </trkpt>
      <trkpt lat="46.87491" lon="-2.05439">
        <ele>2</ele>
        <time>2018-01-07T22:32:16Z</time>
      </trkpt>
      <trkpt lat="46.87498" lon="-2.0545">
        <ele>2</ele>
        <time>2018-01-07T22:33:16Z</time>
      </trkpt>
      <trkpt lat="46.87503" lon="-2.05457">
        <ele>1</ele>
        <time>2018-01-07T22:34:16Z</time>
      </trkpt>
      <trkpt lat="46.87535" lon="-2.05495">
        <ele>1</ele>
        <time>2018-01-07T22:35:16Z</time>
      </trkpt>
      <trkpt lat="46.87565" lon="-2.05531">
        <ele>1</ele>
        <time>2018-01-07T22:36:16Z</time>
      </trkpt>
      <trkpt lat="46.87601" lon="-2.05571">
        <ele>1</ele>
        <time>2018-01-07T22:37:16Z</time>
      </trkpt>
      <trkpt lat="46.87611" lon="-2.05582">
        <ele>1</ele>
        <time>2018-01-07T22:38:16Z</time>
      </trkpt>
      <trkpt lat="46.87644" lon="-2.05621">
        <ele>2</ele>
        <time>2018-01-07T22:39:16Z</time>
      </trkpt>
      <trkpt lat="46.87716" lon="-2.05704">
        <ele>1</ele>
        <time>2018-01-07T22:40:16Z</time>
      </trkpt>
      <trkpt lat="46.87763" lon="-2.05759">
        <ele>1</ele>
        <time>2018-01-07T22:41:16Z</time>
      </trkpt>
      <trkpt lat="46.87776" lon="-2.05774">
        <ele>1</ele>
        <time>2018-01-07T22:42:16Z</time>
      </trkpt>
      <trkpt lat="46.87785" lon="-2.05784">
        <ele>1</ele>
        <time>2018-01-07T22:43:16Z</time>
      </trkpt>
      <trkpt lat="46.87795" lon="-2.05796">
        <ele>1</ele>
        <time>2018-01-07T22:44:16Z</time>
      </trkpt>
      <trkpt lat="46.87809" lon="-2.05811">
        <ele>1</ele>
        <time>2018-01-07T22:45:16Z</time>
      </trkpt>
      <trkpt lat="46.8782" lon="-2.05826">
        <ele>1</ele>
        <time>2018-01-07T22:46:16Z</time>
      </trkpt>
      <trkpt lat="46.87821" lon="-2.05829">
        <ele>1</ele>
        <time>2018-01-07T22:47:16Z</time>
      </trkpt>
      <trkpt lat="46.87822" lon="-2.05832">
        <ele>1</ele>
        <time>2018-01-07T22:48:16Z</time>
      </trkpt>
      <trkpt lat="46.87832" lon="-2.05854">
        <ele>1</ele>
        <time>2018-01-07T22:49:16Z</time>
      </trkpt>
      <trkpt lat="46.87832" lon="-2.05854">
        <ele>1</ele>
        <time>2018-01-07T22:50:16Z</time>
      </trkpt>
      <trkpt lat="46.87813" lon="-2.05854">
        <ele>1</ele>
        <time>2018-01-07T22:51:16Z</time>
      </trkpt>
      <trkpt lat="46.87813" lon="-2.05854">
        <ele>1</ele>
        <time>2018-01-07T22:52:16Z</time>
      </trkpt>
      <trkpt lat="46.87814" lon="-2.05884">
        <ele>1</ele>
        <time>2018-01-07T22:53:16Z</time>
      </trkpt>
      <trkpt lat="46.87815" lon="-2.0589">
        <ele>1</ele>
        <time>2018-01-07T22:54:16Z</time>
      </trkpt>
      <trkpt lat="46.8782" lon="-2.05921">
        <ele>1</ele>
        <time>2018-01-07T22:55:16Z</time>
      </trkpt>
      <trkpt lat="46.87843" lon="-2.06063">
        <ele>2</ele>
        <time>2018-01-07T22:56:16Z</time>
      </trkpt>
      <trkpt lat="46.87856" lon="-2.06133">
        <ele>2</ele>
        <time>2018-01-07T22:57:16Z</time>
      </trkpt>
      <trkpt lat="46.87876" lon="-2.06229">
        <ele>1</ele>
        <time>2018-01-07T22:58:16Z</time>
      </trkpt>
      <trkpt lat="46.87889" lon="-2.06291">
        <ele>2</ele>
        <time>2018-01-07T22:59:16Z</time>
      </trkpt>
      <trkpt lat="46.87899" lon="-2.06345">
        <ele>1</ele>
        <time>2018-01-07T23:00:16Z</time>
      </trkpt>
      <trkpt lat="46.87903" lon="-2.06387">
        <ele>1</ele>
        <time>2018-01-07T23:01:16Z</time>
      </trkpt>
      <trkpt lat="46.87905" lon="-2.06451">
        <ele>2</ele>
        <time>2018-01-07T23:02:16Z</time>
      </trkpt>
      <trkpt lat="46.87905" lon="-2.06504">
        <ele>1</ele>
        <time>2018-01-07T23:03:16Z</time>
      </trkpt>
      <trkpt lat="46.87906" lon="-2.0657">
        <ele>1</ele>
        <time>2018-01-07T23:04:16Z</time>
      </trkpt>
      <trkpt lat="46.87907" lon="-2.06635">
        <ele>1</ele>
        <time>2018-01-07T23:05:16Z</time>
      </trkpt>
      <trkpt lat="46.8791" lon="-2.06667">
        <ele>1</ele>
        <time>2018-01-07T23:06:16Z</time>
      </trkpt>
      <trkpt lat="46.87918" lon="-2.06708">
        <ele>1</ele>
        <time>2018-01-07T23:07:16Z</time>
      </trkpt>
      <trkpt lat="46.87924" lon="-2.06739">
        <ele>2</ele>
        <time>2018-01-07T23:08:16Z</time>
      </trkpt>
      <trkpt lat="46.87936" lon="-2.0679">
        <ele>1</ele>
        <time>2018-01-07T23:09:16Z</time>
      </trkpt>
      <trkpt lat="46.87947" lon="-2.0684">
        <ele>1</ele>
        <time>2018-01-07T23:10:16Z</time>
      </trkpt>
      <trkpt lat="46.87957" lon="-2.06883">
        <ele>1</ele>
        <time>2018-01-07T23:11:16Z</time>
      </trkpt>
      <trkpt lat="46.87957" lon="-2.06883">
        <ele>1</ele>
        <time>2018-01-07T23:12:16Z</time>
      </trkpt>
      <trkpt lat="46.8796" lon="-2.06896">
        <ele>1</ele>
        <time>2018-01-07T23:13:16Z</time>
      </trkpt>
      <trkpt lat="46.87963" lon="-2.06906">
        <ele>1</ele>
        <time>2018-01-07T23:14:16Z</time>
      </trkpt>
      <trkpt lat="46.87966" lon="-2.06926">
        <ele>1</ele>
        <time>2018-01-07T23:15:16Z</time>
      </trkpt>
      <trkpt lat="46.8797" lon="-2.06956">
        <ele>1</ele>
        <time>2018-01-07T23:16:16Z</time>
      </trkpt>
      <trkpt lat="46.87968" lon="-2.06987">
        <ele>2.4</ele>
        <time>2018-01-07T23:17:16Z</time>
      </trkpt>
      <trkpt lat="46.8796" lon="-2.07025">
        <ele>1</ele>
        <time>2018-01-07T23:18:16Z</time>
      </trkpt>
      <trkpt lat="46.87944" lon="-2.07074">
        <ele>1</ele>
        <time>2018-01-07T23:19:16Z</time>
      </trkpt>
      <trkpt lat="46.87901" lon="-2.07203">
        <ele>2</ele>
        <time>2018-01-07T23:20:16Z</time>
      </trkpt>
      <trkpt lat="46.87894" lon="-2.07238">
        <ele>2.5</ele>
        <time>2018-01-07T23:21:16Z</time>
      </trkpt>
      <trkpt lat="46.87893" lon="-2.07263">
        <ele>1</ele>
        <time>2018-01-07T23:22:16Z</time>
      </trkpt>
      <trkpt lat="46.87893" lon="-2.07285">
        <ele>1</ele>
        <time>2018-01-07T23:23:16Z</time>
      </trkpt>
      <trkpt lat="46.87896" lon="-2.07328">
        <ele>1</ele>
        <time>2018-01-07T23:24:16Z</time>
      </trkpt>
      <trkpt lat="46.87894" lon="-2.07356">
        <ele>1</ele>
        <time>2018-01-07T23:25:16Z</time>
      </trkpt>
      <trkpt lat="46.8789" lon="-2.07404">
        <ele>1</ele>
        <time>2018-01-07T23:26:16Z</time>
      </trkpt>
      <trkpt lat="46.87888" lon="-2.0742">
        <ele>3</ele>
        <time>2018-01-07T23:27:16Z</time>
      </trkpt>
      <trkpt lat="46.87887" lon="-2.07432">
        <ele>2.9</ele>
        <time>2018-01-07T23:28:16Z</time>
      </trkpt>
      <trkpt lat="46.87887" lon="-2.07444">
        <ele>2.9</ele>
        <time>2018-01-07T23:29:16Z</time>
      </trkpt>
      <trkpt lat="46.87886" lon="-2.07457">
        <ele>2.9</ele>
        <time>2018-01-07T23:30:16Z</time>
      </trkpt>
      <trkpt lat="46.87887" lon="-2.07476">
        <ele>1</ele>
        <time>2018-01-07T23:31:16Z</time>
      </trkpt>
      <trkpt lat="46.87888" lon="-2.07486">
        <ele>1</ele>
        <time>2018-01-07T23:32:16Z</time>
      </trkpt>
      <trkpt lat="46.8789" lon="-2.07497">
        <ele>1</ele>
        <time>2018-01-07T23:33:16Z</time>
      </trkpt>
      <trkpt lat="46.87896" lon="-2.07528">
        <ele>1</ele>
        <time>2018-01-07T23:34:16Z</time>
      </trkpt>
      <trkpt lat="46.8791" lon="-2.07577">
        <ele>1</ele>
        <time>2018-01-07T23:35:16Z</time>
      </trkpt>
      <trkpt lat="46.87914" lon="-2.07587">
        <ele>1</ele>
        <time>2018-01-07T23:36:16Z</time>
      </trkpt>
      <trkpt lat="46.87918" lon="-2.07597">
        <ele>1</ele>
        <time>2018-01-07T23:37:16Z</time>
      </trkpt>
      <trkpt lat="46.87926" lon="-2.07615">
        <ele>1</ele>
        <time>2018-01-07T23:38:16Z</time>
      </trkpt>
      <trkpt lat="46.87936" lon="-2.07633">
        <ele>1</ele>
        <time>2018-01-07T23:39:16Z</time>
      </trkpt>
      <trkpt lat="46.87954" lon="-2.07668">
        <ele>1</ele>
        <time>2018-01-07T23:40:16Z</time>
      </trkpt>
      <trkpt lat="46.87967" lon="-2.07697">
        <ele>1</ele>
        <time>2018-01-07T23:41:16Z</time>
      </trkpt>
      <trkpt lat="46.87983" lon="-2.07736">
        <ele>2.6</ele>
        <time>2018-01-07T23:42:16Z</time>
      </trkpt>
      <trkpt lat="46.88008" lon="-2.07805">
        <ele>1</ele>
        <time>2018-01-07T23:43:16Z</time>
      </trkpt>
      <trkpt lat="46.88044" lon="-2.07907">
        <ele>2</ele>
        <time>2018-01-07T23:44:16Z</time>
      </trkpt>
      <trkpt lat="46.88071" lon="-2.07983">
        <ele>2</ele>
        <time>2018-01-07T23:45:16Z</time>
      </trkpt>
      <trkpt lat="46.88076" lon="-2.07997">
        <ele>2</ele>
        <time>2018-01-07T23:46:16Z</time>
      </trkpt>
      <trkpt lat="46.8809" lon="-2.08036">
        <ele>2</ele>
        <time>2018-01-07T23:47:16Z</time>
      </trkpt>
      <trkpt lat="46.88091" lon="-2.08039">
        <ele>1</ele>
        <time>2018-01-07T23:48:16Z</time>
      </trkpt>
      <trkpt lat="46.88101" lon="-2.0806">
        <ele>1</ele>
        <time>2018-01-07T23:49:16Z</time>
      </trkpt>
      <trkpt lat="46.88107" lon="-2.08073">
        <ele>1</ele>
        <time>2018-01-07T23:50:16Z</time>
      </trkpt>
      <trkpt lat="46.88112" lon="-2.08082">
        <ele>1</ele>
        <time>2018-01-07T23:51:16Z</time>
      </trkpt>
      <trkpt lat="46.88112" lon="-2.08082">
        <ele>1</ele>
        <time>2018-01-07T23:52:16Z</time>
      </trkpt>
      <trkpt lat="46.88127" lon="-2.08105">
        <ele>1</ele>
        <time>2018-01-07T23:53:16Z</time>
      </trkpt>
      <trkpt lat="46.88146" lon="-2.08137">
        <ele>1</ele>
        <time>2018-01-07T23:54:16Z</time>
      </trkpt>
      <trkpt lat="46.88161" lon="-2.08177">
        <ele>1</ele>
        <time>2018-01-07T23:55:16Z</time>
      </trkpt>
      <trkpt lat="46.88169" lon="-2.082">
        <ele>1</ele>
        <time>2018-01-07T23:56:16Z</time>
      </trkpt>
      <trkpt lat="46.88176" lon="-2.0824">
        <ele>1</ele>
        <time>2018-01-07T23:57:16Z</time>
      </trkpt>
      <trkpt lat="46.88181" lon="-2.08286">
        <ele>1</ele>
        <time>2018-01-07T23:58:16Z</time>
      </trkpt>
      <trkpt lat="46.88189" lon="-2.08324">
        <ele>1</ele>
        <time>2018-01-07T23:59:16Z</time>
      </trkpt>
      <trkpt lat="46.88206" lon="-2.08368">
        <ele>1</ele>
        <time>2018-01-08T00:00:16Z</time>
      </trkpt>
      <trkpt lat="46.88225" lon="-2.08416">
        <ele>1</ele>
        <time>2018-01-08T00:01:16Z</time>
      </trkpt>
      <trkpt lat="46.88239" lon="-2.08458">
        <ele>1</ele>
        <time>2018-01-08T00:02:16Z</time>
      </trkpt>
      <trkpt lat="46.88251" lon="-2.08502">
        <ele>2</ele>
        <time>2018-01-08T00:03:16Z</time>
      </trkpt>
      <trkpt lat="46.88259" lon="-2.08535">
        <ele>2</ele>
        <time>2018-01-08T00:04:16Z</time>
      </trkpt>
      <trkpt lat="46.88273" lon="-2.08577">
        <ele>2</ele>
        <time>2018-01-08T00:05:16Z</time>
      </trkpt>
      <trkpt lat="46.88289" lon="-2.08616">
        <ele>1</ele>
        <time>2018-01-08T00:06:16Z</time>
      </trkpt>
      <trkpt lat="46.88304" lon="-2.08654">
        <ele>1</ele>
        <time>2018-01-08T00:07:16Z</time>
      </trkpt>
      <trkpt lat="46.88313" lon="-2.08695">
        <ele>1</ele>
        <time>2018-01-08T00:08:16Z</time>
      </trkpt>
      <trkpt lat="46.88318" lon="-2.08728">
        <ele>1</ele>
        <time>2018-01-08T00:09:16Z</time>
      </trkpt>
      <trkpt lat="46.8832" lon="-2.08772">
        <ele>2</ele>
        <time>2018-01-08T00:10:16Z</time>
      </trkpt>
      <trkpt lat="46.88321" lon="-2.08818">
        <ele>2.2</ele>
        <time>2018-01-08T00:11:16Z</time>
      </trkpt>
      <trkpt lat="46.88324" lon="-2.08872">
        <ele>2</ele>
        <time>2018-01-08T00:12:16Z</time>
      </trkpt>
      <trkpt lat="46.88326" lon="-2.08884">
        <ele>2</ele>
        <time>2018-01-08T00:13:16Z</time>
      </trkpt>
      <trkpt lat="46.88329" lon="-2.089">
        <ele>2</ele>
        <time>2018-01-08T00:14:16Z</time>
      </trkpt>
      <trkpt lat="46.88332" lon="-2.0891">
        <ele>2</ele>
        <time>2018-01-08T00:15:16Z</time>
      </trkpt>
      <trkpt lat="46.88339" lon="-2.08926">
        <ele>2.1</ele>
        <time>2018-01-08T00:16:16Z</time>
      </trkpt>
      <trkpt lat="46.8835" lon="-2.08948">
        <ele>2.6</ele>
        <time>2018-01-08T00:17:16Z</time>
      </trkpt>
      <trkpt lat="46.88361" lon="-2.0897">
        <ele>1</ele>
        <time>2018-01-08T00:18:16Z</time>
      </trkpt>
      <trkpt lat="46.88364" lon="-2.08976">
        <ele>1</ele>
        <time>2018-01-08T00:19:16Z</time>
      </trkpt>
      <trkpt lat="46.88367" lon="-2.08984">
        <ele>1</ele>
        <time>2018-01-08T00:20:16Z</time>
      </trkpt>
      <trkpt lat="46.88369" lon="-2.08992">
        <ele>1</ele>
        <time>2018-01-08T00:21:16Z</time>
      </trkpt>
      <trkpt lat="46.88371" lon="-2.09001">
        <ele>1</ele>
        <time>2018-01-08T00:22:16Z</time>
      </trkpt>
      <trkpt lat="46.88372" lon="-2.09008">
        <ele>1</ele>
        <time>2018-01-08T00:23:16Z</time>
      </trkpt>
      <trkpt lat="46.88371" lon="-2.09017">
        <ele>1</ele>
        <time>2018-01-08T00:24:16Z</time>
      </trkpt>
      <trkpt lat="46.88371" lon="-2.09026">
        <ele>1</ele>
        <time>2018-01-08T00:25:16Z</time>
      </trkpt>
      <trkpt lat="46.88369" lon="-2.09046">
        <ele>1</ele>
        <time>2018-01-08T00:26:16Z</time>
      </trkpt>
      <trkpt lat="46.8836" lon="-2.09102">
        <ele>2</ele>
        <time>2018-01-08T00:27:16Z</time>
      </trkpt>
      <trkpt lat="46.88348" lon="-2.09154">
        <ele>2.2</ele>
        <time>2018-01-08T00:28:16Z</time>
      </trkpt>
      <trkpt lat="46.88336" lon="-2.09203">
        <ele>2</ele>
        <time>2018-01-08T00:29:16Z</time>
      </trkpt>
      <trkpt lat="46.88329" lon="-2.09234">
        <ele>1</ele>
        <time>2018-01-08T00:30:16Z</time>
      </trkpt>
      <trkpt lat="46.88323" lon="-2.0929">
        <ele>1</ele>
        <time>2018-01-08T00:31:16Z</time>
      </trkpt>
      <trkpt lat="46.88321" lon="-2.09311">
        <ele>1</ele>
        <time>2018-01-08T00:32:16Z</time>
      </trkpt>
      <trkpt lat="46.88318" lon="-2.09342">
        <ele>1</ele>
        <time>2018-01-08T00:33:16Z</time>
      </trkpt>
      <trkpt lat="46.88316" lon="-2.0937">
        <ele>1</ele>
        <time>2018-01-08T00:34:16Z</time>
      </trkpt>
      <trkpt lat="46.88313" lon="-2.09399">
        <ele>2</ele>
        <time>2018-01-08T00:35:16Z</time>
      </trkpt>
      <trkpt lat="46.88309" lon="-2.09442">
        <ele>2</ele>
        <time>2018-01-08T00:36:16Z</time>
      </trkpt>
      <trkpt lat="46.88304" lon="-2.09474">
        <ele>1</ele>
        <time>2018-01-08T00:37:16Z</time>
      </trkpt>
      <trkpt lat="46.88295" lon="-2.09525">
        <ele>1</ele>
        <time>2018-01-08T00:38:16Z</time>
      </trkpt>
      <trkpt lat="46.88286" lon="-2.09582">
        <ele>2</ele>
        <time>2018-01-08T00:39:16Z</time>
      </trkpt>
      <trkpt lat="46.88276" lon="-2.09642">
        <ele>1</ele>
        <time>2018-01-08T00:40:16Z</time>
      </trkpt>
      <trkpt lat="46.88269" lon="-2.09683">
        <ele>1</ele>
        <time>2018-01-08T00:41:16Z</time>
      </trkpt>
      <trkpt lat="46.88267" lon="-2.09694">
        <ele>1</ele>
        <time>2018-01-08T00:42:16Z</time>
      </trkpt>
      <trkpt lat="46.88261" lon="-2.09733">
        <ele>2</ele>
        <time>2018-01-08T00:43:16Z</time>
      </trkpt>
      <trkpt lat="46.88252" lon="-2.09783">
        <ele>2</ele>
        <time>2018-01-08T00:44:16Z</time>
      </trkpt>
      <trkpt lat="46.88243" lon="-2.09839">
        <ele>2</ele>
        <time>2018-01-08T00:45:16Z</time>
      </trkpt>
      <trkpt lat="46.88236" lon="-2.09895">
        <ele>1</ele>
        <time>2018-01-08T00:46:16Z</time>
      </trkpt>
      <trkpt lat="46.88231" lon="-2.09959">
        <ele>1</ele>
        <time>2018-01-08T00:47:16Z</time>
      </trkpt>
      <trkpt lat="46.88228" lon="-2.1001">
        <ele>1</ele>
        <time>2018-01-08T00:48:16Z</time>
      </trkpt>
      <trkpt lat="46.88225" lon="-2.10039">
        <ele>1</ele>
        <time>2018-01-08T00:49:16Z</time>
      </trkpt>
      <trkpt lat="46.88223" lon="-2.10057">
        <ele>1</ele>
        <time>2018-01-08T00:50:16Z</time>
      </trkpt>
      <trkpt lat="46.88223" lon="-2.10057">
        <ele>1</ele>
        <time>2018-01-08T00:51:16Z</time>
      </trkpt>
      <trkpt lat="46.88217" lon="-2.10082">
        <ele>1</ele>
        <time>2018-01-08T00:52:16Z</time>
      </trkpt>
      <trkpt lat="46.88211" lon="-2.101">
        <ele>1</ele>
        <time>2018-01-08T00:53:16Z</time>
      </trkpt>
      <trkpt lat="46.88206" lon="-2.10115">
        <ele>1</ele>
        <time>2018-01-08T00:54:16Z</time>
      </trkpt>
      <trkpt lat="46.88204" lon="-2.10119">
        <ele>1</ele>
        <time>2018-01-08T00:55:16Z</time>
      </trkpt>
      <trkpt lat="46.88198" lon="-2.10138">
        <ele>1</ele>
        <time>2018-01-08T00:56:16Z</time>
      </trkpt>
      <trkpt lat="46.88195" lon="-2.10148">
        <ele>1</ele>
        <time>2018-01-08T00:57:16Z</time>
      </trkpt>
      <trkpt lat="46.88192" lon="-2.10158">
        <ele>1</ele>
        <time>2018-01-08T00:58:16Z</time>
      </trkpt>
      <trkpt lat="46.88188" lon="-2.10174">
        <ele>1</ele>
        <time>2018-01-08T00:59:16Z</time>
      </trkpt>
      <trkpt lat="46.88155" lon="-2.10313">
        <ele>1</ele>
        <time>2018-01-08T01:00:16Z</time>
      </trkpt>
      <trkpt lat="46.88137" lon="-2.10391">
        <ele>1</ele>
        <time>2018-01-08T01:01:16Z</time>
      </trkpt>
      <trkpt lat="46.88132" lon="-2.10411">
        <ele>1</ele>
        <time>2018-01-08T01:02:16Z</time>
      </trkpt>
      <trkpt lat="46.88125" lon="-2.1044">
        <ele>1</ele>
        <time>2018-01-08T01:03:16Z</time>
      </trkpt>
      <trkpt lat="46.88113" lon="-2.10498">
        <ele>1</ele>
        <time>2018-01-08T01:04:16Z</time>
      </trkpt>
      <trkpt lat="46.88107" lon="-2.10528">
        <ele>1</ele>
        <time>2018-01-08T01:05:16Z</time>
      </trkpt>
      <trkpt lat="46.88099" lon="-2.10565">
        <ele>1</ele>
        <time>2018-01-08T01:06:16Z</time>
      </trkpt>
      <trkpt lat="46.88091" lon="-2.10596">
        <ele>1</ele>
        <time>2018-01-08T01:07:16Z</time>
      </trkpt>
      <trkpt lat="46.8809" lon="-2.10601">
        <ele>1</ele>
        <time>2018-01-08T01:08:16Z</time>
      </trkpt>
      <trkpt lat="46.88085" lon="-2.1062">
        <ele>1</ele>
        <time>2018-01-08T01:09:16Z</time>
      </trkpt>
      <trkpt lat="46.8808" lon="-2.10636">
        <ele>1</ele>
        <time>2018-01-08T01:10:16Z</time>
      </trkpt>
      <trkpt lat="46.88076" lon="-2.10647">
        <ele>1</ele>
        <time>2018-01-08T01:11:16Z</time>
      </trkpt>
      <trkpt lat="46.88062" lon="-2.10686">
        <ele>1</ele>
        <time>2018-01-08T01:12:16Z</time>
      </trkpt>
      <trkpt lat="46.88046" lon="-2.10719">
        <ele>1</ele>
        <time>2018-01-08T01:13:16Z</time>
      </trkpt>
      <trkpt lat="46.88035" lon="-2.1074">
        <ele>1</ele>
        <time>2018-01-08T01:14:16Z</time>
      </trkpt>
      <trkpt lat="46.88031" lon="-2.10749">
        <ele>1</ele>
        <time>2018-01-08T01:15:16Z</time>
      </trkpt>
      <trkpt lat="46.88029" lon="-2.10759">
        <ele>1</ele>
        <time>2018-01-08T01:16:16Z</time>
      </trkpt>
      <trkpt lat="46.88026" lon="-2.10769">
        <ele>1</ele>
        <time>2018-01-08T01:17:16Z</time>
      </trkpt>
      <trkpt lat="46.88024" lon="-2.1078">
        <ele>1</ele>
        <time>2018-01-08T01:18:16Z</time>
      </trkpt>
      <trkpt lat="46.88024" lon="-2.1078">
        <ele>1</ele>
        <time>2018-01-08T01:19:16Z</time>
      </trkpt>
      <trkpt lat="46.88015" lon="-2.10828">
        <ele>1</ele>
        <time>2018-01-08T01:20:16Z</time>
      </trkpt>
      <trkpt lat="46.88013" lon="-2.10846">
        <ele>2</ele>
        <time>2018-01-08T01:21:16Z</time>
      </trkpt>
      <trkpt lat="46.88013" lon="-2.10858">
        <ele>2</ele>
        <time>2018-01-08T01:22:16Z</time>
      </trkpt>
      <trkpt lat="46.88014" lon="-2.10864">
        <ele>2</ele>
        <time>2018-01-08T01:23:16Z</time>
      </trkpt>
      <trkpt lat="46.88016" lon="-2.10877">
        <ele>2</ele>
        <time>2018-01-08T01:24:16Z</time>
      </trkpt>
      <trkpt lat="46.8802" lon="-2.10886">
        <ele>2</ele>
        <time>2018-01-08T01:25:16Z</time>
      </trkpt>
      <trkpt lat="46.88023" lon="-2.10891">
        <ele>2</ele>
        <time>2018-01-08T01:26:16Z</time>
      </trkpt>
      <trkpt lat="46.88026" lon="-2.10896">
        <ele>2</ele>
        <time>2018-01-08T01:27:16Z</time>
      </trkpt>
      <trkpt lat="46.88029" lon="-2.10901">
        <ele>2</ele>
        <time>2018-01-08T01:28:16Z</time>
      </trkpt>
      <trkpt lat="46.88036" lon="-2.1091">
        <ele>2</ele>
        <time>2018-01-08T01:29:16Z</time>
      </trkpt>
      <trkpt lat="46.88048" lon="-2.10923">
        <ele>2.1</ele>
        <time>2018-01-08T01:30:16Z</time>
      </trkpt>
      <trkpt lat="46.88056" lon="-2.10933">
        <ele>2</ele>
        <time>2018-01-08T01:31:16Z</time>
      </trkpt>
      <trkpt lat="46.88063" lon="-2.10943">
        <ele>2</ele>
        <time>2018-01-08T01:32:16Z</time>
      </trkpt>
      <trkpt lat="46.88067" lon="-2.1095">
        <ele>2</ele>
        <time>2018-01-08T01:33:16Z</time>
      </trkpt>
      <trkpt lat="46.8807" lon="-2.10956">
        <ele>2</ele>
        <time>2018-01-08T01:34:16Z</time>
      </trkpt>
      <trkpt lat="46.88075" lon="-2.1097">
        <ele>1</ele>
        <time>2018-01-08T01:35:16Z</time>
      </trkpt>
      <trkpt lat="46.88079" lon="-2.10984">
        <ele>1</ele>
        <time>2018-01-08T01:36:16Z</time>
      </trkpt>
      <trkpt lat="46.88091" lon="-2.1104">
        <ele>1</ele>
        <time>2018-01-08T01:37:16Z</time>
      </trkpt>
      <trkpt lat="46.88112" lon="-2.11134">
        <ele>1</ele>
        <time>2018-01-08T01:38:16Z</time>
      </trkpt>
      <trkpt lat="46.88114" lon="-2.11144">
        <ele>1</ele>
        <time>2018-01-08T01:39:16Z</time>
      </trkpt>
      <trkpt lat="46.88119" lon="-2.11168">
        <ele>1</ele>
        <time>2018-01-08T01:40:16Z</time>
      </trkpt>
      <trkpt lat="46.88126" lon="-2.11204">
        <ele>1</ele>
        <time>2018-01-08T01:41:16Z</time>
      </trkpt>
      <trkpt lat="46.88134" lon="-2.11241">
        <ele>2</ele>
        <time>2018-01-08T01:42:16Z</time>
      </trkpt>
      <trkpt lat="46.88145" lon="-2.11294">
        <ele>1</ele>
        <time>2018-01-08T01:43:16Z</time>
      </trkpt>
      <trkpt lat="46.88148" lon="-2.11304">
        <ele>1</ele>
        <time>2018-01-08T01:44:16Z</time>
      </trkpt>
      <trkpt lat="46.88152" lon="-2.11316">
        <ele>1</ele>
        <time>2018-01-08T01:45:16Z</time>
      </trkpt>
      <trkpt lat="46.88173" lon="-2.11364">
        <ele>1</ele>
        <time>2018-01-08T01:46:16Z</time>
      </trkpt>
      <trkpt lat="46.88188" lon="-2.114">
        <ele>1</ele>
        <time>2018-01-08T01:47:16Z</time>
      </trkpt>
      <trkpt lat="46.88195" lon="-2.11421">
        <ele>1</ele>
        <time>2018-01-08T01:48:16Z</time>
      </trkpt>
      <trkpt lat="46.88207" lon="-2.11455">
        <ele>1</ele>
        <time>2018-01-08T01:49:16Z</time>
      </trkpt>
      <trkpt lat="46.88218" lon="-2.11487">
        <ele>2</ele>
        <time>2018-01-08T01:50:16Z</time>
      </trkpt>
      <trkpt lat="46.88224" lon="-2.11502">
        <ele>2</ele>
        <time>2018-01-08T01:51:16Z</time>
      </trkpt>
      <trkpt lat="46.88235" lon="-2.11528">
        <ele>2</ele>
        <time>2018-01-08T01:52:16Z</time>
      </trkpt>
      <trkpt lat="46.88254" lon="-2.11566">
        <ele>2</ele>
        <time>2018-01-08T01:53:16Z</time>
      </trkpt>
      <trkpt lat="46.88262" lon="-2.11587">
        <ele>2</ele>
        <time>2018-01-08T01:54:16Z</time>
      </trkpt>
      <trkpt lat="46.88276" lon="-2.11628">
        <ele>2</ele>
        <time>2018-01-08T01:55:16Z</time>
      </trkpt>
      <trkpt lat="46.88287" lon="-2.11664">
        <ele>2</ele>
        <time>2018-01-08T01:56:16Z</time>
      </trkpt>
      <trkpt lat="46.88294" lon="-2.11684">
        <ele>2</ele>
        <time>2018-01-08T01:57:16Z</time>
      </trkpt>
      <trkpt lat="46.88298" lon="-2.11693">
        <ele>2</ele>
        <time>2018-01-08T01:58:16Z</time>
      </trkpt>
      <trkpt lat="46.88304" lon="-2.11702">
        <ele>2</ele>
        <time>2018-01-08T01:59:16Z</time>
      </trkpt>
      <trkpt lat="46.88307" lon="-2.11705">
        <ele>2</ele>
        <time>2018-01-08T02:00:16Z</time>
      </trkpt>
      <trkpt lat="46.88332" lon="-2.11735">
        <ele>3</ele>
        <time>2018-01-08T02:01:16Z</time>
      </trkpt>
      <trkpt lat="46.88367" lon="-2.11779">
        <ele>3</ele>
        <time>2018-01-08T02:02:16Z</time>
      </trkpt>
      <trkpt lat="46.88374" lon="-2.1179">
        <ele>3</ele>
        <time>2018-01-08T02:03:16Z</time>
      </trkpt>
      <trkpt lat="46.88389" lon="-2.11807">
        <ele>3</ele>
        <time>2018-01-08T02:04:16Z</time>
      </trkpt>
      <trkpt lat="46.88397" lon="-2.11816">
        <ele>3</ele>
        <time>2018-01-08T02:05:16Z</time>
      </trkpt>
      <trkpt lat="46.88402" lon="-2.11823">
        <ele>3</ele>
        <time>2018-01-08T02:06:16Z</time>
      </trkpt>
      <trkpt lat="46.88406" lon="-2.1183">
        <ele>3</ele>
        <time>2018-01-08T02:07:16Z</time>
      </trkpt>
      <trkpt lat="46.88411" lon="-2.11838">
        <ele>3</ele>
        <time>2018-01-08T02:08:16Z</time>
      </trkpt>
      <trkpt lat="46.8842" lon="-2.11852">
        <ele>3</ele>
        <time>2018-01-08T02:09:16Z</time>
      </trkpt>
      <trkpt lat="46.88424" lon="-2.11859">
        <ele>3</ele>
        <time>2018-01-08T02:10:16Z</time>
      </trkpt>
      <trkpt lat="46.88424" lon="-2.11859">
        <ele>3</ele>
        <time>2018-01-08T02:11:16Z</time>
      </trkpt>
      <trkpt lat="46.88407" lon="-2.11885">
        <ele>3</ele>
        <time>2018-01-08T02:12:16Z</time>
      </trkpt>
      <trkpt lat="46.88399" lon="-2.11894">
        <ele>3</ele>
        <time>2018-01-08T02:13:16Z</time>
      </trkpt>
      <trkpt lat="46.88389" lon="-2.11905">
        <ele>3</ele>
        <time>2018-01-08T02:14:16Z</time>
      </trkpt>
      <trkpt lat="46.88386" lon="-2.11908">
        <ele>3</ele>
        <time>2018-01-08T02:15:16Z</time>
      </trkpt>
      <trkpt lat="46.88379" lon="-2.11915">
        <ele>3</ele>
        <time>2018-01-08T02:16:16Z</time>
      </trkpt>
      <trkpt lat="46.88371" lon="-2.11922">
        <ele>3</ele>
        <time>2018-01-08T02:17:16Z</time>
      </trkpt>
      <trkpt lat="46.88362" lon="-2.11928">
        <ele>3</ele>
        <time>2018-01-08T02:18:16Z</time>
      </trkpt>
      <trkpt lat="46.88358" lon="-2.1193">
        <ele>3</ele>
        <time>2018-01-08T02:19:16Z</time>
      </trkpt>
      <trkpt lat="46.88354" lon="-2.11933">
        <ele>3</ele>
        <time>2018-01-08T02:20:16Z</time>
      </trkpt>
      <trkpt lat="46.88342" lon="-2.11939">
        <ele>3</ele>
        <time>2018-01-08T02:21:16Z</time>
      </trkpt>
      <trkpt lat="46.88338" lon="-2.1194">
        <ele>3</ele>
        <time>2018-01-08T02:22:16Z</time>
      </trkpt>
      <trkpt lat="46.88334" lon="-2.11941">
        <ele>3</ele>
        <time>2018-01-08T02:23:16Z</time>
      </trkpt>
      <trkpt lat="46.88334" lon="-2.11941">
        <ele>3</ele>
        <time>2018-01-08T02:24:16Z</time>
      </trkpt>
      <trkpt lat="46.88337" lon="-2.11968">
        <ele>2</ele>
        <time>2018-01-08T02:25:16Z</time>
      </trkpt>
      <trkpt lat="46.88342" lon="-2.11979">
        <ele>2</ele>
        <time>2018-01-08T02:26:16Z</time>
      </trkpt>
      <trkpt lat="46.88347" lon="-2.11993">
        <ele>1</ele>
        <time>2018-01-08T02:27:16Z</time>
      </trkpt>
      <trkpt lat="46.88355" lon="-2.12021">
        <ele>1</ele>
        <time>2018-01-08T02:28:16Z</time>
      </trkpt>
      <trkpt lat="46.88366" lon="-2.12064">
        <ele>1</ele>
        <time>2018-01-08T02:29:16Z</time>
      </trkpt>
      <trkpt lat="46.88383" lon="-2.12132">
        <ele>1</ele>
        <time>2018-01-08T02:30:16Z</time>
      </trkpt>
      <trkpt lat="46.88401" lon="-2.12203">
        <ele>2</ele>
        <time>2018-01-08T02:31:16Z</time>
      </trkpt>
      <trkpt lat="46.88414" lon="-2.12251">
        <ele>3</ele>
        <time>2018-01-08T02:32:16Z</time>
      </trkpt>
      <trkpt lat="46.88424" lon="-2.12283">
        <ele>3</ele>
        <time>2018-01-08T02:33:16Z</time>
      </trkpt>
      <trkpt lat="46.88429" lon="-2.12294">
        <ele>4</ele>
        <time>2018-01-08T02:34:16Z</time>
      </trkpt>
      <trkpt lat="46.88442" lon="-2.1232">
        <ele>4</ele>
        <time>2018-01-08T02:35:16Z</time>
      </trkpt>
      <trkpt lat="46.88459" lon="-2.12349">
        <ele>4</ele>
        <time>2018-01-08T02:36:16Z</time>
      </trkpt>
      <trkpt lat="46.8847" lon="-2.12373">
        <ele>4</ele>
        <time>2018-01-08T02:37:16Z</time>
      </trkpt>
      <trkpt lat="46.8848" lon="-2.12396">
        <ele>5</ele>
        <time>2018-01-08T02:38:16Z</time>
      </trkpt>
      <trkpt lat="46.8848" lon="-2.12396">
        <ele>5</ele>
        <time>2018-01-08T02:39:16Z</time>
      </trkpt>
      <trkpt lat="46.88482" lon="-2.12394">
        <ele>5</ele>
        <time>2018-01-08T02:40:16Z</time>
      </trkpt>
      <trkpt lat="46.88484" lon="-2.12394">
        <ele>5</ele>
        <time>2018-01-08T02:41:16Z</time>
      </trkpt>
      <trkpt lat="46.88488" lon="-2.12396">
        <ele>5</ele>
        <time>2018-01-08T02:42:16Z</time>
      </trkpt>
      <trkpt lat="46.88491" lon="-2.12399">
        <ele>5</ele>
        <time>2018-01-08T02:43:16Z</time>
      </trkpt>
      <trkpt lat="46.88492" lon="-2.12404">
        <ele>5</ele>
        <time>2018-01-08T02:44:16Z</time>
      </trkpt>
      <trkpt lat="46.88492" lon="-2.12409">
        <ele>5</ele>
        <time>2018-01-08T02:45:16Z</time>
      </trkpt>
      <trkpt lat="46.8849" lon="-2.12413">
        <ele>5</ele>
        <time>2018-01-08T02:46:16Z</time>
      </trkpt>
      <trkpt lat="46.88489" lon="-2.12416">
        <ele>5</ele>
        <time>2018-01-08T02:47:16Z</time>
      </trkpt>
      <trkpt lat="46.88486" lon="-2.12418">
        <ele>5</ele>
        <time>2018-01-08T02:48:16Z</time>
      </trkpt>
      <trkpt lat="46.88483" lon="-2.12418">
        <ele>5</ele>
        <time>2018-01-08T02:49:16Z</time>
      </trkpt>
      <trkpt lat="46.8848" lon="-2.12417">
        <ele>5</ele>
        <time>2018-01-08T02:50:16Z</time>
      </trkpt>
      <trkpt lat="46.88476" lon="-2.12421">
        <ele>5</ele>
        <time>2018-01-08T02:51:16Z</time>
      </trkpt>
      <trkpt lat="46.88473" lon="-2.12425">
        <ele>5</ele>
        <time>2018-01-08T02:52:16Z</time>
      </trkpt>
      <trkpt lat="46.88471" lon="-2.12428">
        <ele>5</ele>
        <time>2018-01-08T02:53:16Z</time>
      </trkpt>
      <trkpt lat="46.8847" lon="-2.12432">
        <ele>5</ele>
        <time>2018-01-08T02:54:16Z</time>
      </trkpt>
      <trkpt lat="46.88469" lon="-2.12437">
        <ele>5</ele>
        <time>2018-01-08T02:55:16Z</time>
      </trkpt>
      <trkpt lat="46.88469" lon="-2.12444">
        <ele>5</ele>
        <time>2018-01-08T02:56:16Z</time>
      </trkpt>
      <trkpt lat="46.88469" lon="-2.12444">
        <ele>5</ele>
        <time>2018-01-08T02:57:16Z</time>
      </trkpt>
      <trkpt lat="46.8847" lon="-2.12446">
        <ele>5</ele>
        <time>2018-01-08T02:58:16Z</time>
      </trkpt>
      <trkpt lat="46.8847" lon="-2.12448">
        <ele>5</ele>
        <time>2018-01-08T02:59:16Z</time>
      </trkpt>
      <trkpt lat="46.8847" lon="-2.12449">
        <ele>5</ele>
        <time>2018-01-08T03:00:16Z</time>
      </trkpt>
      <trkpt lat="46.88471" lon="-2.12451">
        <ele>5</ele>
        <time>2018-01-08T03:01:16Z</time>
      </trkpt>
      <trkpt lat="46.88471" lon="-2.12453">
        <ele>5</ele>
        <time>2018-01-08T03:02:16Z</time>
      </trkpt>
      <trkpt lat="46.88471" lon="-2.12454">
        <ele>5</ele>
        <time>2018-01-08T03:03:16Z</time>
      </trkpt>
      <trkpt lat="46.88471" lon="-2.12456">
        <ele>5</ele>
        <time>2018-01-08T03:04:16Z</time>
      </trkpt>
      <trkpt lat="46.8847" lon="-2.12458">
        <ele>5</ele>
        <time>2018-01-08T03:05:16Z</time>
      </trkpt>
      <trkpt lat="46.8847" lon="-2.12459">
        <ele>5</ele>
        <time>2018-01-08T03:06:16Z</time>
      </trkpt>
      <trkpt lat="46.8847" lon="-2.12461">
        <ele>5</ele>
        <time>2018-01-08T03:07:16Z</time>
      </trkpt>
      <trkpt lat="46.8847" lon="-2.12462">
        <ele>6</ele>
        <time>2018-01-08T03:08:16Z</time>
      </trkpt>
      <trkpt lat="46.88469" lon="-2.12464">
        <ele>6</ele>
        <time>2018-01-08T03:09:16Z</time>
      </trkpt>
      <trkpt lat="46.88469" lon="-2.12466">
        <ele>6</ele>
        <time>2018-01-08T03:10:16Z</time>
      </trkpt>
      <trkpt lat="46.88468" lon="-2.12468">
        <ele>6</ele>
        <time>2018-01-08T03:11:16Z</time>
      </trkpt>
      <trkpt lat="46.88467" lon="-2.12469">
        <ele>6</ele>
        <time>2018-01-08T03:12:16Z</time>
      </trkpt>
      <trkpt lat="46.88466" lon="-2.12471">
        <ele>6</ele>
        <time>2018-01-08T03:13:16Z</time>
      </trkpt>
      <trkpt lat="46.88465" lon="-2.12472">
        <ele>6</ele>
        <time>2018-01-08T03:14:16Z</time>
      </trkpt>
      <trkpt lat="46.88464" lon="-2.12473">
        <ele>6</ele>
        <time>2018-01-08T03:15:16Z</time>
      </trkpt>
      <trkpt lat="46.88463" lon="-2.12474">
        <ele>6</ele>
        <time>2018-01-08T03:16:16Z</time>
      </trkpt>
      <trkpt lat="46.88462" lon="-2.12475">
        <ele>6</ele>
        <time>2018-01-08T03:17:16Z</time>
      </trkpt>
      <trkpt lat="46.88461" lon="-2.12475">
        <ele>6</ele>
        <time>2018-01-08T03:18:16Z</time>
      </trkpt>
      <trkpt lat="46.8846" lon="-2.12476">
        <ele>5</ele>
        <time>2018-01-08T03:19:16Z</time>
      </trkpt>
      <trkpt lat="46.88459" lon="-2.12477">
        <ele>5</ele>
        <time>2018-01-08T03:20:16Z</time>
      </trkpt>
      <trkpt lat="46.88458" lon="-2.12477">
        <ele>5</ele>
        <time>2018-01-08T03:21:16Z</time>
      </trkpt>
      <trkpt lat="46.88457" lon="-2.12477">
        <ele>5</ele>
        <time>2018-01-08T03:22:16Z</time>
      </trkpt>
      <trkpt lat="46.88456" lon="-2.12478">
        <ele>5</ele>
        <time>2018-01-08T03:23:16Z</time>
      </trkpt>
      <trkpt lat="46.88455" lon="-2.12478">
        <ele>5</ele>
        <time>2018-01-08T03:24:16Z</time>
      </trkpt>
      <trkpt lat="46.88454" lon="-2.12478">
        <ele>5</ele>
        <time>2018-01-08T03:25:16Z</time>
      </trkpt>
      <trkpt lat="46.88452" lon="-2.12477">
        <ele>5</ele>
        <time>2018-01-08T03:26:16Z</time>
      </trkpt>
      <trkpt lat="46.88451" lon="-2.12477">
        <ele>5</ele>
        <time>2018-01-08T03:27:16Z</time>
      </trkpt>
      <trkpt lat="46.8845" lon="-2.12477">
        <ele>5</ele>
        <time>2018-01-08T03:28:16Z</time>
      </trkpt>
      <trkpt lat="46.88449" lon="-2.12476">
        <ele>5</ele>
        <time>2018-01-08T03:29:16Z</time>
      </trkpt>
      <trkpt lat="46.88448" lon="-2.12475">
        <ele>5</ele>
        <time>2018-01-08T03:30:16Z</time>
      </trkpt>
      <trkpt lat="46.88447" lon="-2.12474">
        <ele>5</ele>
        <time>2018-01-08T03:31:16Z</time>
      </trkpt>
      <trkpt lat="46.88446" lon="-2.12474">
        <ele>5</ele>
        <time>2018-01-08T03:32:16Z</time>
      </trkpt>
      <trkpt lat="46.88445" lon="-2.12473">
        <ele>5</ele>
        <time>2018-01-08T03:33:16Z</time>
      </trkpt>
      <trkpt lat="46.88444" lon="-2.12472">
        <ele>5</ele>
        <time>2018-01-08T03:34:16Z</time>
      </trkpt>
      <trkpt lat="46.88443" lon="-2.1247">
        <ele>5</ele>
        <time>2018-01-08T03:35:16Z</time>
      </trkpt>
      <trkpt lat="46.88442" lon="-2.12469">
        <ele>5</ele>
        <time>2018-01-08T03:36:16Z</time>
      </trkpt>
      <trkpt lat="46.88441" lon="-2.12468">
        <ele>5</ele>
        <time>2018-01-08T03:37:16Z</time>
      </trkpt>
      <trkpt lat="46.8844" lon="-2.12466">
        <ele>4</ele>
        <time>2018-01-08T03:38:16Z</time>
      </trkpt>
      <trkpt lat="46.88427" lon="-2.1246">
        <ele>4</ele>
        <time>2018-01-08T03:39:16Z</time>
      </trkpt>
      <trkpt lat="46.88417" lon="-2.12456">
        <ele>3</ele>
        <time>2018-01-08T03:40:16Z</time>
      </trkpt>
      <trkpt lat="46.88409" lon="-2.12455">
        <ele>3</ele>
        <time>2018-01-08T03:41:16Z</time>
      </trkpt>
      <trkpt lat="46.88401" lon="-2.12455">
        <ele>3</ele>
        <time>2018-01-08T03:42:16Z</time>
      </trkpt>
      <trkpt lat="46.88398" lon="-2.12456">
        <ele>3</ele>
        <time>2018-01-08T03:43:16Z</time>
      </trkpt>
      <trkpt lat="46.88392" lon="-2.12459">
        <ele>3</ele>
        <time>2018-01-08T03:44:16Z</time>
      </trkpt>
      <trkpt lat="46.88385" lon="-2.12464">
        <ele>3</ele>
        <time>2018-01-08T03:45:16Z</time>
      </trkpt>
      <trkpt lat="46.88376" lon="-2.12472">
        <ele>3</ele>
        <time>2018-01-08T03:46:16Z</time>
      </trkpt>
      <trkpt lat="46.88361" lon="-2.12486">
        <ele>3</ele>
        <time>2018-01-08T03:47:16Z</time>
      </trkpt>
      <trkpt lat="46.88338" lon="-2.12507">
        <ele>4</ele>
        <time>2018-01-08T03:48:16Z</time>
      </trkpt>
      <trkpt lat="46.88319" lon="-2.12521">
        <ele>5</ele>
        <time>2018-01-08T03:49:16Z</time>
      </trkpt>
      <trkpt lat="46.88311" lon="-2.12529">
        <ele>6</ele>
        <time>2018-01-08T03:50:16Z</time>
      </trkpt>
      <trkpt lat="46.88297" lon="-2.12537">
        <ele>8</ele>
        <time>2018-01-08T03:51:16Z</time>
      </trkpt>
      <trkpt lat="46.88286" lon="-2.1254">
        <ele>8</ele>
        <time>2018-01-08T03:52:16Z</time>
      </trkpt>
      <trkpt lat="46.88279" lon="-2.12541">
        <ele>9</ele>
        <time>2018-01-08T03:53:16Z</time>
      </trkpt>
      <trkpt lat="46.88268" lon="-2.12541">
        <ele>9</ele>
        <time>2018-01-08T03:54:16Z</time>
      </trkpt>
      <trkpt lat="46.88256" lon="-2.1254">
        <ele>10</ele>
        <time>2018-01-08T03:55:16Z</time>
      </trkpt>
      <trkpt lat="46.88241" lon="-2.12538">
        <ele>10</ele>
        <time>2018-01-08T03:56:16Z</time>
      </trkpt>
      <trkpt lat="46.88218" lon="-2.12532">
        <ele>10</ele>
        <time>2018-01-08T03:57:16Z</time>
      </trkpt>
      <trkpt lat="46.88198" lon="-2.12526">
        <ele>10</ele>
        <time>2018-01-08T03:58:16Z</time>
      </trkpt>
      <trkpt lat="46.88183" lon="-2.12522">
        <ele>10</ele>
        <time>2018-01-08T03:59:16Z</time>
      </trkpt>
      <trkpt lat="46.88172" lon="-2.12519">
        <ele>10</ele>
        <time>2018-01-08T04:00:16Z</time>
      </trkpt>
      <trkpt lat="46.88144" lon="-2.12515">
        <ele>9</ele>
        <time>2018-01-08T04:01:16Z</time>
      </trkpt>
      <trkpt lat="46.88125" lon="-2.12512">
        <ele>9</ele>
        <time>2018-01-08T04:02:16Z</time>
      </trkpt>
      <trkpt lat="46.88121" lon="-2.12511">
        <ele>9</ele>
        <time>2018-01-08T04:03:16Z</time>
      </trkpt>
      <trkpt lat="46.88114" lon="-2.1251">
        <ele>9</ele>
        <time>2018-01-08T04:04:16Z</time>
      </trkpt>
      <trkpt lat="46.88107" lon="-2.12506">
        <ele>8</ele>
        <time>2018-01-08T04:05:16Z</time>
      </trkpt>
      <trkpt lat="46.88096" lon="-2.12501">
        <ele>8</ele>
        <time>2018-01-08T04:06:16Z</time>
      </trkpt>
      <trkpt lat="46.88053" lon="-2.12478">
        <ele>8</ele>
        <time>2018-01-08T04:07:16Z</time>
      </trkpt>
      <trkpt lat="46.8803" lon="-2.12467">
        <ele>9</ele>
        <time>2018-01-08T04:08:16Z</time>
      </trkpt>
      <trkpt lat="46.88012" lon="-2.12458">
        <ele>9</ele>
        <time>2018-01-08T04:09:16Z</time>
      </trkpt>
      <trkpt lat="46.88001" lon="-2.12454">
        <ele>9</ele>
        <time>2018-01-08T04:10:16Z</time>
      </trkpt>
      <trkpt lat="46.8797" lon="-2.12447">
        <ele>9</ele>
        <time>2018-01-08T04:11:16Z</time>
      </trkpt>
      <trkpt lat="46.87942" lon="-2.12439">
        <ele>9</ele>
        <time>2018-01-08T04:12:16Z</time>
      </trkpt>
      <trkpt lat="46.87926" lon="-2.12437">
        <ele>9</ele>
        <time>2018-01-08T04:13:16Z</time>
      </trkpt>
      <trkpt lat="46.87914" lon="-2.12436">
        <ele>9</ele>
        <time>2018-01-08T04:14:16Z</time>
      </trkpt>
      <trkpt lat="46.87898" lon="-2.12438">
        <ele>8</ele>
        <time>2018-01-08T04:15:16Z</time>
      </trkpt>
      <trkpt lat="46.87869" lon="-2.12441">
        <ele>7</ele>
        <time>2018-01-08T04:16:16Z</time>
      </trkpt>
      <trkpt lat="46.87847" lon="-2.12444">
        <ele>7</ele>
        <time>2018-01-08T04:17:16Z</time>
      </trkpt>
      <trkpt lat="46.87841" lon="-2.12445">
        <ele>6</ele>
        <time>2018-01-08T04:18:16Z</time>
      </trkpt>
      <trkpt lat="46.87834" lon="-2.12446">
        <ele>6</ele>
        <time>2018-01-08T04:19:16Z</time>
      </trkpt>
      <trkpt lat="46.87808" lon="-2.12452">
        <ele>7</ele>
        <time>2018-01-08T04:20:16Z</time>
      </trkpt>
      <trkpt lat="46.87788" lon="-2.12457">
        <ele>8</ele>
        <time>2018-01-08T04:21:16Z</time>
      </trkpt>
      <trkpt lat="46.87771" lon="-2.1246">
        <ele>9</ele>
        <time>2018-01-08T04:22:16Z</time>
      </trkpt>
      <trkpt lat="46.8776" lon="-2.12461">
        <ele>10</ele>
        <time>2018-01-08T04:23:16Z</time>
      </trkpt>
      <trkpt lat="46.87749" lon="-2.12462">
        <ele>10</ele>
        <time>2018-01-08T04:24:16Z</time>
      </trkpt>
      <trkpt lat="46.87737" lon="-2.12461">
        <ele>11</ele>
        <time>2018-01-08T04:25:16Z</time>
      </trkpt>
      <trkpt lat="46.87721" lon="-2.12458">
        <ele>11</ele>
        <time>2018-01-08T04:26:16Z</time>
      </trkpt>
      <trkpt lat="46.87709" lon="-2.12455">
        <ele>11</ele>
        <time>2018-01-08T04:27:16Z</time>
      </trkpt>
      <trkpt lat="46.87705" lon="-2.12454">
        <ele>11</ele>
        <time>2018-01-08T04:28:16Z</time>
      </trkpt>
      <trkpt lat="46.87692" lon="-2.12449">
        <ele>11</ele>
        <time>2018-01-08T04:29:16Z</time>
      </trkpt>
      <trkpt lat="46.87674" lon="-2.1244">
        <ele>11</ele>
        <time>2018-01-08T04:30:16Z</time>
      </trkpt>
      <trkpt lat="46.87641" lon="-2.12419">
        <ele>11</ele>
        <time>2018-01-08T04:31:16Z</time>
      </trkpt>
      <trkpt lat="46.87624" lon="-2.1241">
        <ele>11</ele>
        <time>2018-01-08T04:32:16Z</time>
      </trkpt>
      <trkpt lat="46.87606" lon="-2.124">
        <ele>12</ele>
        <time>2018-01-08T04:33:16Z</time>
      </trkpt>
      <trkpt lat="46.87591" lon="-2.1239">
        <ele>12</ele>
        <time>2018-01-08T04:34:16Z</time>
      </trkpt>
      <trkpt lat="46.87579" lon="-2.12381">
        <ele>12</ele>
        <time>2018-01-08T04:35:16Z</time>
      </trkpt>
      <trkpt lat="46.87569" lon="-2.12371">
        <ele>11</ele>
        <time>2018-01-08T04:36:16Z</time>
      </trkpt>
      <trkpt lat="46.87551" lon="-2.12351">
        <ele>10</ele>
        <time>2018-01-08T04:37:16Z</time>
      </trkpt>
      <trkpt lat="46.87541" lon="-2.12341">
        <ele>9</ele>
        <time>2018-01-08T04:38:16Z</time>
      </trkpt>
      <trkpt lat="46.87532" lon="-2.12336">
        <ele>9</ele>
        <time>2018-01-08T04:39:16Z</time>
      </trkpt>
      <trkpt lat="46.87522" lon="-2.12331">
        <ele>8</ele>
        <time>2018-01-08T04:40:16Z</time>
      </trkpt>
      <trkpt lat="46.87513" lon="-2.12329">
        <ele>8</ele>
        <time>2018-01-08T04:41:16Z</time>
      </trkpt>
      <trkpt lat="46.87502" lon="-2.12328">
        <ele>9</ele>
        <time>2018-01-08T04:42:16Z</time>
      </trkpt>
      <trkpt lat="46.87491" lon="-2.12328">
        <ele>8</ele>
        <time>2018-01-08T04:43:16Z</time>
      </trkpt>
      <trkpt lat="46.87476" lon="-2.12331">
        <ele>8</ele>
        <time>2018-01-08T04:44:16Z</time>
      </trkpt>
      <trkpt lat="46.87466" lon="-2.12334">
        <ele>7</ele>
        <time>2018-01-08T04:45:16Z</time>
      </trkpt>
      <trkpt lat="46.8746" lon="-2.12336">
        <ele>7</ele>
        <time>2018-01-08T04:46:16Z</time>
      </trkpt>
      <trkpt lat="46.87444" lon="-2.12344">
        <ele>7</ele>
        <time>2018-01-08T04:47:16Z</time>
      </trkpt>
      <trkpt lat="46.87437" lon="-2.12348">
        <ele>7</ele>
        <time>2018-01-08T04:48:16Z</time>
      </trkpt>
      <trkpt lat="46.87433" lon="-2.12351">
        <ele>7</ele>
        <time>2018-01-08T04:49:16Z</time>
      </trkpt>
      <trkpt lat="46.87421" lon="-2.12362">
        <ele>8</ele>
        <time>2018-01-08T04:50:16Z</time>
      </trkpt>
      <trkpt lat="46.87407" lon="-2.1238">
        <ele>9</ele>
        <time>2018-01-08T04:51:16Z</time>
      </trkpt>
      <trkpt lat="46.87394" lon="-2.12398">
        <ele>11</ele>
        <time>2018-01-08T04:52:16Z</time>
      </trkpt>
      <trkpt lat="46.87384" lon="-2.12408">
        <ele>11</ele>
        <time>2018-01-08T04:53:16Z</time>
      </trkpt>
      <trkpt lat="46.87373" lon="-2.12413">
        <ele>12</ele>
        <time>2018-01-08T04:54:16Z</time>
      </trkpt>
      <trkpt lat="46.87359" lon="-2.12416">
        <ele>12</ele>
        <time>2018-01-08T04:55:16Z</time>
      </trkpt>
      <trkpt lat="46.87352" lon="-2.12417">
        <ele>11</ele>
        <time>2018-01-08T04:56:16Z</time>
      </trkpt>
      <trkpt lat="46.87341" lon="-2.12417">
        <ele>11</ele>
        <time>2018-01-08T04:57:16Z</time>
      </trkpt>
      <trkpt lat="46.87325" lon="-2.12416">
        <ele>11</ele>
        <time>2018-01-08T04:58:16Z</time>
      </trkpt>
      <trkpt lat="46.87297" lon="-2.12408">
        <ele>12</ele>
        <time>2018-01-08T04:59:16Z</time>
      </trkpt>
      <trkpt lat="46.87275" lon="-2.12402">
        <ele>12</ele>
        <time>2018-01-08T05:00:16Z</time>
      </trkpt>
      <trkpt lat="46.87249" lon="-2.12391">
        <ele>12</ele>
        <time>2018-01-08T05:01:16Z</time>
      </trkpt>
      <trkpt lat="46.87234" lon="-2.1238">
        <ele>11</ele>
        <time>2018-01-08T05:02:16Z</time>
      </trkpt>
      <trkpt lat="46.87218" lon="-2.12371">
        <ele>10</ele>
        <time>2018-01-08T05:03:16Z</time>
      </trkpt>
      <trkpt lat="46.87196" lon="-2.1236">
        <ele>8</ele>
        <time>2018-01-08T05:04:16Z</time>
      </trkpt>
      <trkpt lat="46.87184" lon="-2.12355">
        <ele>8</ele>
        <time>2018-01-08T05:05:16Z</time>
      </trkpt>
      <trkpt lat="46.87174" lon="-2.1235">
        <ele>7</ele>
        <time>2018-01-08T05:06:16Z</time>
      </trkpt>
      <trkpt lat="46.87168" lon="-2.12346">
        <ele>7</ele>
        <time>2018-01-08T05:07:16Z</time>
      </trkpt>
      <trkpt lat="46.87152" lon="-2.12342">
        <ele>7</ele>
        <time>2018-01-08T05:08:16Z</time>
      </trkpt>
      <trkpt lat="46.87138" lon="-2.12338">
        <ele>6</ele>
        <time>2018-01-08T05:09:16Z</time>
      </trkpt>
      <trkpt lat="46.87121" lon="-2.12335">
        <ele>6</ele>
        <time>2018-01-08T05:10:16Z</time>
      </trkpt>
      <trkpt lat="46.87104" lon="-2.12336">
        <ele>6</ele>
        <time>2018-01-08T05:11:16Z</time>
      </trkpt>
      <trkpt lat="46.87088" lon="-2.12335">
        <ele>6</ele>
        <time>2018-01-08T05:12:16Z</time>
      </trkpt>
      <trkpt lat="46.87073" lon="-2.12341">
        <ele>6</ele>
        <time>2018-01-08T05:13:16Z</time>
      </trkpt>
      <trkpt lat="46.87051" lon="-2.12353">
        <ele>7</ele>
        <time>2018-01-08T05:14:16Z</time>
      </trkpt>
      <trkpt lat="46.87031" lon="-2.12364">
        <ele>7</ele>
        <time>2018-01-08T05:15:16Z</time>
      </trkpt>
      <trkpt lat="46.87017" lon="-2.12375">
        <ele>7</ele>
        <time>2018-01-08T05:16:16Z</time>
      </trkpt>
      <trkpt lat="46.86997" lon="-2.12391">
        <ele>6</ele>
        <time>2018-01-08T05:17:16Z</time>
      </trkpt>
      <trkpt lat="46.86978" lon="-2.12412">
        <ele>6</ele>
        <time>2018-01-08T05:18:16Z</time>
      </trkpt>
      <trkpt lat="46.86962" lon="-2.1243">
        <ele>7</ele>
        <time>2018-01-08T05:19:16Z</time>
      </trkpt>
      <trkpt lat="46.86957" lon="-2.12436">
        <ele>7</ele>
        <time>2018-01-08T05:20:16Z</time>
      </trkpt>
      <trkpt lat="46.86947" lon="-2.12445">
        <ele>8</ele>
        <time>2018-01-08T05:21:16Z</time>
      </trkpt>
      <trkpt lat="46.86932" lon="-2.12458">
        <ele>8</ele>
        <time>2018-01-08T05:22:16Z</time>
      </trkpt>
      <trkpt lat="46.86918" lon="-2.12466">
        <ele>9</ele>
        <time>2018-01-08T05:23:16Z</time>
      </trkpt>
      <trkpt lat="46.86908" lon="-2.1247">
        <ele>9</ele>
        <time>2018-01-08T05:24:16Z</time>
      </trkpt>
      <trkpt lat="46.86905" lon="-2.12472">
        <ele>9</ele>
        <time>2018-01-08T05:25:16Z</time>
      </trkpt>
      <trkpt lat="46.86892" lon="-2.12473">
        <ele>9</ele>
        <time>2018-01-08T05:26:16Z</time>
      </trkpt>
      <trkpt lat="46.86884" lon="-2.12469">
        <ele>9</ele>
        <time>2018-01-08T05:27:16Z</time>
      </trkpt>
      <trkpt lat="46.86875" lon="-2.12463">
        <ele>9</ele>
        <time>2018-01-08T05:28:16Z</time>
      </trkpt>
      <trkpt lat="46.86865" lon="-2.12451">
        <ele>8</ele>
        <time>2018-01-08T05:29:16Z</time>
      </trkpt>
      <trkpt lat="46.86846" lon="-2.12427">
        <ele>6</ele>
        <time>2018-01-08T05:30:16Z</time>
      </trkpt>
      <trkpt lat="46.86834" lon="-2.12407">
        <ele>6</ele>
        <time>2018-01-08T05:31:16Z</time>
      </trkpt>
      <trkpt lat="46.86823" lon="-2.12389">
        <ele>6</ele>
        <time>2018-01-08T05:32:16Z</time>
      </trkpt>
      <trkpt lat="46.86798" lon="-2.1235">
        <ele>6</ele>
        <time>2018-01-08T05:33:16Z</time>
      </trkpt>
      <trkpt lat="46.86781" lon="-2.12323">
        <ele>6</ele>
        <time>2018-01-08T05:34:16Z</time>
      </trkpt>
      <trkpt lat="46.86774" lon="-2.12315">
        <ele>6</ele>
        <time>2018-01-08T05:35:16Z</time>
      </trkpt>
      <trkpt lat="46.86746" lon="-2.12276">
        <ele>6</ele>
        <time>2018-01-08T05:36:16Z</time>
      </trkpt>
      <trkpt lat="46.86722" lon="-2.12245">
        <ele>6</ele>
        <time>2018-01-08T05:37:16Z</time>
      </trkpt>
      <trkpt lat="46.86706" lon="-2.12225">
        <ele>6</ele>
        <time>2018-01-08T05:38:16Z</time>
      </trkpt>
      <trkpt lat="46.8669" lon="-2.12208">
        <ele>6</ele>
        <time>2018-01-08T05:39:16Z</time>
      </trkpt>
      <trkpt lat="46.86658" lon="-2.12175">
        <ele>7</ele>
        <time>2018-01-08T05:40:16Z</time>
      </trkpt>
      <trkpt lat="46.86621" lon="-2.12144">
        <ele>7</ele>
        <time>2018-01-08T05:41:16Z</time>
      </trkpt>
      <trkpt lat="46.86612" lon="-2.12138">
        <ele>7</ele>
        <time>2018-01-08T05:42:16Z</time>
      </trkpt>
      <trkpt lat="46.86583" lon="-2.12115">
        <ele>7</ele>
        <time>2018-01-08T05:43:16Z</time>
      </trkpt>
      <trkpt lat="46.86555" lon="-2.12093">
        <ele>6</ele>
        <time>2018-01-08T05:44:16Z</time>
      </trkpt>
      <trkpt lat="46.86542" lon="-2.12083">
        <ele>6</ele>
        <time>2018-01-08T05:45:16Z</time>
      </trkpt>
      <trkpt lat="46.86525" lon="-2.12071">
        <ele>6</ele>
        <time>2018-01-08T05:46:16Z</time>
      </trkpt>
      <trkpt lat="46.86514" lon="-2.12062">
        <ele>5</ele>
        <time>2018-01-08T05:47:16Z</time>
      </trkpt>
      <trkpt lat="46.86505" lon="-2.12058">
        <ele>5</ele>
        <time>2018-01-08T05:48:16Z</time>
      </trkpt>
      <trkpt lat="46.8649" lon="-2.12053">
        <ele>6</ele>
        <time>2018-01-08T05:49:16Z</time>
      </trkpt>
      <trkpt lat="46.86484" lon="-2.12051">
        <ele>6</ele>
        <time>2018-01-08T05:50:16Z</time>
      </trkpt>
      <trkpt lat="46.86471" lon="-2.12047">
        <ele>6</ele>
        <time>2018-01-08T05:51:16Z</time>
      </trkpt>
      <trkpt lat="46.86469" lon="-2.12047">
        <ele>6</ele>
        <time>2018-01-08T05:52:16Z</time>
      </trkpt>
      <trkpt lat="46.86452" lon="-2.12041">
        <ele>6</ele>
        <time>2018-01-08T05:53:16Z</time>
      </trkpt>
      <trkpt lat="46.86418" lon="-2.1203">
        <ele>6</ele>
        <time>2018-01-08T05:54:16Z</time>
      </trkpt>
      <trkpt lat="46.86394" lon="-2.12024">
        <ele>7</ele>
        <time>2018-01-08T05:55:16Z</time>
      </trkpt>
      <trkpt lat="46.86346" lon="-2.12011">
        <ele>9</ele>
        <time>2018-01-08T05:56:16Z</time>
      </trkpt>
      <trkpt lat="46.86322" lon="-2.12004">
        <ele>9</ele>
        <time>2018-01-08T05:57:16Z</time>
      </trkpt>
      <trkpt lat="46.86312" lon="-2.12">
        <ele>9</ele>
        <time>2018-01-08T05:58:16Z</time>
      </trkpt>
      <trkpt lat="46.86264" lon="-2.11978">
        <ele>8</ele>
        <time>2018-01-08T05:59:16Z</time>
      </trkpt>
      <trkpt lat="46.86245" lon="-2.11969">
        <ele>8</ele>
        <time>2018-01-08T06:00:16Z</time>
      </trkpt>
      <trkpt lat="46.86232" lon="-2.11962">
        <ele>7</ele>
        <time>2018-01-08T06:01:16Z</time>
      </trkpt>
      <trkpt lat="46.86226" lon="-2.11959">
        <ele>7</ele>
        <time>2018-01-08T06:02:16Z</time>
      </trkpt>
      <trkpt lat="46.86218" lon="-2.11956">
        <ele>7</ele>
        <time>2018-01-08T06:03:16Z</time>
      </trkpt>
      <trkpt lat="46.86212" lon="-2.11952">
        <ele>7</ele>
        <time>2018-01-08T06:04:16Z</time>
      </trkpt>
      <trkpt lat="46.86194" lon="-2.11938">
        <ele>6</ele>
        <time>2018-01-08T06:05:16Z</time>
      </trkpt>
      <trkpt lat="46.86181" lon="-2.11928">
        <ele>6</ele>
        <time>2018-01-08T06:06:16Z</time>
      </trkpt>
      <trkpt lat="46.86157" lon="-2.11909">
        <ele>5</ele>
        <time>2018-01-08T06:07:16Z</time>
      </trkpt>
      <trkpt lat="46.86135" lon="-2.11889">
        <ele>4</ele>
        <time>2018-01-08T06:08:16Z</time>
      </trkpt>
      <trkpt lat="46.86126" lon="-2.11879">
        <ele>4</ele>
        <time>2018-01-08T06:09:16Z</time>
      </trkpt>
      <trkpt lat="46.86121" lon="-2.11875">
        <ele>4</ele>
        <time>2018-01-08T06:10:16Z</time>
      </trkpt>
      <trkpt lat="46.86115" lon="-2.11872">
        <ele>4</ele>
        <time>2018-01-08T06:11:16Z</time>
      </trkpt>
      <trkpt lat="46.86106" lon="-2.11871">
        <ele>4</ele>
        <time>2018-01-08T06:12:16Z</time>
      </trkpt>
      <trkpt lat="46.86086" lon="-2.1187">
        <ele>4</ele>
        <time>2018-01-08T06:13:16Z</time>
      </trkpt>
      <trkpt lat="46.86076" lon="-2.11868">
        <ele>4</ele>
        <time>2018-01-08T06:14:16Z</time>
      </trkpt>
      <trkpt lat="46.86064" lon="-2.11863">
        <ele>5</ele>
        <time>2018-01-08T06:15:16Z</time>
      </trkpt>
      <trkpt lat="46.8605" lon="-2.11855">
        <ele>5</ele>
        <time>2018-01-08T06:16:16Z</time>
      </trkpt>
      <trkpt lat="46.86038" lon="-2.11848">
        <ele>5</ele>
        <time>2018-01-08T06:17:16Z</time>
      </trkpt>
      <trkpt lat="46.86035" lon="-2.11846">
        <ele>6</ele>
        <time>2018-01-08T06:18:16Z</time>
      </trkpt>
      <trkpt lat="46.86025" lon="-2.11838">
        <ele>6</ele>
        <time>2018-01-08T06:19:16Z</time>
      </trkpt>
      <trkpt lat="46.86023" lon="-2.11837">
        <ele>6</ele>
        <time>2018-01-08T06:20:16Z</time>
      </trkpt>
      <trkpt lat="46.85991" lon="-2.11809">
        <ele>7</ele>
        <time>2018-01-08T06:21:16Z</time>
      </trkpt>
      <trkpt lat="46.85974" lon="-2.11794">
        <ele>7</ele>
        <time>2018-01-08T06:22:16Z</time>
      </trkpt>
      <trkpt lat="46.8596" lon="-2.11783">
        <ele>7</ele>
        <time>2018-01-08T06:23:16Z</time>
      </trkpt>
      <trkpt lat="46.85945" lon="-2.11773">
        <ele>8</ele>
        <time>2018-01-08T06:24:16Z</time>
      </trkpt>
      <trkpt lat="46.85934" lon="-2.11767">
        <ele>8</ele>
        <time>2018-01-08T06:25:16Z</time>
      </trkpt>
      <trkpt lat="46.85922" lon="-2.11762">
        <ele>8</ele>
        <time>2018-01-08T06:26:16Z</time>
      </trkpt>
      <trkpt lat="46.85902" lon="-2.11757">
        <ele>8</ele>
        <time>2018-01-08T06:27:16Z</time>
      </trkpt>
      <trkpt lat="46.85882" lon="-2.11753">
        <ele>7</ele>
        <time>2018-01-08T06:28:16Z</time>
      </trkpt>
      <trkpt lat="46.85866" lon="-2.11752">
        <ele>7</ele>
        <time>2018-01-08T06:29:16Z</time>
      </trkpt>
      <trkpt lat="46.85851" lon="-2.11752">
        <ele>7</ele>
        <time>2018-01-08T06:30:16Z</time>
      </trkpt>
      <trkpt lat="46.85846" lon="-2.11753">
        <ele>6</ele>
        <time>2018-01-08T06:31:16Z</time>
      </trkpt>
      <trkpt lat="46.85832" lon="-2.11756">
        <ele>6</ele>
        <time>2018-01-08T06:32:16Z</time>
      </trkpt>
      <trkpt lat="46.85831" lon="-2.11756">
        <ele>6</ele>
        <time>2018-01-08T06:33:16Z</time>
      </trkpt>
      <trkpt lat="46.858" lon="-2.11765">
        <ele>6</ele>
        <time>2018-01-08T06:34:16Z</time>
      </trkpt>
      <trkpt lat="46.8579" lon="-2.11769">
        <ele>6</ele>
        <time>2018-01-08T06:35:16Z</time>
      </trkpt>
      <trkpt lat="46.8578" lon="-2.11775">
        <ele>6</ele>
        <time>2018-01-08T06:36:16Z</time>
      </trkpt>
      <trkpt lat="46.85765" lon="-2.11786">
        <ele>7</ele>
        <time>2018-01-08T06:37:16Z</time>
      </trkpt>
      <trkpt lat="46.85761" lon="-2.11788">
        <ele>7</ele>
        <time>2018-01-08T06:38:16Z</time>
      </trkpt>
      <trkpt lat="46.85741" lon="-2.11802">
        <ele>7</ele>
        <time>2018-01-08T06:39:16Z</time>
      </trkpt>
      <trkpt lat="46.85726" lon="-2.11811">
        <ele>7</ele>
        <time>2018-01-08T06:40:16Z</time>
      </trkpt>
      <trkpt lat="46.8571" lon="-2.11814">
        <ele>6</ele>
        <time>2018-01-08T06:41:16Z</time>
      </trkpt>
      <trkpt lat="46.85696" lon="-2.11814">
        <ele>5</ele>
        <time>2018-01-08T06:42:16Z</time>
      </trkpt>
      <trkpt lat="46.85669" lon="-2.11813">
        <ele>4</ele>
        <time>2018-01-08T06:43:16Z</time>
      </trkpt>
      <trkpt lat="46.85665" lon="-2.11814">
        <ele>4</ele>
        <time>2018-01-08T06:44:16Z</time>
      </trkpt>
      <trkpt lat="46.85645" lon="-2.11818">
        <ele>4</ele>
        <time>2018-01-08T06:45:16Z</time>
      </trkpt>
      <trkpt lat="46.8562" lon="-2.11827">
        <ele>4</ele>
        <time>2018-01-08T06:46:16Z</time>
      </trkpt>
      <trkpt lat="46.85615" lon="-2.11829">
        <ele>4</ele>
        <time>2018-01-08T06:47:16Z</time>
      </trkpt>
      <trkpt lat="46.85593" lon="-2.11844">
        <ele>5</ele>
        <time>2018-01-08T06:48:16Z</time>
      </trkpt>
      <trkpt lat="46.85575" lon="-2.11861">
        <ele>5</ele>
        <time>2018-01-08T06:49:16Z</time>
      </trkpt>
      <trkpt lat="46.8556" lon="-2.11878">
        <ele>5</ele>
        <time>2018-01-08T06:50:16Z</time>
      </trkpt>
      <trkpt lat="46.85545" lon="-2.11899">
        <ele>5</ele>
        <time>2018-01-08T06:51:16Z</time>
      </trkpt>
      <trkpt lat="46.85539" lon="-2.11906">
        <ele>5</ele>
        <time>2018-01-08T06:52:16Z</time>
      </trkpt>
      <trkpt lat="46.85531" lon="-2.11913">
        <ele>5</ele>
        <time>2018-01-08T06:53:16Z</time>
      </trkpt>
      <trkpt lat="46.85525" lon="-2.11916">
        <ele>4</ele>
        <time>2018-01-08T06:54:16Z</time>
      </trkpt>
      <trkpt lat="46.85521" lon="-2.11918">
        <ele>4</ele>
        <time>2018-01-08T06:55:16Z</time>
      </trkpt>
      <trkpt lat="46.85515" lon="-2.11919">
        <ele>4</ele>
        <time>2018-01-08T06:56:16Z</time>
      </trkpt>
      <trkpt lat="46.855" lon="-2.11916">
        <ele>3</ele>
        <time>2018-01-08T06:57:16Z</time>
      </trkpt>
      <trkpt lat="46.855" lon="-2.11916">
        <ele>3</ele>
        <time>2018-01-08T06:58:16Z</time>
      </trkpt>
      <trkpt lat="46.85497" lon="-2.11934">
        <ele>3</ele>
        <time>2018-01-08T06:59:16Z</time>
      </trkpt>
      <trkpt lat="46.85492" lon="-2.11964">
        <ele>4</ele>
        <time>2018-01-08T07:00:16Z</time>
      </trkpt>
      <trkpt lat="46.85483" lon="-2.12006">
        <ele>4</ele>
        <time>2018-01-08T07:01:16Z</time>
      </trkpt>
      <trkpt lat="46.85479" lon="-2.1202">
        <ele>4</ele>
        <time>2018-01-08T07:02:16Z</time>
      </trkpt>
      <trkpt lat="46.85467" lon="-2.12053">
        <ele>4</ele>
        <time>2018-01-08T07:03:16Z</time>
      </trkpt>
      <trkpt lat="46.85458" lon="-2.12075">
        <ele>4</ele>
        <time>2018-01-08T07:04:16Z</time>
      </trkpt>
      <trkpt lat="46.85444" lon="-2.12098">
        <ele>4</ele>
        <time>2018-01-08T07:05:16Z</time>
      </trkpt>
      <trkpt lat="46.85435" lon="-2.12111">
        <ele>5</ele>
        <time>2018-01-08T07:06:16Z</time>
      </trkpt>
      <trkpt lat="46.85416" lon="-2.12132">
        <ele>6</ele>
        <time>2018-01-08T07:07:16Z</time>
      </trkpt>
      <trkpt lat="46.85398" lon="-2.12152">
        <ele>5</ele>
        <time>2018-01-08T07:08:16Z</time>
      </trkpt>
      <trkpt lat="46.85378" lon="-2.12176">
        <ele>5</ele>
        <time>2018-01-08T07:09:16Z</time>
      </trkpt>
      <trkpt lat="46.85364" lon="-2.12197">
        <ele>4</ele>
        <time>2018-01-08T07:10:16Z</time>
      </trkpt>
      <trkpt lat="46.8535" lon="-2.12224">
        <ele>3</ele>
        <time>2018-01-08T07:11:16Z</time>
      </trkpt>
      <trkpt lat="46.85343" lon="-2.12238">
        <ele>3</ele>
        <time>2018-01-08T07:12:16Z</time>
      </trkpt>
      <trkpt lat="46.85338" lon="-2.1225">
        <ele>3</ele>
        <time>2018-01-08T07:13:16Z</time>
      </trkpt>
      <trkpt lat="46.85326" lon="-2.12286">
        <ele>3</ele>
        <time>2018-01-08T07:14:16Z</time>
      </trkpt>
      <trkpt lat="46.85324" lon="-2.12293">
        <ele>3</ele>
        <time>2018-01-08T07:15:16Z</time>
      </trkpt>
      <trkpt lat="46.85312" lon="-2.12331">
        <ele>3</ele>
        <time>2018-01-08T07:16:16Z</time>
      </trkpt>
      <trkpt lat="46.85296" lon="-2.12377">
        <ele>4</ele>
        <time>2018-01-08T07:17:16Z</time>
      </trkpt>
      <trkpt lat="46.8529" lon="-2.12394">
        <ele>4</ele>
        <time>2018-01-08T07:18:16Z</time>
      </trkpt>
      <trkpt lat="46.85274" lon="-2.12444">
        <ele>5</ele>
        <time>2018-01-08T07:19:16Z</time>
      </trkpt>
      <trkpt lat="46.85254" lon="-2.12504">
        <ele>6</ele>
        <time>2018-01-08T07:20:16Z</time>
      </trkpt>
      <trkpt lat="46.85239" lon="-2.12543">
        <ele>7</ele>
        <time>2018-01-08T07:21:16Z</time>
      </trkpt>
      <trkpt lat="46.85222" lon="-2.12584">
        <ele>8</ele>
        <time>2018-01-08T07:22:16Z</time>
      </trkpt>
      <trkpt lat="46.85207" lon="-2.1262">
        <ele>8</ele>
        <time>2018-01-08T07:23:16Z</time>
      </trkpt>
      <trkpt lat="46.852" lon="-2.12632">
        <ele>8</ele>
        <time>2018-01-08T07:24:16Z</time>
      </trkpt>
      <trkpt lat="46.85187" lon="-2.12658">
        <ele>8</ele>
        <time>2018-01-08T07:25:16Z</time>
      </trkpt>
      <trkpt lat="46.85177" lon="-2.12673">
        <ele>8</ele>
        <time>2018-01-08T07:26:16Z</time>
      </trkpt>
      <trkpt lat="46.8516" lon="-2.12686">
        <ele>8</ele>
        <time>2018-01-08T07:27:16Z</time>
      </trkpt>
      <trkpt lat="46.85131" lon="-2.12706">
        <ele>8</ele>
        <time>2018-01-08T07:28:16Z</time>
      </trkpt>
      <trkpt lat="46.8511" lon="-2.12718">
        <ele>8</ele>
        <time>2018-01-08T07:29:16Z</time>
      </trkpt>
      <trkpt lat="46.85083" lon="-2.12737">
        <ele>7</ele>
        <time>2018-01-08T07:30:16Z</time>
      </trkpt>
      <trkpt lat="46.85066" lon="-2.12751">
        <ele>8</ele>
        <time>2018-01-08T07:31:16Z</time>
      </trkpt>
      <trkpt lat="46.85046" lon="-2.12774">
        <ele>9</ele>
        <time>2018-01-08T07:32:16Z</time>
      </trkpt>
      <trkpt lat="46.85041" lon="-2.12779">
        <ele>9</ele>
        <time>2018-01-08T07:33:16Z</time>
      </trkpt>
      <trkpt lat="46.85028" lon="-2.12791">
        <ele>9</ele>
        <time>2018-01-08T07:34:16Z</time>
      </trkpt>
      <trkpt lat="46.85007" lon="-2.12806">
        <ele>8</ele>
        <time>2018-01-08T07:35:16Z</time>
      </trkpt>
      <trkpt lat="46.84974" lon="-2.12834">
        <ele>8</ele>
        <time>2018-01-08T07:36:16Z</time>
      </trkpt>
      <trkpt lat="46.84948" lon="-2.12855">
        <ele>7</ele>
        <time>2018-01-08T07:37:16Z</time>
      </trkpt>
      <trkpt lat="46.84942" lon="-2.12859">
        <ele>7</ele>
        <time>2018-01-08T07:38:16Z</time>
      </trkpt>
      <trkpt lat="46.84924" lon="-2.12876">
        <ele>6</ele>
        <time>2018-01-08T07:39:16Z</time>
      </trkpt>
      <trkpt lat="46.84895" lon="-2.12903">
        <ele>6</ele>
        <time>2018-01-08T07:40:16Z</time>
      </trkpt>
      <trkpt lat="46.84875" lon="-2.12922">
        <ele>7</ele>
        <time>2018-01-08T07:41:16Z</time>
      </trkpt>
      <trkpt lat="46.84856" lon="-2.12936">
        <ele>7</ele>
        <time>2018-01-08T07:42:16Z</time>
      </trkpt>
      <trkpt lat="46.84844" lon="-2.12945">
        <ele>7</ele>
        <time>2018-01-08T07:43:16Z</time>
      </trkpt>
      <trkpt lat="46.84832" lon="-2.1295">
        <ele>7</ele>
        <time>2018-01-08T07:44:16Z</time>
      </trkpt>
      <trkpt lat="46.84819" lon="-2.12953">
        <ele>7</ele>
        <time>2018-01-08T07:45:16Z</time>
      </trkpt>
      <trkpt lat="46.84803" lon="-2.12954">
        <ele>7</ele>
        <time>2018-01-08T07:46:16Z</time>
      </trkpt>
      <trkpt lat="46.84792" lon="-2.12954">
        <ele>7</ele>
        <time>2018-01-08T07:47:16Z</time>
      </trkpt>
      <trkpt lat="46.84784" lon="-2.12954">
        <ele>7</ele>
        <time>2018-01-08T07:48:16Z</time>
      </trkpt>
      <trkpt lat="46.84767" lon="-2.1295">
        <ele>7</ele>
        <time>2018-01-08T07:49:16Z</time>
      </trkpt>
      <trkpt lat="46.84727" lon="-2.12942">
        <ele>6</ele>
        <time>2018-01-08T07:50:16Z</time>
      </trkpt>
      <trkpt lat="46.84716" lon="-2.12939">
        <ele>6</ele>
        <time>2018-01-08T07:51:16Z</time>
      </trkpt>
      <trkpt lat="46.84716" lon="-2.12939">
        <ele>6</ele>
        <time>2018-01-08T07:52:16Z</time>
      </trkpt>
      <trkpt lat="46.84684" lon="-2.12933">
        <ele>5</ele>
        <time>2018-01-08T07:53:16Z</time>
      </trkpt>
      <trkpt lat="46.84651" lon="-2.12926">
        <ele>5</ele>
        <time>2018-01-08T07:54:16Z</time>
      </trkpt>
      <trkpt lat="46.84634" lon="-2.12924">
        <ele>5</ele>
        <time>2018-01-08T07:55:16Z</time>
      </trkpt>
      <trkpt lat="46.84625" lon="-2.12923">
        <ele>5</ele>
        <time>2018-01-08T07:56:16Z</time>
      </trkpt>
      <trkpt lat="46.84597" lon="-2.1292">
        <ele>4</ele>
        <time>2018-01-08T07:57:16Z</time>
      </trkpt>
      <trkpt lat="46.84574" lon="-2.12918">
        <ele>4</ele>
        <time>2018-01-08T07:58:16Z</time>
      </trkpt>
      <trkpt lat="46.84531" lon="-2.1292">
        <ele>4</ele>
        <time>2018-01-08T07:59:16Z</time>
      </trkpt>
      <trkpt lat="46.84515" lon="-2.12921">
        <ele>4</ele>
        <time>2018-01-08T08:00:16Z</time>
      </trkpt>
      <trkpt lat="46.84492" lon="-2.12923">
        <ele>4</ele>
        <time>2018-01-08T08:01:16Z</time>
      </trkpt>
      <trkpt lat="46.84465" lon="-2.12926">
        <ele>4</ele>
        <time>2018-01-08T08:02:16Z</time>
      </trkpt>
      <trkpt lat="46.84453" lon="-2.12927">
        <ele>4</ele>
        <time>2018-01-08T08:03:16Z</time>
      </trkpt>
      <trkpt lat="46.84434" lon="-2.1293">
        <ele>4</ele>
        <time>2018-01-08T08:04:16Z</time>
      </trkpt>
      <trkpt lat="46.84412" lon="-2.12932">
        <ele>4</ele>
        <time>2018-01-08T08:05:16Z</time>
      </trkpt>
      <trkpt lat="46.84407" lon="-2.12933">
        <ele>4</ele>
        <time>2018-01-08T08:06:16Z</time>
      </trkpt>
      <trkpt lat="46.84378" lon="-2.12939">
        <ele>4</ele>
        <time>2018-01-08T08:07:16Z</time>
      </trkpt>
      <trkpt lat="46.84355" lon="-2.12942">
        <ele>4</ele>
        <time>2018-01-08T08:08:16Z</time>
      </trkpt>
      <trkpt lat="46.84335" lon="-2.12945">
        <ele>4</ele>
        <time>2018-01-08T08:09:16Z</time>
      </trkpt>
      <trkpt lat="46.84323" lon="-2.12946">
        <ele>4</ele>
        <time>2018-01-08T08:10:16Z</time>
      </trkpt>
      <trkpt lat="46.84314" lon="-2.12947">
        <ele>4</ele>
        <time>2018-01-08T08:11:16Z</time>
      </trkpt>
      <trkpt lat="46.84289" lon="-2.12949">
        <ele>5</ele>
        <time>2018-01-08T08:12:16Z</time>
      </trkpt>
      <trkpt lat="46.84254" lon="-2.12951">
        <ele>6</ele>
        <time>2018-01-08T08:13:16Z</time>
      </trkpt>
      <trkpt lat="46.84239" lon="-2.12952">
        <ele>6</ele>
        <time>2018-01-08T08:14:16Z</time>
      </trkpt>
      <trkpt lat="46.84222" lon="-2.12954">
        <ele>6</ele>
        <time>2018-01-08T08:15:16Z</time>
      </trkpt>
      <trkpt lat="46.84212" lon="-2.12956">
        <ele>6</ele>
        <time>2018-01-08T08:16:16Z</time>
      </trkpt>
      <trkpt lat="46.84193" lon="-2.12959">
        <ele>6</ele>
        <time>2018-01-08T08:17:16Z</time>
      </trkpt>
      <trkpt lat="46.84181" lon="-2.12961">
        <ele>6</ele>
        <time>2018-01-08T08:18:16Z</time>
      </trkpt>
      <trkpt lat="46.84166" lon="-2.12963">
        <ele>6</ele>
        <time>2018-01-08T08:19:16Z</time>
      </trkpt>
      <trkpt lat="46.84162" lon="-2.12963">
        <ele>6</ele>
        <time>2018-01-08T08:20:16Z</time>
      </trkpt>
      <trkpt lat="46.84153" lon="-2.12967">
        <ele>6</ele>
        <time>2018-01-08T08:21:16Z</time>
      </trkpt>
      <trkpt lat="46.84153" lon="-2.12967">
        <ele>6</ele>
        <time>2018-01-08T08:22:16Z</time>
      </trkpt>
      <trkpt lat="46.84153" lon="-2.12977">
        <ele>6</ele>
        <time>2018-01-08T08:23:16Z</time>
      </trkpt>
      <trkpt lat="46.84153" lon="-2.12992">
        <ele>6</ele>
        <time>2018-01-08T08:24:16Z</time>
      </trkpt>
      <trkpt lat="46.84154" lon="-2.13018">
        <ele>6</ele>
        <time>2018-01-08T08:25:16Z</time>
      </trkpt>
      <trkpt lat="46.84156" lon="-2.13043">
        <ele>6</ele>
        <time>2018-01-08T08:26:16Z</time>
      </trkpt>
      <trkpt lat="46.84158" lon="-2.13066">
        <ele>7</ele>
        <time>2018-01-08T08:27:16Z</time>
      </trkpt>
      <trkpt lat="46.8416" lon="-2.1308">
        <ele>7</ele>
        <time>2018-01-08T08:28:16Z</time>
      </trkpt>
      <trkpt lat="46.84164" lon="-2.13108">
        <ele>7</ele>
        <time>2018-01-08T08:29:16Z</time>
      </trkpt>
      <trkpt lat="46.84169" lon="-2.13138">
        <ele>8</ele>
        <time>2018-01-08T08:30:16Z</time>
      </trkpt>
      <trkpt lat="46.84169" lon="-2.13138">
        <ele>8</ele>
        <time>2018-01-08T08:31:16Z</time>
      </trkpt>
      <trkpt lat="46.84142" lon="-2.13143">
        <ele>8</ele>
        <time>2018-01-08T08:32:16Z</time>
      </trkpt>
      <trkpt lat="46.84124" lon="-2.13147">
        <ele>9</ele>
        <time>2018-01-08T08:33:16Z</time>
      </trkpt>
      <trkpt lat="46.84105" lon="-2.1315">
        <ele>9</ele>
        <time>2018-01-08T08:34:16Z</time>
      </trkpt>
      <trkpt lat="46.84091" lon="-2.13152">
        <ele>9</ele>
        <time>2018-01-08T08:35:16Z</time>
      </trkpt>
      <trkpt lat="46.84083" lon="-2.13153">
        <ele>10</ele>
        <time>2018-01-08T08:36:16Z</time>
      </trkpt>
      <trkpt lat="46.8407" lon="-2.13154">
        <ele>9</ele>
        <time>2018-01-08T08:37:16Z</time>
      </trkpt>
      <trkpt lat="46.84064" lon="-2.13154">
        <ele>9</ele>
        <time>2018-01-08T08:38:16Z</time>
      </trkpt>
      <trkpt lat="46.84057" lon="-2.13154">
        <ele>9</ele>
        <time>2018-01-08T08:39:16Z</time>
      </trkpt>
      <trkpt lat="46.84048" lon="-2.13153">
        <ele>9</ele>
        <time>2018-01-08T08:40:16Z</time>
      </trkpt>
      <trkpt lat="46.8404" lon="-2.13152">
        <ele>9</ele>
        <time>2018-01-08T08:41:16Z</time>
      </trkpt>
      <trkpt lat="46.8401" lon="-2.13148">
        <ele>8</ele>
        <time>2018-01-08T08:42:16Z</time>
      </trkpt>
      <trkpt lat="46.83996" lon="-2.13146">
        <ele>8</ele>
        <time>2018-01-08T08:43:16Z</time>
      </trkpt>
      <trkpt lat="46.83984" lon="-2.13146">
        <ele>8</ele>
        <time>2018-01-08T08:44:16Z</time>
      </trkpt>
      <trkpt lat="46.83978" lon="-2.13146">
        <ele>8</ele>
        <time>2018-01-08T08:45:16Z</time>
      </trkpt>
      <trkpt lat="46.83972" lon="-2.13146">
        <ele>8</ele>
        <time>2018-01-08T08:46:16Z</time>
      </trkpt>
      <trkpt lat="46.83959" lon="-2.13148">
        <ele>8</ele>
        <time>2018-01-08T08:47:16Z</time>
      </trkpt>
      <trkpt lat="46.83938" lon="-2.13152">
        <ele>8</ele>
        <time>2018-01-08T08:48:16Z</time>
      </trkpt>
      <trkpt lat="46.8391" lon="-2.13159">
        <ele>8</ele>
        <time>2018-01-08T08:49:16Z</time>
      </trkpt>
      <trkpt lat="46.83892" lon="-2.13162">
        <ele>7</ele>
        <time>2018-01-08T08:50:16Z</time>
      </trkpt>
      <trkpt lat="46.83884" lon="-2.13164">
        <ele>7</ele>
        <time>2018-01-08T08:51:16Z</time>
      </trkpt>
      <trkpt lat="46.83877" lon="-2.13166">
        <ele>7</ele>
        <time>2018-01-08T08:52:16Z</time>
      </trkpt>
      <trkpt lat="46.83869" lon="-2.13166">
        <ele>6</ele>
        <time>2018-01-08T08:53:16Z</time>
      </trkpt>
      <trkpt lat="46.83868" lon="-2.13166">
        <ele>6</ele>
        <time>2018-01-08T08:54:16Z</time>
      </trkpt>
      <trkpt lat="46.8386" lon="-2.13168">
        <ele>6</ele>
        <time>2018-01-08T08:55:16Z</time>
      </trkpt>
      <trkpt lat="46.83848" lon="-2.13168">
        <ele>6</ele>
        <time>2018-01-08T08:56:16Z</time>
      </trkpt>
      <trkpt lat="46.83843" lon="-2.13168">
        <ele>5</ele>
        <time>2018-01-08T08:57:16Z</time>
      </trkpt>
      <trkpt lat="46.83825" lon="-2.13168">
        <ele>5</ele>
        <time>2018-01-08T08:58:16Z</time>
      </trkpt>
      <trkpt lat="46.83824" lon="-2.13168">
        <ele>5</ele>
        <time>2018-01-08T08:59:16Z</time>
      </trkpt>
      <trkpt lat="46.83808" lon="-2.1317">
        <ele>5</ele>
        <time>2018-01-08T09:00:16Z</time>
      </trkpt>
      <trkpt lat="46.83782" lon="-2.1317">
        <ele>5</ele>
        <time>2018-01-08T09:01:16Z</time>
      </trkpt>
      <trkpt lat="46.83759" lon="-2.13171">
        <ele>5</ele>
        <time>2018-01-08T09:02:16Z</time>
      </trkpt>
      <trkpt lat="46.83742" lon="-2.13172">
        <ele>5</ele>
        <time>2018-01-08T09:03:16Z</time>
      </trkpt>
      <trkpt lat="46.8373" lon="-2.13173">
        <ele>5</ele>
        <time>2018-01-08T09:04:16Z</time>
      </trkpt>
      <trkpt lat="46.83725" lon="-2.13174">
        <ele>5</ele>
        <time>2018-01-08T09:05:16Z</time>
      </trkpt>
      <trkpt lat="46.83722" lon="-2.13174">
        <ele>5</ele>
        <time>2018-01-08T09:06:16Z</time>
      </trkpt>
      <trkpt lat="46.83716" lon="-2.13175">
        <ele>5</ele>
        <time>2018-01-08T09:07:16Z</time>
      </trkpt>
      <trkpt lat="46.83707" lon="-2.1318">
        <ele>4</ele>
        <time>2018-01-08T09:08:16Z</time>
      </trkpt>
      <trkpt lat="46.83696" lon="-2.13188">
        <ele>4</ele>
        <time>2018-01-08T09:09:16Z</time>
      </trkpt>
      <trkpt lat="46.8368" lon="-2.13198">
        <ele>4</ele>
        <time>2018-01-08T09:10:16Z</time>
      </trkpt>
      <trkpt lat="46.83668" lon="-2.13203">
        <ele>4</ele>
        <time>2018-01-08T09:11:16Z</time>
      </trkpt>
      <trkpt lat="46.8366" lon="-2.13208">
        <ele>4</ele>
        <time>2018-01-08T09:12:16Z</time>
      </trkpt>
      <trkpt lat="46.83639" lon="-2.13218">
        <ele>4</ele>
        <time>2018-01-08T09:13:16Z</time>
      </trkpt>
      <trkpt lat="46.8363" lon="-2.13223">
        <ele>4</ele>
        <time>2018-01-08T09:14:16Z</time>
      </trkpt>
      <trkpt lat="46.83628" lon="-2.13224">
        <ele>4</ele>
        <time>2018-01-08T09:15:16Z</time>
      </trkpt>
      <trkpt lat="46.83621" lon="-2.13227">
        <ele>4</ele>
        <time>2018-01-08T09:16:16Z</time>
      </trkpt>
      <trkpt lat="46.83618" lon="-2.13228">
        <ele>4</ele>
        <time>2018-01-08T09:17:16Z</time>
      </trkpt>
      <trkpt lat="46.8361" lon="-2.13232">
        <ele>4</ele>
        <time>2018-01-08T09:18:16Z</time>
      </trkpt>
      <trkpt lat="46.836" lon="-2.13235">
        <ele>4</ele>
        <time>2018-01-08T09:19:16Z</time>
      </trkpt>
      <trkpt lat="46.83595" lon="-2.13237">
        <ele>4</ele>
        <time>2018-01-08T09:20:16Z</time>
      </trkpt>
      <trkpt lat="46.83583" lon="-2.13238">
        <ele>3</ele>
        <time>2018-01-08T09:21:16Z</time>
      </trkpt>
      <trkpt lat="46.83573" lon="-2.13239">
        <ele>4</ele>
        <time>2018-01-08T09:22:16Z</time>
      </trkpt>
      <trkpt lat="46.83557" lon="-2.13241">
        <ele>4</ele>
        <time>2018-01-08T09:23:16Z</time>
      </trkpt>
      <trkpt lat="46.83542" lon="-2.13242">
        <ele>4</ele>
        <time>2018-01-08T09:24:16Z</time>
      </trkpt>
      <trkpt lat="46.83532" lon="-2.13244">
        <ele>4</ele>
        <time>2018-01-08T09:25:16Z</time>
      </trkpt>
      <trkpt lat="46.83509" lon="-2.13248">
        <ele>5</ele>
        <time>2018-01-08T09:26:16Z</time>
      </trkpt>
      <trkpt lat="46.83484" lon="-2.13253">
        <ele>5</ele>
        <time>2018-01-08T09:27:16Z</time>
      </trkpt>
      <trkpt lat="46.83456" lon="-2.13258">
        <ele>5</ele>
        <time>2018-01-08T09:28:16Z</time>
      </trkpt>
      <trkpt lat="46.83428" lon="-2.13263">
        <ele>5</ele>
        <time>2018-01-08T09:29:16Z</time>
      </trkpt>
      <trkpt lat="46.83416" lon="-2.13264">
        <ele>5</ele>
        <time>2018-01-08T09:30:16Z</time>
      </trkpt>
      <trkpt lat="46.83408" lon="-2.13266">
        <ele>5</ele>
        <time>2018-01-08T09:31:16Z</time>
      </trkpt>
      <trkpt lat="46.83392" lon="-2.1327">
        <ele>5</ele>
        <time>2018-01-08T09:32:16Z</time>
      </trkpt>
      <trkpt lat="46.83371" lon="-2.13276">
        <ele>5</ele>
        <time>2018-01-08T09:33:16Z</time>
      </trkpt>
      <trkpt lat="46.83356" lon="-2.1328">
        <ele>5</ele>
        <time>2018-01-08T09:34:16Z</time>
      </trkpt>
      <trkpt lat="46.83333" lon="-2.13288">
        <ele>5</ele>
        <time>2018-01-08T09:35:16Z</time>
      </trkpt>
      <trkpt lat="46.83313" lon="-2.13295">
        <ele>5</ele>
        <time>2018-01-08T09:36:16Z</time>
      </trkpt>
      <trkpt lat="46.83297" lon="-2.133">
        <ele>5</ele>
        <time>2018-01-08T09:37:16Z</time>
      </trkpt>
      <trkpt lat="46.83284" lon="-2.13304">
        <ele>5</ele>
        <time>2018-01-08T09:38:16Z</time>
      </trkpt>
      <trkpt lat="46.83279" lon="-2.13306">
        <ele>5</ele>
        <time>2018-01-08T09:39:16Z</time>
      </trkpt>
      <trkpt lat="46.83272" lon="-2.13308">
        <ele>5</ele>
        <time>2018-01-08T09:40:16Z</time>
      </trkpt>
      <trkpt lat="46.83267" lon="-2.13308">
        <ele>5</ele>
        <time>2018-01-08T09:41:16Z</time>
      </trkpt>
      <trkpt lat="46.83264" lon="-2.13308">
        <ele>6</ele>
        <time>2018-01-08T09:42:16Z</time>
      </trkpt>
      <trkpt lat="46.83247" lon="-2.13304">
        <ele>6</ele>
        <time>2018-01-08T09:43:16Z</time>
      </trkpt>
      <trkpt lat="46.83247" lon="-2.13304">
        <ele>6</ele>
        <time>2018-01-08T09:44:16Z</time>
      </trkpt>
      <trkpt lat="46.83248" lon="-2.13281">
        <ele>6</ele>
        <time>2018-01-08T09:45:16Z</time>
      </trkpt>
      <trkpt lat="46.83248" lon="-2.13265">
        <ele>7</ele>
        <time>2018-01-08T09:46:16Z</time>
      </trkpt>
      <trkpt lat="46.83248" lon="-2.13253">
        <ele>7</ele>
        <time>2018-01-08T09:47:16Z</time>
      </trkpt>
      <trkpt lat="46.83247" lon="-2.13226">
        <ele>7</ele>
        <time>2018-01-08T09:48:16Z</time>
      </trkpt>
      <trkpt lat="46.83247" lon="-2.132">
        <ele>8</ele>
        <time>2018-01-08T09:49:16Z</time>
      </trkpt>
      <trkpt lat="46.83245" lon="-2.13174">
        <ele>8</ele>
        <time>2018-01-08T09:50:16Z</time>
      </trkpt>
      <trkpt lat="46.83244" lon="-2.13155">
        <ele>8</ele>
        <time>2018-01-08T09:51:16Z</time>
      </trkpt>
      <trkpt lat="46.83241" lon="-2.13121">
        <ele>7</ele>
        <time>2018-01-08T09:52:16Z</time>
      </trkpt>
      <trkpt lat="46.83241" lon="-2.13121">
        <ele>7</ele>
        <time>2018-01-08T09:53:16Z</time>
      </trkpt>
      <trkpt lat="46.83232" lon="-2.13128">
        <ele>7</ele>
        <time>2018-01-08T09:54:16Z</time>
      </trkpt>
      <trkpt lat="46.8322" lon="-2.13134">
        <ele>7</ele>
        <time>2018-01-08T09:55:16Z</time>
      </trkpt>
      <trkpt lat="46.83208" lon="-2.13137">
        <ele>7</ele>
        <time>2018-01-08T09:56:16Z</time>
      </trkpt>
      <trkpt lat="46.83198" lon="-2.1314">
        <ele>7</ele>
        <time>2018-01-08T09:57:16Z</time>
      </trkpt>
      <trkpt lat="46.83187" lon="-2.13141">
        <ele>7</ele>
        <time>2018-01-08T09:58:16Z</time>
      </trkpt>
      <trkpt lat="46.8318" lon="-2.13142">
        <ele>7</ele>
        <time>2018-01-08T09:59:16Z</time>
      </trkpt>
      <trkpt lat="46.83173" lon="-2.13143">
        <ele>7</ele>
        <time>2018-01-08T10:00:16Z</time>
      </trkpt>
      <trkpt lat="46.83167" lon="-2.13144">
        <ele>7</ele>
        <time>2018-01-08T10:01:16Z</time>
      </trkpt>
      <trkpt lat="46.83167" lon="-2.13144">
        <ele>7</ele>
        <time>2018-01-08T10:02:16Z</time>
      </trkpt>
      <trkpt lat="46.83162" lon="-2.13128">
        <ele>7</ele>
        <time>2018-01-08T10:03:16Z</time>
      </trkpt>
      <trkpt lat="46.83162" lon="-2.13128">
        <ele>7</ele>
        <time>2018-01-08T10:04:16Z</time>
      </trkpt>
      <trkpt lat="46.83153" lon="-2.13134">
        <ele>7</ele>
        <time>2018-01-08T10:05:16Z</time>
      </trkpt>
      <trkpt lat="46.83148" lon="-2.13138">
        <ele>7</ele>
        <time>2018-01-08T10:06:16Z</time>
      </trkpt>
      <trkpt lat="46.83144" lon="-2.13144">
        <ele>7</ele>
        <time>2018-01-08T10:07:16Z</time>
      </trkpt>
      <trkpt lat="46.83142" lon="-2.13147">
        <ele>7</ele>
        <time>2018-01-08T10:08:16Z</time>
      </trkpt>
      <trkpt lat="46.83138" lon="-2.13153">
        <ele>7</ele>
        <time>2018-01-08T10:09:16Z</time>
      </trkpt>
      <trkpt lat="46.83133" lon="-2.13156">
        <ele>7</ele>
        <time>2018-01-08T10:10:16Z</time>
      </trkpt>
      <trkpt lat="46.83127" lon="-2.13158">
        <ele>7</ele>
        <time>2018-01-08T10:11:16Z</time>
      </trkpt>
      <trkpt lat="46.83111" lon="-2.13163">
        <ele>7</ele>
        <time>2018-01-08T10:12:16Z</time>
      </trkpt>
      <trkpt lat="46.83111" lon="-2.13163">
        <ele>7</ele>
        <time>2018-01-08T10:13:16Z</time>
      </trkpt>
      <trkpt lat="46.83113" lon="-2.13173">
        <ele>7</ele>
        <time>2018-01-08T10:14:16Z</time>
      </trkpt>
      <trkpt lat="46.83113" lon="-2.13173">
        <ele>7</ele>
        <time>2018-01-08T10:15:16Z</time>
      </trkpt>
      <trkpt lat="46.83098" lon="-2.13174">
        <ele>6</ele>
        <time>2018-01-08T10:16:16Z</time>
      </trkpt>
      <trkpt lat="46.83091" lon="-2.13176">
        <ele>6</ele>
        <time>2018-01-08T10:17:16Z</time>
      </trkpt>
      <trkpt lat="46.83072" lon="-2.1318">
        <ele>6</ele>
        <time>2018-01-08T10:18:16Z</time>
      </trkpt>
      <trkpt lat="46.83062" lon="-2.13183">
        <ele>6</ele>
        <time>2018-01-08T10:19:16Z</time>
      </trkpt>
      <trkpt lat="46.83056" lon="-2.13182">
        <ele>6</ele>
        <time>2018-01-08T10:20:16Z</time>
      </trkpt>
      <trkpt lat="46.83049" lon="-2.13182">
        <ele>6</ele>
        <time>2018-01-08T10:21:16Z</time>
      </trkpt>
      <trkpt lat="46.83033" lon="-2.13181">
        <ele>6</ele>
        <time>2018-01-08T10:22:16Z</time>
      </trkpt>
      <trkpt lat="46.83022" lon="-2.13178">
        <ele>6</ele>
        <time>2018-01-08T10:23:16Z</time>
      </trkpt>
      <trkpt lat="46.83013" lon="-2.13176">
        <ele>6</ele>
        <time>2018-01-08T10:24:16Z</time>
      </trkpt>
      <trkpt lat="46.83013" lon="-2.13176">
        <ele>6</ele>
        <time>2018-01-08T10:25:16Z</time>
      </trkpt>
      <trkpt lat="46.83013" lon="-2.13177">
        <ele>6</ele>
        <time>2018-01-08T10:26:16Z</time>
      </trkpt>
      <trkpt lat="46.83012" lon="-2.13178">
        <ele>6</ele>
        <time>2018-01-08T10:27:16Z</time>
      </trkpt>
      <trkpt lat="46.83012" lon="-2.13179">
        <ele>6</ele>
        <time>2018-01-08T10:28:16Z</time>
      </trkpt>
      <trkpt lat="46.83011" lon="-2.13179">
        <ele>6</ele>
        <time>2018-01-08T10:29:16Z</time>
      </trkpt>
      <trkpt lat="46.83011" lon="-2.1318">
        <ele>6</ele>
        <time>2018-01-08T10:30:16Z</time>
      </trkpt>
      <trkpt lat="46.8301" lon="-2.1318">
        <ele>6</ele>
        <time>2018-01-08T10:31:16Z</time>
      </trkpt>
      <trkpt lat="46.83009" lon="-2.13181">
        <ele>6</ele>
        <time>2018-01-08T10:32:16Z</time>
      </trkpt>
      <trkpt lat="46.83008" lon="-2.13181">
        <ele>6</ele>
        <time>2018-01-08T10:33:16Z</time>
      </trkpt>
      <trkpt lat="46.83007" lon="-2.13182">
        <ele>6</ele>
        <time>2018-01-08T10:34:16Z</time>
      </trkpt>
      <trkpt lat="46.83006" lon="-2.13182">
        <ele>6</ele>
        <time>2018-01-08T10:35:16Z</time>
      </trkpt>
      <trkpt lat="46.83005" lon="-2.13182">
        <ele>6</ele>
        <time>2018-01-08T10:36:16Z</time>
      </trkpt>
      <trkpt lat="46.83004" lon="-2.13182">
        <ele>6</ele>
        <time>2018-01-08T10:37:16Z</time>
      </trkpt>
      <trkpt lat="46.83003" lon="-2.13182">
        <ele>6</ele>
        <time>2018-01-08T10:38:16Z</time>
      </trkpt>
      <trkpt lat="46.83002" lon="-2.13181">
        <ele>6</ele>
        <time>2018-01-08T10:39:16Z</time>
      </trkpt>
      <trkpt lat="46.83001" lon="-2.13181">
        <ele>6</ele>
        <time>2018-01-08T10:40:16Z</time>
      </trkpt>
      <trkpt lat="46.82998" lon="-2.13183">
        <ele>6</ele>
        <time>2018-01-08T10:41:16Z</time>
      </trkpt>
      <trkpt lat="46.82993" lon="-2.13185">
        <ele>6</ele>
        <time>2018-01-08T10:42:16Z</time>
      </trkpt>
      <trkpt lat="46.82985" lon="-2.13187">
        <ele>6</ele>
        <time>2018-01-08T10:43:16Z</time>
      </trkpt>
      <trkpt lat="46.82977" lon="-2.13187">
        <ele>6</ele>
        <time>2018-01-08T10:44:16Z</time>
      </trkpt>
      <trkpt lat="46.82969" lon="-2.13187">
        <ele>6</ele>
        <time>2018-01-08T10:45:16Z</time>
      </trkpt>
      <trkpt lat="46.82951" lon="-2.13188">
        <ele>6</ele>
        <time>2018-01-08T10:46:16Z</time>
      </trkpt>
      <trkpt lat="46.82925" lon="-2.13187">
        <ele>6</ele>
        <time>2018-01-08T10:47:16Z</time>
      </trkpt>
      <trkpt lat="46.82899" lon="-2.13188">
        <ele>5</ele>
        <time>2018-01-08T10:48:16Z</time>
      </trkpt>
      <trkpt lat="46.8286" lon="-2.13188">
        <ele>5</ele>
        <time>2018-01-08T10:49:16Z</time>
      </trkpt>
      <trkpt lat="46.82854" lon="-2.13188">
        <ele>5</ele>
        <time>2018-01-08T10:50:16Z</time>
      </trkpt>
      <trkpt lat="46.82833" lon="-2.13188">
        <ele>5</ele>
        <time>2018-01-08T10:51:16Z</time>
      </trkpt>
      <trkpt lat="46.82825" lon="-2.13188">
        <ele>4</ele>
        <time>2018-01-08T10:52:16Z</time>
      </trkpt>
      <trkpt lat="46.82803" lon="-2.13187">
        <ele>4</ele>
        <time>2018-01-08T10:53:16Z</time>
      </trkpt>
      <trkpt lat="46.82765" lon="-2.13186">
        <ele>4</ele>
        <time>2018-01-08T10:54:16Z</time>
      </trkpt>
      <trkpt lat="46.82757" lon="-2.13186">
        <ele>4</ele>
        <time>2018-01-08T10:55:16Z</time>
      </trkpt>
      <trkpt lat="46.82728" lon="-2.13186">
        <ele>5</ele>
        <time>2018-01-08T10:56:16Z</time>
      </trkpt>
      <trkpt lat="46.82725" lon="-2.13186">
        <ele>5</ele>
        <time>2018-01-08T10:57:16Z</time>
      </trkpt>
      <trkpt lat="46.82704" lon="-2.13186">
        <ele>5</ele>
        <time>2018-01-08T10:58:16Z</time>
      </trkpt>
      <trkpt lat="46.82673" lon="-2.13186">
        <ele>6</ele>
        <time>2018-01-08T10:59:16Z</time>
      </trkpt>
      <trkpt lat="46.82636" lon="-2.13186">
        <ele>5</ele>
        <time>2018-01-08T11:00:16Z</time>
      </trkpt>
      <trkpt lat="46.82602" lon="-2.13185">
        <ele>5</ele>
        <time>2018-01-08T11:01:16Z</time>
      </trkpt>
      <trkpt lat="46.82564" lon="-2.13186">
        <ele>4</ele>
        <time>2018-01-08T11:02:16Z</time>
      </trkpt>
      <trkpt lat="46.82555" lon="-2.13186">
        <ele>4</ele>
        <time>2018-01-08T11:03:16Z</time>
      </trkpt>
      <trkpt lat="46.82541" lon="-2.13185">
        <ele>4</ele>
        <time>2018-01-08T11:04:16Z</time>
      </trkpt>
      <trkpt lat="46.82512" lon="-2.13185">
        <ele>4</ele>
        <time>2018-01-08T11:05:16Z</time>
      </trkpt>
      <trkpt lat="46.82505" lon="-2.13184">
        <ele>4</ele>
        <time>2018-01-08T11:06:16Z</time>
      </trkpt>
      <trkpt lat="46.82494" lon="-2.13182">
        <ele>4</ele>
        <time>2018-01-08T11:07:16Z</time>
      </trkpt>
      <trkpt lat="46.82484" lon="-2.13181">
        <ele>4</ele>
        <time>2018-01-08T11:08:16Z</time>
      </trkpt>
      <trkpt lat="46.82484" lon="-2.13181">
        <ele>4</ele>
        <time>2018-01-08T11:09:16Z</time>
      </trkpt>
      <trkpt lat="46.82484" lon="-2.13182">
        <ele>4</ele>
        <time>2018-01-08T11:10:16Z</time>
      </trkpt>
      <trkpt lat="46.82483" lon="-2.13182">
        <ele>4</ele>
        <time>2018-01-08T11:11:16Z</time>
      </trkpt>
      <trkpt lat="46.82483" lon="-2.13183">
        <ele>4</ele>
        <time>2018-01-08T11:12:16Z</time>
      </trkpt>
      <trkpt lat="46.82482" lon="-2.13183">
        <ele>4</ele>
        <time>2018-01-08T11:13:16Z</time>
      </trkpt>
      <trkpt lat="46.82481" lon="-2.13183">
        <ele>4</ele>
        <time>2018-01-08T11:14:16Z</time>
      </trkpt>
      <trkpt lat="46.8248" lon="-2.13184">
        <ele>4</ele>
        <time>2018-01-08T11:15:16Z</time>
      </trkpt>
      <trkpt lat="46.82479" lon="-2.13184">
        <ele>4</ele>
        <time>2018-01-08T11:16:16Z</time>
      </trkpt>
      <trkpt lat="46.82478" lon="-2.13184">
        <ele>4</ele>
        <time>2018-01-08T11:17:16Z</time>
      </trkpt>
      <trkpt lat="46.82478" lon="-2.13183">
        <ele>4</ele>
        <time>2018-01-08T11:18:16Z</time>
      </trkpt>
      <trkpt lat="46.82477" lon="-2.13183">
        <ele>4</ele>
        <time>2018-01-08T11:19:16Z</time>
      </trkpt>
      <trkpt lat="46.82476" lon="-2.13183">
        <ele>4</ele>
        <time>2018-01-08T11:20:16Z</time>
      </trkpt>
      <trkpt lat="46.82476" lon="-2.13182">
        <ele>4</ele>
        <time>2018-01-08T11:21:16Z</time>
      </trkpt>
      <trkpt lat="46.82475" lon="-2.13182">
        <ele>4</ele>
        <time>2018-01-08T11:22:16Z</time>
      </trkpt>
      <trkpt lat="46.82474" lon="-2.13181">
        <ele>4</ele>
        <time>2018-01-08T11:23:16Z</time>
      </trkpt>
      <trkpt lat="46.82474" lon="-2.1318">
        <ele>4</ele>
        <time>2018-01-08T11:24:16Z</time>
      </trkpt>
      <trkpt lat="46.82473" lon="-2.1318">
        <ele>4</ele>
        <time>2018-01-08T11:25:16Z</time>
      </trkpt>
      <trkpt lat="46.82473" lon="-2.13179">
        <ele>4</ele>
        <time>2018-01-08T11:26:16Z</time>
      </trkpt>
      <trkpt lat="46.82472" lon="-2.13178">
        <ele>4</ele>
        <time>2018-01-08T11:27:16Z</time>
      </trkpt>
      <trkpt lat="46.82472" lon="-2.13177">
        <ele>4</ele>
        <time>2018-01-08T11:28:16Z</time>
      </trkpt>
      <trkpt lat="46.82472" lon="-2.13176">
        <ele>4</ele>
        <time>2018-01-08T11:29:16Z</time>
      </trkpt>
      <trkpt lat="46.82471" lon="-2.13175">
        <ele>4</ele>
        <time>2018-01-08T11:30:16Z</time>
      </trkpt>
      <trkpt lat="46.82471" lon="-2.13174">
        <ele>4</ele>
        <time>2018-01-08T11:31:16Z</time>
      </trkpt>
      <trkpt lat="46.82471" lon="-2.13173">
        <ele>4</ele>
        <time>2018-01-08T11:32:16Z</time>
      </trkpt>
      <trkpt lat="46.82471" lon="-2.13172">
        <ele>4</ele>
        <time>2018-01-08T11:33:16Z</time>
      </trkpt>
      <trkpt lat="46.82471" lon="-2.13171">
        <ele>4</ele>
        <time>2018-01-08T11:34:16Z</time>
      </trkpt>
      <trkpt lat="46.82471" lon="-2.1317">
        <ele>4</ele>
        <time>2018-01-08T11:35:16Z</time>
      </trkpt>
      <trkpt lat="46.82471" lon="-2.13169">
        <ele>4</ele>
        <time>2018-01-08T11:36:16Z</time>
      </trkpt>
      <trkpt lat="46.82471" lon="-2.13168">
        <ele>4</ele>
        <time>2018-01-08T11:37:16Z</time>
      </trkpt>
      <trkpt lat="46.82472" lon="-2.13168">
        <ele>4</ele>
        <time>2018-01-08T11:38:16Z</time>
      </trkpt>
      <trkpt lat="46.82472" lon="-2.13167">
        <ele>4</ele>
        <time>2018-01-08T11:39:16Z</time>
      </trkpt>
      <trkpt lat="46.82472" lon="-2.13166">
        <ele>4</ele>
        <time>2018-01-08T11:40:16Z</time>
      </trkpt>
      <trkpt lat="46.82472" lon="-2.13165">
        <ele>4</ele>
        <time>2018-01-08T11:41:16Z</time>
      </trkpt>
      <trkpt lat="46.82473" lon="-2.13165">
        <ele>4</ele>
        <time>2018-01-08T11:42:16Z</time>
      </trkpt>
      <trkpt lat="46.82473" lon="-2.13164">
        <ele>4</ele>
        <time>2018-01-08T11:43:16Z</time>
      </trkpt>
      <trkpt lat="46.82474" lon="-2.13163">
        <ele>4</ele>
        <time>2018-01-08T11:44:16Z</time>
      </trkpt>
      <trkpt lat="46.82474" lon="-2.13162">
        <ele>4</ele>
        <time>2018-01-08T11:45:16Z</time>
      </trkpt>
      <trkpt lat="46.82475" lon="-2.13162">
        <ele>4</ele>
        <time>2018-01-08T11:46:16Z</time>
      </trkpt>
      <trkpt lat="46.82475" lon="-2.13161">
        <ele>4</ele>
        <time>2018-01-08T11:47:16Z</time>
      </trkpt>
      <trkpt lat="46.82476" lon="-2.13161">
        <ele>4</ele>
        <time>2018-01-08T11:48:16Z</time>
      </trkpt>
      <trkpt lat="46.82476" lon="-2.1316">
        <ele>4</ele>
        <time>2018-01-08T11:49:16Z</time>
      </trkpt>
      <trkpt lat="46.82477" lon="-2.1316">
        <ele>4</ele>
        <time>2018-01-08T11:50:16Z</time>
      </trkpt>
      <trkpt lat="46.82478" lon="-2.1316">
        <ele>4</ele>
        <time>2018-01-08T11:51:16Z</time>
      </trkpt>
      <trkpt lat="46.82479" lon="-2.1316">
        <ele>4</ele>
        <time>2018-01-08T11:52:16Z</time>
      </trkpt>
      <trkpt lat="46.82475" lon="-2.13111">
        <ele>4</ele>
        <time>2018-01-08T11:53:16Z</time>
      </trkpt>
      <trkpt lat="46.82475" lon="-2.13102">
        <ele>4</ele>
        <time>2018-01-08T11:54:16Z</time>
      </trkpt>
      <trkpt lat="46.82474" lon="-2.1309">
        <ele>4</ele>
        <time>2018-01-08T11:55:16Z</time>
      </trkpt>
      <trkpt lat="46.82474" lon="-2.13064">
        <ele>4</ele>
        <time>2018-01-08T11:56:16Z</time>
      </trkpt>
      <trkpt lat="46.82475" lon="-2.13031">
        <ele>4</ele>
        <time>2018-01-08T11:57:16Z</time>
      </trkpt>
      <trkpt lat="46.82476" lon="-2.13012">
        <ele>3</ele>
        <time>2018-01-08T11:58:16Z</time>
      </trkpt>
      <trkpt lat="46.82478" lon="-2.12988">
        <ele>3</ele>
        <time>2018-01-08T11:59:16Z</time>
      </trkpt>
      <trkpt lat="46.82482" lon="-2.12957">
        <ele>3</ele>
        <time>2018-01-08T12:00:16Z</time>
      </trkpt>
      <trkpt lat="46.82484" lon="-2.12947">
        <ele>3</ele>
        <time>2018-01-08T12:01:16Z</time>
      </trkpt>
      <trkpt lat="46.82488" lon="-2.12916">
        <ele>2</ele>
        <time>2018-01-08T12:02:16Z</time>
      </trkpt>
      <trkpt lat="46.82492" lon="-2.1288">
        <ele>2</ele>
        <time>2018-01-08T12:03:16Z</time>
      </trkpt>
      <trkpt lat="46.82493" lon="-2.12866">
        <ele>2</ele>
        <time>2018-01-08T12:04:16Z</time>
      </trkpt>
      <trkpt lat="46.82492" lon="-2.12824">
        <ele>2</ele>
        <time>2018-01-08T12:05:16Z</time>
      </trkpt>
      <trkpt lat="46.8249" lon="-2.12801">
        <ele>2</ele>
        <time>2018-01-08T12:06:16Z</time>
      </trkpt>
      <trkpt lat="46.82488" lon="-2.12756">
        <ele>3</ele>
        <time>2018-01-08T12:07:16Z</time>
      </trkpt>
      <trkpt lat="46.82483" lon="-2.12722">
        <ele>2</ele>
        <time>2018-01-08T12:08:16Z</time>
      </trkpt>
      <trkpt lat="46.82471" lon="-2.12674">
        <ele>1</ele>
        <time>2018-01-08T12:09:16Z</time>
      </trkpt>
      <trkpt lat="46.82453" lon="-2.12589">
        <ele>1</ele>
        <time>2018-01-08T12:10:16Z</time>
      </trkpt>
      <trkpt lat="46.82445" lon="-2.12541">
        <ele>2</ele>
        <time>2018-01-08T12:11:16Z</time>
      </trkpt>
      <trkpt lat="46.82435" lon="-2.12466">
        <ele>1.1</ele>
        <time>2018-01-08T12:12:16Z</time>
      </trkpt>
      <trkpt lat="46.82422" lon="-2.12354">
        <ele>1.8</ele>
        <time>2018-01-08T12:13:16Z</time>
      </trkpt>
      <trkpt lat="46.82416" lon="-2.12316">
        <ele>2</ele>
        <time>2018-01-08T12:14:16Z</time>
      </trkpt>
      <trkpt lat="46.824" lon="-2.12246">
        <ele>1.6</ele>
        <time>2018-01-08T12:15:16Z</time>
      </trkpt>
      <trkpt lat="46.82386" lon="-2.1219">
        <ele>1.9</ele>
        <time>2018-01-08T12:16:16Z</time>
      </trkpt>
      <trkpt lat="46.82378" lon="-2.12157">
        <ele>1.4</ele>
        <time>2018-01-08T12:17:16Z</time>
      </trkpt>
      <trkpt lat="46.82369" lon="-2.12141">
        <ele>1.7</ele>
        <time>2018-01-08T12:18:16Z</time>
      </trkpt>
      <trkpt lat="46.82356" lon="-2.1213">
        <ele>1.6</ele>
        <time>2018-01-08T12:19:16Z</time>
      </trkpt>
      <trkpt lat="46.82346" lon="-2.12121">
        <ele>1.5</ele>
        <time>2018-01-08T12:20:16Z</time>
      </trkpt>
      <trkpt lat="46.82336" lon="-2.12111">
        <ele>1.9</ele>
        <time>2018-01-08T12:21:16Z</time>
      </trkpt>
      <trkpt lat="46.82327" lon="-2.12096">
        <ele>2</ele>
        <time>2018-01-08T12:22:16Z</time>
      </trkpt>
      <trkpt lat="46.82315" lon="-2.12069">
        <ele>2</ele>
        <time>2018-01-08T12:23:16Z</time>
      </trkpt>
      <trkpt lat="46.82303" lon="-2.12026">
        <ele>1.1</ele>
        <time>2018-01-08T12:24:16Z</time>
      </trkpt>
      <trkpt lat="46.82303" lon="-2.12025">
        <ele>1.1</ele>
        <time>2018-01-08T12:25:16Z</time>
      </trkpt>
      <trkpt lat="46.82292" lon="-2.11996">
        <ele>2</ele>
        <time>2018-01-08T12:26:16Z</time>
      </trkpt>
      <trkpt lat="46.82283" lon="-2.11983">
        <ele>2</ele>
        <time>2018-01-08T12:27:16Z</time>
      </trkpt>
      <trkpt lat="46.82271" lon="-2.11968">
        <ele>2</ele>
        <time>2018-01-08T12:28:16Z</time>
      </trkpt>
      <trkpt lat="46.82263" lon="-2.11954">
        <ele>2</ele>
        <time>2018-01-08T12:29:16Z</time>
      </trkpt>
      <trkpt lat="46.82255" lon="-2.11927">
        <ele>2</ele>
        <time>2018-01-08T12:30:16Z</time>
      </trkpt>
      <trkpt lat="46.82248" lon="-2.11899">
        <ele>1.3</ele>
        <time>2018-01-08T12:31:16Z</time>
      </trkpt>
      <trkpt lat="46.8224" lon="-2.11881">
        <ele>1</ele>
        <time>2018-01-08T12:32:16Z</time>
      </trkpt>
      <trkpt lat="46.82231" lon="-2.11871">
        <ele>1</ele>
        <time>2018-01-08T12:33:16Z</time>
      </trkpt>
      <trkpt lat="46.82221" lon="-2.11863">
        <ele>1</ele>
        <time>2018-01-08T12:34:16Z</time>
      </trkpt>
      <trkpt lat="46.82206" lon="-2.11854">
        <ele>1</ele>
        <time>2018-01-08T12:35:16Z</time>
      </trkpt>
      <trkpt lat="46.82191" lon="-2.11843">
        <ele>1</ele>
        <time>2018-01-08T12:36:16Z</time>
      </trkpt>
      <trkpt lat="46.82173" lon="-2.11817">
        <ele>1</ele>
        <time>2018-01-08T12:37:16Z</time>
      </trkpt>
      <trkpt lat="46.82156" lon="-2.11792">
        <ele>2</ele>
        <time>2018-01-08T12:38:16Z</time>
      </trkpt>
      <trkpt lat="46.82147" lon="-2.11775">
        <ele>1.9</ele>
        <time>2018-01-08T12:39:16Z</time>
      </trkpt>
      <trkpt lat="46.82136" lon="-2.11763">
        <ele>1.5</ele>
        <time>2018-01-08T12:40:16Z</time>
      </trkpt>
      <trkpt lat="46.82113" lon="-2.11741">
        <ele>1.6</ele>
        <time>2018-01-08T12:41:16Z</time>
      </trkpt>
      <trkpt lat="46.82102" lon="-2.11729">
        <ele>1.2</ele>
        <time>2018-01-08T12:42:16Z</time>
      </trkpt>
      <trkpt lat="46.82091" lon="-2.11712">
        <ele>1.3</ele>
        <time>2018-01-08T12:43:16Z</time>
      </trkpt>
      <trkpt lat="46.82064" lon="-2.11662">
        <ele>1.7</ele>
        <time>2018-01-08T12:44:16Z</time>
      </trkpt>
      <trkpt lat="46.82027" lon="-2.11593">
        <ele>1</ele>
        <time>2018-01-08T12:45:16Z</time>
      </trkpt>
      <trkpt lat="46.82004" lon="-2.11552">
        <ele>2</ele>
        <time>2018-01-08T12:46:16Z</time>
      </trkpt>
      <trkpt lat="46.8199" lon="-2.11534">
        <ele>2</ele>
        <time>2018-01-08T12:47:16Z</time>
      </trkpt>
      <trkpt lat="46.81976" lon="-2.1152">
        <ele>2</ele>
        <time>2018-01-08T12:48:16Z</time>
      </trkpt>
      <trkpt lat="46.81959" lon="-2.11512">
        <ele>2</ele>
        <time>2018-01-08T12:49:16Z</time>
      </trkpt>
      <trkpt lat="46.81944" lon="-2.11509">
        <ele>2</ele>
        <time>2018-01-08T12:50:16Z</time>
      </trkpt>
      <trkpt lat="46.81932" lon="-2.11506">
        <ele>1</ele>
        <time>2018-01-08T12:51:16Z</time>
      </trkpt>
      <trkpt lat="46.81893" lon="-2.11498">
        <ele>1</ele>
        <time>2018-01-08T12:52:16Z</time>
      </trkpt>
      <trkpt lat="46.8185" lon="-2.1149">
        <ele>1</ele>
        <time>2018-01-08T12:53:16Z</time>
      </trkpt>
      <trkpt lat="46.81834" lon="-2.11484">
        <ele>1</ele>
        <time>2018-01-08T12:54:16Z</time>
      </trkpt>
      <trkpt lat="46.81829" lon="-2.11481">
        <ele>1</ele>
        <time>2018-01-08T12:55:16Z</time>
      </trkpt>
      <trkpt lat="46.81822" lon="-2.11474">
        <ele>1</ele>
        <time>2018-01-08T12:56:16Z</time>
      </trkpt>
      <trkpt lat="46.81821" lon="-2.11472">
        <ele>1</ele>
        <time>2018-01-08T12:57:16Z</time>
      </trkpt>
      <trkpt lat="46.81815" lon="-2.11461">
        <ele>1</ele>
        <time>2018-01-08T12:58:16Z</time>
      </trkpt>
      <trkpt lat="46.8181" lon="-2.11448">
        <ele>1</ele>
        <time>2018-01-08T12:59:16Z</time>
      </trkpt>
      <trkpt lat="46.8181" lon="-2.11448">
        <ele>1</ele>
        <time>2018-01-08T13:00:16Z</time>
      </trkpt>
      <trkpt lat="46.81807" lon="-2.1143">
        <ele>1</ele>
        <time>2018-01-08T13:01:16Z</time>
      </trkpt>
      <trkpt lat="46.81803" lon="-2.11394">
        <ele>1.9</ele>
        <time>2018-01-08T13:02:16Z</time>
      </trkpt>
      <trkpt lat="46.81798" lon="-2.11325">
        <ele>1.2</ele>
        <time>2018-01-08T13:03:16Z</time>
      </trkpt>
      <trkpt lat="46.81795" lon="-2.11287">
        <ele>1</ele>
        <time>2018-01-08T13:04:16Z</time>
      </trkpt>
      <trkpt lat="46.81793" lon="-2.11277">
        <ele>1</ele>
        <time>2018-01-08T13:05:16Z</time>
      </trkpt>
      <trkpt lat="46.81791" lon="-2.11268">
        <ele>1</ele>
        <time>2018-01-08T13:06:16Z</time>
      </trkpt>
      <trkpt lat="46.81791" lon="-2.11268">
        <ele>1</ele>
        <time>2018-01-08T13:07:16Z</time>
      </trkpt>
      <trkpt lat="46.81787" lon="-2.11254">
        <ele>1</ele>
        <time>2018-01-08T13:08:16Z</time>
      </trkpt>
      <trkpt lat="46.81783" lon="-2.11249">
        <ele>1</ele>
        <time>2018-01-08T13:09:16Z</time>
      </trkpt>
      <trkpt lat="46.81775" lon="-2.11235">
        <ele>1</ele>
        <time>2018-01-08T13:10:16Z</time>
      </trkpt>
      <trkpt lat="46.81761" lon="-2.11222">
        <ele>1</ele>
        <time>2018-01-08T13:11:16Z</time>
      </trkpt>
      <trkpt lat="46.8175" lon="-2.11214">
        <ele>1</ele>
        <time>2018-01-08T13:12:16Z</time>
      </trkpt>
      <trkpt lat="46.81743" lon="-2.11209">
        <ele>1</ele>
        <time>2018-01-08T13:13:16Z</time>
      </trkpt>
      <trkpt lat="46.81743" lon="-2.11209">
        <ele>1</ele>
        <time>2018-01-08T13:14:16Z</time>
      </trkpt>
      <trkpt lat="46.81741" lon="-2.11189">
        <ele>2</ele>
        <time>2018-01-08T13:15:16Z</time>
      </trkpt>
      <trkpt lat="46.8174" lon="-2.1118">
        <ele>2</ele>
        <time>2018-01-08T13:16:16Z</time>
      </trkpt>
      <trkpt lat="46.81738" lon="-2.11173">
        <ele>2</ele>
        <time>2018-01-08T13:17:16Z</time>
      </trkpt>
      <trkpt lat="46.81737" lon="-2.11166">
        <ele>2</ele>
        <time>2018-01-08T13:18:16Z</time>
      </trkpt>
      <trkpt lat="46.81735" lon="-2.1116">
        <ele>2</ele>
        <time>2018-01-08T13:19:16Z</time>
      </trkpt>
      <trkpt lat="46.81731" lon="-2.1115">
        <ele>1</ele>
        <time>2018-01-08T13:20:16Z</time>
      </trkpt>
      <trkpt lat="46.81724" lon="-2.11139">
        <ele>1</ele>
        <time>2018-01-08T13:21:16Z</time>
      </trkpt>
      <trkpt lat="46.81712" lon="-2.11121">
        <ele>1</ele>
        <time>2018-01-08T13:22:16Z</time>
      </trkpt>
      <trkpt lat="46.81703" lon="-2.11109">
        <ele>1</ele>
        <time>2018-01-08T13:23:16Z</time>
      </trkpt>
      <trkpt lat="46.81686" lon="-2.11093">
        <ele>1.8</ele>
        <time>2018-01-08T13:24:16Z</time>
      </trkpt>
      <trkpt lat="46.81676" lon="-2.11076">
        <ele>1.4</ele>
        <time>2018-01-08T13:25:16Z</time>
      </trkpt>
      <trkpt lat="46.81664" lon="-2.11054">
        <ele>1.9</ele>
        <time>2018-01-08T13:26:16Z</time>
      </trkpt>
      <trkpt lat="46.81652" lon="-2.11032">
        <ele>1</ele>
        <time>2018-01-08T13:27:16Z</time>
      </trkpt>
      <trkpt lat="46.81643" lon="-2.11017">
        <ele>1</ele>
        <time>2018-01-08T13:28:16Z</time>
      </trkpt>
      <trkpt lat="46.8163" lon="-2.10997">
        <ele>1</ele>
        <time>2018-01-08T13:29:16Z</time>
      </trkpt>
      <trkpt lat="46.81623" lon="-2.10984">
        <ele>1</ele>
        <time>2018-01-08T13:30:16Z</time>
      </trkpt>
      <trkpt lat="46.81612" lon="-2.10962">
        <ele>1</ele>
        <time>2018-01-08T13:31:16Z</time>
      </trkpt>
      <trkpt lat="46.81601" lon="-2.10939">
        <ele>2</ele>
        <time>2018-01-08T13:32:16Z</time>
      </trkpt>
      <trkpt lat="46.81591" lon="-2.10913">
        <ele>2</ele>
        <time>2018-01-08T13:33:16Z</time>
      </trkpt>
      <trkpt lat="46.81581" lon="-2.10893">
        <ele>1.9</ele>
        <time>2018-01-08T13:34:16Z</time>
      </trkpt>
      <trkpt lat="46.8157" lon="-2.10878">
        <ele>1.5</ele>
        <time>2018-01-08T13:35:16Z</time>
      </trkpt>
      <trkpt lat="46.81556" lon="-2.10867">
        <ele>1.8</ele>
        <time>2018-01-08T13:36:16Z</time>
      </trkpt>
      <trkpt lat="46.8154" lon="-2.10858">
        <ele>2</ele>
        <time>2018-01-08T13:37:16Z</time>
      </trkpt>
      <trkpt lat="46.81526" lon="-2.10852">
        <ele>2</ele>
        <time>2018-01-08T13:38:16Z</time>
      </trkpt>
      <trkpt lat="46.81509" lon="-2.10843">
        <ele>2</ele>
        <time>2018-01-08T13:39:16Z</time>
      </trkpt>
      <trkpt lat="46.81495" lon="-2.10831">
        <ele>2</ele>
        <time>2018-01-08T13:40:16Z</time>
      </trkpt>
      <trkpt lat="46.81482" lon="-2.10816">
        <ele>2</ele>
        <time>2018-01-08T13:41:16Z</time>
      </trkpt>
      <trkpt lat="46.81473" lon="-2.10802">
        <ele>1.9</ele>
        <time>2018-01-08T13:42:16Z</time>
      </trkpt>
      <trkpt lat="46.81463" lon="-2.10788">
        <ele>1.5</ele>
        <time>2018-01-08T13:43:16Z</time>
      </trkpt>
      <trkpt lat="46.81452" lon="-2.10773">
        <ele>1.7</ele>
        <time>2018-01-08T13:44:16Z</time>
      </trkpt>
      <trkpt lat="46.81437" lon="-2.10757">
        <ele>1</ele>
        <time>2018-01-08T13:45:16Z</time>
      </trkpt>
      <trkpt lat="46.81425" lon="-2.10747">
        <ele>1</ele>
        <time>2018-01-08T13:46:16Z</time>
      </trkpt>
      <trkpt lat="46.81422" lon="-2.10745">
        <ele>1</ele>
        <time>2018-01-08T13:47:16Z</time>
      </trkpt>
      <trkpt lat="46.81404" lon="-2.1073">
        <ele>1</ele>
        <time>2018-01-08T13:48:16Z</time>
      </trkpt>
      <trkpt lat="46.81388" lon="-2.10717">
        <ele>1</ele>
        <time>2018-01-08T13:49:16Z</time>
      </trkpt>
      <trkpt lat="46.81369" lon="-2.10702">
        <ele>2</ele>
        <time>2018-01-08T13:50:16Z</time>
      </trkpt>
      <trkpt lat="46.81358" lon="-2.10694">
        <ele>2</ele>
        <time>2018-01-08T13:51:16Z</time>
      </trkpt>
      <trkpt lat="46.81344" lon="-2.10684">
        <ele>2</ele>
        <time>2018-01-08T13:52:16Z</time>
      </trkpt>
      <trkpt lat="46.81341" lon="-2.10681">
        <ele>2</ele>
        <time>2018-01-08T13:53:16Z</time>
      </trkpt>
      <trkpt lat="46.81321" lon="-2.10667">
        <ele>2</ele>
        <time>2018-01-08T13:54:16Z</time>
      </trkpt>
      <trkpt lat="46.81293" lon="-2.10644">
        <ele>1</ele>
        <time>2018-01-08T13:55:16Z</time>
      </trkpt>
      <trkpt lat="46.8127" lon="-2.10627">
        <ele>1</ele>
        <time>2018-01-08T13:56:16Z</time>
      </trkpt>
      <trkpt lat="46.81247" lon="-2.10609">
        <ele>1</ele>
        <time>2018-01-08T13:57:16Z</time>
      </trkpt>
      <trkpt lat="46.81226" lon="-2.10589">
        <ele>2</ele>
        <time>2018-01-08T13:58:16Z</time>
      </trkpt>
      <trkpt lat="46.81189" lon="-2.10551">
        <ele>2</ele>
        <time>2018-01-08T13:59:16Z</time>
      </trkpt>
      <trkpt lat="46.81171" lon="-2.10527">
        <ele>1</ele>
        <time>2018-01-08T14:00:16Z</time>
      </trkpt>
      <trkpt lat="46.81159" lon="-2.10507">
        <ele>1</ele>
        <time>2018-01-08T14:01:16Z</time>
      </trkpt>
      <trkpt lat="46.81142" lon="-2.10473">
        <ele>1</ele>
        <time>2018-01-08T14:02:16Z</time>
      </trkpt>
      <trkpt lat="46.81114" lon="-2.10421">
        <ele>2</ele>
        <time>2018-01-08T14:03:16Z</time>
      </trkpt>
      <trkpt lat="46.81095" lon="-2.10383">
        <ele>2</ele>
        <time>2018-01-08T14:04:16Z</time>
      </trkpt>
      <trkpt lat="46.81082" lon="-2.10346">
        <ele>2</ele>
        <time>2018-01-08T14:05:16Z</time>
      </trkpt>
      <trkpt lat="46.81071" lon="-2.10311">
        <ele>2</ele>
        <time>2018-01-08T14:06:16Z</time>
      </trkpt>
      <trkpt lat="46.81064" lon="-2.10284">
        <ele>1</ele>
        <time>2018-01-08T14:07:16Z</time>
      </trkpt>
      <trkpt lat="46.81056" lon="-2.10261">
        <ele>1</ele>
        <time>2018-01-08T14:08:16Z</time>
      </trkpt>
      <trkpt lat="46.81048" lon="-2.10241">
        <ele>1</ele>
        <time>2018-01-08T14:09:16Z</time>
      </trkpt>
      <trkpt lat="46.81034" lon="-2.10222">
        <ele>1</ele>
        <time>2018-01-08T14:10:16Z</time>
      </trkpt>
      <trkpt lat="46.81015" lon="-2.10203">
        <ele>1</ele>
        <time>2018-01-08T14:11:16Z</time>
      </trkpt>
      <trkpt lat="46.80999" lon="-2.10184">
        <ele>1</ele>
        <time>2018-01-08T14:12:16Z</time>
      </trkpt>
      <trkpt lat="46.80988" lon="-2.10167">
        <ele>1</ele>
        <time>2018-01-08T14:13:16Z</time>
      </trkpt>
      <trkpt lat="46.80973" lon="-2.10139">
        <ele>1</ele>
        <time>2018-01-08T14:14:16Z</time>
      </trkpt>
      <trkpt lat="46.80947" lon="-2.10089">
        <ele>1</ele>
        <time>2018-01-08T14:15:16Z</time>
      </trkpt>
      <trkpt lat="46.80925" lon="-2.10049">
        <ele>1</ele>
        <time>2018-01-08T14:16:16Z</time>
      </trkpt>
      <trkpt lat="46.80896" lon="-2.09992">
        <ele>2</ele>
        <time>2018-01-08T14:17:16Z</time>
      </trkpt>
      <trkpt lat="46.80885" lon="-2.09965">
        <ele>1</ele>
        <time>2018-01-08T14:18:16Z</time>
      </trkpt>
      <trkpt lat="46.80862" lon="-2.09906">
        <ele>2</ele>
        <time>2018-01-08T14:19:16Z</time>
      </trkpt>
      <trkpt lat="46.80849" lon="-2.09877">
        <ele>1.8</ele>
        <time>2018-01-08T14:20:16Z</time>
      </trkpt>
      <trkpt lat="46.80818" lon="-2.0982">
        <ele>1</ele>
        <time>2018-01-08T14:21:16Z</time>
      </trkpt>
      <trkpt lat="46.80778" lon="-2.0974">
        <ele>2</ele>
        <time>2018-01-08T14:22:16Z</time>
      </trkpt>
      <trkpt lat="46.80743" lon="-2.09668">
        <ele>1</ele>
        <time>2018-01-08T14:23:16Z</time>
      </trkpt>
      <trkpt lat="46.80716" lon="-2.09614">
        <ele>1</ele>
        <time>2018-01-08T14:24:16Z</time>
      </trkpt>
      <trkpt lat="46.80695" lon="-2.09568">
        <ele>1</ele>
        <time>2018-01-08T14:25:16Z</time>
      </trkpt>
      <trkpt lat="46.80693" lon="-2.09565">
        <ele>1</ele>
        <time>2018-01-08T14:26:16Z</time>
      </trkpt>
      <trkpt lat="46.80682" lon="-2.09549">
        <ele>1</ele>
        <time>2018-01-08T14:27:16Z</time>
      </trkpt>
      <trkpt lat="46.8066" lon="-2.09528">
        <ele>2</ele>
        <time>2018-01-08T14:28:16Z</time>
      </trkpt>
      <trkpt lat="46.80634" lon="-2.09501">
        <ele>2</ele>
        <time>2018-01-08T14:29:16Z</time>
      </trkpt>
      <trkpt lat="46.80621" lon="-2.09479">
        <ele>2</ele>
        <time>2018-01-08T14:30:16Z</time>
      </trkpt>
      <trkpt lat="46.806" lon="-2.09444">
        <ele>2</ele>
        <time>2018-01-08T14:31:16Z</time>
      </trkpt>
      <trkpt lat="46.80595" lon="-2.09435">
        <ele>2</ele>
        <time>2018-01-08T14:32:16Z</time>
      </trkpt>
      <trkpt lat="46.80595" lon="-2.09435">
        <ele>2</ele>
        <time>2018-01-08T14:33:16Z</time>
      </trkpt>
      <trkpt lat="46.80588" lon="-2.09438">
        <ele>2</ele>
        <time>2018-01-08T14:34:16Z</time>
      </trkpt>
      <trkpt lat="46.80588" lon="-2.09438">
        <ele>2</ele>
        <time>2018-01-08T14:35:16Z</time>
      </trkpt>
      <trkpt lat="46.80554" lon="-2.09372">
        <ele>2</ele>
        <time>2018-01-08T14:36:16Z</time>
      </trkpt>
      <trkpt lat="46.80519" lon="-2.09297">
        <ele>2</ele>
        <time>2018-01-08T14:37:16Z</time>
      </trkpt>
      <trkpt lat="46.80475" lon="-2.09205">
        <ele>2</ele>
        <time>2018-01-08T14:38:16Z</time>
      </trkpt>
      <trkpt lat="46.80448" lon="-2.09144">
        <ele>2</ele>
        <time>2018-01-08T14:39:16Z</time>
      </trkpt>
      <trkpt lat="46.80423" lon="-2.09072">
        <ele>2</ele>
        <time>2018-01-08T14:40:16Z</time>
      </trkpt>
      <trkpt lat="46.80408" lon="-2.09028">
        <ele>2</ele>
        <time>2018-01-08T14:41:16Z</time>
      </trkpt>
      <trkpt lat="46.80408" lon="-2.09028">
        <ele>2</ele>
        <time>2018-01-08T14:42:16Z</time>
      </trkpt>
      <trkpt lat="46.80388" lon="-2.09051">
        <ele>2</ele>
        <time>2018-01-08T14:43:16Z</time>
      </trkpt>
      <trkpt lat="46.80388" lon="-2.09051">
        <ele>2</ele>
        <time>2018-01-08T14:44:16Z</time>
      </trkpt>
      <trkpt lat="46.80312" lon="-2.088">
        <ele>2</ele>
        <time>2018-01-08T14:45:16Z</time>
      </trkpt>
      <trkpt lat="46.80235" lon="-2.0854">
        <ele>3</ele>
        <time>2018-01-08T14:46:16Z</time>
      </trkpt>
      <trkpt lat="46.80223" lon="-2.08499">
        <ele>4</ele>
        <time>2018-01-08T14:47:16Z</time>
      </trkpt>
      <trkpt lat="46.80208" lon="-2.08452">
        <ele>4</ele>
        <time>2018-01-08T14:48:16Z</time>
      </trkpt>
      <trkpt lat="46.80169" lon="-2.0832">
        <ele>4</ele>
        <time>2018-01-08T14:49:16Z</time>
      </trkpt>
      <trkpt lat="46.80118" lon="-2.08148">
        <ele>2</ele>
        <time>2018-01-08T14:50:16Z</time>
      </trkpt>
      <trkpt lat="46.80092" lon="-2.08061">
        <ele>2</ele>
        <time>2018-01-08T14:51:16Z</time>
      </trkpt>
      <trkpt lat="46.80085" lon="-2.08036">
        <ele>3</ele>
        <time>2018-01-08T14:52:16Z</time>
      </trkpt>
      <trkpt lat="46.80081" lon="-2.08024">
        <ele>3</ele>
        <time>2018-01-08T14:53:16Z</time>
      </trkpt>
      <trkpt lat="46.80073" lon="-2.07995">
        <ele>3</ele>
        <time>2018-01-08T14:54:16Z</time>
      </trkpt>
      <trkpt lat="46.8007" lon="-2.07988">
        <ele>3</ele>
        <time>2018-01-08T14:55:16Z</time>
      </trkpt>
      <trkpt lat="46.80067" lon="-2.07976">
        <ele>3</ele>
        <time>2018-01-08T14:56:16Z</time>
      </trkpt>
      <trkpt lat="46.80064" lon="-2.07964">
        <ele>3</ele>
        <time>2018-01-08T14:57:16Z</time>
      </trkpt>
      <trkpt lat="46.8006" lon="-2.07952">
        <ele>3</ele>
        <time>2018-01-08T14:58:16Z</time>
      </trkpt>
      <trkpt lat="46.80021" lon="-2.07821">
        <ele>3</ele>
        <time>2018-01-08T14:59:16Z</time>
      </trkpt>
      <trkpt lat="46.80014" lon="-2.07797">
        <ele>3</ele>
        <time>2018-01-08T15:00:16Z</time>
      </trkpt>
      <trkpt lat="46.80008" lon="-2.07775">
        <ele>3</ele>
        <time>2018-01-08T15:01:16Z</time>
      </trkpt>
      <trkpt lat="46.79984" lon="-2.07696">
        <ele>3</ele>
        <time>2018-01-08T15:02:16Z</time>
      </trkpt>
      <trkpt lat="46.79975" lon="-2.07665">
        <ele>3</ele>
        <time>2018-01-08T15:03:16Z</time>
      </trkpt>
      <trkpt lat="46.79966" lon="-2.07635">
        <ele>3</ele>
        <time>2018-01-08T15:04:16Z</time>
      </trkpt>
      <trkpt lat="46.79966" lon="-2.07635">
        <ele>3</ele>
        <time>2018-01-08T15:05:16Z</time>
      </trkpt>
      <trkpt lat="46.79953" lon="-2.0764">
        <ele>4</ele>
        <time>2018-01-08T15:06:16Z</time>
      </trkpt>
      <trkpt lat="46.79914" lon="-2.07661">
        <ele>6</ele>
        <time>2018-01-08T15:07:16Z</time>
      </trkpt>
      <trkpt lat="46.79901" lon="-2.07669">
        <ele>7</ele>
        <time>2018-01-08T15:08:16Z</time>
      </trkpt>
      <trkpt lat="46.79885" lon="-2.07682">
        <ele>8</ele>
        <time>2018-01-08T15:09:16Z</time>
      </trkpt>
      <trkpt lat="46.79865" lon="-2.07701">
        <ele>10</ele>
        <time>2018-01-08T15:10:16Z</time>
      </trkpt>
      <trkpt lat="46.79845" lon="-2.07722">
        <ele>12</ele>
        <time>2018-01-08T15:11:16Z</time>
      </trkpt>
      <trkpt lat="46.79845" lon="-2.07722">
        <ele>12</ele>
        <time>2018-01-08T15:12:16Z</time>
      </trkpt>
      <trkpt lat="46.7983" lon="-2.07677">
        <ele>11</ele>
        <time>2018-01-08T15:13:16Z</time>
      </trkpt>
      <trkpt lat="46.7983" lon="-2.07677">
        <ele>11</ele>
        <time>2018-01-08T15:14:16Z</time>
      </trkpt>
      <trkpt lat="46.79823" lon="-2.07677">
        <ele>11</ele>
        <time>2018-01-08T15:15:16Z</time>
      </trkpt>
      <trkpt lat="46.79819" lon="-2.07676">
        <ele>11</ele>
        <time>2018-01-08T15:16:16Z</time>
      </trkpt>
      <trkpt lat="46.79813" lon="-2.07674">
        <ele>12</ele>
        <time>2018-01-08T15:17:16Z</time>
      </trkpt>
      <trkpt lat="46.79778" lon="-2.07654">
        <ele>14</ele>
        <time>2018-01-08T15:18:16Z</time>
      </trkpt>
      <trkpt lat="46.7977" lon="-2.0765">
        <ele>14</ele>
        <time>2018-01-08T15:19:16Z</time>
      </trkpt>
      <trkpt lat="46.79761" lon="-2.07648">
        <ele>15</ele>
        <time>2018-01-08T15:20:16Z</time>
      </trkpt>
      <trkpt lat="46.79749" lon="-2.07646">
        <ele>15</ele>
        <time>2018-01-08T15:21:16Z</time>
      </trkpt>
      <trkpt lat="46.79735" lon="-2.07645">
        <ele>15</ele>
        <time>2018-01-08T15:22:16Z</time>
      </trkpt>
      <trkpt lat="46.79726" lon="-2.07646">
        <ele>16</ele>
        <time>2018-01-08T15:23:16Z</time>
      </trkpt>
      <trkpt lat="46.79717" lon="-2.07649">
        <ele>16</ele>
        <time>2018-01-08T15:24:16Z</time>
      </trkpt>
      <trkpt lat="46.79704" lon="-2.07654">
        <ele>16</ele>
        <time>2018-01-08T15:25:16Z</time>
      </trkpt>
      <trkpt lat="46.79665" lon="-2.07681">
        <ele>17</ele>
        <time>2018-01-08T15:26:16Z</time>
      </trkpt>
      <trkpt lat="46.7964" lon="-2.07696">
        <ele>18</ele>
        <time>2018-01-08T15:27:16Z</time>
      </trkpt>
      <trkpt lat="46.79618" lon="-2.07705">
        <ele>18</ele>
        <time>2018-01-08T15:28:16Z</time>
      </trkpt>
      <trkpt lat="46.79553" lon="-2.07723">
        <ele>17</ele>
        <time>2018-01-08T15:29:16Z</time>
      </trkpt>
      <trkpt lat="46.7951" lon="-2.07737">
        <ele>15</ele>
        <time>2018-01-08T15:30:16Z</time>
      </trkpt>
      <trkpt lat="46.79489" lon="-2.07748">
        <ele>13</ele>
        <time>2018-01-08T15:31:16Z</time>
      </trkpt>
      <trkpt lat="46.79471" lon="-2.0776">
        <ele>12</ele>
        <time>2018-01-08T15:32:16Z</time>
      </trkpt>
      <trkpt lat="46.79451" lon="-2.07781">
        <ele>11</ele>
        <time>2018-01-08T15:33:16Z</time>
      </trkpt>
      <trkpt lat="46.79418" lon="-2.07821">
        <ele>8</ele>
        <time>2018-01-08T15:34:16Z</time>
      </trkpt>
      <trkpt lat="46.79392" lon="-2.07853">
        <ele>8</ele>
        <time>2018-01-08T15:35:16Z</time>
      </trkpt>
      <trkpt lat="46.79386" lon="-2.0786">
        <ele>8</ele>
        <time>2018-01-08T15:36:16Z</time>
      </trkpt>
      <trkpt lat="46.79364" lon="-2.07886">
        <ele>8</ele>
        <time>2018-01-08T15:37:16Z</time>
      </trkpt>
      <trkpt lat="46.79332" lon="-2.07927">
        <ele>8</ele>
        <time>2018-01-08T15:38:16Z</time>
      </trkpt>
      <trkpt lat="46.79279" lon="-2.08001">
        <ele>6</ele>
        <time>2018-01-08T15:39:16Z</time>
      </trkpt>
      <trkpt lat="46.79254" lon="-2.08031">
        <ele>6</ele>
        <time>2018-01-08T15:40:16Z</time>
      </trkpt>
      <trkpt lat="46.79246" lon="-2.08039">
        <ele>6</ele>
        <time>2018-01-08T15:41:16Z</time>
      </trkpt>
      <trkpt lat="46.79243" lon="-2.08041">
        <ele>6</ele>
        <time>2018-01-08T15:42:16Z</time>
      </trkpt>
      <trkpt lat="46.79235" lon="-2.08047">
        <ele>6</ele>
        <time>2018-01-08T15:43:16Z</time>
      </trkpt>
      <trkpt lat="46.79206" lon="-2.08071">
        <ele>5</ele>
        <time>2018-01-08T15:44:16Z</time>
      </trkpt>
      <trkpt lat="46.79191" lon="-2.08085">
        <ele>5</ele>
        <time>2018-01-08T15:45:16Z</time>
      </trkpt>
      <trkpt lat="46.79181" lon="-2.08098">
        <ele>5</ele>
        <time>2018-01-08T15:46:16Z</time>
      </trkpt>
      <trkpt lat="46.79164" lon="-2.08132">
        <ele>5</ele>
        <time>2018-01-08T15:47:16Z</time>
      </trkpt>
      <trkpt lat="46.79164" lon="-2.08132">
        <ele>5</ele>
        <time>2018-01-08T15:48:16Z</time>
      </trkpt>
      <trkpt lat="46.79151" lon="-2.08159">
        <ele>4</ele>
        <time>2018-01-08T15:49:16Z</time>
      </trkpt>
      <trkpt lat="46.79082" lon="-2.08097">
        <ele>3</ele>
        <time>2018-01-08T15:50:16Z</time>
      </trkpt>
      <trkpt lat="46.79059" lon="-2.08076">
        <ele>3</ele>
        <time>2018-01-08T15:51:16Z</time>
      </trkpt>
      <trkpt lat="46.79043" lon="-2.08065">
        <ele>4</ele>
        <time>2018-01-08T15:52:16Z</time>
      </trkpt>
      <trkpt lat="46.79027" lon="-2.08054">
        <ele>4</ele>
        <time>2018-01-08T15:53:16Z</time>
      </trkpt>
      <trkpt lat="46.7901" lon="-2.08045">
        <ele>4</ele>
        <time>2018-01-08T15:54:16Z</time>
      </trkpt>
      <trkpt lat="46.7899" lon="-2.08037">
        <ele>4</ele>
        <time>2018-01-08T15:55:16Z</time>
      </trkpt>
      <trkpt lat="46.7899" lon="-2.08037">
        <ele>4</ele>
        <time>2018-01-08T15:56:16Z</time>
      </trkpt>
      <trkpt lat="46.78988" lon="-2.08036">
        <ele>4</ele>
        <time>2018-01-08T15:57:16Z</time>
      </trkpt>
      <trkpt lat="46.78982" lon="-2.08033">
        <ele>4</ele>
        <time>2018-01-08T15:58:16Z</time>
      </trkpt>
      <trkpt lat="46.78979" lon="-2.08031">
        <ele>4</ele>
        <time>2018-01-08T15:59:16Z</time>
      </trkpt>
      <trkpt lat="46.7896" lon="-2.08029">
        <ele>4</ele>
        <time>2018-01-08T16:00:16Z</time>
      </trkpt>
      <trkpt lat="46.78943" lon="-2.08027">
        <ele>5</ele>
        <time>2018-01-08T16:01:16Z</time>
      </trkpt>
      <trkpt lat="46.78929" lon="-2.08027">
        <ele>5</ele>
        <time>2018-01-08T16:02:16Z</time>
      </trkpt>
      <trkpt lat="46.78914" lon="-2.08029">
        <ele>5</ele>
        <time>2018-01-08T16:03:16Z</time>
      </trkpt>
      <trkpt lat="46.78896" lon="-2.08033">
        <ele>5</ele>
        <time>2018-01-08T16:04:16Z</time>
      </trkpt>
      <trkpt lat="46.78847" lon="-2.0804">
        <ele>5</ele>
        <time>2018-01-08T16:05:16Z</time>
      </trkpt>
      <trkpt lat="46.78811" lon="-2.08046">
        <ele>6</ele>
        <time>2018-01-08T16:06:16Z</time>
      </trkpt>
      <trkpt lat="46.78792" lon="-2.08048">
        <ele>7</ele>
        <time>2018-01-08T16:07:16Z</time>
      </trkpt>
      <trkpt lat="46.78773" lon="-2.08046">
        <ele>8</ele>
        <time>2018-01-08T16:08:16Z</time>
      </trkpt>
      <trkpt lat="46.78756" lon="-2.08042">
        <ele>9</ele>
        <time>2018-01-08T16:09:16Z</time>
      </trkpt>
      <trkpt lat="46.78739" lon="-2.08035">
        <ele>9</ele>
        <time>2018-01-08T16:10:16Z</time>
      </trkpt>
      <trkpt lat="46.78735" lon="-2.08032">
        <ele>9</ele>
        <time>2018-01-08T16:11:16Z</time>
      </trkpt>
      <trkpt lat="46.78717" lon="-2.0802">
        <ele>9</ele>
        <time>2018-01-08T16:12:16Z</time>
      </trkpt>
      <trkpt lat="46.78708" lon="-2.08011">
        <ele>8</ele>
        <time>2018-01-08T16:13:16Z</time>
      </trkpt>
      <trkpt lat="46.78706" lon="-2.08009">
        <ele>8</ele>
        <time>2018-01-08T16:14:16Z</time>
      </trkpt>
      <trkpt lat="46.78693" lon="-2.07993">
        <ele>8</ele>
        <time>2018-01-08T16:15:16Z</time>
      </trkpt>
      <trkpt lat="46.78681" lon="-2.07974">
        <ele>8</ele>
        <time>2018-01-08T16:16:16Z</time>
      </trkpt>
      <trkpt lat="46.78671" lon="-2.07954">
        <ele>7</ele>
        <time>2018-01-08T16:17:16Z</time>
      </trkpt>
      <trkpt lat="46.78652" lon="-2.07904">
        <ele>6</ele>
        <time>2018-01-08T16:18:16Z</time>
      </trkpt>
      <trkpt lat="46.78652" lon="-2.07904">
        <ele>6</ele>
        <time>2018-01-08T16:19:16Z</time>
      </trkpt>
      <trkpt lat="46.78651" lon="-2.07904">
        <ele>6</ele>
        <time>2018-01-08T16:20:16Z</time>
      </trkpt>
      <trkpt lat="46.7865" lon="-2.07904">
        <ele>6</ele>
        <time>2018-01-08T16:21:16Z</time>
      </trkpt>
      <trkpt lat="46.78649" lon="-2.07904">
        <ele>5</ele>
        <time>2018-01-08T16:22:16Z</time>
      </trkpt>
      <trkpt lat="46.78648" lon="-2.07904">
        <ele>5</ele>
        <time>2018-01-08T16:23:16Z</time>
      </trkpt>
      <trkpt lat="46.78648" lon="-2.07903">
        <ele>5</ele>
        <time>2018-01-08T16:24:16Z</time>
      </trkpt>
      <trkpt lat="46.78647" lon="-2.07903">
        <ele>5</ele>
        <time>2018-01-08T16:25:16Z</time>
      </trkpt>
      <trkpt lat="46.78647" lon="-2.07902">
        <ele>5</ele>
        <time>2018-01-08T16:26:16Z</time>
      </trkpt>
      <trkpt lat="46.78646" lon="-2.07902">
        <ele>5</ele>
        <time>2018-01-08T16:27:16Z</time>
      </trkpt>
      <trkpt lat="46.78646" lon="-2.07901">
        <ele>5</ele>
        <time>2018-01-08T16:28:16Z</time>
      </trkpt>
      <trkpt lat="46.78646" lon="-2.079">
        <ele>5</ele>
        <time>2018-01-08T16:29:16Z</time>
      </trkpt>
      <trkpt lat="46.78645" lon="-2.079">
        <ele>5</ele>
        <time>2018-01-08T16:30:16Z</time>
      </trkpt>
      <trkpt lat="46.78645" lon="-2.07899">
        <ele>5</ele>
        <time>2018-01-08T16:31:16Z</time>
      </trkpt>
      <trkpt lat="46.78645" lon="-2.07898">
        <ele>5</ele>
        <time>2018-01-08T16:32:16Z</time>
      </trkpt>
      <trkpt lat="46.78644" lon="-2.07897">
        <ele>5</ele>
        <time>2018-01-08T16:33:16Z</time>
      </trkpt>
      <trkpt lat="46.78644" lon="-2.07896">
        <ele>5</ele>
        <time>2018-01-08T16:34:16Z</time>
      </trkpt>
      <trkpt lat="46.78644" lon="-2.07895">
        <ele>5</ele>
        <time>2018-01-08T16:35:16Z</time>
      </trkpt>
      <trkpt lat="46.78644" lon="-2.07894">
        <ele>5</ele>
        <time>2018-01-08T16:36:16Z</time>
      </trkpt>
      <trkpt lat="46.78644" lon="-2.07893">
        <ele>5</ele>
        <time>2018-01-08T16:37:16Z</time>
      </trkpt>
      <trkpt lat="46.78644" lon="-2.07892">
        <ele>5</ele>
        <time>2018-01-08T16:38:16Z</time>
      </trkpt>
      <trkpt lat="46.78645" lon="-2.07891">
        <ele>5</ele>
        <time>2018-01-08T16:39:16Z</time>
      </trkpt>
      <trkpt lat="46.78645" lon="-2.0789">
        <ele>5</ele>
        <time>2018-01-08T16:40:16Z</time>
      </trkpt>
      <trkpt lat="46.78645" lon="-2.07889">
        <ele>5</ele>
        <time>2018-01-08T16:41:16Z</time>
      </trkpt>
      <trkpt lat="46.78646" lon="-2.07889">
        <ele>5</ele>
        <time>2018-01-08T16:42:16Z</time>
      </trkpt>
      <trkpt lat="46.78646" lon="-2.07888">
        <ele>5</ele>
        <time>2018-01-08T16:43:16Z</time>
      </trkpt>
      <trkpt lat="46.78646" lon="-2.07887">
        <ele>5</ele>
        <time>2018-01-08T16:44:16Z</time>
      </trkpt>
      <trkpt lat="46.78647" lon="-2.07887">
        <ele>5</ele>
        <time>2018-01-08T16:45:16Z</time>
      </trkpt>
      <trkpt lat="46.78647" lon="-2.07886">
        <ele>5</ele>
        <time>2018-01-08T16:46:16Z</time>
      </trkpt>
      <trkpt lat="46.78648" lon="-2.07886">
        <ele>5</ele>
        <time>2018-01-08T16:47:16Z</time>
      </trkpt>
      <trkpt lat="46.78648" lon="-2.07885">
        <ele>5</ele>
        <time>2018-01-08T16:48:16Z</time>
      </trkpt>
      <trkpt lat="46.78649" lon="-2.07885">
        <ele>5</ele>
        <time>2018-01-08T16:49:16Z</time>
      </trkpt>
      <trkpt lat="46.78648" lon="-2.07877">
        <ele>5</ele>
        <time>2018-01-08T16:50:16Z</time>
      </trkpt>
      <trkpt lat="46.78645" lon="-2.07867">
        <ele>5</ele>
        <time>2018-01-08T16:51:16Z</time>
      </trkpt>
      <trkpt lat="46.78643" lon="-2.07859">
        <ele>5</ele>
        <time>2018-01-08T16:52:16Z</time>
      </trkpt>
      <trkpt lat="46.7855" lon="-2.07645">
        <ele>7</ele>
        <time>2018-01-08T16:53:16Z</time>
      </trkpt>
      <trkpt lat="46.78547" lon="-2.0764">
        <ele>7</ele>
        <time>2018-01-08T16:54:16Z</time>
      </trkpt>
      <trkpt lat="46.78542" lon="-2.07632">
        <ele>7</ele>
        <time>2018-01-08T16:55:16Z</time>
      </trkpt>
      <trkpt lat="46.78542" lon="-2.07632">
        <ele>7</ele>
        <time>2018-01-08T16:56:16Z</time>
      </trkpt>
      <trkpt lat="46.7854" lon="-2.07634">
        <ele>7</ele>
        <time>2018-01-08T16:57:16Z</time>
      </trkpt>
      <trkpt lat="46.78539" lon="-2.07635">
        <ele>7</ele>
        <time>2018-01-08T16:58:16Z</time>
      </trkpt>
      <trkpt lat="46.78536" lon="-2.07635">
        <ele>6</ele>
        <time>2018-01-08T16:59:16Z</time>
      </trkpt>
      <trkpt lat="46.78533" lon="-2.07634">
        <ele>6</ele>
        <time>2018-01-08T17:00:16Z</time>
      </trkpt>
      <trkpt lat="46.78532" lon="-2.07632">
        <ele>6</ele>
        <time>2018-01-08T17:01:16Z</time>
      </trkpt>
      <trkpt lat="46.78531" lon="-2.07631">
        <ele>6</ele>
        <time>2018-01-08T17:02:16Z</time>
      </trkpt>
      <trkpt lat="46.7853" lon="-2.07627">
        <ele>6</ele>
        <time>2018-01-08T17:03:16Z</time>
      </trkpt>
      <trkpt lat="46.78529" lon="-2.07624">
        <ele>6</ele>
        <time>2018-01-08T17:04:16Z</time>
      </trkpt>
      <trkpt lat="46.7853" lon="-2.07621">
        <ele>7</ele>
        <time>2018-01-08T17:05:16Z</time>
      </trkpt>
      <trkpt lat="46.78526" lon="-2.07615">
        <ele>7</ele>
        <time>2018-01-08T17:06:16Z</time>
      </trkpt>
      <trkpt lat="46.78516" lon="-2.07594">
        <ele>7</ele>
        <time>2018-01-08T17:07:16Z</time>
      </trkpt>
      <trkpt lat="46.78514" lon="-2.07589">
        <ele>8</ele>
        <time>2018-01-08T17:08:16Z</time>
      </trkpt>
      <trkpt lat="46.78508" lon="-2.07572">
        <ele>8</ele>
        <time>2018-01-08T17:09:16Z</time>
      </trkpt>
      <trkpt lat="46.78507" lon="-2.07571">
        <ele>8</ele>
        <time>2018-01-08T17:10:16Z</time>
      </trkpt>
      <trkpt lat="46.78503" lon="-2.07565">
        <ele>8</ele>
        <time>2018-01-08T17:11:16Z</time>
      </trkpt>
      <trkpt lat="46.785" lon="-2.0756">
        <ele>6</ele>
        <time>2018-01-08T17:12:16Z</time>
      </trkpt>
      <trkpt lat="46.78486" lon="-2.07526">
        <ele>6</ele>
        <time>2018-01-08T17:13:16Z</time>
      </trkpt>
      <trkpt lat="46.78483" lon="-2.07518">
        <ele>6</ele>
        <time>2018-01-08T17:14:16Z</time>
      </trkpt>
      <trkpt lat="46.7848" lon="-2.07506">
        <ele>6</ele>
        <time>2018-01-08T17:15:16Z</time>
      </trkpt>
      <trkpt lat="46.78478" lon="-2.07495">
        <ele>7</ele>
        <time>2018-01-08T17:16:16Z</time>
      </trkpt>
      <trkpt lat="46.78478" lon="-2.07495">
        <ele>7</ele>
        <time>2018-01-08T17:17:16Z</time>
      </trkpt>
      <trkpt lat="46.78476" lon="-2.07492">
        <ele>7</ele>
        <time>2018-01-08T17:18:16Z</time>
      </trkpt>
      <trkpt lat="46.78474" lon="-2.07489">
        <ele>7</ele>
        <time>2018-01-08T17:19:16Z</time>
      </trkpt>
      <trkpt lat="46.78469" lon="-2.07477">
        <ele>7</ele>
        <time>2018-01-08T17:20:16Z</time>
      </trkpt>
      <trkpt lat="46.78461" lon="-2.07457">
        <ele>7</ele>
        <time>2018-01-08T17:21:16Z</time>
      </trkpt>
      <trkpt lat="46.78447" lon="-2.07424">
        <ele>7</ele>
        <time>2018-01-08T17:22:16Z</time>
      </trkpt>
      <trkpt lat="46.78446" lon="-2.0742">
        <ele>7</ele>
        <time>2018-01-08T17:23:16Z</time>
      </trkpt>
      <trkpt lat="46.78446" lon="-2.07416">
        <ele>5</ele>
        <time>2018-01-08T17:24:16Z</time>
      </trkpt>
      <trkpt lat="46.78446" lon="-2.07411">
        <ele>5</ele>
        <time>2018-01-08T17:25:16Z</time>
      </trkpt>
      <trkpt lat="46.78446" lon="-2.07411">
        <ele>5</ele>
        <time>2018-01-08T17:26:16Z</time>
      </trkpt>
      <trkpt lat="46.78443" lon="-2.0741">
        <ele>5</ele>
        <time>2018-01-08T17:27:16Z</time>
      </trkpt>
      <trkpt lat="46.78442" lon="-2.07409">
        <ele>5</ele>
        <time>2018-01-08T17:28:16Z</time>
      </trkpt>
      <trkpt lat="46.78441" lon="-2.07405">
        <ele>5</ele>
        <time>2018-01-08T17:29:16Z</time>
      </trkpt>
      <trkpt lat="46.7844" lon="-2.07403">
        <ele>5</ele>
        <time>2018-01-08T17:30:16Z</time>
      </trkpt>
      <trkpt lat="46.7844" lon="-2.07401">
        <ele>5</ele>
        <time>2018-01-08T17:31:16Z</time>
      </trkpt>
      <trkpt lat="46.7844" lon="-2.074">
        <ele>5</ele>
        <time>2018-01-08T17:32:16Z</time>
      </trkpt>
      <trkpt lat="46.78443" lon="-2.07395">
        <ele>5</ele>
        <time>2018-01-08T17:33:16Z</time>
      </trkpt>
      <trkpt lat="46.78446" lon="-2.07393">
        <ele>6</ele>
        <time>2018-01-08T17:34:16Z</time>
      </trkpt>
      <trkpt lat="46.78445" lon="-2.07389">
        <ele>6</ele>
        <time>2018-01-08T17:35:16Z</time>
      </trkpt>
      <trkpt lat="46.78443" lon="-2.07383">
        <ele>6</ele>
        <time>2018-01-08T17:36:16Z</time>
      </trkpt>
      <trkpt lat="46.78438" lon="-2.07372">
        <ele>6</ele>
        <time>2018-01-08T17:37:16Z</time>
      </trkpt>
      <trkpt lat="46.78429" lon="-2.07353">
        <ele>6</ele>
        <time>2018-01-08T17:38:16Z</time>
      </trkpt>
      <trkpt lat="46.78392" lon="-2.07277">
        <ele>7</ele>
        <time>2018-01-08T17:39:16Z</time>
      </trkpt>
      <trkpt lat="46.78355" lon="-2.07189">
        <ele>7</ele>
        <time>2018-01-08T17:40:16Z</time>
      </trkpt>
      <trkpt lat="46.78354" lon="-2.0719">
        <ele>7</ele>
        <time>2018-01-08T17:41:16Z</time>
      </trkpt>
      <trkpt lat="46.78351" lon="-2.0719">
        <ele>7</ele>
        <time>2018-01-08T17:42:16Z</time>
      </trkpt>
      <trkpt lat="46.78349" lon="-2.0719">
        <ele>7</ele>
        <time>2018-01-08T17:43:16Z</time>
      </trkpt>
      <trkpt lat="46.78347" lon="-2.07189">
        <ele>7</ele>
        <time>2018-01-08T17:44:16Z</time>
      </trkpt>
      <trkpt lat="46.78345" lon="-2.07188">
        <ele>7</ele>
        <time>2018-01-08T17:45:16Z</time>
      </trkpt>
      <trkpt lat="46.78344" lon="-2.07186">
        <ele>7</ele>
        <time>2018-01-08T17:46:16Z</time>
      </trkpt>
      <trkpt lat="46.78343" lon="-2.07182">
        <ele>7</ele>
        <time>2018-01-08T17:47:16Z</time>
      </trkpt>
      <trkpt lat="46.78342" lon="-2.07178">
        <ele>7</ele>
        <time>2018-01-08T17:48:16Z</time>
      </trkpt>
      <trkpt lat="46.78342" lon="-2.07175">
        <ele>7</ele>
        <time>2018-01-08T17:49:16Z</time>
      </trkpt>
      <trkpt lat="46.78343" lon="-2.07172">
        <ele>7</ele>
        <time>2018-01-08T17:50:16Z</time>
      </trkpt>
      <trkpt lat="46.78344" lon="-2.07169">
        <ele>7</ele>
        <time>2018-01-08T17:51:16Z</time>
      </trkpt>
      <trkpt lat="46.78346" lon="-2.07167">
        <ele>7</ele>
        <time>2018-01-08T17:52:16Z</time>
      </trkpt>
      <trkpt lat="46.78316" lon="-2.07111">
        <ele>6</ele>
        <time>2018-01-08T17:53:16Z</time>
      </trkpt>
      <trkpt lat="46.78294" lon="-2.07068">
        <ele>6</ele>
        <time>2018-01-08T17:54:16Z</time>
      </trkpt>
      <trkpt lat="46.78182" lon="-2.06864">
        <ele>6</ele>
        <time>2018-01-08T17:55:16Z</time>
      </trkpt>
      <trkpt lat="46.78178" lon="-2.06861">
        <ele>6</ele>
        <time>2018-01-08T17:56:16Z</time>
      </trkpt>
      <trkpt lat="46.78171" lon="-2.06848">
        <ele>6</ele>
        <time>2018-01-08T17:57:16Z</time>
      </trkpt>
      <trkpt lat="46.78166" lon="-2.06838">
        <ele>7</ele>
        <time>2018-01-08T17:58:16Z</time>
      </trkpt>
      <trkpt lat="46.78163" lon="-2.06831">
        <ele>7</ele>
        <time>2018-01-08T17:59:16Z</time>
      </trkpt>
      <trkpt lat="46.78162" lon="-2.06825">
        <ele>7</ele>
        <time>2018-01-08T18:00:16Z</time>
      </trkpt>
      <trkpt lat="46.78159" lon="-2.06816">
        <ele>7</ele>
        <time>2018-01-08T18:01:16Z</time>
      </trkpt>
      <trkpt lat="46.78159" lon="-2.06816">
        <ele>7</ele>
        <time>2018-01-08T18:02:16Z</time>
      </trkpt>
      <trkpt lat="46.78156" lon="-2.06815">
        <ele>6</ele>
        <time>2018-01-08T18:03:16Z</time>
      </trkpt>
      <trkpt lat="46.78153" lon="-2.06813">
        <ele>6</ele>
        <time>2018-01-08T18:04:16Z</time>
      </trkpt>
      <trkpt lat="46.78151" lon="-2.0681">
        <ele>6</ele>
        <time>2018-01-08T18:05:16Z</time>
      </trkpt>
      <trkpt lat="46.7815" lon="-2.06808">
        <ele>6</ele>
        <time>2018-01-08T18:06:16Z</time>
      </trkpt>
      <trkpt lat="46.7815" lon="-2.06806">
        <ele>6</ele>
        <time>2018-01-08T18:07:16Z</time>
      </trkpt>
      <trkpt lat="46.78149" lon="-2.06804">
        <ele>6</ele>
        <time>2018-01-08T18:08:16Z</time>
      </trkpt>
      <trkpt lat="46.78149" lon="-2.06798">
        <ele>6</ele>
        <time>2018-01-08T18:09:16Z</time>
      </trkpt>
      <trkpt lat="46.78145" lon="-2.06792">
        <ele>6</ele>
        <time>2018-01-08T18:10:16Z</time>
      </trkpt>
      <trkpt lat="46.78142" lon="-2.06787">
        <ele>6</ele>
        <time>2018-01-08T18:11:16Z</time>
      </trkpt>
      <trkpt lat="46.78139" lon="-2.06783">
        <ele>6</ele>
        <time>2018-01-08T18:12:16Z</time>
      </trkpt>
      <trkpt lat="46.78137" lon="-2.06777">
        <ele>6</ele>
        <time>2018-01-08T18:13:16Z</time>
      </trkpt>
      <trkpt lat="46.78131" lon="-2.0677">
        <ele>6</ele>
        <time>2018-01-08T18:14:16Z</time>
      </trkpt>
      <trkpt lat="46.78126" lon="-2.06763">
        <ele>6</ele>
        <time>2018-01-08T18:15:16Z</time>
      </trkpt>
      <trkpt lat="46.78121" lon="-2.06757">
        <ele>6</ele>
        <time>2018-01-08T18:16:16Z</time>
      </trkpt>
      <trkpt lat="46.78112" lon="-2.06743">
        <ele>7</ele>
        <time>2018-01-08T18:17:16Z</time>
      </trkpt>
      <trkpt lat="46.7811" lon="-2.0674">
        <ele>7</ele>
        <time>2018-01-08T18:18:16Z</time>
      </trkpt>
      <trkpt lat="46.78088" lon="-2.06704">
        <ele>11</ele>
        <time>2018-01-08T18:19:16Z</time>
      </trkpt>
      <trkpt lat="46.78074" lon="-2.06682">
        <ele>12</ele>
        <time>2018-01-08T18:20:16Z</time>
      </trkpt>
      <trkpt lat="46.78072" lon="-2.06678">
        <ele>12</ele>
        <time>2018-01-08T18:21:16Z</time>
      </trkpt>
      <trkpt lat="46.78069" lon="-2.0667">
        <ele>13</ele>
        <time>2018-01-08T18:22:16Z</time>
      </trkpt>
      <trkpt lat="46.78064" lon="-2.06651">
        <ele>13</ele>
        <time>2018-01-08T18:23:16Z</time>
      </trkpt>
      <trkpt lat="46.78061" lon="-2.0664">
        <ele>13</ele>
        <time>2018-01-08T18:24:16Z</time>
      </trkpt>
      <trkpt lat="46.78059" lon="-2.06635">
        <ele>12</ele>
        <time>2018-01-08T18:25:16Z</time>
      </trkpt>
      <trkpt lat="46.78028" lon="-2.06576">
        <ele>11</ele>
        <time>2018-01-08T18:26:16Z</time>
      </trkpt>
      <trkpt lat="46.78014" lon="-2.06553">
        <ele>12</ele>
        <time>2018-01-08T18:27:16Z</time>
      </trkpt>
      <trkpt lat="46.77986" lon="-2.06521">
        <ele>13</ele>
        <time>2018-01-08T18:28:16Z</time>
      </trkpt>
      <trkpt lat="46.77978" lon="-2.06513">
        <ele>13</ele>
        <time>2018-01-08T18:29:16Z</time>
      </trkpt>
      <trkpt lat="46.77971" lon="-2.06505">
        <ele>13</ele>
        <time>2018-01-08T18:30:16Z</time>
      </trkpt>
      <trkpt lat="46.77961" lon="-2.06489">
        <ele>12</ele>
        <time>2018-01-08T18:31:16Z</time>
      </trkpt>
      <trkpt lat="46.77957" lon="-2.0648">
        <ele>12</ele>
        <time>2018-01-08T18:32:16Z</time>
      </trkpt>
      <trkpt lat="46.77954" lon="-2.06467">
        <ele>11</ele>
        <time>2018-01-08T18:33:16Z</time>
      </trkpt>
      <trkpt lat="46.77952" lon="-2.0646">
        <ele>11</ele>
        <time>2018-01-08T18:34:16Z</time>
      </trkpt>
      <trkpt lat="46.77951" lon="-2.0645">
        <ele>11</ele>
        <time>2018-01-08T18:35:16Z</time>
      </trkpt>
      <trkpt lat="46.77951" lon="-2.06435">
        <ele>11</ele>
        <time>2018-01-08T18:36:16Z</time>
      </trkpt>
      <trkpt lat="46.77949" lon="-2.06414">
        <ele>11</ele>
        <time>2018-01-08T18:37:16Z</time>
      </trkpt>
      <trkpt lat="46.77948" lon="-2.06406">
        <ele>10</ele>
        <time>2018-01-08T18:38:16Z</time>
      </trkpt>
      <trkpt lat="46.77947" lon="-2.06401">
        <ele>10</ele>
        <time>2018-01-08T18:39:16Z</time>
      </trkpt>
      <trkpt lat="46.77943" lon="-2.06391">
        <ele>10</ele>
        <time>2018-01-08T18:40:16Z</time>
      </trkpt>
      <trkpt lat="46.77943" lon="-2.06391">
        <ele>10</ele>
        <time>2018-01-08T18:41:16Z</time>
      </trkpt>
      <trkpt lat="46.77942" lon="-2.06391">
        <ele>10</ele>
        <time>2018-01-08T18:42:16Z</time>
      </trkpt>
      <trkpt lat="46.77941" lon="-2.06392">
        <ele>10</ele>
        <time>2018-01-08T18:43:16Z</time>
      </trkpt>
      <trkpt lat="46.7794" lon="-2.06392">
        <ele>10</ele>
        <time>2018-01-08T18:44:16Z</time>
      </trkpt>
      <trkpt lat="46.77939" lon="-2.06392">
        <ele>10</ele>
        <time>2018-01-08T18:45:16Z</time>
      </trkpt>
      <trkpt lat="46.77938" lon="-2.06392">
        <ele>10</ele>
        <time>2018-01-08T18:46:16Z</time>
      </trkpt>
      <trkpt lat="46.77937" lon="-2.06392">
        <ele>10</ele>
        <time>2018-01-08T18:47:16Z</time>
      </trkpt>
      <trkpt lat="46.77936" lon="-2.06392">
        <ele>10</ele>
        <time>2018-01-08T18:48:16Z</time>
      </trkpt>
      <trkpt lat="46.77936" lon="-2.06391">
        <ele>10</ele>
        <time>2018-01-08T18:49:16Z</time>
      </trkpt>
      <trkpt lat="46.77935" lon="-2.06391">
        <ele>10</ele>
        <time>2018-01-08T18:50:16Z</time>
      </trkpt>
      <trkpt lat="46.77935" lon="-2.0639">
        <ele>10</ele>
        <time>2018-01-08T18:51:16Z</time>
      </trkpt>
      <trkpt lat="46.77934" lon="-2.0639">
        <ele>10</ele>
        <time>2018-01-08T18:52:16Z</time>
      </trkpt>
      <trkpt lat="46.77934" lon="-2.06389">
        <ele>10</ele>
        <time>2018-01-08T18:53:16Z</time>
      </trkpt>
      <trkpt lat="46.77933" lon="-2.06389">
        <ele>10</ele>
        <time>2018-01-08T18:54:16Z</time>
      </trkpt>
      <trkpt lat="46.77933" lon="-2.06388">
        <ele>10</ele>
        <time>2018-01-08T18:55:16Z</time>
      </trkpt>
      <trkpt lat="46.77932" lon="-2.06387">
        <ele>10</ele>
        <time>2018-01-08T18:56:16Z</time>
      </trkpt>
      <trkpt lat="46.77932" lon="-2.06386">
        <ele>10</ele>
        <time>2018-01-08T18:57:16Z</time>
      </trkpt>
      <trkpt lat="46.77932" lon="-2.06385">
        <ele>10</ele>
        <time>2018-01-08T18:58:16Z</time>
      </trkpt>
      <trkpt lat="46.77932" lon="-2.06384">
        <ele>10</ele>
        <time>2018-01-08T18:59:16Z</time>
      </trkpt>
      <trkpt lat="46.77932" lon="-2.06383">
        <ele>10</ele>
        <time>2018-01-08T19:00:16Z</time>
      </trkpt>
      <trkpt lat="46.77931" lon="-2.06382">
        <ele>10</ele>
        <time>2018-01-08T19:01:16Z</time>
      </trkpt>
      <trkpt lat="46.77931" lon="-2.06381">
        <ele>10</ele>
        <time>2018-01-08T19:02:16Z</time>
      </trkpt>
      <trkpt lat="46.77932" lon="-2.06381">
        <ele>10</ele>
        <time>2018-01-08T19:03:16Z</time>
      </trkpt>
      <trkpt lat="46.77932" lon="-2.0638">
        <ele>10</ele>
        <time>2018-01-08T19:04:16Z</time>
      </trkpt>
      <trkpt lat="46.77932" lon="-2.06379">
        <ele>10</ele>
        <time>2018-01-08T19:05:16Z</time>
      </trkpt>
      <trkpt lat="46.77932" lon="-2.06378">
        <ele>10</ele>
        <time>2018-01-08T19:06:16Z</time>
      </trkpt>
      <trkpt lat="46.77932" lon="-2.06377">
        <ele>10</ele>
        <time>2018-01-08T19:07:16Z</time>
      </trkpt>
      <trkpt lat="46.77933" lon="-2.06376">
        <ele>10</ele>
        <time>2018-01-08T19:08:16Z</time>
      </trkpt>
      <trkpt lat="46.77933" lon="-2.06375">
        <ele>10</ele>
        <time>2018-01-08T19:09:16Z</time>
      </trkpt>
      <trkpt lat="46.77926" lon="-2.06366">
        <ele>9</ele>
        <time>2018-01-08T19:10:16Z</time>
      </trkpt>
      <trkpt lat="46.7792" lon="-2.06361">
        <ele>9</ele>
        <time>2018-01-08T19:11:16Z</time>
      </trkpt>
      <trkpt lat="46.77912" lon="-2.06356">
        <ele>9</ele>
        <time>2018-01-08T19:12:16Z</time>
      </trkpt>
      <trkpt lat="46.77894" lon="-2.06349">
        <ele>8</ele>
        <time>2018-01-08T19:13:16Z</time>
      </trkpt>
      <trkpt lat="46.7789" lon="-2.06347">
        <ele>8</ele>
        <time>2018-01-08T19:14:16Z</time>
      </trkpt>
      <trkpt lat="46.77885" lon="-2.06342">
        <ele>8</ele>
        <time>2018-01-08T19:15:16Z</time>
      </trkpt>
      <trkpt lat="46.77879" lon="-2.06338">
        <ele>8</ele>
        <time>2018-01-08T19:16:16Z</time>
      </trkpt>
      <trkpt lat="46.77876" lon="-2.06335">
        <ele>8</ele>
        <time>2018-01-08T19:17:16Z</time>
      </trkpt>
      <trkpt lat="46.77872" lon="-2.06329">
        <ele>8</ele>
        <time>2018-01-08T19:18:16Z</time>
      </trkpt>
      <trkpt lat="46.7787" lon="-2.06326">
        <ele>8</ele>
        <time>2018-01-08T19:19:16Z</time>
      </trkpt>
      <trkpt lat="46.77823" lon="-2.06245">
        <ele>10</ele>
        <time>2018-01-08T19:20:16Z</time>
      </trkpt>
      <trkpt lat="46.77806" lon="-2.0623">
        <ele>9</ele>
        <time>2018-01-08T19:21:16Z</time>
      </trkpt>
      <trkpt lat="46.77797" lon="-2.06223">
        <ele>8</ele>
        <time>2018-01-08T19:22:16Z</time>
      </trkpt>
      <trkpt lat="46.77797" lon="-2.06223">
        <ele>8</ele>
        <time>2018-01-08T19:23:16Z</time>
      </trkpt>
      <trkpt lat="46.77796" lon="-2.06224">
        <ele>8</ele>
        <time>2018-01-08T19:24:16Z</time>
      </trkpt>
      <trkpt lat="46.77795" lon="-2.06224">
        <ele>8</ele>
        <time>2018-01-08T19:25:16Z</time>
      </trkpt>
      <trkpt lat="46.77794" lon="-2.06224">
        <ele>8</ele>
        <time>2018-01-08T19:26:16Z</time>
      </trkpt>
      <trkpt lat="46.77793" lon="-2.06224">
        <ele>8</ele>
        <time>2018-01-08T19:27:16Z</time>
      </trkpt>
      <trkpt lat="46.77792" lon="-2.06224">
        <ele>8</ele>
        <time>2018-01-08T19:28:16Z</time>
      </trkpt>
      <trkpt lat="46.77791" lon="-2.06224">
        <ele>8</ele>
        <time>2018-01-08T19:29:16Z</time>
      </trkpt>
      <trkpt lat="46.7779" lon="-2.06223">
        <ele>8</ele>
        <time>2018-01-08T19:30:16Z</time>
      </trkpt>
      <trkpt lat="46.77789" lon="-2.06223">
        <ele>8</ele>
        <time>2018-01-08T19:31:16Z</time>
      </trkpt>
      <trkpt lat="46.77789" lon="-2.06222">
        <ele>8</ele>
        <time>2018-01-08T19:32:16Z</time>
      </trkpt>
      <trkpt lat="46.77788" lon="-2.06222">
        <ele>8</ele>
        <time>2018-01-08T19:33:16Z</time>
      </trkpt>
      <trkpt lat="46.77788" lon="-2.06221">
        <ele>8</ele>
        <time>2018-01-08T19:34:16Z</time>
      </trkpt>
      <trkpt lat="46.77787" lon="-2.06221">
        <ele>8</ele>
        <time>2018-01-08T19:35:16Z</time>
      </trkpt>
      <trkpt lat="46.77787" lon="-2.0622">
        <ele>8</ele>
        <time>2018-01-08T19:36:16Z</time>
      </trkpt>
      <trkpt lat="46.77787" lon="-2.06219">
        <ele>8</ele>
        <time>2018-01-08T19:37:16Z</time>
      </trkpt>
      <trkpt lat="46.77786" lon="-2.06219">
        <ele>8</ele>
        <time>2018-01-08T19:38:16Z</time>
      </trkpt>
      <trkpt lat="46.77786" lon="-2.06218">
        <ele>8</ele>
        <time>2018-01-08T19:39:16Z</time>
      </trkpt>
      <trkpt lat="46.77786" lon="-2.06217">
        <ele>8</ele>
        <time>2018-01-08T19:40:16Z</time>
      </trkpt>
      <trkpt lat="46.77785" lon="-2.06216">
        <ele>8</ele>
        <time>2018-01-08T19:41:16Z</time>
      </trkpt>
      <trkpt lat="46.77785" lon="-2.06215">
        <ele>8</ele>
        <time>2018-01-08T19:42:16Z</time>
      </trkpt>
      <trkpt lat="46.77785" lon="-2.06214">
        <ele>8</ele>
        <time>2018-01-08T19:43:16Z</time>
      </trkpt>
      <trkpt lat="46.77785" lon="-2.06213">
        <ele>8</ele>
        <time>2018-01-08T19:44:16Z</time>
      </trkpt>
      <trkpt lat="46.77785" lon="-2.06212">
        <ele>8</ele>
        <time>2018-01-08T19:45:16Z</time>
      </trkpt>
      <trkpt lat="46.77785" lon="-2.06211">
        <ele>8</ele>
        <time>2018-01-08T19:46:16Z</time>
      </trkpt>
      <trkpt lat="46.77785" lon="-2.0621">
        <ele>8</ele>
        <time>2018-01-08T19:47:16Z</time>
      </trkpt>
      <trkpt lat="46.77785" lon="-2.06209">
        <ele>8</ele>
        <time>2018-01-08T19:48:16Z</time>
      </trkpt>
      <trkpt lat="46.77785" lon="-2.06208">
        <ele>8</ele>
        <time>2018-01-08T19:49:16Z</time>
      </trkpt>
      <trkpt lat="46.77785" lon="-2.06207">
        <ele>8</ele>
        <time>2018-01-08T19:50:16Z</time>
      </trkpt>
      <trkpt lat="46.77786" lon="-2.06207">
        <ele>8</ele>
        <time>2018-01-08T19:51:16Z</time>
      </trkpt>
      <trkpt lat="46.77786" lon="-2.06206">
        <ele>8</ele>
        <time>2018-01-08T19:52:16Z</time>
      </trkpt>
      <trkpt lat="46.77786" lon="-2.06205">
        <ele>8</ele>
        <time>2018-01-08T19:53:16Z</time>
      </trkpt>
      <trkpt lat="46.77787" lon="-2.06204">
        <ele>8</ele>
        <time>2018-01-08T19:54:16Z</time>
      </trkpt>
      <trkpt lat="46.77787" lon="-2.06203">
        <ele>8</ele>
        <time>2018-01-08T19:55:16Z</time>
      </trkpt>
      <trkpt lat="46.77785" lon="-2.06194">
        <ele>8</ele>
        <time>2018-01-08T19:56:16Z</time>
      </trkpt>
      <trkpt lat="46.77777" lon="-2.06176">
        <ele>9</ele>
        <time>2018-01-08T19:57:16Z</time>
      </trkpt>
      <trkpt lat="46.77776" lon="-2.06174">
        <ele>9</ele>
        <time>2018-01-08T19:58:16Z</time>
      </trkpt>
      <trkpt lat="46.77775" lon="-2.06166">
        <ele>9</ele>
        <time>2018-01-08T19:59:16Z</time>
      </trkpt>
      <trkpt lat="46.7775" lon="-2.06121">
        <ele>10</ele>
        <time>2018-01-08T20:00:16Z</time>
      </trkpt>
      <trkpt lat="46.77736" lon="-2.06094">
        <ele>9</ele>
        <time>2018-01-08T20:01:16Z</time>
      </trkpt>
      <trkpt lat="46.7773" lon="-2.0609">
        <ele>8</ele>
        <time>2018-01-08T20:02:16Z</time>
      </trkpt>
      <trkpt lat="46.77717" lon="-2.06072">
        <ele>7</ele>
        <time>2018-01-08T20:03:16Z</time>
      </trkpt>
      <trkpt lat="46.77717" lon="-2.06072">
        <ele>7</ele>
        <time>2018-01-08T20:04:16Z</time>
      </trkpt>
      <trkpt lat="46.77715" lon="-2.06074">
        <ele>7</ele>
        <time>2018-01-08T20:05:16Z</time>
      </trkpt>
      <trkpt lat="46.77714" lon="-2.06075">
        <ele>7</ele>
        <time>2018-01-08T20:06:16Z</time>
      </trkpt>
      <trkpt lat="46.77712" lon="-2.06075">
        <ele>7</ele>
        <time>2018-01-08T20:07:16Z</time>
      </trkpt>
      <trkpt lat="46.77711" lon="-2.06075">
        <ele>7</ele>
        <time>2018-01-08T20:08:16Z</time>
      </trkpt>
      <trkpt lat="46.77708" lon="-2.06075">
        <ele>6</ele>
        <time>2018-01-08T20:09:16Z</time>
      </trkpt>
      <trkpt lat="46.77706" lon="-2.06075">
        <ele>6</ele>
        <time>2018-01-08T20:10:16Z</time>
      </trkpt>
      <trkpt lat="46.77704" lon="-2.06074">
        <ele>6</ele>
        <time>2018-01-08T20:11:16Z</time>
      </trkpt>
      <trkpt lat="46.77703" lon="-2.06072">
        <ele>6</ele>
        <time>2018-01-08T20:12:16Z</time>
      </trkpt>
      <trkpt lat="46.77701" lon="-2.06069">
        <ele>6</ele>
        <time>2018-01-08T20:13:16Z</time>
      </trkpt>
      <trkpt lat="46.777" lon="-2.06065">
        <ele>6</ele>
        <time>2018-01-08T20:14:16Z</time>
      </trkpt>
      <trkpt lat="46.77699" lon="-2.06061">
        <ele>6</ele>
        <time>2018-01-08T20:15:16Z</time>
      </trkpt>
      <trkpt lat="46.77699" lon="-2.06056">
        <ele>6</ele>
        <time>2018-01-08T20:16:16Z</time>
      </trkpt>
      <trkpt lat="46.777" lon="-2.06055">
        <ele>6</ele>
        <time>2018-01-08T20:17:16Z</time>
      </trkpt>
      <trkpt lat="46.77701" lon="-2.06051">
        <ele>6</ele>
        <time>2018-01-08T20:18:16Z</time>
      </trkpt>
      <trkpt lat="46.77698" lon="-2.06041">
        <ele>6</ele>
        <time>2018-01-08T20:19:16Z</time>
      </trkpt>
      <trkpt lat="46.77697" lon="-2.06036">
        <ele>6</ele>
        <time>2018-01-08T20:20:16Z</time>
      </trkpt>
      <trkpt lat="46.77695" lon="-2.06032">
        <ele>6</ele>
        <time>2018-01-08T20:21:16Z</time>
      </trkpt>
      <trkpt lat="46.77667" lon="-2.05987">
        <ele>8</ele>
        <time>2018-01-08T20:22:16Z</time>
      </trkpt>
      <trkpt lat="46.77628" lon="-2.05927">
        <ele>6</ele>
        <time>2018-01-08T20:23:16Z</time>
      </trkpt>
      <trkpt lat="46.77611" lon="-2.05903">
        <ele>6</ele>
        <time>2018-01-08T20:24:16Z</time>
      </trkpt>
      <trkpt lat="46.77605" lon="-2.05899">
        <ele>6</ele>
        <time>2018-01-08T20:25:16Z</time>
      </trkpt>
      <trkpt lat="46.77597" lon="-2.05891">
        <ele>6</ele>
        <time>2018-01-08T20:26:16Z</time>
      </trkpt>
      <trkpt lat="46.7759" lon="-2.05884">
        <ele>6</ele>
        <time>2018-01-08T20:27:16Z</time>
      </trkpt>
      <trkpt lat="46.7759" lon="-2.05884">
        <ele>6</ele>
        <time>2018-01-08T20:28:16Z</time>
      </trkpt>
      <trkpt lat="46.7759" lon="-2.05885">
        <ele>6</ele>
        <time>2018-01-08T20:29:16Z</time>
      </trkpt>
      <trkpt lat="46.77588" lon="-2.05886">
        <ele>6</ele>
        <time>2018-01-08T20:30:16Z</time>
      </trkpt>
      <trkpt lat="46.77586" lon="-2.05887">
        <ele>6</ele>
        <time>2018-01-08T20:31:16Z</time>
      </trkpt>
      <trkpt lat="46.77585" lon="-2.05887">
        <ele>6</ele>
        <time>2018-01-08T20:32:16Z</time>
      </trkpt>
      <trkpt lat="46.77583" lon="-2.05886">
        <ele>6</ele>
        <time>2018-01-08T20:33:16Z</time>
      </trkpt>
      <trkpt lat="46.77581" lon="-2.05885">
        <ele>6</ele>
        <time>2018-01-08T20:34:16Z</time>
      </trkpt>
      <trkpt lat="46.77578" lon="-2.05883">
        <ele>6</ele>
        <time>2018-01-08T20:35:16Z</time>
      </trkpt>
      <trkpt lat="46.77576" lon="-2.0588">
        <ele>6</ele>
        <time>2018-01-08T20:36:16Z</time>
      </trkpt>
      <trkpt lat="46.77575" lon="-2.05877">
        <ele>6</ele>
        <time>2018-01-08T20:37:16Z</time>
      </trkpt>
      <trkpt lat="46.77574" lon="-2.05873">
        <ele>6</ele>
        <time>2018-01-08T20:38:16Z</time>
      </trkpt>
      <trkpt lat="46.77575" lon="-2.05871">
        <ele>6</ele>
        <time>2018-01-08T20:39:16Z</time>
      </trkpt>
      <trkpt lat="46.77575" lon="-2.05868">
        <ele>6</ele>
        <time>2018-01-08T20:40:16Z</time>
      </trkpt>
      <trkpt lat="46.77577" lon="-2.05866">
        <ele>6</ele>
        <time>2018-01-08T20:41:16Z</time>
      </trkpt>
      <trkpt lat="46.77578" lon="-2.05864">
        <ele>6</ele>
        <time>2018-01-08T20:42:16Z</time>
      </trkpt>
      <trkpt lat="46.77573" lon="-2.05851">
        <ele>6</ele>
        <time>2018-01-08T20:43:16Z</time>
      </trkpt>
      <trkpt lat="46.77571" lon="-2.05843">
        <ele>7</ele>
        <time>2018-01-08T20:44:16Z</time>
      </trkpt>
      <trkpt lat="46.77489" lon="-2.05715">
        <ele>10</ele>
        <time>2018-01-08T20:45:16Z</time>
      </trkpt>
      <trkpt lat="46.77482" lon="-2.05711">
        <ele>9</ele>
        <time>2018-01-08T20:46:16Z</time>
      </trkpt>
      <trkpt lat="46.77471" lon="-2.05705">
        <ele>8</ele>
        <time>2018-01-08T20:47:16Z</time>
      </trkpt>
      <trkpt lat="46.77471" lon="-2.05705">
        <ele>8</ele>
        <time>2018-01-08T20:48:16Z</time>
      </trkpt>
      <trkpt lat="46.77468" lon="-2.05707">
        <ele>8</ele>
        <time>2018-01-08T20:49:16Z</time>
      </trkpt>
      <trkpt lat="46.77464" lon="-2.05709">
        <ele>8</ele>
        <time>2018-01-08T20:50:16Z</time>
      </trkpt>
      <trkpt lat="46.7746" lon="-2.05709">
        <ele>8</ele>
        <time>2018-01-08T20:51:16Z</time>
      </trkpt>
      <trkpt lat="46.77457" lon="-2.05707">
        <ele>7</ele>
        <time>2018-01-08T20:52:16Z</time>
      </trkpt>
      <trkpt lat="46.77455" lon="-2.05704">
        <ele>7</ele>
        <time>2018-01-08T20:53:16Z</time>
      </trkpt>
      <trkpt lat="46.77453" lon="-2.05701">
        <ele>7</ele>
        <time>2018-01-08T20:54:16Z</time>
      </trkpt>
      <trkpt lat="46.77452" lon="-2.05697">
        <ele>7</ele>
        <time>2018-01-08T20:55:16Z</time>
      </trkpt>
      <trkpt lat="46.77451" lon="-2.05693">
        <ele>7</ele>
        <time>2018-01-08T20:56:16Z</time>
      </trkpt>
      <trkpt lat="46.77444" lon="-2.05688">
        <ele>6</ele>
        <time>2018-01-08T20:57:16Z</time>
      </trkpt>
      <trkpt lat="46.7744" lon="-2.05685">
        <ele>6</ele>
        <time>2018-01-08T20:58:16Z</time>
      </trkpt>
      <trkpt lat="46.77436" lon="-2.05682">
        <ele>6</ele>
        <time>2018-01-08T20:59:16Z</time>
      </trkpt>
      <trkpt lat="46.77433" lon="-2.05678">
        <ele>5</ele>
        <time>2018-01-08T21:00:16Z</time>
      </trkpt>
      <trkpt lat="46.77422" lon="-2.05664">
        <ele>5</ele>
        <time>2018-01-08T21:01:16Z</time>
      </trkpt>
      <trkpt lat="46.77414" lon="-2.05654">
        <ele>5</ele>
        <time>2018-01-08T21:02:16Z</time>
      </trkpt>
      <trkpt lat="46.77409" lon="-2.05643">
        <ele>6</ele>
        <time>2018-01-08T21:03:16Z</time>
      </trkpt>
      <trkpt lat="46.77402" lon="-2.05628">
        <ele>7</ele>
        <time>2018-01-08T21:04:16Z</time>
      </trkpt>
      <trkpt lat="46.77393" lon="-2.05613">
        <ele>8</ele>
        <time>2018-01-08T21:05:16Z</time>
      </trkpt>
      <trkpt lat="46.77383" lon="-2.05599">
        <ele>8</ele>
        <time>2018-01-08T21:06:16Z</time>
      </trkpt>
      <trkpt lat="46.77372" lon="-2.05588">
        <ele>8</ele>
        <time>2018-01-08T21:07:16Z</time>
      </trkpt>
      <trkpt lat="46.77366" lon="-2.05582">
        <ele>8</ele>
        <time>2018-01-08T21:08:16Z</time>
      </trkpt>
      <trkpt lat="46.77361" lon="-2.05578">
        <ele>8</ele>
        <time>2018-01-08T21:09:16Z</time>
      </trkpt>
      <trkpt lat="46.77354" lon="-2.05573">
        <ele>8</ele>
        <time>2018-01-08T21:10:16Z</time>
      </trkpt>
      <trkpt lat="46.77349" lon="-2.05565">
        <ele>8</ele>
        <time>2018-01-08T21:11:16Z</time>
      </trkpt>
      <trkpt lat="46.77321" lon="-2.05526">
        <ele>10</ele>
        <time>2018-01-08T21:12:16Z</time>
      </trkpt>
      <trkpt lat="46.77319" lon="-2.05524">
        <ele>9</ele>
        <time>2018-01-08T21:13:16Z</time>
      </trkpt>
      <trkpt lat="46.77318" lon="-2.05522">
        <ele>10</ele>
        <time>2018-01-08T21:14:16Z</time>
      </trkpt>
      <trkpt lat="46.77316" lon="-2.05518">
        <ele>10</ele>
        <time>2018-01-08T21:15:16Z</time>
      </trkpt>
      <trkpt lat="46.77312" lon="-2.0551">
        <ele>10</ele>
        <time>2018-01-08T21:16:16Z</time>
      </trkpt>
      <trkpt lat="46.77312" lon="-2.0551">
        <ele>10</ele>
        <time>2018-01-08T21:17:16Z</time>
      </trkpt>
      <trkpt lat="46.7731" lon="-2.05511">
        <ele>9</ele>
        <time>2018-01-08T21:18:16Z</time>
      </trkpt>
      <trkpt lat="46.77308" lon="-2.0551">
        <ele>9</ele>
        <time>2018-01-08T21:19:16Z</time>
      </trkpt>
      <trkpt lat="46.77306" lon="-2.05508">
        <ele>9</ele>
        <time>2018-01-08T21:20:16Z</time>
      </trkpt>
      <trkpt lat="46.77304" lon="-2.05505">
        <ele>9</ele>
        <time>2018-01-08T21:21:16Z</time>
      </trkpt>
      <trkpt lat="46.77303" lon="-2.05501">
        <ele>9</ele>
        <time>2018-01-08T21:22:16Z</time>
      </trkpt>
      <trkpt lat="46.77302" lon="-2.05498">
        <ele>9</ele>
        <time>2018-01-08T21:23:16Z</time>
      </trkpt>
      <trkpt lat="46.77299" lon="-2.05496">
        <ele>9</ele>
        <time>2018-01-08T21:24:16Z</time>
      </trkpt>
      <trkpt lat="46.77298" lon="-2.05494">
        <ele>9</ele>
        <time>2018-01-08T21:25:16Z</time>
      </trkpt>
      <trkpt lat="46.77257" lon="-2.05435">
        <ele>7</ele>
        <time>2018-01-08T21:26:16Z</time>
      </trkpt>
      <trkpt lat="46.77253" lon="-2.05427">
        <ele>7</ele>
        <time>2018-01-08T21:27:16Z</time>
      </trkpt>
      <trkpt lat="46.7725" lon="-2.05419">
        <ele>7</ele>
        <time>2018-01-08T21:28:16Z</time>
      </trkpt>
      <trkpt lat="46.7725" lon="-2.0542">
        <ele>7</ele>
        <time>2018-01-08T21:29:16Z</time>
      </trkpt>
      <trkpt lat="46.77249" lon="-2.0542">
        <ele>7</ele>
        <time>2018-01-08T21:30:16Z</time>
      </trkpt>
      <trkpt lat="46.77249" lon="-2.05419">
        <ele>7</ele>
        <time>2018-01-08T21:31:16Z</time>
      </trkpt>
      <trkpt lat="46.77248" lon="-2.05419">
        <ele>7</ele>
        <time>2018-01-08T21:32:16Z</time>
      </trkpt>
      <trkpt lat="46.77247" lon="-2.05419">
        <ele>7</ele>
        <time>2018-01-08T21:33:16Z</time>
      </trkpt>
      <trkpt lat="46.77246" lon="-2.05418">
        <ele>7</ele>
        <time>2018-01-08T21:34:16Z</time>
      </trkpt>
      <trkpt lat="46.77245" lon="-2.05418">
        <ele>7</ele>
        <time>2018-01-08T21:35:16Z</time>
      </trkpt>
      <trkpt lat="46.77245" lon="-2.05417">
        <ele>7</ele>
        <time>2018-01-08T21:36:16Z</time>
      </trkpt>
      <trkpt lat="46.77244" lon="-2.05417">
        <ele>7</ele>
        <time>2018-01-08T21:37:16Z</time>
      </trkpt>
      <trkpt lat="46.77244" lon="-2.05416">
        <ele>7</ele>
        <time>2018-01-08T21:38:16Z</time>
      </trkpt>
      <trkpt lat="46.77243" lon="-2.05415">
        <ele>6</ele>
        <time>2018-01-08T21:39:16Z</time>
      </trkpt>
      <trkpt lat="46.77243" lon="-2.05414">
        <ele>6</ele>
        <time>2018-01-08T21:40:16Z</time>
      </trkpt>
      <trkpt lat="46.77243" lon="-2.05413">
        <ele>6</ele>
        <time>2018-01-08T21:41:16Z</time>
      </trkpt>
      <trkpt lat="46.77242" lon="-2.05413">
        <ele>6</ele>
        <time>2018-01-08T21:42:16Z</time>
      </trkpt>
      <trkpt lat="46.77242" lon="-2.05412">
        <ele>6</ele>
        <time>2018-01-08T21:43:16Z</time>
      </trkpt>
      <trkpt lat="46.77242" lon="-2.05411">
        <ele>6</ele>
        <time>2018-01-08T21:44:16Z</time>
      </trkpt>
      <trkpt lat="46.77242" lon="-2.0541">
        <ele>6</ele>
        <time>2018-01-08T21:45:16Z</time>
      </trkpt>
      <trkpt lat="46.77235" lon="-2.05404">
        <ele>6</ele>
        <time>2018-01-08T21:46:16Z</time>
      </trkpt>
      <trkpt lat="46.77155" lon="-2.05296">
        <ele>6</ele>
        <time>2018-01-08T21:47:16Z</time>
      </trkpt>
      <trkpt lat="46.77152" lon="-2.0529">
        <ele>6</ele>
        <time>2018-01-08T21:48:16Z</time>
      </trkpt>
      <trkpt lat="46.77149" lon="-2.05284">
        <ele>6</ele>
        <time>2018-01-08T21:49:16Z</time>
      </trkpt>
      <trkpt lat="46.77149" lon="-2.05284">
        <ele>6</ele>
        <time>2018-01-08T21:50:16Z</time>
      </trkpt>
      <trkpt lat="46.77148" lon="-2.05285">
        <ele>6</ele>
        <time>2018-01-08T21:51:16Z</time>
      </trkpt>
      <trkpt lat="46.77147" lon="-2.05285">
        <ele>6</ele>
        <time>2018-01-08T21:52:16Z</time>
      </trkpt>
      <trkpt lat="46.77146" lon="-2.05285">
        <ele>6</ele>
        <time>2018-01-08T21:53:16Z</time>
      </trkpt>
      <trkpt lat="46.77145" lon="-2.05285">
        <ele>6</ele>
        <time>2018-01-08T21:54:16Z</time>
      </trkpt>
      <trkpt lat="46.77144" lon="-2.05285">
        <ele>6</ele>
        <time>2018-01-08T21:55:16Z</time>
      </trkpt>
      <trkpt lat="46.77143" lon="-2.05285">
        <ele>6</ele>
        <time>2018-01-08T21:56:16Z</time>
      </trkpt>
      <trkpt lat="46.77143" lon="-2.05284">
        <ele>6</ele>
        <time>2018-01-08T21:57:16Z</time>
      </trkpt>
      <trkpt lat="46.77142" lon="-2.05284">
        <ele>6</ele>
        <time>2018-01-08T21:58:16Z</time>
      </trkpt>
      <trkpt lat="46.77141" lon="-2.05283">
        <ele>6</ele>
        <time>2018-01-08T21:59:16Z</time>
      </trkpt>
      <trkpt lat="46.7714" lon="-2.05282">
        <ele>6</ele>
        <time>2018-01-08T22:00:16Z</time>
      </trkpt>
      <trkpt lat="46.7714" lon="-2.05281">
        <ele>6</ele>
        <time>2018-01-08T22:01:16Z</time>
      </trkpt>
      <trkpt lat="46.77139" lon="-2.05281">
        <ele>6</ele>
        <time>2018-01-08T22:02:16Z</time>
      </trkpt>
      <trkpt lat="46.77139" lon="-2.0528">
        <ele>6</ele>
        <time>2018-01-08T22:03:16Z</time>
      </trkpt>
      <trkpt lat="46.77138" lon="-2.0528">
        <ele>6</ele>
        <time>2018-01-08T22:04:16Z</time>
      </trkpt>
      <trkpt lat="46.77138" lon="-2.05279">
        <ele>6</ele>
        <time>2018-01-08T22:05:16Z</time>
      </trkpt>
      <trkpt lat="46.77138" lon="-2.05278">
        <ele>6</ele>
        <time>2018-01-08T22:06:16Z</time>
      </trkpt>
      <trkpt lat="46.77138" lon="-2.05277">
        <ele>6</ele>
        <time>2018-01-08T22:07:16Z</time>
      </trkpt>
      <trkpt lat="46.77137" lon="-2.05277">
        <ele>6</ele>
        <time>2018-01-08T22:08:16Z</time>
      </trkpt>
      <trkpt lat="46.77137" lon="-2.05276">
        <ele>6</ele>
        <time>2018-01-08T22:09:16Z</time>
      </trkpt>
      <trkpt lat="46.77137" lon="-2.05275">
        <ele>6</ele>
        <time>2018-01-08T22:10:16Z</time>
      </trkpt>
      <trkpt lat="46.77137" lon="-2.05274">
        <ele>6</ele>
        <time>2018-01-08T22:11:16Z</time>
      </trkpt>
      <trkpt lat="46.77137" lon="-2.05273">
        <ele>6</ele>
        <time>2018-01-08T22:12:16Z</time>
      </trkpt>
      <trkpt lat="46.77137" lon="-2.05272">
        <ele>6</ele>
        <time>2018-01-08T22:13:16Z</time>
      </trkpt>
      <trkpt lat="46.77137" lon="-2.05271">
        <ele>6</ele>
        <time>2018-01-08T22:14:16Z</time>
      </trkpt>
      <trkpt lat="46.77132" lon="-2.05271">
        <ele>6</ele>
        <time>2018-01-08T22:15:16Z</time>
      </trkpt>
      <trkpt lat="46.77126" lon="-2.05268">
        <ele>6</ele>
        <time>2018-01-08T22:16:16Z</time>
      </trkpt>
      <trkpt lat="46.77092" lon="-2.05214">
        <ele>7</ele>
        <time>2018-01-08T22:17:16Z</time>
      </trkpt>
      <trkpt lat="46.77086" lon="-2.05204">
        <ele>7</ele>
        <time>2018-01-08T22:18:16Z</time>
      </trkpt>
      <trkpt lat="46.77081" lon="-2.05195">
        <ele>7</ele>
        <time>2018-01-08T22:19:16Z</time>
      </trkpt>
      <trkpt lat="46.77081" lon="-2.05194">
        <ele>8</ele>
        <time>2018-01-08T22:20:16Z</time>
      </trkpt>
      <trkpt lat="46.77073" lon="-2.05186">
        <ele>7</ele>
        <time>2018-01-08T22:21:16Z</time>
      </trkpt>
      <trkpt lat="46.77065" lon="-2.0517">
        <ele>7</ele>
        <time>2018-01-08T22:22:16Z</time>
      </trkpt>
      <trkpt lat="46.77064" lon="-2.05166">
        <ele>7</ele>
        <time>2018-01-08T22:23:16Z</time>
      </trkpt>
      <trkpt lat="46.77063" lon="-2.05163">
        <ele>7</ele>
        <time>2018-01-08T22:24:16Z</time>
      </trkpt>
      <trkpt lat="46.77064" lon="-2.05161">
        <ele>7</ele>
        <time>2018-01-08T22:25:16Z</time>
      </trkpt>
      <trkpt lat="46.77066" lon="-2.05157">
        <ele>7</ele>
        <time>2018-01-08T22:26:16Z</time>
      </trkpt>
      <trkpt lat="46.77066" lon="-2.05157">
        <ele>7</ele>
        <time>2018-01-08T22:27:16Z</time>
      </trkpt>
      <trkpt lat="46.77069" lon="-2.05147">
        <ele>8</ele>
        <time>2018-01-08T22:28:16Z</time>
      </trkpt>
      <trkpt lat="46.77077" lon="-2.05128">
        <ele>8</ele>
        <time>2018-01-08T22:29:16Z</time>
      </trkpt>
      <trkpt lat="46.77088" lon="-2.05099">
        <ele>7</ele>
        <time>2018-01-08T22:30:16Z</time>
      </trkpt>
      <trkpt lat="46.77096" lon="-2.05081">
        <ele>7</ele>
        <time>2018-01-08T22:31:16Z</time>
      </trkpt>
      <trkpt lat="46.77099" lon="-2.05073">
        <ele>6</ele>
        <time>2018-01-08T22:32:16Z</time>
      </trkpt>
      <trkpt lat="46.77107" lon="-2.05053">
        <ele>6</ele>
        <time>2018-01-08T22:33:16Z</time>
      </trkpt>
      <trkpt lat="46.77117" lon="-2.05028">
        <ele>5</ele>
        <time>2018-01-08T22:34:16Z</time>
      </trkpt>
      <trkpt lat="46.77121" lon="-2.05019">
        <ele>5</ele>
        <time>2018-01-08T22:35:16Z</time>
      </trkpt>
      <trkpt lat="46.77121" lon="-2.05018">
        <ele>4</ele>
        <time>2018-01-08T22:36:16Z</time>
      </trkpt>
      <trkpt lat="46.77126" lon="-2.05002">
        <ele>4</ele>
        <time>2018-01-08T22:37:16Z</time>
      </trkpt>
      <trkpt lat="46.77132" lon="-2.0498">
        <ele>4</ele>
        <time>2018-01-08T22:38:16Z</time>
      </trkpt>
      <trkpt lat="46.77137" lon="-2.04964">
        <ele>4</ele>
        <time>2018-01-08T22:39:16Z</time>
      </trkpt>
      <trkpt lat="46.77142" lon="-2.04946">
        <ele>4</ele>
        <time>2018-01-08T22:40:16Z</time>
      </trkpt>
      <trkpt lat="46.77144" lon="-2.04936">
        <ele>4</ele>
        <time>2018-01-08T22:41:16Z</time>
      </trkpt>
      <trkpt lat="46.77145" lon="-2.04927">
        <ele>3</ele>
        <time>2018-01-08T22:42:16Z</time>
      </trkpt>
      <trkpt lat="46.77145" lon="-2.04915">
        <ele>3</ele>
        <time>2018-01-08T22:43:16Z</time>
      </trkpt>
      <trkpt lat="46.77145" lon="-2.04907">
        <ele>3</ele>
        <time>2018-01-08T22:44:16Z</time>
      </trkpt>
      <trkpt lat="46.77145" lon="-2.04907">
        <ele>3</ele>
        <time>2018-01-08T22:45:16Z</time>
      </trkpt>
      <trkpt lat="46.77144" lon="-2.04905">
        <ele>3</ele>
        <time>2018-01-08T22:46:16Z</time>
      </trkpt>
      <trkpt lat="46.77143" lon="-2.04903">
        <ele>3</ele>
        <time>2018-01-08T22:47:16Z</time>
      </trkpt>
      <trkpt lat="46.77142" lon="-2.049">
        <ele>3</ele>
        <time>2018-01-08T22:48:16Z</time>
      </trkpt>
      <trkpt lat="46.77142" lon="-2.04898">
        <ele>3</ele>
        <time>2018-01-08T22:49:16Z</time>
      </trkpt>
      <trkpt lat="46.77141" lon="-2.04896">
        <ele>3</ele>
        <time>2018-01-08T22:50:16Z</time>
      </trkpt>
      <trkpt lat="46.77141" lon="-2.04893">
        <ele>3</ele>
        <time>2018-01-08T22:51:16Z</time>
      </trkpt>
      <trkpt lat="46.77141" lon="-2.0489">
        <ele>3</ele>
        <time>2018-01-08T22:52:16Z</time>
      </trkpt>
      <trkpt lat="46.77141" lon="-2.04888">
        <ele>3</ele>
        <time>2018-01-08T22:53:16Z</time>
      </trkpt>
      <trkpt lat="46.77141" lon="-2.04885">
        <ele>3</ele>
        <time>2018-01-08T22:54:16Z</time>
      </trkpt>
      <trkpt lat="46.77141" lon="-2.04883">
        <ele>3</ele>
        <time>2018-01-08T22:55:16Z</time>
      </trkpt>
      <trkpt lat="46.77141" lon="-2.04879">
        <ele>3</ele>
        <time>2018-01-08T22:56:16Z</time>
      </trkpt>
      <trkpt lat="46.77133" lon="-2.04859">
        <ele>3</ele>
        <time>2018-01-08T22:57:16Z</time>
      </trkpt>
      <trkpt lat="46.77126" lon="-2.04843">
        <ele>3</ele>
        <time>2018-01-08T22:58:16Z</time>
      </trkpt>
      <trkpt lat="46.77122" lon="-2.04838">
        <ele>4</ele>
        <time>2018-01-08T22:59:16Z</time>
      </trkpt>
      <trkpt lat="46.77114" lon="-2.04822">
        <ele>3</ele>
        <time>2018-01-08T23:00:16Z</time>
      </trkpt>
      <trkpt lat="46.771" lon="-2.04786">
        <ele>3</ele>
        <time>2018-01-08T23:01:16Z</time>
      </trkpt>
      <trkpt lat="46.77078" lon="-2.04728">
        <ele>1</ele>
        <time>2018-01-08T23:02:16Z</time>
      </trkpt>
      <trkpt lat="46.77058" lon="-2.04675">
        <ele>1</ele>
        <time>2018-01-08T23:03:16Z</time>
      </trkpt>
      <trkpt lat="46.77052" lon="-2.0466">
        <ele>3</ele>
        <time>2018-01-08T23:04:16Z</time>
      </trkpt>
      <trkpt lat="46.77046" lon="-2.04646">
        <ele>3</ele>
        <time>2018-01-08T23:05:16Z</time>
      </trkpt>
      <trkpt lat="46.7704" lon="-2.04635">
        <ele>3</ele>
        <time>2018-01-08T23:06:16Z</time>
      </trkpt>
      <trkpt lat="46.77025" lon="-2.04607">
        <ele>3</ele>
        <time>2018-01-08T23:07:16Z</time>
      </trkpt>
      <trkpt lat="46.76982" lon="-2.04541">
        <ele>4</ele>
        <time>2018-01-08T23:08:16Z</time>
      </trkpt>
      <trkpt lat="46.76944" lon="-2.04482">
        <ele>4</ele>
        <time>2018-01-08T23:09:16Z</time>
      </trkpt>
      <trkpt lat="46.76911" lon="-2.04432">
        <ele>3</ele>
        <time>2018-01-08T23:10:16Z</time>
      </trkpt>
      <trkpt lat="46.76892" lon="-2.04404">
        <ele>3</ele>
        <time>2018-01-08T23:11:16Z</time>
      </trkpt>
      <trkpt lat="46.76884" lon="-2.04394">
        <ele>3</ele>
        <time>2018-01-08T23:12:16Z</time>
      </trkpt>
      <trkpt lat="46.7687" lon="-2.04378">
        <ele>3</ele>
        <time>2018-01-08T23:13:16Z</time>
      </trkpt>
      <trkpt lat="46.7686" lon="-2.04368">
        <ele>3</ele>
        <time>2018-01-08T23:14:16Z</time>
      </trkpt>
      <trkpt lat="46.76826" lon="-2.04336">
        <ele>2</ele>
        <time>2018-01-08T23:15:16Z</time>
      </trkpt>
      <trkpt lat="46.76819" lon="-2.0433">
        <ele>2</ele>
        <time>2018-01-08T23:16:16Z</time>
      </trkpt>
      <trkpt lat="46.76794" lon="-2.04306">
        <ele>2</ele>
        <time>2018-01-08T23:17:16Z</time>
      </trkpt>
      <trkpt lat="46.76773" lon="-2.04285">
        <ele>3</ele>
        <time>2018-01-08T23:18:16Z</time>
      </trkpt>
      <trkpt lat="46.76758" lon="-2.04267">
        <ele>3</ele>
        <time>2018-01-08T23:19:16Z</time>
      </trkpt>
      <trkpt lat="46.76746" lon="-2.04252">
        <ele>3</ele>
        <time>2018-01-08T23:20:16Z</time>
      </trkpt>
      <trkpt lat="46.76743" lon="-2.04247">
        <ele>3</ele>
        <time>2018-01-08T23:21:16Z</time>
      </trkpt>
      <trkpt lat="46.76729" lon="-2.04227">
        <ele>3</ele>
        <time>2018-01-08T23:22:16Z</time>
      </trkpt>
      <trkpt lat="46.76713" lon="-2.04193">
        <ele>3</ele>
        <time>2018-01-08T23:23:16Z</time>
      </trkpt>
      <trkpt lat="46.76705" lon="-2.04172">
        <ele>4</ele>
        <time>2018-01-08T23:24:16Z</time>
      </trkpt>
      <trkpt lat="46.76682" lon="-2.04112">
        <ele>5</ele>
        <time>2018-01-08T23:25:16Z</time>
      </trkpt>
      <trkpt lat="46.76655" lon="-2.04042">
        <ele>5</ele>
        <time>2018-01-08T23:26:16Z</time>
      </trkpt>
      <trkpt lat="46.76642" lon="-2.04007">
        <ele>6</ele>
        <time>2018-01-08T23:27:16Z</time>
      </trkpt>
      <trkpt lat="46.76634" lon="-2.03987">
        <ele>6</ele>
        <time>2018-01-08T23:28:16Z</time>
      </trkpt>
      <trkpt lat="46.76633" lon="-2.03981">
        <ele>6</ele>
        <time>2018-01-08T23:29:16Z</time>
      </trkpt>
      <trkpt lat="46.76629" lon="-2.03967">
        <ele>6</ele>
        <time>2018-01-08T23:30:16Z</time>
      </trkpt>
      <trkpt lat="46.76625" lon="-2.03949">
        <ele>7</ele>
        <time>2018-01-08T23:31:16Z</time>
      </trkpt>
      <trkpt lat="46.76622" lon="-2.03922">
        <ele>7</ele>
        <time>2018-01-08T23:32:16Z</time>
      </trkpt>
      <trkpt lat="46.76619" lon="-2.03884">
        <ele>8</ele>
        <time>2018-01-08T23:33:16Z</time>
      </trkpt>
      <trkpt lat="46.76618" lon="-2.03859">
        <ele>9</ele>
        <time>2018-01-08T23:34:16Z</time>
      </trkpt>
      <trkpt lat="46.76617" lon="-2.03808">
        <ele>11</ele>
        <time>2018-01-08T23:35:16Z</time>
      </trkpt>
      <trkpt lat="46.76616" lon="-2.03767">
        <ele>12</ele>
        <time>2018-01-08T23:36:16Z</time>
      </trkpt>
      <trkpt lat="46.76613" lon="-2.03723">
        <ele>13</ele>
        <time>2018-01-08T23:37:16Z</time>
      </trkpt>
      <trkpt lat="46.76609" lon="-2.03696">
        <ele>13</ele>
        <time>2018-01-08T23:38:16Z</time>
      </trkpt>
      <trkpt lat="46.76604" lon="-2.03666">
        <ele>13</ele>
        <time>2018-01-08T23:39:16Z</time>
      </trkpt>
      <trkpt lat="46.76596" lon="-2.03635">
        <ele>12</ele>
        <time>2018-01-08T23:40:16Z</time>
      </trkpt>
      <trkpt lat="46.76588" lon="-2.03603">
        <ele>11</ele>
        <time>2018-01-08T23:41:16Z</time>
      </trkpt>
      <trkpt lat="46.76575" lon="-2.03559">
        <ele>10</ele>
        <time>2018-01-08T23:42:16Z</time>
      </trkpt>
      <trkpt lat="46.76573" lon="-2.03555">
        <ele>10</ele>
        <time>2018-01-08T23:43:16Z</time>
      </trkpt>
      <trkpt lat="46.76562" lon="-2.03527">
        <ele>10</ele>
        <time>2018-01-08T23:44:16Z</time>
      </trkpt>
      <trkpt lat="46.76558" lon="-2.03519">
        <ele>10</ele>
        <time>2018-01-08T23:45:16Z</time>
      </trkpt>
      <trkpt lat="46.76556" lon="-2.03514">
        <ele>10</ele>
        <time>2018-01-08T23:46:16Z</time>
      </trkpt>
      <trkpt lat="46.76556" lon="-2.03509">
        <ele>9</ele>
        <time>2018-01-08T23:47:16Z</time>
      </trkpt>
      <trkpt lat="46.76555" lon="-2.03501">
        <ele>9</ele>
        <time>2018-01-08T23:48:16Z</time>
      </trkpt>
      <trkpt lat="46.76555" lon="-2.03501">
        <ele>9</ele>
        <time>2018-01-08T23:49:16Z</time>
      </trkpt>
      <trkpt lat="46.76542" lon="-2.03482">
        <ele>9</ele>
        <time>2018-01-08T23:50:16Z</time>
      </trkpt>
      <trkpt lat="46.76528" lon="-2.0346">
        <ele>9</ele>
        <time>2018-01-08T23:51:16Z</time>
      </trkpt>
      <trkpt lat="46.76518" lon="-2.0344">
        <ele>8</ele>
        <time>2018-01-08T23:52:16Z</time>
      </trkpt>
      <trkpt lat="46.76511" lon="-2.03423">
        <ele>8</ele>
        <time>2018-01-08T23:53:16Z</time>
      </trkpt>
      <trkpt lat="46.76504" lon="-2.03405">
        <ele>8</ele>
        <time>2018-01-08T23:54:16Z</time>
      </trkpt>
      <trkpt lat="46.76501" lon="-2.03396">
        <ele>8</ele>
        <time>2018-01-08T23:55:16Z</time>
      </trkpt>
      <trkpt lat="46.765" lon="-2.03393">
        <ele>7</ele>
        <time>2018-01-08T23:56:16Z</time>
      </trkpt>
      <trkpt lat="46.76491" lon="-2.03363">
        <ele>7</ele>
        <time>2018-01-08T23:57:16Z</time>
      </trkpt>
      <trkpt lat="46.76488" lon="-2.03352">
        <ele>7</ele>
        <time>2018-01-08T23:58:16Z</time>
      </trkpt>
      <trkpt lat="46.76481" lon="-2.03332">
        <ele>6</ele>
        <time>2018-01-08T23:59:16Z</time>
      </trkpt>
      <trkpt lat="46.76479" lon="-2.03323">
        <ele>6</ele>
        <time>2018-01-09T00:00:16Z</time>
      </trkpt>
      <trkpt lat="46.76476" lon="-2.03317">
        <ele>7</ele>
        <time>2018-01-09T00:01:16Z</time>
      </trkpt>
      <trkpt lat="46.76463" lon="-2.0329">
        <ele>7</ele>
        <time>2018-01-09T00:02:16Z</time>
      </trkpt>
      <trkpt lat="46.76444" lon="-2.03253">
        <ele>8</ele>
        <time>2018-01-09T00:03:16Z</time>
      </trkpt>
      <trkpt lat="46.76443" lon="-2.03252">
        <ele>8</ele>
        <time>2018-01-09T00:04:16Z</time>
      </trkpt>
      <trkpt lat="46.76417" lon="-2.03201">
        <ele>8</ele>
        <time>2018-01-09T00:05:16Z</time>
      </trkpt>
      <trkpt lat="46.76393" lon="-2.03152">
        <ele>8</ele>
        <time>2018-01-09T00:06:16Z</time>
      </trkpt>
      <trkpt lat="46.7639" lon="-2.03145">
        <ele>8</ele>
        <time>2018-01-09T00:07:16Z</time>
      </trkpt>
      <trkpt lat="46.76388" lon="-2.03139">
        <ele>8</ele>
        <time>2018-01-09T00:08:16Z</time>
      </trkpt>
      <trkpt lat="46.76385" lon="-2.03132">
        <ele>8</ele>
        <time>2018-01-09T00:09:16Z</time>
      </trkpt>
      <trkpt lat="46.76383" lon="-2.03123">
        <ele>8</ele>
        <time>2018-01-09T00:10:16Z</time>
      </trkpt>
      <trkpt lat="46.76382" lon="-2.03114">
        <ele>8</ele>
        <time>2018-01-09T00:11:16Z</time>
      </trkpt>
      <trkpt lat="46.76381" lon="-2.03108">
        <ele>8</ele>
        <time>2018-01-09T00:12:16Z</time>
      </trkpt>
      <trkpt lat="46.7638" lon="-2.03102">
        <ele>8</ele>
        <time>2018-01-09T00:13:16Z</time>
      </trkpt>
      <trkpt lat="46.76379" lon="-2.03097">
        <ele>8</ele>
        <time>2018-01-09T00:14:16Z</time>
      </trkpt>
      <trkpt lat="46.76379" lon="-2.0309">
        <ele>8</ele>
        <time>2018-01-09T00:15:16Z</time>
      </trkpt>
      <trkpt lat="46.76378" lon="-2.03082">
        <ele>8</ele>
        <time>2018-01-09T00:16:16Z</time>
      </trkpt>
      <trkpt lat="46.76378" lon="-2.03065">
        <ele>8</ele>
        <time>2018-01-09T00:17:16Z</time>
      </trkpt>
      <trkpt lat="46.76378" lon="-2.03049">
        <ele>8</ele>
        <time>2018-01-09T00:18:16Z</time>
      </trkpt>
      <trkpt lat="46.76377" lon="-2.03027">
        <ele>8</ele>
        <time>2018-01-09T00:19:16Z</time>
      </trkpt>
      <trkpt lat="46.76376" lon="-2.03017">
        <ele>8</ele>
        <time>2018-01-09T00:20:16Z</time>
      </trkpt>
      <trkpt lat="46.76375" lon="-2.03006">
        <ele>8</ele>
        <time>2018-01-09T00:21:16Z</time>
      </trkpt>
      <trkpt lat="46.76375" lon="-2.03002">
        <ele>8</ele>
        <time>2018-01-09T00:22:16Z</time>
      </trkpt>
      <trkpt lat="46.76374" lon="-2.02998">
        <ele>9</ele>
        <time>2018-01-09T00:23:16Z</time>
      </trkpt>
      <trkpt lat="46.76374" lon="-2.02995">
        <ele>9</ele>
        <time>2018-01-09T00:24:16Z</time>
      </trkpt>
      <trkpt lat="46.76372" lon="-2.02988">
        <ele>9</ele>
        <time>2018-01-09T00:25:16Z</time>
      </trkpt>
      <trkpt lat="46.76371" lon="-2.02981">
        <ele>9</ele>
        <time>2018-01-09T00:26:16Z</time>
      </trkpt>
      <trkpt lat="46.76369" lon="-2.02974">
        <ele>9</ele>
        <time>2018-01-09T00:27:16Z</time>
      </trkpt>
      <trkpt lat="46.76367" lon="-2.02964">
        <ele>9</ele>
        <time>2018-01-09T00:28:16Z</time>
      </trkpt>
      <trkpt lat="46.76363" lon="-2.0295">
        <ele>9</ele>
        <time>2018-01-09T00:29:16Z</time>
      </trkpt>
      <trkpt lat="46.76357" lon="-2.02936">
        <ele>9</ele>
        <time>2018-01-09T00:30:16Z</time>
      </trkpt>
      <trkpt lat="46.76354" lon="-2.02927">
        <ele>9</ele>
        <time>2018-01-09T00:31:16Z</time>
      </trkpt>
      <trkpt lat="46.7635" lon="-2.0292">
        <ele>9</ele>
        <time>2018-01-09T00:32:16Z</time>
      </trkpt>
      <trkpt lat="46.76345" lon="-2.02911">
        <ele>9</ele>
        <time>2018-01-09T00:33:16Z</time>
      </trkpt>
      <trkpt lat="46.76339" lon="-2.02903">
        <ele>9</ele>
        <time>2018-01-09T00:34:16Z</time>
      </trkpt>
      <trkpt lat="46.76333" lon="-2.02896">
        <ele>9</ele>
        <time>2018-01-09T00:35:16Z</time>
      </trkpt>
      <trkpt lat="46.76325" lon="-2.0289">
        <ele>8</ele>
        <time>2018-01-09T00:36:16Z</time>
      </trkpt>
      <trkpt lat="46.7632" lon="-2.02886">
        <ele>8</ele>
        <time>2018-01-09T00:37:16Z</time>
      </trkpt>
      <trkpt lat="46.76311" lon="-2.02881">
        <ele>8</ele>
        <time>2018-01-09T00:38:16Z</time>
      </trkpt>
      <trkpt lat="46.76302" lon="-2.02876">
        <ele>8</ele>
        <time>2018-01-09T00:39:16Z</time>
      </trkpt>
      <trkpt lat="46.76295" lon="-2.02871">
        <ele>8</ele>
        <time>2018-01-09T00:40:16Z</time>
      </trkpt>
      <trkpt lat="46.76289" lon="-2.02868">
        <ele>8</ele>
        <time>2018-01-09T00:41:16Z</time>
      </trkpt>
      <trkpt lat="46.7628" lon="-2.0286">
        <ele>8</ele>
        <time>2018-01-09T00:42:16Z</time>
      </trkpt>
      <trkpt lat="46.7627" lon="-2.02853">
        <ele>8</ele>
        <time>2018-01-09T00:43:16Z</time>
      </trkpt>
      <trkpt lat="46.76263" lon="-2.02847">
        <ele>8</ele>
        <time>2018-01-09T00:44:16Z</time>
      </trkpt>
      <trkpt lat="46.76249" lon="-2.02833">
        <ele>7</ele>
        <time>2018-01-09T00:45:16Z</time>
      </trkpt>
      <trkpt lat="46.76248" lon="-2.02831">
        <ele>7</ele>
        <time>2018-01-09T00:46:16Z</time>
      </trkpt>
      <trkpt lat="46.76226" lon="-2.02802">
        <ele>8</ele>
        <time>2018-01-09T00:47:16Z</time>
      </trkpt>
      <trkpt lat="46.7621" lon="-2.02785">
        <ele>8</ele>
        <time>2018-01-09T00:48:16Z</time>
      </trkpt>
      <trkpt lat="46.76193" lon="-2.02769">
        <ele>9</ele>
        <time>2018-01-09T00:49:16Z</time>
      </trkpt>
      <trkpt lat="46.76153" lon="-2.02736">
        <ele>10</ele>
        <time>2018-01-09T00:50:16Z</time>
      </trkpt>
      <trkpt lat="46.76152" lon="-2.02735">
        <ele>10</ele>
        <time>2018-01-09T00:51:16Z</time>
      </trkpt>
      <trkpt lat="46.76142" lon="-2.02727">
        <ele>10</ele>
        <time>2018-01-09T00:52:16Z</time>
      </trkpt>
      <trkpt lat="46.76115" lon="-2.02706">
        <ele>9</ele>
        <time>2018-01-09T00:53:16Z</time>
      </trkpt>
      <trkpt lat="46.76103" lon="-2.02696">
        <ele>8</ele>
        <time>2018-01-09T00:54:16Z</time>
      </trkpt>
      <trkpt lat="46.76094" lon="-2.0269">
        <ele>8</ele>
        <time>2018-01-09T00:55:16Z</time>
      </trkpt>
      <trkpt lat="46.76087" lon="-2.02684">
        <ele>8</ele>
        <time>2018-01-09T00:56:16Z</time>
      </trkpt>
      <trkpt lat="46.7608" lon="-2.02679">
        <ele>8</ele>
        <time>2018-01-09T00:57:16Z</time>
      </trkpt>
      <trkpt lat="46.76072" lon="-2.02672">
        <ele>7</ele>
        <time>2018-01-09T00:58:16Z</time>
      </trkpt>
      <trkpt lat="46.76064" lon="-2.02665">
        <ele>7</ele>
        <time>2018-01-09T00:59:16Z</time>
      </trkpt>
      <trkpt lat="46.76054" lon="-2.02655">
        <ele>7</ele>
        <time>2018-01-09T01:00:16Z</time>
      </trkpt>
      <trkpt lat="46.76049" lon="-2.02649">
        <ele>7</ele>
        <time>2018-01-09T01:01:16Z</time>
      </trkpt>
      <trkpt lat="46.76045" lon="-2.02644">
        <ele>7</ele>
        <time>2018-01-09T01:02:16Z</time>
      </trkpt>
      <trkpt lat="46.76035" lon="-2.02631">
        <ele>6</ele>
        <time>2018-01-09T01:03:16Z</time>
      </trkpt>
      <trkpt lat="46.76015" lon="-2.02602">
        <ele>6</ele>
        <time>2018-01-09T01:04:16Z</time>
      </trkpt>
      <trkpt lat="46.76004" lon="-2.02584">
        <ele>6</ele>
        <time>2018-01-09T01:05:16Z</time>
      </trkpt>
      <trkpt lat="46.75985" lon="-2.0256">
        <ele>6</ele>
        <time>2018-01-09T01:06:16Z</time>
      </trkpt>
      <trkpt lat="46.75982" lon="-2.02556">
        <ele>6</ele>
        <time>2018-01-09T01:07:16Z</time>
      </trkpt>
      <trkpt lat="46.75981" lon="-2.02558">
        <ele>6</ele>
        <time>2018-01-09T01:08:16Z</time>
      </trkpt>
      <trkpt lat="46.75979" lon="-2.02559">
        <ele>6</ele>
        <time>2018-01-09T01:09:16Z</time>
      </trkpt>
      <trkpt lat="46.75977" lon="-2.02559">
        <ele>6</ele>
        <time>2018-01-09T01:10:16Z</time>
      </trkpt>
      <trkpt lat="46.75976" lon="-2.02559">
        <ele>6</ele>
        <time>2018-01-09T01:11:16Z</time>
      </trkpt>
      <trkpt lat="46.75974" lon="-2.02558">
        <ele>6</ele>
        <time>2018-01-09T01:12:16Z</time>
      </trkpt>
      <trkpt lat="46.75973" lon="-2.02557">
        <ele>6</ele>
        <time>2018-01-09T01:13:16Z</time>
      </trkpt>
      <trkpt lat="46.75972" lon="-2.02556">
        <ele>6</ele>
        <time>2018-01-09T01:14:16Z</time>
      </trkpt>
      <trkpt lat="46.75971" lon="-2.02553">
        <ele>6</ele>
        <time>2018-01-09T01:15:16Z</time>
      </trkpt>
      <trkpt lat="46.75971" lon="-2.02549">
        <ele>6</ele>
        <time>2018-01-09T01:16:16Z</time>
      </trkpt>
      <trkpt lat="46.75972" lon="-2.02547">
        <ele>6</ele>
        <time>2018-01-09T01:17:16Z</time>
      </trkpt>
      <trkpt lat="46.75972" lon="-2.02545">
        <ele>6</ele>
        <time>2018-01-09T01:18:16Z</time>
      </trkpt>
      <trkpt lat="46.7597" lon="-2.02541">
        <ele>6</ele>
        <time>2018-01-09T01:19:16Z</time>
      </trkpt>
      <trkpt lat="46.75958" lon="-2.02529">
        <ele>6</ele>
        <time>2018-01-09T01:20:16Z</time>
      </trkpt>
      <trkpt lat="46.75953" lon="-2.02526">
        <ele>6</ele>
        <time>2018-01-09T01:21:16Z</time>
      </trkpt>
      <trkpt lat="46.75937" lon="-2.02514">
        <ele>6</ele>
        <time>2018-01-09T01:22:16Z</time>
      </trkpt>
      <trkpt lat="46.75924" lon="-2.02505">
        <ele>6</ele>
        <time>2018-01-09T01:23:16Z</time>
      </trkpt>
      <trkpt lat="46.75922" lon="-2.02504">
        <ele>6</ele>
        <time>2018-01-09T01:24:16Z</time>
      </trkpt>
      <trkpt lat="46.75907" lon="-2.02498">
        <ele>6</ele>
        <time>2018-01-09T01:25:16Z</time>
      </trkpt>
      <trkpt lat="46.75893" lon="-2.02493">
        <ele>6</ele>
        <time>2018-01-09T01:26:16Z</time>
      </trkpt>
      <trkpt lat="46.75887" lon="-2.0249">
        <ele>6</ele>
        <time>2018-01-09T01:27:16Z</time>
      </trkpt>
      <trkpt lat="46.75884" lon="-2.0249">
        <ele>6</ele>
        <time>2018-01-09T01:28:16Z</time>
      </trkpt>
      <trkpt lat="46.75865" lon="-2.02483">
        <ele>6</ele>
        <time>2018-01-09T01:29:16Z</time>
      </trkpt>
      <trkpt lat="46.75847" lon="-2.02478">
        <ele>6</ele>
        <time>2018-01-09T01:30:16Z</time>
      </trkpt>
      <trkpt lat="46.75821" lon="-2.02474">
        <ele>6</ele>
        <time>2018-01-09T01:31:16Z</time>
      </trkpt>
      <trkpt lat="46.75816" lon="-2.02473">
        <ele>6</ele>
        <time>2018-01-09T01:32:16Z</time>
      </trkpt>
      <trkpt lat="46.75806" lon="-2.02475">
        <ele>6</ele>
        <time>2018-01-09T01:33:16Z</time>
      </trkpt>
      <trkpt lat="46.75806" lon="-2.02476">
        <ele>6</ele>
        <time>2018-01-09T01:34:16Z</time>
      </trkpt>
      <trkpt lat="46.75806" lon="-2.02477">
        <ele>6</ele>
        <time>2018-01-09T01:35:16Z</time>
      </trkpt>
      <trkpt lat="46.75805" lon="-2.02478">
        <ele>6</ele>
        <time>2018-01-09T01:36:16Z</time>
      </trkpt>
      <trkpt lat="46.75805" lon="-2.02479">
        <ele>6</ele>
        <time>2018-01-09T01:37:16Z</time>
      </trkpt>
      <trkpt lat="46.75805" lon="-2.0248">
        <ele>6</ele>
        <time>2018-01-09T01:38:16Z</time>
      </trkpt>
      <trkpt lat="46.75804" lon="-2.0248">
        <ele>6</ele>
        <time>2018-01-09T01:39:16Z</time>
      </trkpt>
      <trkpt lat="46.75804" lon="-2.02481">
        <ele>6</ele>
        <time>2018-01-09T01:40:16Z</time>
      </trkpt>
      <trkpt lat="46.75804" lon="-2.02482">
        <ele>6</ele>
        <time>2018-01-09T01:41:16Z</time>
      </trkpt>
      <trkpt lat="46.75803" lon="-2.02482">
        <ele>6</ele>
        <time>2018-01-09T01:42:16Z</time>
      </trkpt>
      <trkpt lat="46.75803" lon="-2.02483">
        <ele>6</ele>
        <time>2018-01-09T01:43:16Z</time>
      </trkpt>
      <trkpt lat="46.75802" lon="-2.02483">
        <ele>6</ele>
        <time>2018-01-09T01:44:16Z</time>
      </trkpt>
      <trkpt lat="46.75801" lon="-2.02483">
        <ele>6</ele>
        <time>2018-01-09T01:45:16Z</time>
      </trkpt>
      <trkpt lat="46.758" lon="-2.02483">
        <ele>6</ele>
        <time>2018-01-09T01:46:16Z</time>
      </trkpt>
      <trkpt lat="46.75799" lon="-2.02483">
        <ele>6</ele>
        <time>2018-01-09T01:47:16Z</time>
      </trkpt>
      <trkpt lat="46.75798" lon="-2.02483">
        <ele>5</ele>
        <time>2018-01-09T01:48:16Z</time>
      </trkpt>
      <trkpt lat="46.75798" lon="-2.02482">
        <ele>5</ele>
        <time>2018-01-09T01:49:16Z</time>
      </trkpt>
      <trkpt lat="46.75797" lon="-2.02482">
        <ele>5</ele>
        <time>2018-01-09T01:50:16Z</time>
      </trkpt>
      <trkpt lat="46.75797" lon="-2.02481">
        <ele>5</ele>
        <time>2018-01-09T01:51:16Z</time>
      </trkpt>
      <trkpt lat="46.75796" lon="-2.02481">
        <ele>5</ele>
        <time>2018-01-09T01:52:16Z</time>
      </trkpt>
      <trkpt lat="46.75796" lon="-2.0248">
        <ele>5</ele>
        <time>2018-01-09T01:53:16Z</time>
      </trkpt>
      <trkpt lat="46.75796" lon="-2.02479">
        <ele>5</ele>
        <time>2018-01-09T01:54:16Z</time>
      </trkpt>
      <trkpt lat="46.75796" lon="-2.02478">
        <ele>5</ele>
        <time>2018-01-09T01:55:16Z</time>
      </trkpt>
      <trkpt lat="46.75795" lon="-2.02478">
        <ele>5</ele>
        <time>2018-01-09T01:56:16Z</time>
      </trkpt>
      <trkpt lat="46.75795" lon="-2.02477">
        <ele>5</ele>
        <time>2018-01-09T01:57:16Z</time>
      </trkpt>
      <trkpt lat="46.75795" lon="-2.02476">
        <ele>5</ele>
        <time>2018-01-09T01:58:16Z</time>
      </trkpt>
      <trkpt lat="46.75795" lon="-2.02475">
        <ele>5</ele>
        <time>2018-01-09T01:59:16Z</time>
      </trkpt>
      <trkpt lat="46.75795" lon="-2.02474">
        <ele>5</ele>
        <time>2018-01-09T02:00:16Z</time>
      </trkpt>
      <trkpt lat="46.75788" lon="-2.02472">
        <ele>5</ele>
        <time>2018-01-09T02:01:16Z</time>
      </trkpt>
      <trkpt lat="46.75784" lon="-2.0247">
        <ele>5</ele>
        <time>2018-01-09T02:02:16Z</time>
      </trkpt>
      <trkpt lat="46.7578" lon="-2.02469">
        <ele>5</ele>
        <time>2018-01-09T02:03:16Z</time>
      </trkpt>
      <trkpt lat="46.75775" lon="-2.02468">
        <ele>5</ele>
        <time>2018-01-09T02:04:16Z</time>
      </trkpt>
      <trkpt lat="46.7575" lon="-2.02463">
        <ele>5</ele>
        <time>2018-01-09T02:05:16Z</time>
      </trkpt>
      <trkpt lat="46.75741" lon="-2.0246">
        <ele>5</ele>
        <time>2018-01-09T02:06:16Z</time>
      </trkpt>
      <trkpt lat="46.75738" lon="-2.02459">
        <ele>5</ele>
        <time>2018-01-09T02:07:16Z</time>
      </trkpt>
      <trkpt lat="46.75733" lon="-2.02456">
        <ele>4</ele>
        <time>2018-01-09T02:08:16Z</time>
      </trkpt>
      <trkpt lat="46.75728" lon="-2.02453">
        <ele>4</ele>
        <time>2018-01-09T02:09:16Z</time>
      </trkpt>
      <trkpt lat="46.75722" lon="-2.02449">
        <ele>4</ele>
        <time>2018-01-09T02:10:16Z</time>
      </trkpt>
      <trkpt lat="46.75717" lon="-2.02444">
        <ele>4</ele>
        <time>2018-01-09T02:11:16Z</time>
      </trkpt>
      <trkpt lat="46.75712" lon="-2.02438">
        <ele>4</ele>
        <time>2018-01-09T02:12:16Z</time>
      </trkpt>
      <trkpt lat="46.75709" lon="-2.02434">
        <ele>4</ele>
        <time>2018-01-09T02:13:16Z</time>
      </trkpt>
      <trkpt lat="46.75706" lon="-2.02431">
        <ele>4</ele>
        <time>2018-01-09T02:14:16Z</time>
      </trkpt>
      <trkpt lat="46.75704" lon="-2.02428">
        <ele>4</ele>
        <time>2018-01-09T02:15:16Z</time>
      </trkpt>
      <trkpt lat="46.75697" lon="-2.0242">
        <ele>4</ele>
        <time>2018-01-09T02:16:16Z</time>
      </trkpt>
      <trkpt lat="46.75683" lon="-2.02399">
        <ele>4</ele>
        <time>2018-01-09T02:17:16Z</time>
      </trkpt>
      <trkpt lat="46.75663" lon="-2.02374">
        <ele>4</ele>
        <time>2018-01-09T02:18:16Z</time>
      </trkpt>
      <trkpt lat="46.75642" lon="-2.02347">
        <ele>4</ele>
        <time>2018-01-09T02:19:16Z</time>
      </trkpt>
      <trkpt lat="46.7562" lon="-2.0233">
        <ele>3</ele>
        <time>2018-01-09T02:20:16Z</time>
      </trkpt>
      <trkpt lat="46.75594" lon="-2.02308">
        <ele>1</ele>
        <time>2018-01-09T02:21:16Z</time>
      </trkpt>
      <trkpt lat="46.75568" lon="-2.02289">
        <ele>1</ele>
        <time>2018-01-09T02:22:16Z</time>
      </trkpt>
      <trkpt lat="46.75543" lon="-2.0227">
        <ele>1</ele>
        <time>2018-01-09T02:23:16Z</time>
      </trkpt>
      <trkpt lat="46.75524" lon="-2.02253">
        <ele>1</ele>
        <time>2018-01-09T02:24:16Z</time>
      </trkpt>
      <trkpt lat="46.75519" lon="-2.02246">
        <ele>1</ele>
        <time>2018-01-09T02:25:16Z</time>
      </trkpt>
      <trkpt lat="46.75514" lon="-2.02239">
        <ele>1</ele>
        <time>2018-01-09T02:26:16Z</time>
      </trkpt>
      <trkpt lat="46.75509" lon="-2.02232">
        <ele>1</ele>
        <time>2018-01-09T02:27:16Z</time>
      </trkpt>
      <trkpt lat="46.75506" lon="-2.02226">
        <ele>1</ele>
        <time>2018-01-09T02:28:16Z</time>
      </trkpt>
      <trkpt lat="46.75503" lon="-2.02221">
        <ele>1</ele>
        <time>2018-01-09T02:29:16Z</time>
      </trkpt>
      <trkpt lat="46.75501" lon="-2.02214">
        <ele>1</ele>
        <time>2018-01-09T02:30:16Z</time>
      </trkpt>
      <trkpt lat="46.75498" lon="-2.02207">
        <ele>2</ele>
        <time>2018-01-09T02:31:16Z</time>
      </trkpt>
      <trkpt lat="46.75494" lon="-2.02195">
        <ele>2</ele>
        <time>2018-01-09T02:32:16Z</time>
      </trkpt>
      <trkpt lat="46.75493" lon="-2.0219">
        <ele>2</ele>
        <time>2018-01-09T02:33:16Z</time>
      </trkpt>
      <trkpt lat="46.75489" lon="-2.02176">
        <ele>2</ele>
        <time>2018-01-09T02:34:16Z</time>
      </trkpt>
      <trkpt lat="46.75484" lon="-2.02161">
        <ele>2</ele>
        <time>2018-01-09T02:35:16Z</time>
      </trkpt>
      <trkpt lat="46.75479" lon="-2.02148">
        <ele>2</ele>
        <time>2018-01-09T02:36:16Z</time>
      </trkpt>
      <trkpt lat="46.75474" lon="-2.02131">
        <ele>2</ele>
        <time>2018-01-09T02:37:16Z</time>
      </trkpt>
      <trkpt lat="46.7547" lon="-2.02123">
        <ele>3</ele>
        <time>2018-01-09T02:38:16Z</time>
      </trkpt>
      <trkpt lat="46.75466" lon="-2.02113">
        <ele>3</ele>
        <time>2018-01-09T02:39:16Z</time>
      </trkpt>
      <trkpt lat="46.75459" lon="-2.021">
        <ele>3</ele>
        <time>2018-01-09T02:40:16Z</time>
      </trkpt>
      <trkpt lat="46.75454" lon="-2.02092">
        <ele>3</ele>
        <time>2018-01-09T02:41:16Z</time>
      </trkpt>
      <trkpt lat="46.75453" lon="-2.02089">
        <ele>3</ele>
        <time>2018-01-09T02:42:16Z</time>
      </trkpt>
      <trkpt lat="46.75449" lon="-2.02083">
        <ele>3</ele>
        <time>2018-01-09T02:43:16Z</time>
      </trkpt>
      <trkpt lat="46.75445" lon="-2.02076">
        <ele>3</ele>
        <time>2018-01-09T02:44:16Z</time>
      </trkpt>
      <trkpt lat="46.75435" lon="-2.02063">
        <ele>2</ele>
        <time>2018-01-09T02:45:16Z</time>
      </trkpt>
      <trkpt lat="46.75428" lon="-2.02053">
        <ele>2</ele>
        <time>2018-01-09T02:46:16Z</time>
      </trkpt>
      <trkpt lat="46.75417" lon="-2.0204">
        <ele>2</ele>
        <time>2018-01-09T02:47:16Z</time>
      </trkpt>
      <trkpt lat="46.75404" lon="-2.02024">
        <ele>2</ele>
        <time>2018-01-09T02:48:16Z</time>
      </trkpt>
      <trkpt lat="46.75389" lon="-2.02007">
        <ele>2</ele>
        <time>2018-01-09T02:49:16Z</time>
      </trkpt>
      <trkpt lat="46.75375" lon="-2.01991">
        <ele>2</ele>
        <time>2018-01-09T02:50:16Z</time>
      </trkpt>
      <trkpt lat="46.75354" lon="-2.01964">
        <ele>3</ele>
        <time>2018-01-09T02:51:16Z</time>
      </trkpt>
      <trkpt lat="46.75348" lon="-2.01954">
        <ele>3</ele>
        <time>2018-01-09T02:52:16Z</time>
      </trkpt>
      <trkpt lat="46.75345" lon="-2.01949">
        <ele>3</ele>
        <time>2018-01-09T02:53:16Z</time>
      </trkpt>
      <trkpt lat="46.75332" lon="-2.01929">
        <ele>3</ele>
        <time>2018-01-09T02:54:16Z</time>
      </trkpt>
      <trkpt lat="46.75312" lon="-2.01896">
        <ele>3</ele>
        <time>2018-01-09T02:55:16Z</time>
      </trkpt>
      <trkpt lat="46.75285" lon="-2.01854">
        <ele>2</ele>
        <time>2018-01-09T02:56:16Z</time>
      </trkpt>
      <trkpt lat="46.75262" lon="-2.01823">
        <ele>2</ele>
        <time>2018-01-09T02:57:16Z</time>
      </trkpt>
      <trkpt lat="46.7525" lon="-2.01807">
        <ele>2</ele>
        <time>2018-01-09T02:58:16Z</time>
      </trkpt>
      <trkpt lat="46.7522" lon="-2.01766">
        <ele>3</ele>
        <time>2018-01-09T02:59:16Z</time>
      </trkpt>
      <trkpt lat="46.752" lon="-2.01737">
        <ele>3</ele>
        <time>2018-01-09T03:00:16Z</time>
      </trkpt>
      <trkpt lat="46.75196" lon="-2.01732">
        <ele>3</ele>
        <time>2018-01-09T03:01:16Z</time>
      </trkpt>
      <trkpt lat="46.75167" lon="-2.01688">
        <ele>4</ele>
        <time>2018-01-09T03:02:16Z</time>
      </trkpt>
      <trkpt lat="46.75163" lon="-2.01681">
        <ele>4</ele>
        <time>2018-01-09T03:03:16Z</time>
      </trkpt>
      <trkpt lat="46.7514" lon="-2.0164">
        <ele>4</ele>
        <time>2018-01-09T03:04:16Z</time>
      </trkpt>
      <trkpt lat="46.75134" lon="-2.01632">
        <ele>4</ele>
        <time>2018-01-09T03:05:16Z</time>
      </trkpt>
      <trkpt lat="46.7513" lon="-2.0163">
        <ele>4</ele>
        <time>2018-01-09T03:06:16Z</time>
      </trkpt>
      <trkpt lat="46.75126" lon="-2.01627">
        <ele>4</ele>
        <time>2018-01-09T03:07:16Z</time>
      </trkpt>
      <trkpt lat="46.7512" lon="-2.01629">
        <ele>4</ele>
        <time>2018-01-09T03:08:16Z</time>
      </trkpt>
      <trkpt lat="46.75116" lon="-2.01628">
        <ele>4</ele>
        <time>2018-01-09T03:09:16Z</time>
      </trkpt>
      <trkpt lat="46.75112" lon="-2.01626">
        <ele>4</ele>
        <time>2018-01-09T03:10:16Z</time>
      </trkpt>
      <trkpt lat="46.75109" lon="-2.01623">
        <ele>4</ele>
        <time>2018-01-09T03:11:16Z</time>
      </trkpt>
      <trkpt lat="46.75107" lon="-2.01618">
        <ele>4</ele>
        <time>2018-01-09T03:12:16Z</time>
      </trkpt>
      <trkpt lat="46.75106" lon="-2.01612">
        <ele>4</ele>
        <time>2018-01-09T03:13:16Z</time>
      </trkpt>
      <trkpt lat="46.75105" lon="-2.01607">
        <ele>4</ele>
        <time>2018-01-09T03:14:16Z</time>
      </trkpt>
      <trkpt lat="46.75106" lon="-2.01601">
        <ele>4</ele>
        <time>2018-01-09T03:15:16Z</time>
      </trkpt>
      <trkpt lat="46.75102" lon="-2.01593">
        <ele>4</ele>
        <time>2018-01-09T03:16:16Z</time>
      </trkpt>
      <trkpt lat="46.75099" lon="-2.01586">
        <ele>4</ele>
        <time>2018-01-09T03:17:16Z</time>
      </trkpt>
      <trkpt lat="46.75096" lon="-2.01579">
        <ele>4</ele>
        <time>2018-01-09T03:18:16Z</time>
      </trkpt>
      <trkpt lat="46.75084" lon="-2.01564">
        <ele>4</ele>
        <time>2018-01-09T03:19:16Z</time>
      </trkpt>
      <trkpt lat="46.75057" lon="-2.01531">
        <ele>4</ele>
        <time>2018-01-09T03:20:16Z</time>
      </trkpt>
      <trkpt lat="46.75037" lon="-2.01501">
        <ele>4</ele>
        <time>2018-01-09T03:21:16Z</time>
      </trkpt>
      <trkpt lat="46.75035" lon="-2.01499">
        <ele>4</ele>
        <time>2018-01-09T03:22:16Z</time>
      </trkpt>
      <trkpt lat="46.75018" lon="-2.01472">
        <ele>4</ele>
        <time>2018-01-09T03:23:16Z</time>
      </trkpt>
      <trkpt lat="46.74993" lon="-2.01431">
        <ele>4</ele>
        <time>2018-01-09T03:24:16Z</time>
      </trkpt>
      <trkpt lat="46.74972" lon="-2.01394">
        <ele>5</ele>
        <time>2018-01-09T03:25:16Z</time>
      </trkpt>
      <trkpt lat="46.74969" lon="-2.01389">
        <ele>5</ele>
        <time>2018-01-09T03:26:16Z</time>
      </trkpt>
      <trkpt lat="46.74958" lon="-2.01372">
        <ele>5</ele>
        <time>2018-01-09T03:27:16Z</time>
      </trkpt>
      <trkpt lat="46.74952" lon="-2.01363">
        <ele>6</ele>
        <time>2018-01-09T03:28:16Z</time>
      </trkpt>
      <trkpt lat="46.7495" lon="-2.01362">
        <ele>6</ele>
        <time>2018-01-09T03:29:16Z</time>
      </trkpt>
      <trkpt lat="46.74944" lon="-2.01355">
        <ele>6</ele>
        <time>2018-01-09T03:30:16Z</time>
      </trkpt>
      <trkpt lat="46.74927" lon="-2.01343">
        <ele>7</ele>
        <time>2018-01-09T03:31:16Z</time>
      </trkpt>
      <trkpt lat="46.74895" lon="-2.01325">
        <ele>7</ele>
        <time>2018-01-09T03:32:16Z</time>
      </trkpt>
      <trkpt lat="46.74863" lon="-2.01308">
        <ele>7</ele>
        <time>2018-01-09T03:33:16Z</time>
      </trkpt>
      <trkpt lat="46.74821" lon="-2.01285">
        <ele>6</ele>
        <time>2018-01-09T03:34:16Z</time>
      </trkpt>
      <trkpt lat="46.74784" lon="-2.01263">
        <ele>6</ele>
        <time>2018-01-09T03:35:16Z</time>
      </trkpt>
      <trkpt lat="46.74747" lon="-2.0124">
        <ele>7</ele>
        <time>2018-01-09T03:36:16Z</time>
      </trkpt>
      <trkpt lat="46.74723" lon="-2.01225">
        <ele>7</ele>
        <time>2018-01-09T03:37:16Z</time>
      </trkpt>
      <trkpt lat="46.74693" lon="-2.01205">
        <ele>8</ele>
        <time>2018-01-09T03:38:16Z</time>
      </trkpt>
      <trkpt lat="46.74682" lon="-2.01198">
        <ele>8</ele>
        <time>2018-01-09T03:39:16Z</time>
      </trkpt>
      <trkpt lat="46.74664" lon="-2.01183">
        <ele>8</ele>
        <time>2018-01-09T03:40:16Z</time>
      </trkpt>
      <trkpt lat="46.74646" lon="-2.01164">
        <ele>8</ele>
        <time>2018-01-09T03:41:16Z</time>
      </trkpt>
      <trkpt lat="46.74638" lon="-2.01154">
        <ele>8</ele>
        <time>2018-01-09T03:42:16Z</time>
      </trkpt>
      <trkpt lat="46.74613" lon="-2.01126">
        <ele>7</ele>
        <time>2018-01-09T03:43:16Z</time>
      </trkpt>
      <trkpt lat="46.74582" lon="-2.01089">
        <ele>4</ele>
        <time>2018-01-09T03:44:16Z</time>
      </trkpt>
      <trkpt lat="46.74564" lon="-2.01068">
        <ele>4</ele>
        <time>2018-01-09T03:45:16Z</time>
      </trkpt>
      <trkpt lat="46.74557" lon="-2.01058">
        <ele>4</ele>
        <time>2018-01-09T03:46:16Z</time>
      </trkpt>
      <trkpt lat="46.74538" lon="-2.01036">
        <ele>4</ele>
        <time>2018-01-09T03:47:16Z</time>
      </trkpt>
      <trkpt lat="46.74532" lon="-2.0103">
        <ele>5</ele>
        <time>2018-01-09T03:48:16Z</time>
      </trkpt>
      <trkpt lat="46.74512" lon="-2.01014">
        <ele>5</ele>
        <time>2018-01-09T03:49:16Z</time>
      </trkpt>
      <trkpt lat="46.74482" lon="-2.00986">
        <ele>4</ele>
        <time>2018-01-09T03:50:16Z</time>
      </trkpt>
      <trkpt lat="46.74463" lon="-2.00969">
        <ele>4</ele>
        <time>2018-01-09T03:51:16Z</time>
      </trkpt>
      <trkpt lat="46.74444" lon="-2.00952">
        <ele>4</ele>
        <time>2018-01-09T03:52:16Z</time>
      </trkpt>
      <trkpt lat="46.7439" lon="-2.00906">
        <ele>3</ele>
        <time>2018-01-09T03:53:16Z</time>
      </trkpt>
      <trkpt lat="46.74361" lon="-2.0088">
        <ele>3</ele>
        <time>2018-01-09T03:54:16Z</time>
      </trkpt>
      <trkpt lat="46.74345" lon="-2.00864">
        <ele>3</ele>
        <time>2018-01-09T03:55:16Z</time>
      </trkpt>
      <trkpt lat="46.74337" lon="-2.00853">
        <ele>3</ele>
        <time>2018-01-09T03:56:16Z</time>
      </trkpt>
      <trkpt lat="46.7433" lon="-2.00843">
        <ele>3</ele>
        <time>2018-01-09T03:57:16Z</time>
      </trkpt>
      <trkpt lat="46.74322" lon="-2.0083">
        <ele>3</ele>
        <time>2018-01-09T03:58:16Z</time>
      </trkpt>
      <trkpt lat="46.74312" lon="-2.00812">
        <ele>2</ele>
        <time>2018-01-09T03:59:16Z</time>
      </trkpt>
      <trkpt lat="46.74308" lon="-2.00805">
        <ele>2</ele>
        <time>2018-01-09T04:00:16Z</time>
      </trkpt>
      <trkpt lat="46.74301" lon="-2.00793">
        <ele>2</ele>
        <time>2018-01-09T04:01:16Z</time>
      </trkpt>
      <trkpt lat="46.74283" lon="-2.00765">
        <ele>2</ele>
        <time>2018-01-09T04:02:16Z</time>
      </trkpt>
      <trkpt lat="46.74275" lon="-2.00753">
        <ele>2</ele>
        <time>2018-01-09T04:03:16Z</time>
      </trkpt>
      <trkpt lat="46.7426" lon="-2.00726">
        <ele>2</ele>
        <time>2018-01-09T04:04:16Z</time>
      </trkpt>
      <trkpt lat="46.7425" lon="-2.00711">
        <ele>2</ele>
        <time>2018-01-09T04:05:16Z</time>
      </trkpt>
      <trkpt lat="46.74235" lon="-2.00689">
        <ele>3</ele>
        <time>2018-01-09T04:06:16Z</time>
      </trkpt>
      <trkpt lat="46.74191" lon="-2.00625">
        <ele>3</ele>
        <time>2018-01-09T04:07:16Z</time>
      </trkpt>
      <trkpt lat="46.74148" lon="-2.00565">
        <ele>3</ele>
        <time>2018-01-09T04:08:16Z</time>
      </trkpt>
      <trkpt lat="46.74143" lon="-2.00558">
        <ele>3</ele>
        <time>2018-01-09T04:09:16Z</time>
      </trkpt>
      <trkpt lat="46.74131" lon="-2.0054">
        <ele>3</ele>
        <time>2018-01-09T04:10:16Z</time>
      </trkpt>
      <trkpt lat="46.74124" lon="-2.00529">
        <ele>3</ele>
        <time>2018-01-09T04:11:16Z</time>
      </trkpt>
      <trkpt lat="46.74117" lon="-2.00519">
        <ele>3</ele>
        <time>2018-01-09T04:12:16Z</time>
      </trkpt>
      <trkpt lat="46.74114" lon="-2.00514">
        <ele>3</ele>
        <time>2018-01-09T04:13:16Z</time>
      </trkpt>
      <trkpt lat="46.74108" lon="-2.00504">
        <ele>3</ele>
        <time>2018-01-09T04:14:16Z</time>
      </trkpt>
      <trkpt lat="46.74103" lon="-2.00497">
        <ele>3</ele>
        <time>2018-01-09T04:15:16Z</time>
      </trkpt>
      <trkpt lat="46.74099" lon="-2.00488">
        <ele>3</ele>
        <time>2018-01-09T04:16:16Z</time>
      </trkpt>
      <trkpt lat="46.74096" lon="-2.00481">
        <ele>3</ele>
        <time>2018-01-09T04:17:16Z</time>
      </trkpt>
      <trkpt lat="46.74085" lon="-2.00458">
        <ele>3</ele>
        <time>2018-01-09T04:18:16Z</time>
      </trkpt>
      <trkpt lat="46.74078" lon="-2.00436">
        <ele>3</ele>
        <time>2018-01-09T04:19:16Z</time>
      </trkpt>
      <trkpt lat="46.74073" lon="-2.00423">
        <ele>3</ele>
        <time>2018-01-09T04:20:16Z</time>
      </trkpt>
      <trkpt lat="46.74067" lon="-2.00404">
        <ele>3</ele>
        <time>2018-01-09T04:21:16Z</time>
      </trkpt>
      <trkpt lat="46.74066" lon="-2.00393">
        <ele>3</ele>
        <time>2018-01-09T04:22:16Z</time>
      </trkpt>
      <trkpt lat="46.74065" lon="-2.00382">
        <ele>3</ele>
        <time>2018-01-09T04:23:16Z</time>
      </trkpt>
      <trkpt lat="46.74065" lon="-2.00368">
        <ele>3</ele>
        <time>2018-01-09T04:24:16Z</time>
      </trkpt>
      <trkpt lat="46.74067" lon="-2.00353">
        <ele>3</ele>
        <time>2018-01-09T04:25:16Z</time>
      </trkpt>
      <trkpt lat="46.7407" lon="-2.00339">
        <ele>2</ele>
        <time>2018-01-09T04:26:16Z</time>
      </trkpt>
      <trkpt lat="46.74075" lon="-2.00318">
        <ele>3</ele>
        <time>2018-01-09T04:27:16Z</time>
      </trkpt>
      <trkpt lat="46.74079" lon="-2.00302">
        <ele>3</ele>
        <time>2018-01-09T04:28:16Z</time>
      </trkpt>
      <trkpt lat="46.74085" lon="-2.00279">
        <ele>3</ele>
        <time>2018-01-09T04:29:16Z</time>
      </trkpt>
      <trkpt lat="46.74088" lon="-2.00267">
        <ele>4</ele>
        <time>2018-01-09T04:30:16Z</time>
      </trkpt>
      <trkpt lat="46.7411" lon="-2.00185">
        <ele>5</ele>
        <time>2018-01-09T04:31:16Z</time>
      </trkpt>
      <trkpt lat="46.74115" lon="-2.00164">
        <ele>5</ele>
        <time>2018-01-09T04:32:16Z</time>
      </trkpt>
      <trkpt lat="46.74119" lon="-2.00146">
        <ele>5</ele>
        <time>2018-01-09T04:33:16Z</time>
      </trkpt>
      <trkpt lat="46.74123" lon="-2.00124">
        <ele>6</ele>
        <time>2018-01-09T04:34:16Z</time>
      </trkpt>
      <trkpt lat="46.74127" lon="-2.001">
        <ele>6</ele>
        <time>2018-01-09T04:35:16Z</time>
      </trkpt>
      <trkpt lat="46.74134" lon="-2.0004">
        <ele>6</ele>
        <time>2018-01-09T04:36:16Z</time>
      </trkpt>
      <trkpt lat="46.74142" lon="-1.99944">
        <ele>6</ele>
        <time>2018-01-09T04:37:16Z</time>
      </trkpt>
      <trkpt lat="46.74143" lon="-1.99924">
        <ele>7</ele>
        <time>2018-01-09T04:38:16Z</time>
      </trkpt>
      <trkpt lat="46.74148" lon="-1.99843">
        <ele>7</ele>
        <time>2018-01-09T04:39:16Z</time>
      </trkpt>
      <trkpt lat="46.74154" lon="-1.99732">
        <ele>5</ele>
        <time>2018-01-09T04:40:16Z</time>
      </trkpt>
      <trkpt lat="46.74155" lon="-1.99686">
        <ele>5</ele>
        <time>2018-01-09T04:41:16Z</time>
      </trkpt>
      <trkpt lat="46.74157" lon="-1.99675">
        <ele>5</ele>
        <time>2018-01-09T04:42:16Z</time>
      </trkpt>
      <trkpt lat="46.74158" lon="-1.99666">
        <ele>5</ele>
        <time>2018-01-09T04:43:16Z</time>
      </trkpt>
      <trkpt lat="46.74162" lon="-1.99638">
        <ele>6</ele>
        <time>2018-01-09T04:44:16Z</time>
      </trkpt>
      <trkpt lat="46.74165" lon="-1.99622">
        <ele>6</ele>
        <time>2018-01-09T04:45:16Z</time>
      </trkpt>
      <trkpt lat="46.74174" lon="-1.9959">
        <ele>7</ele>
        <time>2018-01-09T04:46:16Z</time>
      </trkpt>
      <trkpt lat="46.74182" lon="-1.99559">
        <ele>6</ele>
        <time>2018-01-09T04:47:16Z</time>
      </trkpt>
      <trkpt lat="46.74192" lon="-1.99525">
        <ele>6</ele>
        <time>2018-01-09T04:48:16Z</time>
      </trkpt>
      <trkpt lat="46.742" lon="-1.99493">
        <ele>5</ele>
        <time>2018-01-09T04:49:16Z</time>
      </trkpt>
      <trkpt lat="46.74204" lon="-1.99474">
        <ele>5</ele>
        <time>2018-01-09T04:50:16Z</time>
      </trkpt>
      <trkpt lat="46.74206" lon="-1.99468">
        <ele>5</ele>
        <time>2018-01-09T04:51:16Z</time>
      </trkpt>
      <trkpt lat="46.74211" lon="-1.99436">
        <ele>5</ele>
        <time>2018-01-09T04:52:16Z</time>
      </trkpt>
      <trkpt lat="46.74216" lon="-1.99406">
        <ele>4</ele>
        <time>2018-01-09T04:53:16Z</time>
      </trkpt>
      <trkpt lat="46.74216" lon="-1.99393">
        <ele>5</ele>
        <time>2018-01-09T04:54:16Z</time>
      </trkpt>
      <trkpt lat="46.74216" lon="-1.99379">
        <ele>5</ele>
        <time>2018-01-09T04:55:16Z</time>
      </trkpt>
      <trkpt lat="46.74215" lon="-1.99361">
        <ele>5</ele>
        <time>2018-01-09T04:56:16Z</time>
      </trkpt>
      <trkpt lat="46.74215" lon="-1.99356">
        <ele>5</ele>
        <time>2018-01-09T04:57:16Z</time>
      </trkpt>
      <trkpt lat="46.74212" lon="-1.99342">
        <ele>5</ele>
        <time>2018-01-09T04:58:16Z</time>
      </trkpt>
      <trkpt lat="46.74204" lon="-1.99332">
        <ele>6</ele>
        <time>2018-01-09T04:59:16Z</time>
      </trkpt>
      <trkpt lat="46.74197" lon="-1.99324">
        <ele>6</ele>
        <time>2018-01-09T05:00:16Z</time>
      </trkpt>
      <trkpt lat="46.74197" lon="-1.99324">
        <ele>6</ele>
        <time>2018-01-09T05:01:16Z</time>
      </trkpt>
      <trkpt lat="46.74194" lon="-1.99324">
        <ele>6</ele>
        <time>2018-01-09T05:02:16Z</time>
      </trkpt>
      <trkpt lat="46.7419" lon="-1.99324">
        <ele>6</ele>
        <time>2018-01-09T05:03:16Z</time>
      </trkpt>
      <trkpt lat="46.74186" lon="-1.99322">
        <ele>6</ele>
        <time>2018-01-09T05:04:16Z</time>
      </trkpt>
      <trkpt lat="46.74183" lon="-1.9932">
        <ele>6</ele>
        <time>2018-01-09T05:05:16Z</time>
      </trkpt>
      <trkpt lat="46.74181" lon="-1.99317">
        <ele>6</ele>
        <time>2018-01-09T05:06:16Z</time>
      </trkpt>
      <trkpt lat="46.74179" lon="-1.99312">
        <ele>6</ele>
        <time>2018-01-09T05:07:16Z</time>
      </trkpt>
      <trkpt lat="46.74178" lon="-1.99309">
        <ele>6</ele>
        <time>2018-01-09T05:08:16Z</time>
      </trkpt>
      <trkpt lat="46.74178" lon="-1.99306">
        <ele>5</ele>
        <time>2018-01-09T05:09:16Z</time>
      </trkpt>
      <trkpt lat="46.74178" lon="-1.99301">
        <ele>5</ele>
        <time>2018-01-09T05:10:16Z</time>
      </trkpt>
      <trkpt lat="46.74171" lon="-1.99291">
        <ele>5</ele>
        <time>2018-01-09T05:11:16Z</time>
      </trkpt>
      <trkpt lat="46.74167" lon="-1.99285">
        <ele>5</ele>
        <time>2018-01-09T05:12:16Z</time>
      </trkpt>
      <trkpt lat="46.74161" lon="-1.99278">
        <ele>4</ele>
        <time>2018-01-09T05:13:16Z</time>
      </trkpt>
      <trkpt lat="46.74115" lon="-1.99274">
        <ele>5</ele>
        <time>2018-01-09T05:14:16Z</time>
      </trkpt>
      <trkpt lat="46.74086" lon="-1.9927">
        <ele>5</ele>
        <time>2018-01-09T05:15:16Z</time>
      </trkpt>
      <trkpt lat="46.74042" lon="-1.99266">
        <ele>7</ele>
        <time>2018-01-09T05:16:16Z</time>
      </trkpt>
      <trkpt lat="46.74037" lon="-1.99265">
        <ele>7</ele>
        <time>2018-01-09T05:17:16Z</time>
      </trkpt>
      <trkpt lat="46.74013" lon="-1.99261">
        <ele>8</ele>
        <time>2018-01-09T05:18:16Z</time>
      </trkpt>
      <trkpt lat="46.73992" lon="-1.99255">
        <ele>9</ele>
        <time>2018-01-09T05:19:16Z</time>
      </trkpt>
      <trkpt lat="46.7397" lon="-1.99247">
        <ele>9</ele>
        <time>2018-01-09T05:20:16Z</time>
      </trkpt>
      <trkpt lat="46.73956" lon="-1.9924">
        <ele>9</ele>
        <time>2018-01-09T05:21:16Z</time>
      </trkpt>
      <trkpt lat="46.73934" lon="-1.99226">
        <ele>8</ele>
        <time>2018-01-09T05:22:16Z</time>
      </trkpt>
      <trkpt lat="46.73916" lon="-1.99212">
        <ele>8</ele>
        <time>2018-01-09T05:23:16Z</time>
      </trkpt>
      <trkpt lat="46.73877" lon="-1.99173">
        <ele>7</ele>
        <time>2018-01-09T05:24:16Z</time>
      </trkpt>
      <trkpt lat="46.73849" lon="-1.99145">
        <ele>8</ele>
        <time>2018-01-09T05:25:16Z</time>
      </trkpt>
      <trkpt lat="46.73818" lon="-1.99114">
        <ele>8</ele>
        <time>2018-01-09T05:26:16Z</time>
      </trkpt>
      <trkpt lat="46.73778" lon="-1.99073">
        <ele>8</ele>
        <time>2018-01-09T05:27:16Z</time>
      </trkpt>
      <trkpt lat="46.73748" lon="-1.99044">
        <ele>8</ele>
        <time>2018-01-09T05:28:16Z</time>
      </trkpt>
      <trkpt lat="46.73719" lon="-1.99017">
        <ele>8</ele>
        <time>2018-01-09T05:29:16Z</time>
      </trkpt>
      <trkpt lat="46.73706" lon="-1.99004">
        <ele>9</ele>
        <time>2018-01-09T05:30:16Z</time>
      </trkpt>
      <trkpt lat="46.73664" lon="-1.98966">
        <ele>8</ele>
        <time>2018-01-09T05:31:16Z</time>
      </trkpt>
      <trkpt lat="46.73663" lon="-1.98965">
        <ele>8</ele>
        <time>2018-01-09T05:32:16Z</time>
      </trkpt>
      <trkpt lat="46.7365" lon="-1.98953">
        <ele>8</ele>
        <time>2018-01-09T05:33:16Z</time>
      </trkpt>
      <trkpt lat="46.7363" lon="-1.98933">
        <ele>7</ele>
        <time>2018-01-09T05:34:16Z</time>
      </trkpt>
      <trkpt lat="46.73597" lon="-1.98901">
        <ele>7</ele>
        <time>2018-01-09T05:35:16Z</time>
      </trkpt>
      <trkpt lat="46.73569" lon="-1.98872">
        <ele>7</ele>
        <time>2018-01-09T05:36:16Z</time>
      </trkpt>
      <trkpt lat="46.73544" lon="-1.98848">
        <ele>7</ele>
        <time>2018-01-09T05:37:16Z</time>
      </trkpt>
      <trkpt lat="46.73528" lon="-1.98834">
        <ele>8</ele>
        <time>2018-01-09T05:38:16Z</time>
      </trkpt>
      <trkpt lat="46.73504" lon="-1.98811">
        <ele>8</ele>
        <time>2018-01-09T05:39:16Z</time>
      </trkpt>
      <trkpt lat="46.73474" lon="-1.98783">
        <ele>9</ele>
        <time>2018-01-09T05:40:16Z</time>
      </trkpt>
      <trkpt lat="46.73447" lon="-1.98757">
        <ele>8</ele>
        <time>2018-01-09T05:41:16Z</time>
      </trkpt>
      <trkpt lat="46.73441" lon="-1.98751">
        <ele>8</ele>
        <time>2018-01-09T05:42:16Z</time>
      </trkpt>
      <trkpt lat="46.73425" lon="-1.98734">
        <ele>9</ele>
        <time>2018-01-09T05:43:16Z</time>
      </trkpt>
      <trkpt lat="46.73414" lon="-1.9872">
        <ele>9</ele>
        <time>2018-01-09T05:44:16Z</time>
      </trkpt>
      <trkpt lat="46.73407" lon="-1.98708">
        <ele>9</ele>
        <time>2018-01-09T05:45:16Z</time>
      </trkpt>
      <trkpt lat="46.73404" lon="-1.98702">
        <ele>9</ele>
        <time>2018-01-09T05:46:16Z</time>
      </trkpt>
      <trkpt lat="46.73401" lon="-1.98693">
        <ele>9</ele>
        <time>2018-01-09T05:47:16Z</time>
      </trkpt>
      <trkpt lat="46.73397" lon="-1.98679">
        <ele>9</ele>
        <time>2018-01-09T05:48:16Z</time>
      </trkpt>
      <trkpt lat="46.73394" lon="-1.98667">
        <ele>9</ele>
        <time>2018-01-09T05:49:16Z</time>
      </trkpt>
      <trkpt lat="46.73393" lon="-1.9866">
        <ele>9</ele>
        <time>2018-01-09T05:50:16Z</time>
      </trkpt>
      <trkpt lat="46.73392" lon="-1.98653">
        <ele>9</ele>
        <time>2018-01-09T05:51:16Z</time>
      </trkpt>
      <trkpt lat="46.73389" lon="-1.98637">
        <ele>9</ele>
        <time>2018-01-09T05:52:16Z</time>
      </trkpt>
      <trkpt lat="46.73389" lon="-1.98633">
        <ele>9</ele>
        <time>2018-01-09T05:53:16Z</time>
      </trkpt>
      <trkpt lat="46.73389" lon="-1.98623">
        <ele>9</ele>
        <time>2018-01-09T05:54:16Z</time>
      </trkpt>
      <trkpt lat="46.73388" lon="-1.9861">
        <ele>9</ele>
        <time>2018-01-09T05:55:16Z</time>
      </trkpt>
      <trkpt lat="46.73387" lon="-1.98593">
        <ele>9</ele>
        <time>2018-01-09T05:56:16Z</time>
      </trkpt>
      <trkpt lat="46.73386" lon="-1.98577">
        <ele>9</ele>
        <time>2018-01-09T05:57:16Z</time>
      </trkpt>
      <trkpt lat="46.73383" lon="-1.98564">
        <ele>9</ele>
        <time>2018-01-09T05:58:16Z</time>
      </trkpt>
      <trkpt lat="46.7338" lon="-1.98549">
        <ele>9</ele>
        <time>2018-01-09T05:59:16Z</time>
      </trkpt>
      <trkpt lat="46.73375" lon="-1.98535">
        <ele>9</ele>
        <time>2018-01-09T06:00:16Z</time>
      </trkpt>
      <trkpt lat="46.73369" lon="-1.98518">
        <ele>9</ele>
        <time>2018-01-09T06:01:16Z</time>
      </trkpt>
      <trkpt lat="46.73362" lon="-1.98501">
        <ele>9</ele>
        <time>2018-01-09T06:02:16Z</time>
      </trkpt>
      <trkpt lat="46.73356" lon="-1.9849">
        <ele>9</ele>
        <time>2018-01-09T06:03:16Z</time>
      </trkpt>
      <trkpt lat="46.73347" lon="-1.98478">
        <ele>10</ele>
        <time>2018-01-09T06:04:16Z</time>
      </trkpt>
      <trkpt lat="46.73336" lon="-1.98466">
        <ele>10</ele>
        <time>2018-01-09T06:05:16Z</time>
      </trkpt>
      <trkpt lat="46.73318" lon="-1.98447">
        <ele>10</ele>
        <time>2018-01-09T06:06:16Z</time>
      </trkpt>
      <trkpt lat="46.73291" lon="-1.9842">
        <ele>10</ele>
        <time>2018-01-09T06:07:16Z</time>
      </trkpt>
      <trkpt lat="46.73263" lon="-1.98394">
        <ele>10</ele>
        <time>2018-01-09T06:08:16Z</time>
      </trkpt>
      <trkpt lat="46.73238" lon="-1.9837">
        <ele>11</ele>
        <time>2018-01-09T06:09:16Z</time>
      </trkpt>
      <trkpt lat="46.73213" lon="-1.98346">
        <ele>11</ele>
        <time>2018-01-09T06:10:16Z</time>
      </trkpt>
      <trkpt lat="46.7319" lon="-1.98325">
        <ele>12</ele>
        <time>2018-01-09T06:11:16Z</time>
      </trkpt>
      <trkpt lat="46.73174" lon="-1.98312">
        <ele>12</ele>
        <time>2018-01-09T06:12:16Z</time>
      </trkpt>
      <trkpt lat="46.73162" lon="-1.98305">
        <ele>12</ele>
        <time>2018-01-09T06:13:16Z</time>
      </trkpt>
      <trkpt lat="46.73152" lon="-1.98299">
        <ele>12</ele>
        <time>2018-01-09T06:14:16Z</time>
      </trkpt>
      <trkpt lat="46.73138" lon="-1.98291">
        <ele>12</ele>
        <time>2018-01-09T06:15:16Z</time>
      </trkpt>
      <trkpt lat="46.73123" lon="-1.98284">
        <ele>11</ele>
        <time>2018-01-09T06:16:16Z</time>
      </trkpt>
      <trkpt lat="46.73108" lon="-1.98278">
        <ele>11</ele>
        <time>2018-01-09T06:17:16Z</time>
      </trkpt>
      <trkpt lat="46.73092" lon="-1.98272">
        <ele>11</ele>
        <time>2018-01-09T06:18:16Z</time>
      </trkpt>
      <trkpt lat="46.7307" lon="-1.98262">
        <ele>11</ele>
        <time>2018-01-09T06:19:16Z</time>
      </trkpt>
      <trkpt lat="46.73054" lon="-1.98256">
        <ele>11</ele>
        <time>2018-01-09T06:20:16Z</time>
      </trkpt>
      <trkpt lat="46.73021" lon="-1.98242">
        <ele>10</ele>
        <time>2018-01-09T06:21:16Z</time>
      </trkpt>
      <trkpt lat="46.72964" lon="-1.98218">
        <ele>11</ele>
        <time>2018-01-09T06:22:16Z</time>
      </trkpt>
      <trkpt lat="46.72862" lon="-1.98176">
        <ele>9</ele>
        <time>2018-01-09T06:23:16Z</time>
      </trkpt>
      <trkpt lat="46.72817" lon="-1.98158">
        <ele>9</ele>
        <time>2018-01-09T06:24:16Z</time>
      </trkpt>
      <trkpt lat="46.72793" lon="-1.98149">
        <ele>10</ele>
        <time>2018-01-09T06:25:16Z</time>
      </trkpt>
      <trkpt lat="46.72778" lon="-1.98142">
        <ele>10</ele>
        <time>2018-01-09T06:26:16Z</time>
      </trkpt>
      <trkpt lat="46.72761" lon="-1.98134">
        <ele>11</ele>
        <time>2018-01-09T06:27:16Z</time>
      </trkpt>
      <trkpt lat="46.72753" lon="-1.98131">
        <ele>11</ele>
        <time>2018-01-09T06:28:16Z</time>
      </trkpt>
      <trkpt lat="46.72738" lon="-1.98124">
        <ele>11</ele>
        <time>2018-01-09T06:29:16Z</time>
      </trkpt>
      <trkpt lat="46.72722" lon="-1.98115">
        <ele>11</ele>
        <time>2018-01-09T06:30:16Z</time>
      </trkpt>
      <trkpt lat="46.72704" lon="-1.98105">
        <ele>11</ele>
        <time>2018-01-09T06:31:16Z</time>
      </trkpt>
      <trkpt lat="46.72667" lon="-1.98081">
        <ele>10</ele>
        <time>2018-01-09T06:32:16Z</time>
      </trkpt>
      <trkpt lat="46.72619" lon="-1.98047">
        <ele>9</ele>
        <time>2018-01-09T06:33:16Z</time>
      </trkpt>
      <trkpt lat="46.72577" lon="-1.98018">
        <ele>8</ele>
        <time>2018-01-09T06:34:16Z</time>
      </trkpt>
      <trkpt lat="46.7254" lon="-1.97993">
        <ele>8</ele>
        <time>2018-01-09T06:35:16Z</time>
      </trkpt>
      <trkpt lat="46.72513" lon="-1.97975">
        <ele>8</ele>
        <time>2018-01-09T06:36:16Z</time>
      </trkpt>
      <trkpt lat="46.7249" lon="-1.97955">
        <ele>8</ele>
        <time>2018-01-09T06:37:16Z</time>
      </trkpt>
      <trkpt lat="46.7248" lon="-1.97945">
        <ele>8</ele>
        <time>2018-01-09T06:38:16Z</time>
      </trkpt>
      <trkpt lat="46.7247" lon="-1.97935">
        <ele>8</ele>
        <time>2018-01-09T06:39:16Z</time>
      </trkpt>
      <trkpt lat="46.72448" lon="-1.97908">
        <ele>8</ele>
        <time>2018-01-09T06:40:16Z</time>
      </trkpt>
      <trkpt lat="46.72432" lon="-1.97882">
        <ele>8</ele>
        <time>2018-01-09T06:41:16Z</time>
      </trkpt>
      <trkpt lat="46.72429" lon="-1.97876">
        <ele>7</ele>
        <time>2018-01-09T06:42:16Z</time>
      </trkpt>
      <trkpt lat="46.72421" lon="-1.97869">
        <ele>7</ele>
        <time>2018-01-09T06:43:16Z</time>
      </trkpt>
      <trkpt lat="46.72406" lon="-1.97849">
        <ele>7</ele>
        <time>2018-01-09T06:44:16Z</time>
      </trkpt>
      <trkpt lat="46.72405" lon="-1.97849">
        <ele>7</ele>
        <time>2018-01-09T06:45:16Z</time>
      </trkpt>
      <trkpt lat="46.72404" lon="-1.97849">
        <ele>7</ele>
        <time>2018-01-09T06:46:16Z</time>
      </trkpt>
      <trkpt lat="46.72403" lon="-1.97849">
        <ele>7</ele>
        <time>2018-01-09T06:47:16Z</time>
      </trkpt>
      <trkpt lat="46.72402" lon="-1.97849">
        <ele>7</ele>
        <time>2018-01-09T06:48:16Z</time>
      </trkpt>
      <trkpt lat="46.72401" lon="-1.97849">
        <ele>7</ele>
        <time>2018-01-09T06:49:16Z</time>
      </trkpt>
      <trkpt lat="46.72401" lon="-1.97848">
        <ele>7</ele>
        <time>2018-01-09T06:50:16Z</time>
      </trkpt>
      <trkpt lat="46.724" lon="-1.97848">
        <ele>7</ele>
        <time>2018-01-09T06:51:16Z</time>
      </trkpt>
      <trkpt lat="46.72399" lon="-1.97847">
        <ele>7</ele>
        <time>2018-01-09T06:52:16Z</time>
      </trkpt>
      <trkpt lat="46.72398" lon="-1.97845">
        <ele>7</ele>
        <time>2018-01-09T06:53:16Z</time>
      </trkpt>
      <trkpt lat="46.72397" lon="-1.97843">
        <ele>7</ele>
        <time>2018-01-09T06:54:16Z</time>
      </trkpt>
      <trkpt lat="46.72396" lon="-1.97841">
        <ele>7</ele>
        <time>2018-01-09T06:55:16Z</time>
      </trkpt>
      <trkpt lat="46.72396" lon="-1.9784">
        <ele>7</ele>
        <time>2018-01-09T06:56:16Z</time>
      </trkpt>
      <trkpt lat="46.72396" lon="-1.97839">
        <ele>7</ele>
        <time>2018-01-09T06:57:16Z</time>
      </trkpt>
      <trkpt lat="46.72396" lon="-1.97838">
        <ele>7</ele>
        <time>2018-01-09T06:58:16Z</time>
      </trkpt>
      <trkpt lat="46.72396" lon="-1.97837">
        <ele>7</ele>
        <time>2018-01-09T06:59:16Z</time>
      </trkpt>
      <trkpt lat="46.72395" lon="-1.97836">
        <ele>7</ele>
        <time>2018-01-09T07:00:16Z</time>
      </trkpt>
      <trkpt lat="46.72395" lon="-1.97835">
        <ele>7</ele>
        <time>2018-01-09T07:01:16Z</time>
      </trkpt>
      <trkpt lat="46.72396" lon="-1.97835">
        <ele>7</ele>
        <time>2018-01-09T07:02:16Z</time>
      </trkpt>
      <trkpt lat="46.72396" lon="-1.97834">
        <ele>7</ele>
        <time>2018-01-09T07:03:16Z</time>
      </trkpt>
      <trkpt lat="46.72396" lon="-1.97833">
        <ele>7</ele>
        <time>2018-01-09T07:04:16Z</time>
      </trkpt>
      <trkpt lat="46.72396" lon="-1.97832">
        <ele>7</ele>
        <time>2018-01-09T07:05:16Z</time>
      </trkpt>
      <trkpt lat="46.72396" lon="-1.97831">
        <ele>7</ele>
        <time>2018-01-09T07:06:16Z</time>
      </trkpt>
      <trkpt lat="46.72383" lon="-1.97806">
        <ele>7</ele>
        <time>2018-01-09T07:07:16Z</time>
      </trkpt>
      <trkpt lat="46.72381" lon="-1.97799">
        <ele>8</ele>
        <time>2018-01-09T07:08:16Z</time>
      </trkpt>
      <trkpt lat="46.72345" lon="-1.97737">
        <ele>9</ele>
        <time>2018-01-09T07:09:16Z</time>
      </trkpt>
      <trkpt lat="46.72306" lon="-1.97664">
        <ele>11</ele>
        <time>2018-01-09T07:10:16Z</time>
      </trkpt>
      <trkpt lat="46.72278" lon="-1.97612">
        <ele>12</ele>
        <time>2018-01-09T07:11:16Z</time>
      </trkpt>
      <trkpt lat="46.72268" lon="-1.97595">
        <ele>12</ele>
        <time>2018-01-09T07:12:16Z</time>
      </trkpt>
      <trkpt lat="46.72252" lon="-1.97565">
        <ele>12</ele>
        <time>2018-01-09T07:13:16Z</time>
      </trkpt>
      <trkpt lat="46.72229" lon="-1.97523">
        <ele>11</ele>
        <time>2018-01-09T07:14:16Z</time>
      </trkpt>
      <trkpt lat="46.72182" lon="-1.97442">
        <ele>10</ele>
        <time>2018-01-09T07:15:16Z</time>
      </trkpt>
      <trkpt lat="46.72144" lon="-1.97376">
        <ele>10</ele>
        <time>2018-01-09T07:16:16Z</time>
      </trkpt>
      <trkpt lat="46.72132" lon="-1.97353">
        <ele>10</ele>
        <time>2018-01-09T07:17:16Z</time>
      </trkpt>
      <trkpt lat="46.72114" lon="-1.97324">
        <ele>9</ele>
        <time>2018-01-09T07:18:16Z</time>
      </trkpt>
      <trkpt lat="46.72092" lon="-1.97285">
        <ele>9</ele>
        <time>2018-01-09T07:19:16Z</time>
      </trkpt>
      <trkpt lat="46.72062" lon="-1.97231">
        <ele>10</ele>
        <time>2018-01-09T07:20:16Z</time>
      </trkpt>
      <trkpt lat="46.72045" lon="-1.972">
        <ele>10</ele>
        <time>2018-01-09T07:21:16Z</time>
      </trkpt>
      <trkpt lat="46.72012" lon="-1.97137">
        <ele>11</ele>
        <time>2018-01-09T07:22:16Z</time>
      </trkpt>
      <trkpt lat="46.71999" lon="-1.97111">
        <ele>11</ele>
        <time>2018-01-09T07:23:16Z</time>
      </trkpt>
      <trkpt lat="46.7199" lon="-1.97098">
        <ele>12</ele>
        <time>2018-01-09T07:24:16Z</time>
      </trkpt>
      <trkpt lat="46.71969" lon="-1.97055">
        <ele>13</ele>
        <time>2018-01-09T07:25:16Z</time>
      </trkpt>
      <trkpt lat="46.71944" lon="-1.97005">
        <ele>14</ele>
        <time>2018-01-09T07:26:16Z</time>
      </trkpt>
      <trkpt lat="46.7193" lon="-1.96978">
        <ele>15</ele>
        <time>2018-01-09T07:27:16Z</time>
      </trkpt>
      <trkpt lat="46.71919" lon="-1.96958">
        <ele>15</ele>
        <time>2018-01-09T07:28:16Z</time>
      </trkpt>
      <trkpt lat="46.7189" lon="-1.96905">
        <ele>15</ele>
        <time>2018-01-09T07:29:16Z</time>
      </trkpt>
      <trkpt lat="46.71883" lon="-1.96894">
        <ele>15</ele>
        <time>2018-01-09T07:30:16Z</time>
      </trkpt>
      <trkpt lat="46.71868" lon="-1.96878">
        <ele>15</ele>
        <time>2018-01-09T07:31:16Z</time>
      </trkpt>
      <trkpt lat="46.71868" lon="-1.96878">
        <ele>15</ele>
        <time>2018-01-09T07:32:16Z</time>
      </trkpt>
      <trkpt lat="46.7186" lon="-1.96871">
        <ele>15</ele>
        <time>2018-01-09T07:33:16Z</time>
      </trkpt>
      <trkpt lat="46.71842" lon="-1.96866">
        <ele>15</ele>
        <time>2018-01-09T07:34:16Z</time>
      </trkpt>
      <trkpt lat="46.71833" lon="-1.96862">
        <ele>14</ele>
        <time>2018-01-09T07:35:16Z</time>
      </trkpt>
      <trkpt lat="46.71833" lon="-1.96862">
        <ele>14</ele>
        <time>2018-01-09T07:36:16Z</time>
      </trkpt>
      <trkpt lat="46.71826" lon="-1.96859">
        <ele>14</ele>
        <time>2018-01-09T07:37:16Z</time>
      </trkpt>
      <trkpt lat="46.71812" lon="-1.96843">
        <ele>14</ele>
        <time>2018-01-09T07:38:16Z</time>
      </trkpt>
      <trkpt lat="46.71808" lon="-1.96839">
        <ele>14</ele>
        <time>2018-01-09T07:39:16Z</time>
      </trkpt>
      <trkpt lat="46.71796" lon="-1.96835">
        <ele>14</ele>
        <time>2018-01-09T07:40:16Z</time>
      </trkpt>
      <trkpt lat="46.71781" lon="-1.9683">
        <ele>13</ele>
        <time>2018-01-09T07:41:16Z</time>
      </trkpt>
      <trkpt lat="46.71767" lon="-1.96825">
        <ele>13</ele>
        <time>2018-01-09T07:42:16Z</time>
      </trkpt>
      <trkpt lat="46.71755" lon="-1.9682">
        <ele>13</ele>
        <time>2018-01-09T07:43:16Z</time>
      </trkpt>
      <trkpt lat="46.71747" lon="-1.96817">
        <ele>13</ele>
        <time>2018-01-09T07:44:16Z</time>
      </trkpt>
      <trkpt lat="46.71738" lon="-1.96811">
        <ele>13</ele>
        <time>2018-01-09T07:45:16Z</time>
      </trkpt>
      <trkpt lat="46.71726" lon="-1.96803">
        <ele>13</ele>
        <time>2018-01-09T07:46:16Z</time>
      </trkpt>
      <trkpt lat="46.71712" lon="-1.96794">
        <ele>13</ele>
        <time>2018-01-09T07:47:16Z</time>
      </trkpt>
      <trkpt lat="46.71699" lon="-1.96786">
        <ele>13</ele>
        <time>2018-01-09T07:48:16Z</time>
      </trkpt>
      <trkpt lat="46.71689" lon="-1.96781">
        <ele>14</ele>
        <time>2018-01-09T07:49:16Z</time>
      </trkpt>
      <trkpt lat="46.7168" lon="-1.96777">
        <ele>14</ele>
        <time>2018-01-09T07:50:16Z</time>
      </trkpt>
      <trkpt lat="46.71672" lon="-1.96774">
        <ele>14</ele>
        <time>2018-01-09T07:51:16Z</time>
      </trkpt>
      <trkpt lat="46.71664" lon="-1.96774">
        <ele>14</ele>
        <time>2018-01-09T07:52:16Z</time>
      </trkpt>
      <trkpt lat="46.71657" lon="-1.96774">
        <ele>14</ele>
        <time>2018-01-09T07:53:16Z</time>
      </trkpt>
      <trkpt lat="46.7165" lon="-1.96775">
        <ele>14</ele>
        <time>2018-01-09T07:54:16Z</time>
      </trkpt>
      <trkpt lat="46.71643" lon="-1.96776">
        <ele>14</ele>
        <time>2018-01-09T07:55:16Z</time>
      </trkpt>
      <trkpt lat="46.71634" lon="-1.9678">
        <ele>14</ele>
        <time>2018-01-09T07:56:16Z</time>
      </trkpt>
      <trkpt lat="46.71615" lon="-1.96791">
        <ele>14</ele>
        <time>2018-01-09T07:57:16Z</time>
      </trkpt>
      <trkpt lat="46.71598" lon="-1.96802">
        <ele>14</ele>
        <time>2018-01-09T07:58:16Z</time>
      </trkpt>
      <trkpt lat="46.71593" lon="-1.96805">
        <ele>14</ele>
        <time>2018-01-09T07:59:16Z</time>
      </trkpt>
      <trkpt lat="46.71587" lon="-1.96807">
        <ele>14</ele>
        <time>2018-01-09T08:00:16Z</time>
      </trkpt>
      <trkpt lat="46.71581" lon="-1.96809">
        <ele>14</ele>
        <time>2018-01-09T08:01:16Z</time>
      </trkpt>
      <trkpt lat="46.71571" lon="-1.9681">
        <ele>14</ele>
        <time>2018-01-09T08:02:16Z</time>
      </trkpt>
      <trkpt lat="46.71558" lon="-1.96809">
        <ele>14</ele>
        <time>2018-01-09T08:03:16Z</time>
      </trkpt>
      <trkpt lat="46.71543" lon="-1.96807">
        <ele>14</ele>
        <time>2018-01-09T08:04:16Z</time>
      </trkpt>
      <trkpt lat="46.71528" lon="-1.96807">
        <ele>14</ele>
        <time>2018-01-09T08:05:16Z</time>
      </trkpt>
      <trkpt lat="46.71496" lon="-1.96806">
        <ele>13</ele>
        <time>2018-01-09T08:06:16Z</time>
      </trkpt>
      <trkpt lat="46.71474" lon="-1.96801">
        <ele>13</ele>
        <time>2018-01-09T08:07:16Z</time>
      </trkpt>
      <trkpt lat="46.71442" lon="-1.96789">
        <ele>13</ele>
        <time>2018-01-09T08:08:16Z</time>
      </trkpt>
      <trkpt lat="46.71424" lon="-1.96783">
        <ele>13</ele>
        <time>2018-01-09T08:09:16Z</time>
      </trkpt>
      <trkpt lat="46.71403" lon="-1.96777">
        <ele>14</ele>
        <time>2018-01-09T08:10:16Z</time>
      </trkpt>
      <trkpt lat="46.71403" lon="-1.96777">
        <ele>14</ele>
        <time>2018-01-09T08:11:16Z</time>
      </trkpt>
      <trkpt lat="46.71395" lon="-1.96774">
        <ele>14</ele>
        <time>2018-01-09T08:12:16Z</time>
      </trkpt>
      <trkpt lat="46.71382" lon="-1.96767">
        <ele>15</ele>
        <time>2018-01-09T08:13:16Z</time>
      </trkpt>
      <trkpt lat="46.7137" lon="-1.96762">
        <ele>15</ele>
        <time>2018-01-09T08:14:16Z</time>
      </trkpt>
      <trkpt lat="46.71362" lon="-1.96758">
        <ele>16</ele>
        <time>2018-01-09T08:15:16Z</time>
      </trkpt>
      <trkpt lat="46.71348" lon="-1.96755">
        <ele>16</ele>
        <time>2018-01-09T08:16:16Z</time>
      </trkpt>
      <trkpt lat="46.71332" lon="-1.96753">
        <ele>17</ele>
        <time>2018-01-09T08:17:16Z</time>
      </trkpt>
      <trkpt lat="46.7132" lon="-1.9675">
        <ele>17</ele>
        <time>2018-01-09T08:18:16Z</time>
      </trkpt>
      <trkpt lat="46.7131" lon="-1.96749">
        <ele>16</ele>
        <time>2018-01-09T08:19:16Z</time>
      </trkpt>
      <trkpt lat="46.713" lon="-1.9675">
        <ele>16</ele>
        <time>2018-01-09T08:20:16Z</time>
      </trkpt>
      <trkpt lat="46.71292" lon="-1.9675">
        <ele>16</ele>
        <time>2018-01-09T08:21:16Z</time>
      </trkpt>
      <trkpt lat="46.7128" lon="-1.96751">
        <ele>16</ele>
        <time>2018-01-09T08:22:16Z</time>
      </trkpt>
      <trkpt lat="46.71268" lon="-1.96753">
        <ele>15</ele>
        <time>2018-01-09T08:23:16Z</time>
      </trkpt>
      <trkpt lat="46.71248" lon="-1.9676">
        <ele>15</ele>
        <time>2018-01-09T08:24:16Z</time>
      </trkpt>
      <trkpt lat="46.71248" lon="-1.9676">
        <ele>15</ele>
        <time>2018-01-09T08:25:16Z</time>
      </trkpt>
      <trkpt lat="46.71239" lon="-1.96763">
        <ele>15</ele>
        <time>2018-01-09T08:26:16Z</time>
      </trkpt>
      <trkpt lat="46.71215" lon="-1.96763">
        <ele>15</ele>
        <time>2018-01-09T08:27:16Z</time>
      </trkpt>
      <trkpt lat="46.71179" lon="-1.96765">
        <ele>15</ele>
        <time>2018-01-09T08:28:16Z</time>
      </trkpt>
      <trkpt lat="46.71128" lon="-1.96765">
        <ele>14</ele>
        <time>2018-01-09T08:29:16Z</time>
      </trkpt>
      <trkpt lat="46.71081" lon="-1.96765">
        <ele>14</ele>
        <time>2018-01-09T08:30:16Z</time>
      </trkpt>
      <trkpt lat="46.71065" lon="-1.96766">
        <ele>14</ele>
        <time>2018-01-09T08:31:16Z</time>
      </trkpt>
      <trkpt lat="46.71039" lon="-1.96766">
        <ele>13</ele>
        <time>2018-01-09T08:32:16Z</time>
      </trkpt>
      <trkpt lat="46.71035" lon="-1.9677">
        <ele>13</ele>
        <time>2018-01-09T08:33:16Z</time>
      </trkpt>
      <trkpt lat="46.7103" lon="-1.96775">
        <ele>13</ele>
        <time>2018-01-09T08:34:16Z</time>
      </trkpt>
      <trkpt lat="46.71023" lon="-1.96781">
        <ele>13</ele>
        <time>2018-01-09T08:35:16Z</time>
      </trkpt>
      <trkpt lat="46.71023" lon="-1.96781">
        <ele>13</ele>
        <time>2018-01-09T08:36:16Z</time>
      </trkpt>
      <trkpt lat="46.71021" lon="-1.96786">
        <ele>13</ele>
        <time>2018-01-09T08:37:16Z</time>
      </trkpt>
      <trkpt lat="46.71019" lon="-1.96789">
        <ele>13</ele>
        <time>2018-01-09T08:38:16Z</time>
      </trkpt>
      <trkpt lat="46.71015" lon="-1.96791">
        <ele>13</ele>
        <time>2018-01-09T08:39:16Z</time>
      </trkpt>
      <trkpt lat="46.71012" lon="-1.96792">
        <ele>13</ele>
        <time>2018-01-09T08:40:16Z</time>
      </trkpt>
      <trkpt lat="46.71008" lon="-1.96792">
        <ele>13</ele>
        <time>2018-01-09T08:41:16Z</time>
      </trkpt>
      <trkpt lat="46.71004" lon="-1.96792">
        <ele>13</ele>
        <time>2018-01-09T08:42:16Z</time>
      </trkpt>
      <trkpt lat="46.71002" lon="-1.9679">
        <ele>13</ele>
        <time>2018-01-09T08:43:16Z</time>
      </trkpt>
      <trkpt lat="46.70999" lon="-1.96787">
        <ele>13</ele>
        <time>2018-01-09T08:44:16Z</time>
      </trkpt>
      <trkpt lat="46.70996" lon="-1.96783">
        <ele>13</ele>
        <time>2018-01-09T08:45:16Z</time>
      </trkpt>
      <trkpt lat="46.70994" lon="-1.96779">
        <ele>13</ele>
        <time>2018-01-09T08:46:16Z</time>
      </trkpt>
      <trkpt lat="46.70993" lon="-1.96774">
        <ele>13</ele>
        <time>2018-01-09T08:47:16Z</time>
      </trkpt>
      <trkpt lat="46.70993" lon="-1.9677">
        <ele>13</ele>
        <time>2018-01-09T08:48:16Z</time>
      </trkpt>
      <trkpt lat="46.70993" lon="-1.96765">
        <ele>13</ele>
        <time>2018-01-09T08:49:16Z</time>
      </trkpt>
      <trkpt lat="46.70994" lon="-1.96759">
        <ele>13</ele>
        <time>2018-01-09T08:50:16Z</time>
      </trkpt>
      <trkpt lat="46.7099" lon="-1.96745">
        <ele>13</ele>
        <time>2018-01-09T08:51:16Z</time>
      </trkpt>
      <trkpt lat="46.70986" lon="-1.96731">
        <ele>13</ele>
        <time>2018-01-09T08:52:16Z</time>
      </trkpt>
      <trkpt lat="46.70982" lon="-1.96719">
        <ele>13</ele>
        <time>2018-01-09T08:53:16Z</time>
      </trkpt>
      <trkpt lat="46.70981" lon="-1.96714">
        <ele>13</ele>
        <time>2018-01-09T08:54:16Z</time>
      </trkpt>
      <trkpt lat="46.70976" lon="-1.96705">
        <ele>13</ele>
        <time>2018-01-09T08:55:16Z</time>
      </trkpt>
      <trkpt lat="46.70973" lon="-1.96697">
        <ele>13</ele>
        <time>2018-01-09T08:56:16Z</time>
      </trkpt>
      <trkpt lat="46.70969" lon="-1.96685">
        <ele>13</ele>
        <time>2018-01-09T08:57:16Z</time>
      </trkpt>
      <trkpt lat="46.70963" lon="-1.96669">
        <ele>13</ele>
        <time>2018-01-09T08:58:16Z</time>
      </trkpt>
      <trkpt lat="46.70955" lon="-1.96651">
        <ele>13</ele>
        <time>2018-01-09T08:59:16Z</time>
      </trkpt>
      <trkpt lat="46.7095" lon="-1.9664">
        <ele>13</ele>
        <time>2018-01-09T09:00:16Z</time>
      </trkpt>
      <trkpt lat="46.70947" lon="-1.9663">
        <ele>13</ele>
        <time>2018-01-09T09:01:16Z</time>
      </trkpt>
      <trkpt lat="46.70943" lon="-1.96619">
        <ele>13</ele>
        <time>2018-01-09T09:02:16Z</time>
      </trkpt>
      <trkpt lat="46.70941" lon="-1.96605">
        <ele>13</ele>
        <time>2018-01-09T09:03:16Z</time>
      </trkpt>
      <trkpt lat="46.70939" lon="-1.96593">
        <ele>13</ele>
        <time>2018-01-09T09:04:16Z</time>
      </trkpt>
      <trkpt lat="46.70938" lon="-1.96578">
        <ele>13</ele>
        <time>2018-01-09T09:05:16Z</time>
      </trkpt>
      <trkpt lat="46.70938" lon="-1.96567">
        <ele>13</ele>
        <time>2018-01-09T09:06:16Z</time>
      </trkpt>
      <trkpt lat="46.70938" lon="-1.96557">
        <ele>13</ele>
        <time>2018-01-09T09:07:16Z</time>
      </trkpt>
      <trkpt lat="46.7094" lon="-1.96544">
        <ele>13</ele>
        <time>2018-01-09T09:08:16Z</time>
      </trkpt>
      <trkpt lat="46.70942" lon="-1.96531">
        <ele>13</ele>
        <time>2018-01-09T09:09:16Z</time>
      </trkpt>
      <trkpt lat="46.70946" lon="-1.96512">
        <ele>14</ele>
        <time>2018-01-09T09:10:16Z</time>
      </trkpt>
      <trkpt lat="46.7095" lon="-1.96493">
        <ele>14</ele>
        <time>2018-01-09T09:11:16Z</time>
      </trkpt>
      <trkpt lat="46.70955" lon="-1.9647">
        <ele>14</ele>
        <time>2018-01-09T09:12:16Z</time>
      </trkpt>
      <trkpt lat="46.70959" lon="-1.96453">
        <ele>14</ele>
        <time>2018-01-09T09:13:16Z</time>
      </trkpt>
      <trkpt lat="46.70963" lon="-1.96436">
        <ele>14</ele>
        <time>2018-01-09T09:14:16Z</time>
      </trkpt>
      <trkpt lat="46.70966" lon="-1.96422">
        <ele>14</ele>
        <time>2018-01-09T09:15:16Z</time>
      </trkpt>
      <trkpt lat="46.70969" lon="-1.96404">
        <ele>14</ele>
        <time>2018-01-09T09:16:16Z</time>
      </trkpt>
      <trkpt lat="46.70972" lon="-1.96386">
        <ele>13</ele>
        <time>2018-01-09T09:17:16Z</time>
      </trkpt>
      <trkpt lat="46.70975" lon="-1.96369">
        <ele>13</ele>
        <time>2018-01-09T09:18:16Z</time>
      </trkpt>
      <trkpt lat="46.70976" lon="-1.96356">
        <ele>13</ele>
        <time>2018-01-09T09:19:16Z</time>
      </trkpt>
      <trkpt lat="46.70978" lon="-1.9633">
        <ele>13</ele>
        <time>2018-01-09T09:20:16Z</time>
      </trkpt>
      <trkpt lat="46.70979" lon="-1.96306">
        <ele>13</ele>
        <time>2018-01-09T09:21:16Z</time>
      </trkpt>
      <trkpt lat="46.70979" lon="-1.96277">
        <ele>13</ele>
        <time>2018-01-09T09:22:16Z</time>
      </trkpt>
      <trkpt lat="46.70978" lon="-1.96247">
        <ele>13</ele>
        <time>2018-01-09T09:23:16Z</time>
      </trkpt>
      <trkpt lat="46.70978" lon="-1.96214">
        <ele>13</ele>
        <time>2018-01-09T09:24:16Z</time>
      </trkpt>
      <trkpt lat="46.70978" lon="-1.96188">
        <ele>13</ele>
        <time>2018-01-09T09:25:16Z</time>
      </trkpt>
      <trkpt lat="46.70977" lon="-1.96155">
        <ele>14</ele>
        <time>2018-01-09T09:26:16Z</time>
      </trkpt>
      <trkpt lat="46.70976" lon="-1.96132">
        <ele>15</ele>
        <time>2018-01-09T09:27:16Z</time>
      </trkpt>
      <trkpt lat="46.70976" lon="-1.96124">
        <ele>15</ele>
        <time>2018-01-09T09:28:16Z</time>
      </trkpt>
      <trkpt lat="46.70977" lon="-1.96114">
        <ele>15</ele>
        <time>2018-01-09T09:29:16Z</time>
      </trkpt>
      <trkpt lat="46.70977" lon="-1.96114">
        <ele>15</ele>
        <time>2018-01-09T09:30:16Z</time>
      </trkpt>
      <trkpt lat="46.70973" lon="-1.96112">
        <ele>16</ele>
        <time>2018-01-09T09:31:16Z</time>
      </trkpt>
      <trkpt lat="46.7097" lon="-1.96108">
        <ele>16</ele>
        <time>2018-01-09T09:32:16Z</time>
      </trkpt>
      <trkpt lat="46.70968" lon="-1.96102">
        <ele>16</ele>
        <time>2018-01-09T09:33:16Z</time>
      </trkpt>
      <trkpt lat="46.70967" lon="-1.96095">
        <ele>16</ele>
        <time>2018-01-09T09:34:16Z</time>
      </trkpt>
      <trkpt lat="46.70954" lon="-1.96093">
        <ele>16</ele>
        <time>2018-01-09T09:35:16Z</time>
      </trkpt>
      <trkpt lat="46.70938" lon="-1.96092">
        <ele>16</ele>
        <time>2018-01-09T09:36:16Z</time>
      </trkpt>
      <trkpt lat="46.7092" lon="-1.9609">
        <ele>16</ele>
        <time>2018-01-09T09:37:16Z</time>
      </trkpt>
      <trkpt lat="46.70901" lon="-1.96088">
        <ele>16</ele>
        <time>2018-01-09T09:38:16Z</time>
      </trkpt>
      <trkpt lat="46.70901" lon="-1.96088">
        <ele>16</ele>
        <time>2018-01-09T09:39:16Z</time>
      </trkpt>
      <trkpt lat="46.70896" lon="-1.96087">
        <ele>16</ele>
        <time>2018-01-09T09:40:16Z</time>
      </trkpt>
      <trkpt lat="46.70848" lon="-1.96082">
        <ele>15</ele>
        <time>2018-01-09T09:41:16Z</time>
      </trkpt>
      <trkpt lat="46.7081" lon="-1.96079">
        <ele>15</ele>
        <time>2018-01-09T09:42:16Z</time>
      </trkpt>
      <trkpt lat="46.70763" lon="-1.96074">
        <ele>16</ele>
        <time>2018-01-09T09:43:16Z</time>
      </trkpt>
      <trkpt lat="46.70722" lon="-1.96071">
        <ele>16</ele>
        <time>2018-01-09T09:44:16Z</time>
      </trkpt>
      <trkpt lat="46.70717" lon="-1.96071">
        <ele>16</ele>
        <time>2018-01-09T09:45:16Z</time>
      </trkpt>
      <trkpt lat="46.70684" lon="-1.96067">
        <ele>16</ele>
        <time>2018-01-09T09:46:16Z</time>
      </trkpt>
      <trkpt lat="46.70647" lon="-1.96064">
        <ele>16</ele>
        <time>2018-01-09T09:47:16Z</time>
      </trkpt>
      <trkpt lat="46.7063" lon="-1.96062">
        <ele>16</ele>
        <time>2018-01-09T09:48:16Z</time>
      </trkpt>
      <trkpt lat="46.70615" lon="-1.96059">
        <ele>16</ele>
        <time>2018-01-09T09:49:16Z</time>
      </trkpt>
      <trkpt lat="46.70579" lon="-1.96052">
        <ele>16</ele>
        <time>2018-01-09T09:50:16Z</time>
      </trkpt>
      <trkpt lat="46.70555" lon="-1.96046">
        <ele>16</ele>
        <time>2018-01-09T09:51:16Z</time>
      </trkpt>
      <trkpt lat="46.70533" lon="-1.96039">
        <ele>16</ele>
        <time>2018-01-09T09:52:16Z</time>
      </trkpt>
      <trkpt lat="46.70506" lon="-1.96029">
        <ele>15</ele>
        <time>2018-01-09T09:53:16Z</time>
      </trkpt>
      <trkpt lat="46.70475" lon="-1.96016">
        <ele>15</ele>
        <time>2018-01-09T09:54:16Z</time>
      </trkpt>
      <trkpt lat="46.70447" lon="-1.96003">
        <ele>16</ele>
        <time>2018-01-09T09:55:16Z</time>
      </trkpt>
      <trkpt lat="46.70419" lon="-1.95986">
        <ele>16</ele>
        <time>2018-01-09T09:56:16Z</time>
      </trkpt>
      <trkpt lat="46.70393" lon="-1.95972">
        <ele>15</ele>
        <time>2018-01-09T09:57:16Z</time>
      </trkpt>
      <trkpt lat="46.70369" lon="-1.95955">
        <ele>15</ele>
        <time>2018-01-09T09:58:16Z</time>
      </trkpt>
      <trkpt lat="46.7036" lon="-1.95948">
        <ele>15</ele>
        <time>2018-01-09T09:59:16Z</time>
      </trkpt>
      <trkpt lat="46.70359" lon="-1.95952">
        <ele>15</ele>
        <time>2018-01-09T10:00:16Z</time>
      </trkpt>
      <trkpt lat="46.70357" lon="-1.95956">
        <ele>15</ele>
        <time>2018-01-09T10:01:16Z</time>
      </trkpt>
      <trkpt lat="46.70354" lon="-1.95958">
        <ele>15</ele>
        <time>2018-01-09T10:02:16Z</time>
      </trkpt>
      <trkpt lat="46.7035" lon="-1.95958">
        <ele>15</ele>
        <time>2018-01-09T10:03:16Z</time>
      </trkpt>
      <trkpt lat="46.70349" lon="-1.95957">
        <ele>15</ele>
        <time>2018-01-09T10:04:16Z</time>
      </trkpt>
      <trkpt lat="46.70347" lon="-1.95955">
        <ele>15</ele>
        <time>2018-01-09T10:05:16Z</time>
      </trkpt>
      <trkpt lat="46.70344" lon="-1.95951">
        <ele>15</ele>
        <time>2018-01-09T10:06:16Z</time>
      </trkpt>
      <trkpt lat="46.70344" lon="-1.95946">
        <ele>14</ele>
        <time>2018-01-09T10:07:16Z</time>
      </trkpt>
      <trkpt lat="46.70344" lon="-1.95941">
        <ele>14</ele>
        <time>2018-01-09T10:08:16Z</time>
      </trkpt>
      <trkpt lat="46.70345" lon="-1.95938">
        <ele>14</ele>
        <time>2018-01-09T10:09:16Z</time>
      </trkpt>
      <trkpt lat="46.70333" lon="-1.95927">
        <ele>14</ele>
        <time>2018-01-09T10:10:16Z</time>
      </trkpt>
      <trkpt lat="46.70313" lon="-1.9591">
        <ele>14</ele>
        <time>2018-01-09T10:11:16Z</time>
      </trkpt>
      <trkpt lat="46.70302" lon="-1.95899">
        <ele>13</ele>
        <time>2018-01-09T10:12:16Z</time>
      </trkpt>
      <trkpt lat="46.70296" lon="-1.95894">
        <ele>13</ele>
        <time>2018-01-09T10:13:16Z</time>
      </trkpt>
      <trkpt lat="46.70274" lon="-1.95872">
        <ele>13</ele>
        <time>2018-01-09T10:14:16Z</time>
      </trkpt>
      <trkpt lat="46.70256" lon="-1.95852">
        <ele>12</ele>
        <time>2018-01-09T10:15:16Z</time>
      </trkpt>
      <trkpt lat="46.70241" lon="-1.95834">
        <ele>12</ele>
        <time>2018-01-09T10:16:16Z</time>
      </trkpt>
      <trkpt lat="46.70228" lon="-1.95813">
        <ele>12</ele>
        <time>2018-01-09T10:17:16Z</time>
      </trkpt>
      <trkpt lat="46.70217" lon="-1.95794">
        <ele>12</ele>
        <time>2018-01-09T10:18:16Z</time>
      </trkpt>
      <trkpt lat="46.70208" lon="-1.95777">
        <ele>12</ele>
        <time>2018-01-09T10:19:16Z</time>
      </trkpt>
      <trkpt lat="46.70197" lon="-1.95753">
        <ele>13</ele>
        <time>2018-01-09T10:20:16Z</time>
      </trkpt>
      <trkpt lat="46.70187" lon="-1.95726">
        <ele>12</ele>
        <time>2018-01-09T10:21:16Z</time>
      </trkpt>
      <trkpt lat="46.70181" lon="-1.95706">
        <ele>12</ele>
        <time>2018-01-09T10:22:16Z</time>
      </trkpt>
      <trkpt lat="46.70176" lon="-1.95686">
        <ele>12</ele>
        <time>2018-01-09T10:23:16Z</time>
      </trkpt>
      <trkpt lat="46.70175" lon="-1.95682">
        <ele>12</ele>
        <time>2018-01-09T10:24:16Z</time>
      </trkpt>
      <trkpt lat="46.70171" lon="-1.95673">
        <ele>12</ele>
        <time>2018-01-09T10:25:16Z</time>
      </trkpt>
      <trkpt lat="46.7017" lon="-1.95669">
        <ele>12</ele>
        <time>2018-01-09T10:26:16Z</time>
      </trkpt>
      <trkpt lat="46.70168" lon="-1.95666">
        <ele>12</ele>
        <time>2018-01-09T10:27:16Z</time>
      </trkpt>
      <trkpt lat="46.70166" lon="-1.9566">
        <ele>12</ele>
        <time>2018-01-09T10:28:16Z</time>
      </trkpt>
      <trkpt lat="46.70165" lon="-1.95657">
        <ele>12</ele>
        <time>2018-01-09T10:29:16Z</time>
      </trkpt>
      <trkpt lat="46.70164" lon="-1.95654">
        <ele>12</ele>
        <time>2018-01-09T10:30:16Z</time>
      </trkpt>
      <trkpt lat="46.70164" lon="-1.95654">
        <ele>12</ele>
        <time>2018-01-09T10:31:16Z</time>
      </trkpt>
      <trkpt lat="46.70163" lon="-1.95654">
        <ele>12</ele>
        <time>2018-01-09T10:32:16Z</time>
      </trkpt>
      <trkpt lat="46.70162" lon="-1.95654">
        <ele>12</ele>
        <time>2018-01-09T10:33:16Z</time>
      </trkpt>
      <trkpt lat="46.70161" lon="-1.95654">
        <ele>12</ele>
        <time>2018-01-09T10:34:16Z</time>
      </trkpt>
      <trkpt lat="46.7016" lon="-1.95654">
        <ele>12</ele>
        <time>2018-01-09T10:35:16Z</time>
      </trkpt>
      <trkpt lat="46.7016" lon="-1.95653">
        <ele>12</ele>
        <time>2018-01-09T10:36:16Z</time>
      </trkpt>
      <trkpt lat="46.70159" lon="-1.95653">
        <ele>12</ele>
        <time>2018-01-09T10:37:16Z</time>
      </trkpt>
      <trkpt lat="46.70159" lon="-1.95652">
        <ele>12</ele>
        <time>2018-01-09T10:38:16Z</time>
      </trkpt>
      <trkpt lat="46.70158" lon="-1.95652">
        <ele>12</ele>
        <time>2018-01-09T10:39:16Z</time>
      </trkpt>
      <trkpt lat="46.70158" lon="-1.95651">
        <ele>12</ele>
        <time>2018-01-09T10:40:16Z</time>
      </trkpt>
      <trkpt lat="46.70157" lon="-1.95651">
        <ele>12</ele>
        <time>2018-01-09T10:41:16Z</time>
      </trkpt>
      <trkpt lat="46.70157" lon="-1.9565">
        <ele>12</ele>
        <time>2018-01-09T10:42:16Z</time>
      </trkpt>
      <trkpt lat="46.70157" lon="-1.95649">
        <ele>12</ele>
        <time>2018-01-09T10:43:16Z</time>
      </trkpt>
      <trkpt lat="46.70156" lon="-1.95649">
        <ele>12</ele>
        <time>2018-01-09T10:44:16Z</time>
      </trkpt>
      <trkpt lat="46.70156" lon="-1.95648">
        <ele>12</ele>
        <time>2018-01-09T10:45:16Z</time>
      </trkpt>
      <trkpt lat="46.70156" lon="-1.95647">
        <ele>12</ele>
        <time>2018-01-09T10:46:16Z</time>
      </trkpt>
      <trkpt lat="46.70156" lon="-1.95646">
        <ele>12</ele>
        <time>2018-01-09T10:47:16Z</time>
      </trkpt>
      <trkpt lat="46.70156" lon="-1.95645">
        <ele>12</ele>
        <time>2018-01-09T10:48:16Z</time>
      </trkpt>
      <trkpt lat="46.70155" lon="-1.95644">
        <ele>12</ele>
        <time>2018-01-09T10:49:16Z</time>
      </trkpt>
      <trkpt lat="46.70155" lon="-1.95643">
        <ele>12</ele>
        <time>2018-01-09T10:50:16Z</time>
      </trkpt>
      <trkpt lat="46.70155" lon="-1.95642">
        <ele>12</ele>
        <time>2018-01-09T10:51:16Z</time>
      </trkpt>
      <trkpt lat="46.70156" lon="-1.95641">
        <ele>12</ele>
        <time>2018-01-09T10:52:16Z</time>
      </trkpt>
      <trkpt lat="46.70156" lon="-1.9564">
        <ele>12</ele>
        <time>2018-01-09T10:53:16Z</time>
      </trkpt>
      <trkpt lat="46.70156" lon="-1.95639">
        <ele>12</ele>
        <time>2018-01-09T10:54:16Z</time>
      </trkpt>
      <trkpt lat="46.70156" lon="-1.95638">
        <ele>11</ele>
        <time>2018-01-09T10:55:16Z</time>
      </trkpt>
      <trkpt lat="46.70156" lon="-1.95637">
        <ele>11</ele>
        <time>2018-01-09T10:56:16Z</time>
      </trkpt>
      <trkpt lat="46.70157" lon="-1.95637">
        <ele>11</ele>
        <time>2018-01-09T10:57:16Z</time>
      </trkpt>
      <trkpt lat="46.70157" lon="-1.95636">
        <ele>11</ele>
        <time>2018-01-09T10:58:16Z</time>
      </trkpt>
      <trkpt lat="46.70157" lon="-1.95635">
        <ele>11</ele>
        <time>2018-01-09T10:59:16Z</time>
      </trkpt>
      <trkpt lat="46.70158" lon="-1.95635">
        <ele>11</ele>
        <time>2018-01-09T11:00:16Z</time>
      </trkpt>
      <trkpt lat="46.70158" lon="-1.95634">
        <ele>11</ele>
        <time>2018-01-09T11:01:16Z</time>
      </trkpt>
      <trkpt lat="46.70159" lon="-1.95634">
        <ele>11</ele>
        <time>2018-01-09T11:02:16Z</time>
      </trkpt>
      <trkpt lat="46.70159" lon="-1.95633">
        <ele>11</ele>
        <time>2018-01-09T11:03:16Z</time>
      </trkpt>
      <trkpt lat="46.7016" lon="-1.95633">
        <ele>11</ele>
        <time>2018-01-09T11:04:16Z</time>
      </trkpt>
      <trkpt lat="46.7016" lon="-1.95632">
        <ele>11</ele>
        <time>2018-01-09T11:05:16Z</time>
      </trkpt>
      <trkpt lat="46.70161" lon="-1.95632">
        <ele>11</ele>
        <time>2018-01-09T11:06:16Z</time>
      </trkpt>
      <trkpt lat="46.70162" lon="-1.95624">
        <ele>11</ele>
        <time>2018-01-09T11:07:16Z</time>
      </trkpt>
      <trkpt lat="46.70163" lon="-1.9561">
        <ele>11</ele>
        <time>2018-01-09T11:08:16Z</time>
      </trkpt>
      <trkpt lat="46.70153" lon="-1.9555">
        <ele>10</ele>
        <time>2018-01-09T11:09:16Z</time>
      </trkpt>
      <trkpt lat="46.70143" lon="-1.95473">
        <ele>9</ele>
        <time>2018-01-09T11:10:16Z</time>
      </trkpt>
      <trkpt lat="46.70142" lon="-1.95447">
        <ele>9</ele>
        <time>2018-01-09T11:11:16Z</time>
      </trkpt>
      <trkpt lat="46.70147" lon="-1.95382">
        <ele>8</ele>
        <time>2018-01-09T11:12:16Z</time>
      </trkpt>
      <trkpt lat="46.70163" lon="-1.95279">
        <ele>6</ele>
        <time>2018-01-09T11:13:16Z</time>
      </trkpt>
      <trkpt lat="46.70167" lon="-1.95232">
        <ele>5</ele>
        <time>2018-01-09T11:14:16Z</time>
      </trkpt>
      <trkpt lat="46.70167" lon="-1.95226">
        <ele>5</ele>
        <time>2018-01-09T11:15:16Z</time>
      </trkpt>
      <trkpt lat="46.70168" lon="-1.95219">
        <ele>5</ele>
        <time>2018-01-09T11:16:16Z</time>
      </trkpt>
      <trkpt lat="46.70167" lon="-1.95198">
        <ele>6</ele>
        <time>2018-01-09T11:17:16Z</time>
      </trkpt>
      <trkpt lat="46.70166" lon="-1.95179">
        <ele>6</ele>
        <time>2018-01-09T11:18:16Z</time>
      </trkpt>
      <trkpt lat="46.70162" lon="-1.95161">
        <ele>6</ele>
        <time>2018-01-09T11:19:16Z</time>
      </trkpt>
      <trkpt lat="46.7016" lon="-1.95145">
        <ele>6</ele>
        <time>2018-01-09T11:20:16Z</time>
      </trkpt>
      <trkpt lat="46.70158" lon="-1.95126">
        <ele>6</ele>
        <time>2018-01-09T11:21:16Z</time>
      </trkpt>
      <trkpt lat="46.70157" lon="-1.95107">
        <ele>5</ele>
        <time>2018-01-09T11:22:16Z</time>
      </trkpt>
      <trkpt lat="46.70156" lon="-1.95089">
        <ele>5</ele>
        <time>2018-01-09T11:23:16Z</time>
      </trkpt>
      <trkpt lat="46.70156" lon="-1.95069">
        <ele>5</ele>
        <time>2018-01-09T11:24:16Z</time>
      </trkpt>
      <trkpt lat="46.70156" lon="-1.95069">
        <ele>5</ele>
        <time>2018-01-09T11:25:16Z</time>
      </trkpt>
      <trkpt lat="46.70155" lon="-1.95069">
        <ele>5</ele>
        <time>2018-01-09T11:26:16Z</time>
      </trkpt>
      <trkpt lat="46.70154" lon="-1.95069">
        <ele>5</ele>
        <time>2018-01-09T11:27:16Z</time>
      </trkpt>
      <trkpt lat="46.70153" lon="-1.95069">
        <ele>5</ele>
        <time>2018-01-09T11:28:16Z</time>
      </trkpt>
      <trkpt lat="46.70152" lon="-1.95069">
        <ele>5</ele>
        <time>2018-01-09T11:29:16Z</time>
      </trkpt>
      <trkpt lat="46.70152" lon="-1.95068">
        <ele>5</ele>
        <time>2018-01-09T11:30:16Z</time>
      </trkpt>
      <trkpt lat="46.70151" lon="-1.95068">
        <ele>5</ele>
        <time>2018-01-09T11:31:16Z</time>
      </trkpt>
      <trkpt lat="46.70151" lon="-1.95067">
        <ele>5</ele>
        <time>2018-01-09T11:32:16Z</time>
      </trkpt>
      <trkpt lat="46.7015" lon="-1.95067">
        <ele>5</ele>
        <time>2018-01-09T11:33:16Z</time>
      </trkpt>
      <trkpt lat="46.7015" lon="-1.95066">
        <ele>5</ele>
        <time>2018-01-09T11:34:16Z</time>
      </trkpt>
      <trkpt lat="46.70149" lon="-1.95066">
        <ele>5</ele>
        <time>2018-01-09T11:35:16Z</time>
      </trkpt>
      <trkpt lat="46.70149" lon="-1.95065">
        <ele>5</ele>
        <time>2018-01-09T11:36:16Z</time>
      </trkpt>
      <trkpt lat="46.70149" lon="-1.95064">
        <ele>5</ele>
        <time>2018-01-09T11:37:16Z</time>
      </trkpt>
      <trkpt lat="46.70149" lon="-1.95063">
        <ele>5</ele>
        <time>2018-01-09T11:38:16Z</time>
      </trkpt>
      <trkpt lat="46.70148" lon="-1.95063">
        <ele>5</ele>
        <time>2018-01-09T11:39:16Z</time>
      </trkpt>
      <trkpt lat="46.70148" lon="-1.95062">
        <ele>5</ele>
        <time>2018-01-09T11:40:16Z</time>
      </trkpt>
      <trkpt lat="46.70148" lon="-1.95061">
        <ele>5</ele>
        <time>2018-01-09T11:41:16Z</time>
      </trkpt>
      <trkpt lat="46.70148" lon="-1.9506">
        <ele>5</ele>
        <time>2018-01-09T11:42:16Z</time>
      </trkpt>
      <trkpt lat="46.70148" lon="-1.95059">
        <ele>5</ele>
        <time>2018-01-09T11:43:16Z</time>
      </trkpt>
      <trkpt lat="46.70148" lon="-1.95058">
        <ele>5</ele>
        <time>2018-01-09T11:44:16Z</time>
      </trkpt>
      <trkpt lat="46.70148" lon="-1.95057">
        <ele>5</ele>
        <time>2018-01-09T11:45:16Z</time>
      </trkpt>
      <trkpt lat="46.70148" lon="-1.95056">
        <ele>5</ele>
        <time>2018-01-09T11:46:16Z</time>
      </trkpt>
      <trkpt lat="46.70148" lon="-1.95055">
        <ele>5</ele>
        <time>2018-01-09T11:47:16Z</time>
      </trkpt>
      <trkpt lat="46.70149" lon="-1.95055">
        <ele>5</ele>
        <time>2018-01-09T11:48:16Z</time>
      </trkpt>
      <trkpt lat="46.70149" lon="-1.95054">
        <ele>5</ele>
        <time>2018-01-09T11:49:16Z</time>
      </trkpt>
      <trkpt lat="46.70149" lon="-1.95053">
        <ele>5</ele>
        <time>2018-01-09T11:50:16Z</time>
      </trkpt>
      <trkpt lat="46.7015" lon="-1.95053">
        <ele>5</ele>
        <time>2018-01-09T11:51:16Z</time>
      </trkpt>
      <trkpt lat="46.7015" lon="-1.95052">
        <ele>5</ele>
        <time>2018-01-09T11:52:16Z</time>
      </trkpt>
      <trkpt lat="46.7015" lon="-1.95051">
        <ele>5</ele>
        <time>2018-01-09T11:53:16Z</time>
      </trkpt>
      <trkpt lat="46.70151" lon="-1.95051">
        <ele>4</ele>
        <time>2018-01-09T11:54:16Z</time>
      </trkpt>
      <trkpt lat="46.70151" lon="-1.9505">
        <ele>4</ele>
        <time>2018-01-09T11:55:16Z</time>
      </trkpt>
      <trkpt lat="46.70152" lon="-1.9505">
        <ele>4</ele>
        <time>2018-01-09T11:56:16Z</time>
      </trkpt>
      <trkpt lat="46.70153" lon="-1.9505">
        <ele>4</ele>
        <time>2018-01-09T11:57:16Z</time>
      </trkpt>
      <trkpt lat="46.70153" lon="-1.95049">
        <ele>4</ele>
        <time>2018-01-09T11:58:16Z</time>
      </trkpt>
      <trkpt lat="46.70154" lon="-1.95049">
        <ele>4</ele>
        <time>2018-01-09T11:59:16Z</time>
      </trkpt>
      <trkpt lat="46.70155" lon="-1.95049">
        <ele>4</ele>
        <time>2018-01-09T12:00:16Z</time>
      </trkpt>
      <trkpt lat="46.70157" lon="-1.95007">
        <ele>3</ele>
        <time>2018-01-09T12:01:16Z</time>
      </trkpt>
      <trkpt lat="46.70158" lon="-1.94954">
        <ele>3</ele>
        <time>2018-01-09T12:02:16Z</time>
      </trkpt>
      <trkpt lat="46.70158" lon="-1.94933">
        <ele>2</ele>
        <time>2018-01-09T12:03:16Z</time>
      </trkpt>
      <trkpt lat="46.70158" lon="-1.94925">
        <ele>2</ele>
        <time>2018-01-09T12:04:16Z</time>
      </trkpt>
      <trkpt lat="46.70159" lon="-1.94879">
        <ele>2</ele>
        <time>2018-01-09T12:05:16Z</time>
      </trkpt>
      <trkpt lat="46.70159" lon="-1.9487">
        <ele>2</ele>
        <time>2018-01-09T12:06:16Z</time>
      </trkpt>
      <trkpt lat="46.70159" lon="-1.94866">
        <ele>2</ele>
        <time>2018-01-09T12:07:16Z</time>
      </trkpt>
      <trkpt lat="46.70159" lon="-1.94848">
        <ele>2</ele>
        <time>2018-01-09T12:08:16Z</time>
      </trkpt>
      <trkpt lat="46.7016" lon="-1.94795">
        <ele>3</ele>
        <time>2018-01-09T12:09:16Z</time>
      </trkpt>
      <trkpt lat="46.70162" lon="-1.94739">
        <ele>3</ele>
        <time>2018-01-09T12:10:16Z</time>
      </trkpt>
      <trkpt lat="46.70163" lon="-1.9471">
        <ele>4</ele>
        <time>2018-01-09T12:11:16Z</time>
      </trkpt>
      <trkpt lat="46.70164" lon="-1.94697">
        <ele>4</ele>
        <time>2018-01-09T12:12:16Z</time>
      </trkpt>
      <trkpt lat="46.70164" lon="-1.94684">
        <ele>4</ele>
        <time>2018-01-09T12:13:16Z</time>
      </trkpt>
      <trkpt lat="46.70163" lon="-1.94684">
        <ele>4</ele>
        <time>2018-01-09T12:14:16Z</time>
      </trkpt>
      <trkpt lat="46.70163" lon="-1.94683">
        <ele>4</ele>
        <time>2018-01-09T12:15:16Z</time>
      </trkpt>
      <trkpt lat="46.70162" lon="-1.94683">
        <ele>4</ele>
        <time>2018-01-09T12:16:16Z</time>
      </trkpt>
      <trkpt lat="46.70161" lon="-1.94683">
        <ele>4</ele>
        <time>2018-01-09T12:17:16Z</time>
      </trkpt>
      <trkpt lat="46.70161" lon="-1.94682">
        <ele>4</ele>
        <time>2018-01-09T12:18:16Z</time>
      </trkpt>
      <trkpt lat="46.7016" lon="-1.94682">
        <ele>4</ele>
        <time>2018-01-09T12:19:16Z</time>
      </trkpt>
      <trkpt lat="46.7016" lon="-1.94681">
        <ele>4</ele>
        <time>2018-01-09T12:20:16Z</time>
      </trkpt>
      <trkpt lat="46.70159" lon="-1.94681">
        <ele>4</ele>
        <time>2018-01-09T12:21:16Z</time>
      </trkpt>
      <trkpt lat="46.70159" lon="-1.9468">
        <ele>4</ele>
        <time>2018-01-09T12:22:16Z</time>
      </trkpt>
      <trkpt lat="46.70159" lon="-1.94679">
        <ele>4</ele>
        <time>2018-01-09T12:23:16Z</time>
      </trkpt>
      <trkpt lat="46.70158" lon="-1.94679">
        <ele>4</ele>
        <time>2018-01-09T12:24:16Z</time>
      </trkpt>
      <trkpt lat="46.70158" lon="-1.94678">
        <ele>4</ele>
        <time>2018-01-09T12:25:16Z</time>
      </trkpt>
      <trkpt lat="46.70158" lon="-1.94677">
        <ele>4</ele>
        <time>2018-01-09T12:26:16Z</time>
      </trkpt>
      <trkpt lat="46.70157" lon="-1.94677">
        <ele>4</ele>
        <time>2018-01-09T12:27:16Z</time>
      </trkpt>
      <trkpt lat="46.70157" lon="-1.94676">
        <ele>4</ele>
        <time>2018-01-09T12:28:16Z</time>
      </trkpt>
      <trkpt lat="46.70157" lon="-1.94675">
        <ele>4</ele>
        <time>2018-01-09T12:29:16Z</time>
      </trkpt>
      <trkpt lat="46.70157" lon="-1.94674">
        <ele>4</ele>
        <time>2018-01-09T12:30:16Z</time>
      </trkpt>
      <trkpt lat="46.70156" lon="-1.94674">
        <ele>4</ele>
        <time>2018-01-09T12:31:16Z</time>
      </trkpt>
      <trkpt lat="46.70156" lon="-1.94673">
        <ele>4</ele>
        <time>2018-01-09T12:32:16Z</time>
      </trkpt>
      <trkpt lat="46.70156" lon="-1.94672">
        <ele>4</ele>
        <time>2018-01-09T12:33:16Z</time>
      </trkpt>
      <trkpt lat="46.70156" lon="-1.94671">
        <ele>4</ele>
        <time>2018-01-09T12:34:16Z</time>
      </trkpt>
      <trkpt lat="46.70156" lon="-1.9467">
        <ele>4</ele>
        <time>2018-01-09T12:35:16Z</time>
      </trkpt>
      <trkpt lat="46.70156" lon="-1.94669">
        <ele>4</ele>
        <time>2018-01-09T12:36:16Z</time>
      </trkpt>
      <trkpt lat="46.70156" lon="-1.94668">
        <ele>4</ele>
        <time>2018-01-09T12:37:16Z</time>
      </trkpt>
      <trkpt lat="46.70156" lon="-1.94667">
        <ele>4</ele>
        <time>2018-01-09T12:38:16Z</time>
      </trkpt>
      <trkpt lat="46.70157" lon="-1.94667">
        <ele>4</ele>
        <time>2018-01-09T12:39:16Z</time>
      </trkpt>
      <trkpt lat="46.70157" lon="-1.94666">
        <ele>4</ele>
        <time>2018-01-09T12:40:16Z</time>
      </trkpt>
      <trkpt lat="46.70157" lon="-1.94665">
        <ele>4</ele>
        <time>2018-01-09T12:41:16Z</time>
      </trkpt>
      <trkpt lat="46.70157" lon="-1.94664">
        <ele>4</ele>
        <time>2018-01-09T12:42:16Z</time>
      </trkpt>
      <trkpt lat="46.70157" lon="-1.94663">
        <ele>4</ele>
        <time>2018-01-09T12:43:16Z</time>
      </trkpt>
      <trkpt lat="46.70158" lon="-1.94663">
        <ele>4</ele>
        <time>2018-01-09T12:44:16Z</time>
      </trkpt>
      <trkpt lat="46.70158" lon="-1.94662">
        <ele>4</ele>
        <time>2018-01-09T12:45:16Z</time>
      </trkpt>
      <trkpt lat="46.70158" lon="-1.94661">
        <ele>4</ele>
        <time>2018-01-09T12:46:16Z</time>
      </trkpt>
      <trkpt lat="46.70159" lon="-1.94661">
        <ele>4</ele>
        <time>2018-01-09T12:47:16Z</time>
      </trkpt>
      <trkpt lat="46.70159" lon="-1.9466">
        <ele>4</ele>
        <time>2018-01-09T12:48:16Z</time>
      </trkpt>
      <trkpt lat="46.7016" lon="-1.94659">
        <ele>4</ele>
        <time>2018-01-09T12:49:16Z</time>
      </trkpt>
      <trkpt lat="46.70161" lon="-1.94658">
        <ele>4</ele>
        <time>2018-01-09T12:50:16Z</time>
      </trkpt>
      <trkpt lat="46.70162" lon="-1.94658">
        <ele>4</ele>
        <time>2018-01-09T12:51:16Z</time>
      </trkpt>
      <trkpt lat="46.70162" lon="-1.94657">
        <ele>4</ele>
        <time>2018-01-09T12:52:16Z</time>
      </trkpt>
      <trkpt lat="46.70163" lon="-1.94657">
        <ele>4</ele>
        <time>2018-01-09T12:53:16Z</time>
      </trkpt>
      <trkpt lat="46.70164" lon="-1.94656">
        <ele>4</ele>
        <time>2018-01-09T12:54:16Z</time>
      </trkpt>
      <trkpt lat="46.70165" lon="-1.94656">
        <ele>4</ele>
        <time>2018-01-09T12:55:16Z</time>
      </trkpt>
      <trkpt lat="46.70165" lon="-1.94645">
        <ele>4</ele>
        <time>2018-01-09T12:56:16Z</time>
      </trkpt>
      <trkpt lat="46.70165" lon="-1.94613">
        <ele>4</ele>
        <time>2018-01-09T12:57:16Z</time>
      </trkpt>
      <trkpt lat="46.70165" lon="-1.94565">
        <ele>4</ele>
        <time>2018-01-09T12:58:16Z</time>
      </trkpt>
      <trkpt lat="46.70166" lon="-1.94548">
        <ele>4</ele>
        <time>2018-01-09T12:59:16Z</time>
      </trkpt>
      <trkpt lat="46.70166" lon="-1.94537">
        <ele>3</ele>
        <time>2018-01-09T13:00:16Z</time>
      </trkpt>
      <trkpt lat="46.70167" lon="-1.94505">
        <ele>3</ele>
        <time>2018-01-09T13:01:16Z</time>
      </trkpt>
      <trkpt lat="46.70168" lon="-1.94446">
        <ele>4</ele>
        <time>2018-01-09T13:02:16Z</time>
      </trkpt>
      <trkpt lat="46.7017" lon="-1.94418">
        <ele>4</ele>
        <time>2018-01-09T13:03:16Z</time>
      </trkpt>
      <trkpt lat="46.7017" lon="-1.94405">
        <ele>4</ele>
        <time>2018-01-09T13:04:16Z</time>
      </trkpt>
      <trkpt lat="46.70172" lon="-1.94388">
        <ele>4</ele>
        <time>2018-01-09T13:05:16Z</time>
      </trkpt>
      <trkpt lat="46.70173" lon="-1.9437">
        <ele>4</ele>
        <time>2018-01-09T13:06:16Z</time>
      </trkpt>
      <trkpt lat="46.70175" lon="-1.94344">
        <ele>4</ele>
        <time>2018-01-09T13:07:16Z</time>
      </trkpt>
      <trkpt lat="46.70178" lon="-1.94311">
        <ele>4</ele>
        <time>2018-01-09T13:08:16Z</time>
      </trkpt>
      <trkpt lat="46.70181" lon="-1.94282">
        <ele>4</ele>
        <time>2018-01-09T13:09:16Z</time>
      </trkpt>
      <trkpt lat="46.70181" lon="-1.94273">
        <ele>5</ele>
        <time>2018-01-09T13:10:16Z</time>
      </trkpt>
      <trkpt lat="46.70182" lon="-1.94266">
        <ele>5</ele>
        <time>2018-01-09T13:11:16Z</time>
      </trkpt>
      <trkpt lat="46.70182" lon="-1.94257">
        <ele>5</ele>
        <time>2018-01-09T13:12:16Z</time>
      </trkpt>
      <trkpt lat="46.70181" lon="-1.94237">
        <ele>5</ele>
        <time>2018-01-09T13:13:16Z</time>
      </trkpt>
      <trkpt lat="46.70178" lon="-1.94213">
        <ele>4</ele>
        <time>2018-01-09T13:14:16Z</time>
      </trkpt>
      <trkpt lat="46.70174" lon="-1.94182">
        <ele>3</ele>
        <time>2018-01-09T13:15:16Z</time>
      </trkpt>
      <trkpt lat="46.70169" lon="-1.9414">
        <ele>3</ele>
        <time>2018-01-09T13:16:16Z</time>
      </trkpt>
      <trkpt lat="46.70165" lon="-1.94106">
        <ele>3</ele>
        <time>2018-01-09T13:17:16Z</time>
      </trkpt>
      <trkpt lat="46.70157" lon="-1.94041">
        <ele>3</ele>
        <time>2018-01-09T13:18:16Z</time>
      </trkpt>
      <trkpt lat="46.70155" lon="-1.94024">
        <ele>3</ele>
        <time>2018-01-09T13:19:16Z</time>
      </trkpt>
      <trkpt lat="46.70154" lon="-1.94011">
        <ele>2</ele>
        <time>2018-01-09T13:20:16Z</time>
      </trkpt>
      <trkpt lat="46.70153" lon="-1.94002">
        <ele>2</ele>
        <time>2018-01-09T13:21:16Z</time>
      </trkpt>
      <trkpt lat="46.70148" lon="-1.93984">
        <ele>3</ele>
        <time>2018-01-09T13:22:16Z</time>
      </trkpt>
      <trkpt lat="46.70145" lon="-1.93969">
        <ele>3</ele>
        <time>2018-01-09T13:23:16Z</time>
      </trkpt>
      <trkpt lat="46.70143" lon="-1.9396">
        <ele>3</ele>
        <time>2018-01-09T13:24:16Z</time>
      </trkpt>
      <trkpt lat="46.70143" lon="-1.93949">
        <ele>3</ele>
        <time>2018-01-09T13:25:16Z</time>
      </trkpt>
      <trkpt lat="46.70143" lon="-1.93949">
        <ele>3</ele>
        <time>2018-01-09T13:26:16Z</time>
      </trkpt>
      <trkpt lat="46.70143" lon="-1.93948">
        <ele>3</ele>
        <time>2018-01-09T13:27:16Z</time>
      </trkpt>
      <trkpt lat="46.70143" lon="-1.93947">
        <ele>3</ele>
        <time>2018-01-09T13:28:16Z</time>
      </trkpt>
      <trkpt lat="46.70142" lon="-1.93947">
        <ele>3</ele>
        <time>2018-01-09T13:29:16Z</time>
      </trkpt>
      <trkpt lat="46.70142" lon="-1.93946">
        <ele>3</ele>
        <time>2018-01-09T13:30:16Z</time>
      </trkpt>
      <trkpt lat="46.70142" lon="-1.93945">
        <ele>3</ele>
        <time>2018-01-09T13:31:16Z</time>
      </trkpt>
      <trkpt lat="46.70142" lon="-1.93944">
        <ele>3</ele>
        <time>2018-01-09T13:32:16Z</time>
      </trkpt>
      <trkpt lat="46.70142" lon="-1.93943">
        <ele>3</ele>
        <time>2018-01-09T13:33:16Z</time>
      </trkpt>
      <trkpt lat="46.70142" lon="-1.93942">
        <ele>3</ele>
        <time>2018-01-09T13:34:16Z</time>
      </trkpt>
      <trkpt lat="46.70141" lon="-1.93941">
        <ele>3</ele>
        <time>2018-01-09T13:35:16Z</time>
      </trkpt>
      <trkpt lat="46.70141" lon="-1.9394">
        <ele>3</ele>
        <time>2018-01-09T13:36:16Z</time>
      </trkpt>
      <trkpt lat="46.70141" lon="-1.93939">
        <ele>3</ele>
        <time>2018-01-09T13:37:16Z</time>
      </trkpt>
      <trkpt lat="46.70142" lon="-1.93938">
        <ele>3</ele>
        <time>2018-01-09T13:38:16Z</time>
      </trkpt>
      <trkpt lat="46.70142" lon="-1.93937">
        <ele>3</ele>
        <time>2018-01-09T13:39:16Z</time>
      </trkpt>
      <trkpt lat="46.70142" lon="-1.93936">
        <ele>3</ele>
        <time>2018-01-09T13:40:16Z</time>
      </trkpt>
      <trkpt lat="46.70142" lon="-1.93935">
        <ele>3</ele>
        <time>2018-01-09T13:41:16Z</time>
      </trkpt>
      <trkpt lat="46.70142" lon="-1.93934">
        <ele>3</ele>
        <time>2018-01-09T13:42:16Z</time>
      </trkpt>
      <trkpt lat="46.70142" lon="-1.93933">
        <ele>3</ele>
        <time>2018-01-09T13:43:16Z</time>
      </trkpt>
      <trkpt lat="46.70142" lon="-1.93932">
        <ele>3</ele>
        <time>2018-01-09T13:44:16Z</time>
      </trkpt>
      <trkpt lat="46.70142" lon="-1.93931">
        <ele>3</ele>
        <time>2018-01-09T13:45:16Z</time>
      </trkpt>
      <trkpt lat="46.70143" lon="-1.93931">
        <ele>3</ele>
        <time>2018-01-09T13:46:16Z</time>
      </trkpt>
      <trkpt lat="46.70143" lon="-1.9393">
        <ele>3</ele>
        <time>2018-01-09T13:47:16Z</time>
      </trkpt>
      <trkpt lat="46.70143" lon="-1.93929">
        <ele>3</ele>
        <time>2018-01-09T13:48:16Z</time>
      </trkpt>
      <trkpt lat="46.70144" lon="-1.93928">
        <ele>3</ele>
        <time>2018-01-09T13:49:16Z</time>
      </trkpt>
      <trkpt lat="46.70144" lon="-1.93927">
        <ele>3</ele>
        <time>2018-01-09T13:50:16Z</time>
      </trkpt>
      <trkpt lat="46.70145" lon="-1.93926">
        <ele>3</ele>
        <time>2018-01-09T13:51:16Z</time>
      </trkpt>
      <trkpt lat="46.70145" lon="-1.93925">
        <ele>3</ele>
        <time>2018-01-09T13:52:16Z</time>
      </trkpt>
      <trkpt lat="46.70146" lon="-1.93925">
        <ele>3</ele>
        <time>2018-01-09T13:53:16Z</time>
      </trkpt>
      <trkpt lat="46.70146" lon="-1.93924">
        <ele>3</ele>
        <time>2018-01-09T13:54:16Z</time>
      </trkpt>
      <trkpt lat="46.70147" lon="-1.93924">
        <ele>3</ele>
        <time>2018-01-09T13:55:16Z</time>
      </trkpt>
      <trkpt lat="46.70147" lon="-1.93923">
        <ele>3</ele>
        <time>2018-01-09T13:56:16Z</time>
      </trkpt>
      <trkpt lat="46.70148" lon="-1.93923">
        <ele>3</ele>
        <time>2018-01-09T13:57:16Z</time>
      </trkpt>
      <trkpt lat="46.70149" lon="-1.93922">
        <ele>3</ele>
        <time>2018-01-09T13:58:16Z</time>
      </trkpt>
      <trkpt lat="46.7015" lon="-1.93922">
        <ele>3</ele>
        <time>2018-01-09T13:59:16Z</time>
      </trkpt>
      <trkpt lat="46.7015" lon="-1.93921">
        <ele>3</ele>
        <time>2018-01-09T14:00:16Z</time>
      </trkpt>
      <trkpt lat="46.70151" lon="-1.93921">
        <ele>3</ele>
        <time>2018-01-09T14:01:16Z</time>
      </trkpt>
      <trkpt lat="46.70152" lon="-1.93921">
        <ele>3</ele>
        <time>2018-01-09T14:02:16Z</time>
      </trkpt>
      <trkpt lat="46.70153" lon="-1.93921">
        <ele>3</ele>
        <time>2018-01-09T14:03:16Z</time>
      </trkpt>
      <trkpt lat="46.70154" lon="-1.93921">
        <ele>3</ele>
        <time>2018-01-09T14:04:16Z</time>
      </trkpt>
      <trkpt lat="46.70155" lon="-1.93921">
        <ele>3</ele>
        <time>2018-01-09T14:05:16Z</time>
      </trkpt>
      <trkpt lat="46.70156" lon="-1.93921">
        <ele>3</ele>
        <time>2018-01-09T14:06:16Z</time>
      </trkpt>
      <trkpt lat="46.70157" lon="-1.93922">
        <ele>3</ele>
        <time>2018-01-09T14:07:16Z</time>
      </trkpt>
      <trkpt lat="46.70158" lon="-1.93922">
        <ele>3</ele>
        <time>2018-01-09T14:08:16Z</time>
      </trkpt>
      <trkpt lat="46.70159" lon="-1.93923">
        <ele>3</ele>
        <time>2018-01-09T14:09:16Z</time>
      </trkpt>
      <trkpt lat="46.7016" lon="-1.93924">
        <ele>3</ele>
        <time>2018-01-09T14:10:16Z</time>
      </trkpt>
      <trkpt lat="46.70167" lon="-1.93924">
        <ele>3</ele>
        <time>2018-01-09T14:11:16Z</time>
      </trkpt>
      <trkpt lat="46.70177" lon="-1.93926">
        <ele>3</ele>
        <time>2018-01-09T14:12:16Z</time>
      </trkpt>
      <trkpt lat="46.70193" lon="-1.93928">
        <ele>3</ele>
        <time>2018-01-09T14:13:16Z</time>
      </trkpt>
      <trkpt lat="46.70201" lon="-1.93928">
        <ele>3</ele>
        <time>2018-01-09T14:14:16Z</time>
      </trkpt>
      <trkpt lat="46.70201" lon="-1.93927">
        <ele>3</ele>
        <time>2018-01-09T14:15:16Z</time>
      </trkpt>
      <trkpt lat="46.70214" lon="-1.93924">
        <ele>2</ele>
        <time>2018-01-09T14:16:16Z</time>
      </trkpt>
      <trkpt lat="46.70224" lon="-1.93919">
        <ele>2</ele>
        <time>2018-01-09T14:17:16Z</time>
      </trkpt>
      <trkpt lat="46.70232" lon="-1.93915">
        <ele>2</ele>
        <time>2018-01-09T14:18:16Z</time>
      </trkpt>
      <trkpt lat="46.70242" lon="-1.93906">
        <ele>2</ele>
        <time>2018-01-09T14:19:16Z</time>
      </trkpt>
      <trkpt lat="46.70242" lon="-1.93906">
        <ele>2</ele>
        <time>2018-01-09T14:20:16Z</time>
      </trkpt>
      <trkpt lat="46.70243" lon="-1.93905">
        <ele>2</ele>
        <time>2018-01-09T14:21:16Z</time>
      </trkpt>
      <trkpt lat="46.70243" lon="-1.93903">
        <ele>2</ele>
        <time>2018-01-09T14:22:16Z</time>
      </trkpt>
      <trkpt lat="46.70243" lon="-1.93902">
        <ele>2</ele>
        <time>2018-01-09T14:23:16Z</time>
      </trkpt>
      <trkpt lat="46.70244" lon="-1.939">
        <ele>2</ele>
        <time>2018-01-09T14:24:16Z</time>
      </trkpt>
      <trkpt lat="46.70244" lon="-1.93899">
        <ele>2</ele>
        <time>2018-01-09T14:25:16Z</time>
      </trkpt>
      <trkpt lat="46.70245" lon="-1.93897">
        <ele>3</ele>
        <time>2018-01-09T14:26:16Z</time>
      </trkpt>
      <trkpt lat="46.70245" lon="-1.93896">
        <ele>3</ele>
        <time>2018-01-09T14:27:16Z</time>
      </trkpt>
      <trkpt lat="46.70246" lon="-1.93894">
        <ele>3</ele>
        <time>2018-01-09T14:28:16Z</time>
      </trkpt>
      <trkpt lat="46.70246" lon="-1.93889">
        <ele>3</ele>
        <time>2018-01-09T14:29:16Z</time>
      </trkpt>
      <trkpt lat="46.70245" lon="-1.93885">
        <ele>3</ele>
        <time>2018-01-09T14:30:16Z</time>
      </trkpt>
      <trkpt lat="46.70245" lon="-1.93882">
        <ele>3</ele>
        <time>2018-01-09T14:31:16Z</time>
      </trkpt>
      <trkpt lat="46.70244" lon="-1.93878">
        <ele>3</ele>
        <time>2018-01-09T14:32:16Z</time>
      </trkpt>
      <trkpt lat="46.70244" lon="-1.93875">
        <ele>3</ele>
        <time>2018-01-09T14:33:16Z</time>
      </trkpt>
      <trkpt lat="46.70243" lon="-1.93871">
        <ele>3</ele>
        <time>2018-01-09T14:34:16Z</time>
      </trkpt>
      <trkpt lat="46.70241" lon="-1.93867">
        <ele>3</ele>
        <time>2018-01-09T14:35:16Z</time>
      </trkpt>
      <trkpt lat="46.70241" lon="-1.93864">
        <ele>3</ele>
        <time>2018-01-09T14:36:16Z</time>
      </trkpt>
      <trkpt lat="46.70238" lon="-1.93857">
        <ele>3</ele>
        <time>2018-01-09T14:37:16Z</time>
      </trkpt>
      <trkpt lat="46.70224" lon="-1.93811">
        <ele>4</ele>
        <time>2018-01-09T14:38:16Z</time>
      </trkpt>
      <trkpt lat="46.7022" lon="-1.93799">
        <ele>3</ele>
        <time>2018-01-09T14:39:16Z</time>
      </trkpt>
      <trkpt lat="46.70218" lon="-1.93792">
        <ele>3</ele>
        <time>2018-01-09T14:40:16Z</time>
      </trkpt>
      <trkpt lat="46.70216" lon="-1.93784">
        <ele>3</ele>
        <time>2018-01-09T14:41:16Z</time>
      </trkpt>
      <trkpt lat="46.70214" lon="-1.93775">
        <ele>3</ele>
        <time>2018-01-09T14:42:16Z</time>
      </trkpt>
      <trkpt lat="46.70211" lon="-1.93767">
        <ele>3</ele>
        <time>2018-01-09T14:43:16Z</time>
      </trkpt>
      <trkpt lat="46.70203" lon="-1.93733">
        <ele>3</ele>
        <time>2018-01-09T14:44:16Z</time>
      </trkpt>
      <trkpt lat="46.70194" lon="-1.93693">
        <ele>2</ele>
        <time>2018-01-09T14:45:16Z</time>
      </trkpt>
      <trkpt lat="46.70183" lon="-1.93647">
        <ele>1</ele>
        <time>2018-01-09T14:46:16Z</time>
      </trkpt>
      <trkpt lat="46.70173" lon="-1.936">
        <ele>1</ele>
        <time>2018-01-09T14:47:16Z</time>
      </trkpt>
      <trkpt lat="46.70157" lon="-1.93532">
        <ele>1</ele>
        <time>2018-01-09T14:48:16Z</time>
      </trkpt>
      <trkpt lat="46.70136" lon="-1.93442">
        <ele>1</ele>
        <time>2018-01-09T14:49:16Z</time>
      </trkpt>
      <trkpt lat="46.70134" lon="-1.93434">
        <ele>1</ele>
        <time>2018-01-09T14:50:16Z</time>
      </trkpt>
      <trkpt lat="46.70132" lon="-1.93425">
        <ele>1</ele>
        <time>2018-01-09T14:51:16Z</time>
      </trkpt>
      <trkpt lat="46.7013" lon="-1.93419">
        <ele>1</ele>
        <time>2018-01-09T14:52:16Z</time>
      </trkpt>
      <trkpt lat="46.70129" lon="-1.93416">
        <ele>1</ele>
        <time>2018-01-09T14:53:16Z</time>
      </trkpt>
      <trkpt lat="46.70128" lon="-1.93414">
        <ele>1</ele>
        <time>2018-01-09T14:54:16Z</time>
      </trkpt>
      <trkpt lat="46.70127" lon="-1.93411">
        <ele>1</ele>
        <time>2018-01-09T14:55:16Z</time>
      </trkpt>
      <trkpt lat="46.70125" lon="-1.93409">
        <ele>1</ele>
        <time>2018-01-09T14:56:16Z</time>
      </trkpt>
      <trkpt lat="46.70125" lon="-1.93409">
        <ele>1</ele>
        <time>2018-01-09T14:57:16Z</time>
      </trkpt>
      <trkpt lat="46.70124" lon="-1.93408">
        <ele>2</ele>
        <time>2018-01-09T14:58:16Z</time>
      </trkpt>
      <trkpt lat="46.70123" lon="-1.93408">
        <ele>2</ele>
        <time>2018-01-09T14:59:16Z</time>
      </trkpt>
      <trkpt lat="46.70122" lon="-1.93407">
        <ele>2</ele>
        <time>2018-01-09T15:00:16Z</time>
      </trkpt>
      <trkpt lat="46.70121" lon="-1.93407">
        <ele>2</ele>
        <time>2018-01-09T15:01:16Z</time>
      </trkpt>
      <trkpt lat="46.7012" lon="-1.93406">
        <ele>2</ele>
        <time>2018-01-09T15:02:16Z</time>
      </trkpt>
      <trkpt lat="46.7012" lon="-1.93405">
        <ele>2</ele>
        <time>2018-01-09T15:03:16Z</time>
      </trkpt>
      <trkpt lat="46.70119" lon="-1.93405">
        <ele>2</ele>
        <time>2018-01-09T15:04:16Z</time>
      </trkpt>
      <trkpt lat="46.70107" lon="-1.93404">
        <ele>2</ele>
        <time>2018-01-09T15:05:16Z</time>
      </trkpt>
      <trkpt lat="46.701" lon="-1.93405">
        <ele>2</ele>
        <time>2018-01-09T15:06:16Z</time>
      </trkpt>
      <trkpt lat="46.70092" lon="-1.93406">
        <ele>2</ele>
        <time>2018-01-09T15:07:16Z</time>
      </trkpt>
      <trkpt lat="46.70088" lon="-1.93406">
        <ele>2</ele>
        <time>2018-01-09T15:08:16Z</time>
      </trkpt>
      <trkpt lat="46.70085" lon="-1.93405">
        <ele>2</ele>
        <time>2018-01-09T15:09:16Z</time>
      </trkpt>
      <trkpt lat="46.70083" lon="-1.93405">
        <ele>2</ele>
        <time>2018-01-09T15:10:16Z</time>
      </trkpt>
      <trkpt lat="46.70062" lon="-1.93405">
        <ele>2</ele>
        <time>2018-01-09T15:11:16Z</time>
      </trkpt>
      <trkpt lat="46.70062" lon="-1.93406">
        <ele>2</ele>
        <time>2018-01-09T15:12:16Z</time>
      </trkpt>
      <trkpt lat="46.70062" lon="-1.93407">
        <ele>2</ele>
        <time>2018-01-09T15:13:16Z</time>
      </trkpt>
      <trkpt lat="46.70062" lon="-1.93408">
        <ele>2</ele>
        <time>2018-01-09T15:14:16Z</time>
      </trkpt>
      <trkpt lat="46.70062" lon="-1.93409">
        <ele>2</ele>
        <time>2018-01-09T15:15:16Z</time>
      </trkpt>
      <trkpt lat="46.70062" lon="-1.9341">
        <ele>2</ele>
        <time>2018-01-09T15:16:16Z</time>
      </trkpt>
      <trkpt lat="46.70061" lon="-1.9341">
        <ele>2</ele>
        <time>2018-01-09T15:17:16Z</time>
      </trkpt>
      <trkpt lat="46.70061" lon="-1.93411">
        <ele>2</ele>
        <time>2018-01-09T15:18:16Z</time>
      </trkpt>
      <trkpt lat="46.7006" lon="-1.93411">
        <ele>2</ele>
        <time>2018-01-09T15:19:16Z</time>
      </trkpt>
      <trkpt lat="46.7006" lon="-1.93412">
        <ele>2</ele>
        <time>2018-01-09T15:20:16Z</time>
      </trkpt>
      <trkpt lat="46.70059" lon="-1.93412">
        <ele>2</ele>
        <time>2018-01-09T15:21:16Z</time>
      </trkpt>
      <trkpt lat="46.70059" lon="-1.93413">
        <ele>2</ele>
        <time>2018-01-09T15:22:16Z</time>
      </trkpt>
      <trkpt lat="46.70058" lon="-1.93413">
        <ele>2</ele>
        <time>2018-01-09T15:23:16Z</time>
      </trkpt>
      <trkpt lat="46.70057" lon="-1.93413">
        <ele>2</ele>
        <time>2018-01-09T15:24:16Z</time>
      </trkpt>
      <trkpt lat="46.70056" lon="-1.93413">
        <ele>2</ele>
        <time>2018-01-09T15:25:16Z</time>
      </trkpt>
      <trkpt lat="46.70055" lon="-1.93413">
        <ele>2</ele>
        <time>2018-01-09T15:26:16Z</time>
      </trkpt>
      <trkpt lat="46.70055" lon="-1.93412">
        <ele>2</ele>
        <time>2018-01-09T15:27:16Z</time>
      </trkpt>
      <trkpt lat="46.70054" lon="-1.93412">
        <ele>2</ele>
        <time>2018-01-09T15:28:16Z</time>
      </trkpt>
      <trkpt lat="46.70054" lon="-1.93411">
        <ele>2</ele>
        <time>2018-01-09T15:29:16Z</time>
      </trkpt>
      <trkpt lat="46.70053" lon="-1.93411">
        <ele>2</ele>
        <time>2018-01-09T15:30:16Z</time>
      </trkpt>
      <trkpt lat="46.70053" lon="-1.9341">
        <ele>2</ele>
        <time>2018-01-09T15:31:16Z</time>
      </trkpt>
      <trkpt lat="46.70053" lon="-1.93409">
        <ele>2</ele>
        <time>2018-01-09T15:32:16Z</time>
      </trkpt>
      <trkpt lat="46.70052" lon="-1.93409">
        <ele>2</ele>
        <time>2018-01-09T15:33:16Z</time>
      </trkpt>
      <trkpt lat="46.70052" lon="-1.93408">
        <ele>2</ele>
        <time>2018-01-09T15:34:16Z</time>
      </trkpt>
      <trkpt lat="46.70052" lon="-1.93407">
        <ele>2</ele>
        <time>2018-01-09T15:35:16Z</time>
      </trkpt>
      <trkpt lat="46.70052" lon="-1.93406">
        <ele>2</ele>
        <time>2018-01-09T15:36:16Z</time>
      </trkpt>
      <trkpt lat="46.70052" lon="-1.93405">
        <ele>2</ele>
        <time>2018-01-09T15:37:16Z</time>
      </trkpt>
      <trkpt lat="46.70046" lon="-1.93402">
        <ele>2</ele>
        <time>2018-01-09T15:38:16Z</time>
      </trkpt>
      <trkpt lat="46.70043" lon="-1.93401">
        <ele>2</ele>
        <time>2018-01-09T15:39:16Z</time>
      </trkpt>
      <trkpt lat="46.70041" lon="-1.934">
        <ele>2</ele>
        <time>2018-01-09T15:40:16Z</time>
      </trkpt>
      <trkpt lat="46.70038" lon="-1.93398">
        <ele>2</ele>
        <time>2018-01-09T15:41:16Z</time>
      </trkpt>
      <trkpt lat="46.70036" lon="-1.93397">
        <ele>2</ele>
        <time>2018-01-09T15:42:16Z</time>
      </trkpt>
      <trkpt lat="46.70033" lon="-1.93394">
        <ele>2</ele>
        <time>2018-01-09T15:43:16Z</time>
      </trkpt>
      <trkpt lat="46.7003" lon="-1.93391">
        <ele>3</ele>
        <time>2018-01-09T15:44:16Z</time>
      </trkpt>
      <trkpt lat="46.70028" lon="-1.93388">
        <ele>3</ele>
        <time>2018-01-09T15:45:16Z</time>
      </trkpt>
      <trkpt lat="46.70025" lon="-1.93386">
        <ele>3</ele>
        <time>2018-01-09T15:46:16Z</time>
      </trkpt>
      <trkpt lat="46.70023" lon="-1.93384">
        <ele>3</ele>
        <time>2018-01-09T15:47:16Z</time>
      </trkpt>
      <trkpt lat="46.7002" lon="-1.93382">
        <ele>3</ele>
        <time>2018-01-09T15:48:16Z</time>
      </trkpt>
      <trkpt lat="46.70015" lon="-1.9338">
        <ele>3</ele>
        <time>2018-01-09T15:49:16Z</time>
      </trkpt>
      <trkpt lat="46.70002" lon="-1.93375">
        <ele>3</ele>
        <time>2018-01-09T15:50:16Z</time>
      </trkpt>
      <trkpt lat="46.69987" lon="-1.93369">
        <ele>3</ele>
        <time>2018-01-09T15:51:16Z</time>
      </trkpt>
      <trkpt lat="46.69982" lon="-1.93367">
        <ele>3</ele>
        <time>2018-01-09T15:52:16Z</time>
      </trkpt>
      <trkpt lat="46.69979" lon="-1.93366">
        <ele>3</ele>
        <time>2018-01-09T15:53:16Z</time>
      </trkpt>
      <trkpt lat="46.69978" lon="-1.93366">
        <ele>3</ele>
        <time>2018-01-09T15:54:16Z</time>
      </trkpt>
      <trkpt lat="46.69976" lon="-1.93367">
        <ele>4</ele>
        <time>2018-01-09T15:55:16Z</time>
      </trkpt>
      <trkpt lat="46.69973" lon="-1.93367">
        <ele>4</ele>
        <time>2018-01-09T15:56:16Z</time>
      </trkpt>
      <trkpt lat="46.69969" lon="-1.9337">
        <ele>4</ele>
        <time>2018-01-09T15:57:16Z</time>
      </trkpt>
      <trkpt lat="46.69963" lon="-1.93373">
        <ele>4</ele>
        <time>2018-01-09T15:58:16Z</time>
      </trkpt>
      <trkpt lat="46.69958" lon="-1.93375">
        <ele>4</ele>
        <time>2018-01-09T15:59:16Z</time>
      </trkpt>
      <trkpt lat="46.69953" lon="-1.93377">
        <ele>4</ele>
        <time>2018-01-09T16:00:16Z</time>
      </trkpt>
      <trkpt lat="46.69949" lon="-1.93379">
        <ele>4</ele>
        <time>2018-01-09T16:01:16Z</time>
      </trkpt>
      <trkpt lat="46.69944" lon="-1.93381">
        <ele>4</ele>
        <time>2018-01-09T16:02:16Z</time>
      </trkpt>
      <trkpt lat="46.69935" lon="-1.93382">
        <ele>4</ele>
        <time>2018-01-09T16:03:16Z</time>
      </trkpt>
      <trkpt lat="46.69925" lon="-1.93383">
        <ele>4</ele>
        <time>2018-01-09T16:04:16Z</time>
      </trkpt>
      <trkpt lat="46.69922" lon="-1.93383">
        <ele>4</ele>
        <time>2018-01-09T16:05:16Z</time>
      </trkpt>
      <trkpt lat="46.69915" lon="-1.93383">
        <ele>4</ele>
        <time>2018-01-09T16:06:16Z</time>
      </trkpt>
      <trkpt lat="46.69915" lon="-1.93383">
        <ele>4</ele>
        <time>2018-01-09T16:07:16Z</time>
      </trkpt>
      <trkpt lat="46.69915" lon="-1.93384">
        <ele>4</ele>
        <time>2018-01-09T16:08:16Z</time>
      </trkpt>
      <trkpt lat="46.69913" lon="-1.93385">
        <ele>4</ele>
        <time>2018-01-09T16:09:16Z</time>
      </trkpt>
      <trkpt lat="46.69912" lon="-1.93386">
        <ele>4</ele>
        <time>2018-01-09T16:10:16Z</time>
      </trkpt>
    </trkseg>
  </trk>
</gpx>